<?xml version="1.0" encoding="UTF-8" standalone="no" ?>
<gpx xmlns="http://www.topografix.com/GPX/1/1" xmlns:xsi="http://www.w3.org/2001/XMLSchema-instance" xsi:schemaLocation="http://www.topografix.com/GPX/1/1 http://www.topografix.com/GPX/1/1/gpx.xsd" version="1.1" creator="VisuGPX - https://www.visugpx.com">
  <metadata>
    <name>Vespérale </name>
  </metadata>
  <trk>
    <name><![CDATA[Vespérale _1]]></name>
    <trkseg>
      <trkpt lat="49.88578" lon="2.26551">
        <ele>60.4</ele>
        <time>2022-07-30T19:02:10Z</time>
      </trkpt>
      <trkpt lat="49.88578" lon="2.26549">
        <ele>60.4</ele>
        <time>2022-07-30T19:02:11Z</time>
      </trkpt>
      <trkpt lat="49.88577" lon="2.26548">
        <ele>60.4</ele>
        <time>2022-07-30T19:02:12Z</time>
      </trkpt>
      <trkpt lat="49.88577" lon="2.26547">
        <ele>60.4</ele>
        <time>2022-07-30T19:02:13Z</time>
      </trkpt>
      <trkpt lat="49.88576" lon="2.26547">
        <ele>60.4</ele>
        <time>2022-07-30T19:02:14Z</time>
      </trkpt>
      <trkpt lat="49.88576" lon="2.26545">
        <ele>60.4</ele>
        <time>2022-07-30T19:02:15Z</time>
      </trkpt>
      <trkpt lat="49.88575" lon="2.26544">
        <ele>60.4</ele>
        <time>2022-07-30T19:02:16Z</time>
      </trkpt>
      <trkpt lat="49.88575" lon="2.26543">
        <ele>60.4</ele>
        <time>2022-07-30T19:02:18Z</time>
      </trkpt>
      <trkpt lat="49.88574" lon="2.26542">
        <ele>60.4</ele>
        <time>2022-07-30T19:02:19Z</time>
      </trkpt>
      <trkpt lat="49.88573" lon="2.26539">
        <ele>60.4</ele>
        <time>2022-07-30T19:02:20Z</time>
      </trkpt>
      <trkpt lat="49.88572" lon="2.26539">
        <ele>60.4</ele>
        <time>2022-07-30T19:02:21Z</time>
      </trkpt>
      <trkpt lat="49.88571" lon="2.26537">
        <ele>60.4</ele>
        <time>2022-07-30T19:02:22Z</time>
      </trkpt>
      <trkpt lat="49.8857" lon="2.26536">
        <ele>60.4</ele>
        <time>2022-07-30T19:02:23Z</time>
      </trkpt>
      <trkpt lat="49.88567" lon="2.26533">
        <ele>60.4</ele>
        <time>2022-07-30T19:02:24Z</time>
      </trkpt>
      <trkpt lat="49.88566" lon="2.26531">
        <ele>60.4</ele>
        <time>2022-07-30T19:02:26Z</time>
      </trkpt>
      <trkpt lat="49.88565" lon="2.2653">
        <ele>60.4</ele>
        <time>2022-07-30T19:02:27Z</time>
      </trkpt>
      <trkpt lat="49.88563" lon="2.26527">
        <ele>60.4</ele>
        <time>2022-07-30T19:02:28Z</time>
      </trkpt>
      <trkpt lat="49.88562" lon="2.26526">
        <ele>60.4</ele>
        <time>2022-07-30T19:02:29Z</time>
      </trkpt>
      <trkpt lat="49.88561" lon="2.26525">
        <ele>60.5</ele>
        <time>2022-07-30T19:02:30Z</time>
      </trkpt>
      <trkpt lat="49.88561" lon="2.26524">
        <ele>60.5</ele>
        <time>2022-07-30T19:02:32Z</time>
      </trkpt>
      <trkpt lat="49.8856" lon="2.26522">
        <ele>60.5</ele>
        <time>2022-07-30T19:02:33Z</time>
      </trkpt>
      <trkpt lat="49.88559" lon="2.26521">
        <ele>60.5</ele>
        <time>2022-07-30T19:02:34Z</time>
      </trkpt>
      <trkpt lat="49.88557" lon="2.26519">
        <ele>60.5</ele>
        <time>2022-07-30T19:02:35Z</time>
      </trkpt>
      <trkpt lat="49.88556" lon="2.26517">
        <ele>60.5</ele>
        <time>2022-07-30T19:02:37Z</time>
      </trkpt>
      <trkpt lat="49.88555" lon="2.26516">
        <ele>60.5</ele>
        <time>2022-07-30T19:02:38Z</time>
      </trkpt>
      <trkpt lat="49.88552" lon="2.26514">
        <ele>60.5</ele>
        <time>2022-07-30T19:02:39Z</time>
      </trkpt>
      <trkpt lat="49.88551" lon="2.26513">
        <ele>60.5</ele>
        <time>2022-07-30T19:02:41Z</time>
      </trkpt>
      <trkpt lat="49.8855" lon="2.26512">
        <ele>60.6</ele>
        <time>2022-07-30T19:02:42Z</time>
      </trkpt>
      <trkpt lat="49.88549" lon="2.2651">
        <ele>60.6</ele>
        <time>2022-07-30T19:02:43Z</time>
      </trkpt>
      <trkpt lat="49.88548" lon="2.26508">
        <ele>60.6</ele>
        <time>2022-07-30T19:02:44Z</time>
      </trkpt>
      <trkpt lat="49.88547" lon="2.26506">
        <ele>60.6</ele>
        <time>2022-07-30T19:02:46Z</time>
      </trkpt>
      <trkpt lat="49.88547" lon="2.26504">
        <ele>60.6</ele>
        <time>2022-07-30T19:02:47Z</time>
      </trkpt>
      <trkpt lat="49.88547" lon="2.26503">
        <ele>60.6</ele>
        <time>2022-07-30T19:02:48Z</time>
      </trkpt>
      <trkpt lat="49.88546" lon="2.26502">
        <ele>60.6</ele>
        <time>2022-07-30T19:02:49Z</time>
      </trkpt>
      <trkpt lat="49.88546" lon="2.26498">
        <ele>60.7</ele>
        <time>2022-07-30T19:02:50Z</time>
      </trkpt>
      <trkpt lat="49.88545" lon="2.26497">
        <ele>60.7</ele>
        <time>2022-07-30T19:02:52Z</time>
      </trkpt>
      <trkpt lat="49.88545" lon="2.26496">
        <ele>60.7</ele>
        <time>2022-07-30T19:02:53Z</time>
      </trkpt>
      <trkpt lat="49.88544" lon="2.26494">
        <ele>60.7</ele>
        <time>2022-07-30T19:02:54Z</time>
      </trkpt>
      <trkpt lat="49.88544" lon="2.26492">
        <ele>60.7</ele>
        <time>2022-07-30T19:02:55Z</time>
      </trkpt>
      <trkpt lat="49.88544" lon="2.2649">
        <ele>60.7</ele>
        <time>2022-07-30T19:02:56Z</time>
      </trkpt>
      <trkpt lat="49.88543" lon="2.26489">
        <ele>60.7</ele>
        <time>2022-07-30T19:02:57Z</time>
      </trkpt>
      <trkpt lat="49.88543" lon="2.26488">
        <ele>60.7</ele>
        <time>2022-07-30T19:02:58Z</time>
      </trkpt>
      <trkpt lat="49.88542" lon="2.26487">
        <ele>60.7</ele>
        <time>2022-07-30T19:03:00Z</time>
      </trkpt>
      <trkpt lat="49.88542" lon="2.26486">
        <ele>60.7</ele>
        <time>2022-07-30T19:03:01Z</time>
      </trkpt>
      <trkpt lat="49.88541" lon="2.26484">
        <ele>60.7</ele>
        <time>2022-07-30T19:03:02Z</time>
      </trkpt>
      <trkpt lat="49.88541" lon="2.26483">
        <ele>60.7</ele>
        <time>2022-07-30T19:03:03Z</time>
      </trkpt>
      <trkpt lat="49.88541" lon="2.26481">
        <ele>60.7</ele>
        <time>2022-07-30T19:03:04Z</time>
      </trkpt>
      <trkpt lat="49.88541" lon="2.2648">
        <ele>60.7</ele>
        <time>2022-07-30T19:03:05Z</time>
      </trkpt>
      <trkpt lat="49.88541" lon="2.26479">
        <ele>60.7</ele>
        <time>2022-07-30T19:03:06Z</time>
      </trkpt>
      <trkpt lat="49.88541" lon="2.26477">
        <ele>60.7</ele>
        <time>2022-07-30T19:03:07Z</time>
      </trkpt>
      <trkpt lat="49.8854" lon="2.26476">
        <ele>60.7</ele>
        <time>2022-07-30T19:03:08Z</time>
      </trkpt>
      <trkpt lat="49.88539" lon="2.26474">
        <ele>60.6</ele>
        <time>2022-07-30T19:03:10Z</time>
      </trkpt>
      <trkpt lat="49.88539" lon="2.26473">
        <ele>60.6</ele>
        <time>2022-07-30T19:03:11Z</time>
      </trkpt>
      <trkpt lat="49.88539" lon="2.26471">
        <ele>60.6</ele>
        <time>2022-07-30T19:03:12Z</time>
      </trkpt>
      <trkpt lat="49.88538" lon="2.2647">
        <ele>60.6</ele>
        <time>2022-07-30T19:03:13Z</time>
      </trkpt>
      <trkpt lat="49.88537" lon="2.2647">
        <ele>60.6</ele>
        <time>2022-07-30T19:03:14Z</time>
      </trkpt>
      <trkpt lat="49.88536" lon="2.2647">
        <ele>60.6</ele>
        <time>2022-07-30T19:03:15Z</time>
      </trkpt>
      <trkpt lat="49.88536" lon="2.26468">
        <ele>60.6</ele>
        <time>2022-07-30T19:03:16Z</time>
      </trkpt>
      <trkpt lat="49.88535" lon="2.26467">
        <ele>60.6</ele>
        <time>2022-07-30T19:03:17Z</time>
      </trkpt>
      <trkpt lat="49.88534" lon="2.26464">
        <ele>60.6</ele>
        <time>2022-07-30T19:03:18Z</time>
      </trkpt>
      <trkpt lat="49.88534" lon="2.26462">
        <ele>60.6</ele>
        <time>2022-07-30T19:03:19Z</time>
      </trkpt>
      <trkpt lat="49.88534" lon="2.26461">
        <ele>60.6</ele>
        <time>2022-07-30T19:03:20Z</time>
      </trkpt>
      <trkpt lat="49.88533" lon="2.26458">
        <ele>60.5</ele>
        <time>2022-07-30T19:03:21Z</time>
      </trkpt>
      <trkpt lat="49.88533" lon="2.26456">
        <ele>60.5</ele>
        <time>2022-07-30T19:03:23Z</time>
      </trkpt>
      <trkpt lat="49.88533" lon="2.26454">
        <ele>60.5</ele>
        <time>2022-07-30T19:03:24Z</time>
      </trkpt>
      <trkpt lat="49.88532" lon="2.2645">
        <ele>60.5</ele>
        <time>2022-07-30T19:03:25Z</time>
      </trkpt>
      <trkpt lat="49.88532" lon="2.26446">
        <ele>60.5</ele>
        <time>2022-07-30T19:03:26Z</time>
      </trkpt>
      <trkpt lat="49.88532" lon="2.26445">
        <ele>60.4</ele>
        <time>2022-07-30T19:03:27Z</time>
      </trkpt>
      <trkpt lat="49.88531" lon="2.26444">
        <ele>60.4</ele>
        <time>2022-07-30T19:03:28Z</time>
      </trkpt>
      <trkpt lat="49.8853" lon="2.26442">
        <ele>60.4</ele>
        <time>2022-07-30T19:03:30Z</time>
      </trkpt>
      <trkpt lat="49.88529" lon="2.26441">
        <ele>60.4</ele>
        <time>2022-07-30T19:03:31Z</time>
      </trkpt>
      <trkpt lat="49.88528" lon="2.2644">
        <ele>60.4</ele>
        <time>2022-07-30T19:03:32Z</time>
      </trkpt>
      <trkpt lat="49.88528" lon="2.26439">
        <ele>60.4</ele>
        <time>2022-07-30T19:03:33Z</time>
      </trkpt>
      <trkpt lat="49.88527" lon="2.26437">
        <ele>60.4</ele>
        <time>2022-07-30T19:03:34Z</time>
      </trkpt>
      <trkpt lat="49.88527" lon="2.26435">
        <ele>60.4</ele>
        <time>2022-07-30T19:03:35Z</time>
      </trkpt>
      <trkpt lat="49.88526" lon="2.26434">
        <ele>60.4</ele>
        <time>2022-07-30T19:03:37Z</time>
      </trkpt>
      <trkpt lat="49.88526" lon="2.26432">
        <ele>60.7</ele>
        <time>2022-07-30T19:03:38Z</time>
      </trkpt>
      <trkpt lat="49.88526" lon="2.26431">
        <ele>60.7</ele>
        <time>2022-07-30T19:03:39Z</time>
      </trkpt>
      <trkpt lat="49.88526" lon="2.2643">
        <ele>60.7</ele>
        <time>2022-07-30T19:03:40Z</time>
      </trkpt>
      <trkpt lat="49.88525" lon="2.26429">
        <ele>60.7</ele>
        <time>2022-07-30T19:03:41Z</time>
      </trkpt>
      <trkpt lat="49.88525" lon="2.26428">
        <ele>60.7</ele>
        <time>2022-07-30T19:03:42Z</time>
      </trkpt>
      <trkpt lat="49.88525" lon="2.26427">
        <ele>60.7</ele>
        <time>2022-07-30T19:03:43Z</time>
      </trkpt>
      <trkpt lat="49.88525" lon="2.26427">
        <ele>60.7</ele>
        <time>2022-07-30T19:03:44Z</time>
      </trkpt>
      <trkpt lat="49.88525" lon="2.26426">
        <ele>60.7</ele>
        <time>2022-07-30T19:03:45Z</time>
      </trkpt>
      <trkpt lat="49.88525" lon="2.26426">
        <ele>60.7</ele>
        <time>2022-07-30T19:03:46Z</time>
      </trkpt>
      <trkpt lat="49.88525" lon="2.26426">
        <ele>60.7</ele>
        <time>2022-07-30T19:03:47Z</time>
      </trkpt>
      <trkpt lat="49.88525" lon="2.26427">
        <ele>60.7</ele>
        <time>2022-07-30T19:03:48Z</time>
      </trkpt>
      <trkpt lat="49.88525" lon="2.26427">
        <ele>60.7</ele>
        <time>2022-07-30T19:03:49Z</time>
      </trkpt>
      <trkpt lat="49.88526" lon="2.26427">
        <ele>60.7</ele>
        <time>2022-07-30T19:03:50Z</time>
      </trkpt>
      <trkpt lat="49.88526" lon="2.26427">
        <ele>60.7</ele>
        <time>2022-07-30T19:03:52Z</time>
      </trkpt>
      <trkpt lat="49.88526" lon="2.26427">
        <ele>60.7</ele>
        <time>2022-07-30T19:03:53Z</time>
      </trkpt>
      <trkpt lat="49.88525" lon="2.26427">
        <ele>60.7</ele>
        <time>2022-07-30T19:03:54Z</time>
      </trkpt>
      <trkpt lat="49.88525" lon="2.26426">
        <ele>60.7</ele>
        <time>2022-07-30T19:03:56Z</time>
      </trkpt>
      <trkpt lat="49.88525" lon="2.26425">
        <ele>60.7</ele>
        <time>2022-07-30T19:03:57Z</time>
      </trkpt>
      <trkpt lat="49.88524" lon="2.26424">
        <ele>60.7</ele>
        <time>2022-07-30T19:03:58Z</time>
      </trkpt>
      <trkpt lat="49.88523" lon="2.26423">
        <ele>60.7</ele>
        <time>2022-07-30T19:04:00Z</time>
      </trkpt>
      <trkpt lat="49.88522" lon="2.26423">
        <ele>60.7</ele>
        <time>2022-07-30T19:04:01Z</time>
      </trkpt>
      <trkpt lat="49.8852" lon="2.26424">
        <ele>60.7</ele>
        <time>2022-07-30T19:04:02Z</time>
      </trkpt>
      <trkpt lat="49.88519" lon="2.26424">
        <ele>60.7</ele>
        <time>2022-07-30T19:04:04Z</time>
      </trkpt>
      <trkpt lat="49.88518" lon="2.26424">
        <ele>61.1</ele>
        <time>2022-07-30T19:04:05Z</time>
      </trkpt>
      <trkpt lat="49.88517" lon="2.26425">
        <ele>61.1</ele>
        <time>2022-07-30T19:04:07Z</time>
      </trkpt>
      <trkpt lat="49.88516" lon="2.26425">
        <ele>61.1</ele>
        <time>2022-07-30T19:04:08Z</time>
      </trkpt>
      <trkpt lat="49.88515" lon="2.26425">
        <ele>61.1</ele>
        <time>2022-07-30T19:04:09Z</time>
      </trkpt>
      <trkpt lat="49.88514" lon="2.26426">
        <ele>61.1</ele>
        <time>2022-07-30T19:04:10Z</time>
      </trkpt>
      <trkpt lat="49.88514" lon="2.26426">
        <ele>61.1</ele>
        <time>2022-07-30T19:04:11Z</time>
      </trkpt>
      <trkpt lat="49.88513" lon="2.26426">
        <ele>62.4</ele>
        <time>2022-07-30T19:04:13Z</time>
      </trkpt>
      <trkpt lat="49.88512" lon="2.26425">
        <ele>62.4</ele>
        <time>2022-07-30T19:04:14Z</time>
      </trkpt>
      <trkpt lat="49.88512" lon="2.26425">
        <ele>62.4</ele>
        <time>2022-07-30T19:04:15Z</time>
      </trkpt>
      <trkpt lat="49.88511" lon="2.26425">
        <ele>62.4</ele>
        <time>2022-07-30T19:04:16Z</time>
      </trkpt>
      <trkpt lat="49.88511" lon="2.26425">
        <ele>62.4</ele>
        <time>2022-07-30T19:04:17Z</time>
      </trkpt>
      <trkpt lat="49.8851" lon="2.26425">
        <ele>62.4</ele>
        <time>2022-07-30T19:04:18Z</time>
      </trkpt>
      <trkpt lat="49.8851" lon="2.26424">
        <ele>62.4</ele>
        <time>2022-07-30T19:04:19Z</time>
      </trkpt>
      <trkpt lat="49.88509" lon="2.26424">
        <ele>62.4</ele>
        <time>2022-07-30T19:04:20Z</time>
      </trkpt>
      <trkpt lat="49.88509" lon="2.26424">
        <ele>62.4</ele>
        <time>2022-07-30T19:04:22Z</time>
      </trkpt>
      <trkpt lat="49.88508" lon="2.26424">
        <ele>62.4</ele>
        <time>2022-07-30T19:04:23Z</time>
      </trkpt>
      <trkpt lat="49.88508" lon="2.26424">
        <ele>62.4</ele>
        <time>2022-07-30T19:04:24Z</time>
      </trkpt>
      <trkpt lat="49.88508" lon="2.26423">
        <ele>62.4</ele>
        <time>2022-07-30T19:04:26Z</time>
      </trkpt>
      <trkpt lat="49.88508" lon="2.26423">
        <ele>62.4</ele>
        <time>2022-07-30T19:04:27Z</time>
      </trkpt>
      <trkpt lat="49.88507" lon="2.26423">
        <ele>62.5</ele>
        <time>2022-07-30T19:04:28Z</time>
      </trkpt>
      <trkpt lat="49.88507" lon="2.26422">
        <ele>62.5</ele>
        <time>2022-07-30T19:04:30Z</time>
      </trkpt>
      <trkpt lat="49.88507" lon="2.26422">
        <ele>62.5</ele>
        <time>2022-07-30T19:04:31Z</time>
      </trkpt>
      <trkpt lat="49.88507" lon="2.26423">
        <ele>62.5</ele>
        <time>2022-07-30T19:04:32Z</time>
      </trkpt>
      <trkpt lat="49.88507" lon="2.26423">
        <ele>62.5</ele>
        <time>2022-07-30T19:04:34Z</time>
      </trkpt>
      <trkpt lat="49.88507" lon="2.26424">
        <ele>62.5</ele>
        <time>2022-07-30T19:04:35Z</time>
      </trkpt>
      <trkpt lat="49.88507" lon="2.26424">
        <ele>62.5</ele>
        <time>2022-07-30T19:04:36Z</time>
      </trkpt>
      <trkpt lat="49.88506" lon="2.26425">
        <ele>62.5</ele>
        <time>2022-07-30T19:04:37Z</time>
      </trkpt>
      <trkpt lat="49.88506" lon="2.26425">
        <ele>62.5</ele>
        <time>2022-07-30T19:04:38Z</time>
      </trkpt>
      <trkpt lat="49.88506" lon="2.26426">
        <ele>62.5</ele>
        <time>2022-07-30T19:04:39Z</time>
      </trkpt>
      <trkpt lat="49.88506" lon="2.26426">
        <ele>62.5</ele>
        <time>2022-07-30T19:04:40Z</time>
      </trkpt>
      <trkpt lat="49.88506" lon="2.26427">
        <ele>62.5</ele>
        <time>2022-07-30T19:04:41Z</time>
      </trkpt>
      <trkpt lat="49.88506" lon="2.26427">
        <ele>62.5</ele>
        <time>2022-07-30T19:04:43Z</time>
      </trkpt>
      <trkpt lat="49.88506" lon="2.26428">
        <ele>62.5</ele>
        <time>2022-07-30T19:04:44Z</time>
      </trkpt>
      <trkpt lat="49.88505" lon="2.2643">
        <ele>62.5</ele>
        <time>2022-07-30T19:04:45Z</time>
      </trkpt>
      <trkpt lat="49.88503" lon="2.26431">
        <ele>62.5</ele>
        <time>2022-07-30T19:04:46Z</time>
      </trkpt>
      <trkpt lat="49.88502" lon="2.26432">
        <ele>62.5</ele>
        <time>2022-07-30T19:04:47Z</time>
      </trkpt>
      <trkpt lat="49.88501" lon="2.26433">
        <ele>62.5</ele>
        <time>2022-07-30T19:04:48Z</time>
      </trkpt>
      <trkpt lat="49.885" lon="2.26434">
        <ele>62.5</ele>
        <time>2022-07-30T19:04:49Z</time>
      </trkpt>
      <trkpt lat="49.88499" lon="2.26435">
        <ele>62.5</ele>
        <time>2022-07-30T19:04:50Z</time>
      </trkpt>
      <trkpt lat="49.88498" lon="2.26436">
        <ele>62.5</ele>
        <time>2022-07-30T19:04:52Z</time>
      </trkpt>
      <trkpt lat="49.88498" lon="2.26437">
        <ele>62.5</ele>
        <time>2022-07-30T19:04:53Z</time>
      </trkpt>
      <trkpt lat="49.88497" lon="2.26438">
        <ele>62.5</ele>
        <time>2022-07-30T19:04:54Z</time>
      </trkpt>
      <trkpt lat="49.88496" lon="2.26439">
        <ele>62.5</ele>
        <time>2022-07-30T19:04:55Z</time>
      </trkpt>
      <trkpt lat="49.88495" lon="2.26441">
        <ele>62.5</ele>
        <time>2022-07-30T19:04:56Z</time>
      </trkpt>
      <trkpt lat="49.88495" lon="2.26442">
        <ele>62.5</ele>
        <time>2022-07-30T19:04:57Z</time>
      </trkpt>
      <trkpt lat="49.88494" lon="2.26444">
        <ele>62.7</ele>
        <time>2022-07-30T19:04:58Z</time>
      </trkpt>
      <trkpt lat="49.88493" lon="2.26446">
        <ele>62.7</ele>
        <time>2022-07-30T19:04:59Z</time>
      </trkpt>
      <trkpt lat="49.88493" lon="2.26447">
        <ele>62.7</ele>
        <time>2022-07-30T19:05:01Z</time>
      </trkpt>
      <trkpt lat="49.88492" lon="2.26449">
        <ele>62.7</ele>
        <time>2022-07-30T19:05:02Z</time>
      </trkpt>
      <trkpt lat="49.88491" lon="2.2645">
        <ele>62.7</ele>
        <time>2022-07-30T19:05:03Z</time>
      </trkpt>
      <trkpt lat="49.88491" lon="2.26453">
        <ele>62.7</ele>
        <time>2022-07-30T19:05:04Z</time>
      </trkpt>
      <trkpt lat="49.8849" lon="2.26455">
        <ele>62.7</ele>
        <time>2022-07-30T19:05:06Z</time>
      </trkpt>
      <trkpt lat="49.88489" lon="2.26457">
        <ele>62.8</ele>
        <time>2022-07-30T19:05:07Z</time>
      </trkpt>
      <trkpt lat="49.88489" lon="2.26458">
        <ele>62.7</ele>
        <time>2022-07-30T19:05:08Z</time>
      </trkpt>
      <trkpt lat="49.88487" lon="2.26459">
        <ele>62.7</ele>
        <time>2022-07-30T19:05:09Z</time>
      </trkpt>
      <trkpt lat="49.88486" lon="2.2646">
        <ele>62.7</ele>
        <time>2022-07-30T19:05:11Z</time>
      </trkpt>
      <trkpt lat="49.88485" lon="2.2646">
        <ele>62.7</ele>
        <time>2022-07-30T19:05:12Z</time>
      </trkpt>
      <trkpt lat="49.88484" lon="2.2646">
        <ele>62.6</ele>
        <time>2022-07-30T19:05:13Z</time>
      </trkpt>
      <trkpt lat="49.88483" lon="2.26461">
        <ele>62.6</ele>
        <time>2022-07-30T19:05:14Z</time>
      </trkpt>
      <trkpt lat="49.88482" lon="2.26461">
        <ele>62.6</ele>
        <time>2022-07-30T19:05:15Z</time>
      </trkpt>
      <trkpt lat="49.88482" lon="2.26461">
        <ele>62.6</ele>
        <time>2022-07-30T19:05:16Z</time>
      </trkpt>
      <trkpt lat="49.8848" lon="2.26461">
        <ele>62.5</ele>
        <time>2022-07-30T19:05:17Z</time>
      </trkpt>
      <trkpt lat="49.88479" lon="2.26462">
        <ele>62.5</ele>
        <time>2022-07-30T19:05:19Z</time>
      </trkpt>
      <trkpt lat="49.88478" lon="2.26462">
        <ele>62.5</ele>
        <time>2022-07-30T19:05:20Z</time>
      </trkpt>
      <trkpt lat="49.88477" lon="2.26462">
        <ele>62.4</ele>
        <time>2022-07-30T19:05:21Z</time>
      </trkpt>
      <trkpt lat="49.88476" lon="2.26463">
        <ele>62.4</ele>
        <time>2022-07-30T19:05:22Z</time>
      </trkpt>
      <trkpt lat="49.88475" lon="2.26463">
        <ele>62.4</ele>
        <time>2022-07-30T19:05:23Z</time>
      </trkpt>
      <trkpt lat="49.88475" lon="2.26463">
        <ele>62.4</ele>
        <time>2022-07-30T19:05:24Z</time>
      </trkpt>
      <trkpt lat="49.88473" lon="2.26464">
        <ele>62.3</ele>
        <time>2022-07-30T19:05:25Z</time>
      </trkpt>
      <trkpt lat="49.88472" lon="2.26464">
        <ele>62.4</ele>
        <time>2022-07-30T19:05:27Z</time>
      </trkpt>
      <trkpt lat="49.88471" lon="2.26464">
        <ele>62.4</ele>
        <time>2022-07-30T19:05:28Z</time>
      </trkpt>
      <trkpt lat="49.88469" lon="2.26465">
        <ele>62.4</ele>
        <time>2022-07-30T19:05:29Z</time>
      </trkpt>
      <trkpt lat="49.88468" lon="2.26466">
        <ele>62.4</ele>
        <time>2022-07-30T19:05:30Z</time>
      </trkpt>
      <trkpt lat="49.88467" lon="2.26467">
        <ele>62.5</ele>
        <time>2022-07-30T19:05:31Z</time>
      </trkpt>
      <trkpt lat="49.88466" lon="2.26467">
        <ele>62.5</ele>
        <time>2022-07-30T19:05:32Z</time>
      </trkpt>
      <trkpt lat="49.88465" lon="2.26468">
        <ele>62.5</ele>
        <time>2022-07-30T19:05:34Z</time>
      </trkpt>
      <trkpt lat="49.88464" lon="2.26469">
        <ele>62.5</ele>
        <time>2022-07-30T19:05:35Z</time>
      </trkpt>
      <trkpt lat="49.88463" lon="2.2647">
        <ele>62.5</ele>
        <time>2022-07-30T19:05:36Z</time>
      </trkpt>
      <trkpt lat="49.88462" lon="2.26471">
        <ele>62.6</ele>
        <time>2022-07-30T19:05:37Z</time>
      </trkpt>
      <trkpt lat="49.88461" lon="2.26471">
        <ele>62.6</ele>
        <time>2022-07-30T19:05:38Z</time>
      </trkpt>
      <trkpt lat="49.8846" lon="2.26472">
        <ele>62.6</ele>
        <time>2022-07-30T19:05:39Z</time>
      </trkpt>
      <trkpt lat="49.8846" lon="2.26472">
        <ele>62.6</ele>
        <time>2022-07-30T19:05:40Z</time>
      </trkpt>
      <trkpt lat="49.88457" lon="2.26473">
        <ele>62.7</ele>
        <time>2022-07-30T19:05:41Z</time>
      </trkpt>
      <trkpt lat="49.88457" lon="2.26473">
        <ele>62.7</ele>
        <time>2022-07-30T19:05:43Z</time>
      </trkpt>
      <trkpt lat="49.88456" lon="2.26474">
        <ele>62.7</ele>
        <time>2022-07-30T19:05:44Z</time>
      </trkpt>
      <trkpt lat="49.88455" lon="2.26474">
        <ele>62.7</ele>
        <time>2022-07-30T19:05:45Z</time>
      </trkpt>
      <trkpt lat="49.88455" lon="2.26475">
        <ele>62.7</ele>
        <time>2022-07-30T19:05:46Z</time>
      </trkpt>
      <trkpt lat="49.88454" lon="2.26475">
        <ele>62.7</ele>
        <time>2022-07-30T19:05:47Z</time>
      </trkpt>
      <trkpt lat="49.88452" lon="2.26475">
        <ele>62.8</ele>
        <time>2022-07-30T19:05:49Z</time>
      </trkpt>
      <trkpt lat="49.88451" lon="2.26475">
        <ele>62.8</ele>
        <time>2022-07-30T19:05:50Z</time>
      </trkpt>
      <trkpt lat="49.8845" lon="2.26476">
        <ele>62.8</ele>
        <time>2022-07-30T19:05:51Z</time>
      </trkpt>
      <trkpt lat="49.88449" lon="2.26476">
        <ele>62.9</ele>
        <time>2022-07-30T19:05:52Z</time>
      </trkpt>
      <trkpt lat="49.88448" lon="2.26476">
        <ele>62.9</ele>
        <time>2022-07-30T19:05:53Z</time>
      </trkpt>
      <trkpt lat="49.88447" lon="2.26477">
        <ele>62.9</ele>
        <time>2022-07-30T19:05:55Z</time>
      </trkpt>
      <trkpt lat="49.88446" lon="2.26477">
        <ele>62.9</ele>
        <time>2022-07-30T19:05:56Z</time>
      </trkpt>
      <trkpt lat="49.88444" lon="2.26478">
        <ele>63</ele>
        <time>2022-07-30T19:05:57Z</time>
      </trkpt>
      <trkpt lat="49.88444" lon="2.26478">
        <ele>63</ele>
        <time>2022-07-30T19:05:58Z</time>
      </trkpt>
      <trkpt lat="49.88443" lon="2.26478">
        <ele>63</ele>
        <time>2022-07-30T19:05:59Z</time>
      </trkpt>
      <trkpt lat="49.88442" lon="2.26478">
        <ele>63</ele>
        <time>2022-07-30T19:06:00Z</time>
      </trkpt>
      <trkpt lat="49.88441" lon="2.26479">
        <ele>63</ele>
        <time>2022-07-30T19:06:01Z</time>
      </trkpt>
      <trkpt lat="49.8844" lon="2.26479">
        <ele>63.1</ele>
        <time>2022-07-30T19:06:03Z</time>
      </trkpt>
      <trkpt lat="49.8844" lon="2.26479">
        <ele>63.1</ele>
        <time>2022-07-30T19:06:04Z</time>
      </trkpt>
      <trkpt lat="49.88439" lon="2.2648">
        <ele>63.1</ele>
        <time>2022-07-30T19:06:05Z</time>
      </trkpt>
      <trkpt lat="49.88438" lon="2.2648">
        <ele>63.1</ele>
        <time>2022-07-30T19:06:06Z</time>
      </trkpt>
      <trkpt lat="49.88437" lon="2.2648">
        <ele>63.1</ele>
        <time>2022-07-30T19:06:07Z</time>
      </trkpt>
      <trkpt lat="49.88436" lon="2.26481">
        <ele>63.2</ele>
        <time>2022-07-30T19:06:09Z</time>
      </trkpt>
      <trkpt lat="49.88435" lon="2.26481">
        <ele>63.2</ele>
        <time>2022-07-30T19:06:10Z</time>
      </trkpt>
      <trkpt lat="49.88434" lon="2.26482">
        <ele>63.2</ele>
        <time>2022-07-30T19:06:11Z</time>
      </trkpt>
      <trkpt lat="49.88433" lon="2.26482">
        <ele>63.2</ele>
        <time>2022-07-30T19:06:12Z</time>
      </trkpt>
      <trkpt lat="49.88432" lon="2.26482">
        <ele>63.3</ele>
        <time>2022-07-30T19:06:13Z</time>
      </trkpt>
      <trkpt lat="49.88431" lon="2.26483">
        <ele>63.3</ele>
        <time>2022-07-30T19:06:14Z</time>
      </trkpt>
      <trkpt lat="49.8843" lon="2.26483">
        <ele>63.3</ele>
        <time>2022-07-30T19:06:16Z</time>
      </trkpt>
      <trkpt lat="49.88429" lon="2.26484">
        <ele>63.4</ele>
        <time>2022-07-30T19:06:17Z</time>
      </trkpt>
      <trkpt lat="49.88428" lon="2.26484">
        <ele>63.4</ele>
        <time>2022-07-30T19:06:18Z</time>
      </trkpt>
      <trkpt lat="49.88427" lon="2.26485">
        <ele>63.4</ele>
        <time>2022-07-30T19:06:19Z</time>
      </trkpt>
      <trkpt lat="49.88426" lon="2.26485">
        <ele>63.4</ele>
        <time>2022-07-30T19:06:20Z</time>
      </trkpt>
      <trkpt lat="49.88425" lon="2.26486">
        <ele>63.5</ele>
        <time>2022-07-30T19:06:21Z</time>
      </trkpt>
      <trkpt lat="49.88423" lon="2.26486">
        <ele>63.5</ele>
        <time>2022-07-30T19:06:22Z</time>
      </trkpt>
      <trkpt lat="49.88422" lon="2.26486">
        <ele>63.5</ele>
        <time>2022-07-30T19:06:24Z</time>
      </trkpt>
      <trkpt lat="49.88422" lon="2.26486">
        <ele>63.5</ele>
        <time>2022-07-30T19:06:25Z</time>
      </trkpt>
      <trkpt lat="49.88421" lon="2.26486">
        <ele>63.6</ele>
        <time>2022-07-30T19:06:27Z</time>
      </trkpt>
      <trkpt lat="49.88419" lon="2.26486">
        <ele>63.6</ele>
        <time>2022-07-30T19:06:28Z</time>
      </trkpt>
      <trkpt lat="49.88419" lon="2.26486">
        <ele>63.6</ele>
        <time>2022-07-30T19:06:29Z</time>
      </trkpt>
      <trkpt lat="49.88418" lon="2.26487">
        <ele>63.6</ele>
        <time>2022-07-30T19:06:30Z</time>
      </trkpt>
      <trkpt lat="49.88418" lon="2.26488">
        <ele>63.6</ele>
        <time>2022-07-30T19:06:31Z</time>
      </trkpt>
      <trkpt lat="49.88418" lon="2.26488">
        <ele>63.6</ele>
        <time>2022-07-30T19:06:32Z</time>
      </trkpt>
      <trkpt lat="49.88418" lon="2.26488">
        <ele>63.6</ele>
        <time>2022-07-30T19:06:33Z</time>
      </trkpt>
      <trkpt lat="49.88418" lon="2.26488">
        <ele>63.7</ele>
        <time>2022-07-30T19:06:34Z</time>
      </trkpt>
      <trkpt lat="49.88418" lon="2.26488">
        <ele>63.7</ele>
        <time>2022-07-30T19:06:35Z</time>
      </trkpt>
      <trkpt lat="49.88418" lon="2.26488">
        <ele>63.7</ele>
        <time>2022-07-30T19:06:36Z</time>
      </trkpt>
      <trkpt lat="49.88418" lon="2.26488">
        <ele>63.7</ele>
        <time>2022-07-30T19:06:37Z</time>
      </trkpt>
      <trkpt lat="49.88418" lon="2.26488">
        <ele>63.7</ele>
        <time>2022-07-30T19:06:38Z</time>
      </trkpt>
      <trkpt lat="49.88418" lon="2.26488">
        <ele>63.7</ele>
        <time>2022-07-30T19:06:39Z</time>
      </trkpt>
      <trkpt lat="49.88418" lon="2.26488">
        <ele>63.7</ele>
        <time>2022-07-30T19:06:40Z</time>
      </trkpt>
      <trkpt lat="49.88418" lon="2.26488">
        <ele>63.7</ele>
        <time>2022-07-30T19:06:41Z</time>
      </trkpt>
      <trkpt lat="49.88418" lon="2.26488">
        <ele>63.7</ele>
        <time>2022-07-30T19:06:42Z</time>
      </trkpt>
      <trkpt lat="49.88418" lon="2.26487">
        <ele>63.7</ele>
        <time>2022-07-30T19:06:43Z</time>
      </trkpt>
      <trkpt lat="49.88418" lon="2.26487">
        <ele>63.7</ele>
        <time>2022-07-30T19:06:44Z</time>
      </trkpt>
      <trkpt lat="49.88418" lon="2.26487">
        <ele>63.7</ele>
        <time>2022-07-30T19:06:45Z</time>
      </trkpt>
      <trkpt lat="49.88418" lon="2.26487">
        <ele>63.7</ele>
        <time>2022-07-30T19:06:46Z</time>
      </trkpt>
      <trkpt lat="49.88418" lon="2.26487">
        <ele>63.7</ele>
        <time>2022-07-30T19:06:47Z</time>
      </trkpt>
      <trkpt lat="49.88419" lon="2.26487">
        <ele>63.7</ele>
        <time>2022-07-30T19:06:48Z</time>
      </trkpt>
      <trkpt lat="49.88419" lon="2.26487">
        <ele>63.7</ele>
        <time>2022-07-30T19:06:49Z</time>
      </trkpt>
      <trkpt lat="49.88419" lon="2.26487">
        <ele>63.7</ele>
        <time>2022-07-30T19:06:50Z</time>
      </trkpt>
      <trkpt lat="49.88419" lon="2.26487">
        <ele>63.7</ele>
        <time>2022-07-30T19:06:51Z</time>
      </trkpt>
      <trkpt lat="49.88419" lon="2.26487">
        <ele>63.7</ele>
        <time>2022-07-30T19:06:52Z</time>
      </trkpt>
      <trkpt lat="49.88419" lon="2.26487">
        <ele>63.7</ele>
        <time>2022-07-30T19:06:53Z</time>
      </trkpt>
      <trkpt lat="49.88419" lon="2.26487">
        <ele>63.7</ele>
        <time>2022-07-30T19:06:54Z</time>
      </trkpt>
      <trkpt lat="49.88419" lon="2.26487">
        <ele>63.7</ele>
        <time>2022-07-30T19:06:55Z</time>
      </trkpt>
      <trkpt lat="49.88419" lon="2.26487">
        <ele>63.7</ele>
        <time>2022-07-30T19:06:56Z</time>
      </trkpt>
      <trkpt lat="49.88419" lon="2.26487">
        <ele>63.7</ele>
        <time>2022-07-30T19:06:57Z</time>
      </trkpt>
      <trkpt lat="49.88419" lon="2.26487">
        <ele>63.7</ele>
        <time>2022-07-30T19:06:58Z</time>
      </trkpt>
      <trkpt lat="49.88419" lon="2.26487">
        <ele>63.7</ele>
        <time>2022-07-30T19:06:59Z</time>
      </trkpt>
      <trkpt lat="49.88419" lon="2.26487">
        <ele>63.7</ele>
        <time>2022-07-30T19:07:00Z</time>
      </trkpt>
      <trkpt lat="49.88419" lon="2.26487">
        <ele>63.7</ele>
        <time>2022-07-30T19:07:01Z</time>
      </trkpt>
      <trkpt lat="49.88419" lon="2.26487">
        <ele>63.7</ele>
        <time>2022-07-30T19:07:02Z</time>
      </trkpt>
      <trkpt lat="49.88419" lon="2.26487">
        <ele>63.7</ele>
        <time>2022-07-30T19:07:03Z</time>
      </trkpt>
      <trkpt lat="49.88419" lon="2.26487">
        <ele>63.7</ele>
        <time>2022-07-30T19:07:04Z</time>
      </trkpt>
      <trkpt lat="49.8842" lon="2.26487">
        <ele>63.7</ele>
        <time>2022-07-30T19:07:05Z</time>
      </trkpt>
      <trkpt lat="49.8842" lon="2.26487">
        <ele>63.7</ele>
        <time>2022-07-30T19:07:06Z</time>
      </trkpt>
      <trkpt lat="49.8842" lon="2.26487">
        <ele>63.7</ele>
        <time>2022-07-30T19:07:07Z</time>
      </trkpt>
      <trkpt lat="49.8842" lon="2.26487">
        <ele>63.7</ele>
        <time>2022-07-30T19:07:08Z</time>
      </trkpt>
      <trkpt lat="49.8842" lon="2.26487">
        <ele>63.7</ele>
        <time>2022-07-30T19:07:09Z</time>
      </trkpt>
      <trkpt lat="49.8842" lon="2.26487">
        <ele>63.7</ele>
        <time>2022-07-30T19:07:10Z</time>
      </trkpt>
      <trkpt lat="49.8842" lon="2.26487">
        <ele>63.7</ele>
        <time>2022-07-30T19:07:11Z</time>
      </trkpt>
      <trkpt lat="49.8842" lon="2.26487">
        <ele>63.7</ele>
        <time>2022-07-30T19:07:12Z</time>
      </trkpt>
      <trkpt lat="49.8842" lon="2.26487">
        <ele>63.7</ele>
        <time>2022-07-30T19:07:13Z</time>
      </trkpt>
      <trkpt lat="49.8842" lon="2.26487">
        <ele>63.7</ele>
        <time>2022-07-30T19:07:14Z</time>
      </trkpt>
      <trkpt lat="49.8842" lon="2.26487">
        <ele>63.7</ele>
        <time>2022-07-30T19:07:15Z</time>
      </trkpt>
      <trkpt lat="49.8842" lon="2.26487">
        <ele>63.7</ele>
        <time>2022-07-30T19:07:16Z</time>
      </trkpt>
      <trkpt lat="49.8842" lon="2.26487">
        <ele>63.7</ele>
        <time>2022-07-30T19:07:17Z</time>
      </trkpt>
      <trkpt lat="49.8842" lon="2.26487">
        <ele>63.7</ele>
        <time>2022-07-30T19:07:18Z</time>
      </trkpt>
      <trkpt lat="49.8842" lon="2.26487">
        <ele>63.7</ele>
        <time>2022-07-30T19:07:19Z</time>
      </trkpt>
      <trkpt lat="49.8842" lon="2.26486">
        <ele>63.7</ele>
        <time>2022-07-30T19:07:20Z</time>
      </trkpt>
      <trkpt lat="49.8842" lon="2.26486">
        <ele>63.7</ele>
        <time>2022-07-30T19:07:21Z</time>
      </trkpt>
      <trkpt lat="49.88421" lon="2.26486">
        <ele>63.7</ele>
        <time>2022-07-30T19:07:22Z</time>
      </trkpt>
      <trkpt lat="49.88421" lon="2.26486">
        <ele>63.7</ele>
        <time>2022-07-30T19:07:23Z</time>
      </trkpt>
      <trkpt lat="49.88421" lon="2.26486">
        <ele>63.7</ele>
        <time>2022-07-30T19:07:24Z</time>
      </trkpt>
      <trkpt lat="49.88421" lon="2.26486">
        <ele>63.7</ele>
        <time>2022-07-30T19:07:25Z</time>
      </trkpt>
      <trkpt lat="49.88421" lon="2.26486">
        <ele>63.7</ele>
        <time>2022-07-30T19:07:26Z</time>
      </trkpt>
      <trkpt lat="49.88421" lon="2.26486">
        <ele>63.7</ele>
        <time>2022-07-30T19:07:27Z</time>
      </trkpt>
      <trkpt lat="49.88421" lon="2.26486">
        <ele>63.7</ele>
        <time>2022-07-30T19:07:28Z</time>
      </trkpt>
      <trkpt lat="49.88421" lon="2.26486">
        <ele>63.7</ele>
        <time>2022-07-30T19:07:29Z</time>
      </trkpt>
      <trkpt lat="49.88421" lon="2.26486">
        <ele>63.7</ele>
        <time>2022-07-30T19:07:30Z</time>
      </trkpt>
      <trkpt lat="49.88421" lon="2.26486">
        <ele>63.7</ele>
        <time>2022-07-30T19:07:31Z</time>
      </trkpt>
      <trkpt lat="49.88421" lon="2.26486">
        <ele>63.8</ele>
        <time>2022-07-30T19:07:32Z</time>
      </trkpt>
      <trkpt lat="49.88421" lon="2.26486">
        <ele>63.8</ele>
        <time>2022-07-30T19:07:33Z</time>
      </trkpt>
      <trkpt lat="49.88421" lon="2.26486">
        <ele>63.8</ele>
        <time>2022-07-30T19:07:34Z</time>
      </trkpt>
      <trkpt lat="49.88421" lon="2.26486">
        <ele>63.8</ele>
        <time>2022-07-30T19:07:35Z</time>
      </trkpt>
      <trkpt lat="49.88421" lon="2.26486">
        <ele>63.8</ele>
        <time>2022-07-30T19:07:36Z</time>
      </trkpt>
      <trkpt lat="49.88421" lon="2.26486">
        <ele>63.8</ele>
        <time>2022-07-30T19:07:37Z</time>
      </trkpt>
      <trkpt lat="49.88421" lon="2.26486">
        <ele>63.8</ele>
        <time>2022-07-30T19:07:38Z</time>
      </trkpt>
      <trkpt lat="49.88421" lon="2.26486">
        <ele>63.8</ele>
        <time>2022-07-30T19:07:39Z</time>
      </trkpt>
      <trkpt lat="49.88422" lon="2.26486">
        <ele>63.8</ele>
        <time>2022-07-30T19:07:40Z</time>
      </trkpt>
      <trkpt lat="49.88422" lon="2.26486">
        <ele>63.8</ele>
        <time>2022-07-30T19:07:41Z</time>
      </trkpt>
      <trkpt lat="49.88422" lon="2.26486">
        <ele>63.8</ele>
        <time>2022-07-30T19:07:42Z</time>
      </trkpt>
      <trkpt lat="49.88421" lon="2.26485">
        <ele>63.8</ele>
        <time>2022-07-30T19:07:43Z</time>
      </trkpt>
      <trkpt lat="49.8842" lon="2.26485">
        <ele>63.8</ele>
        <time>2022-07-30T19:07:44Z</time>
      </trkpt>
      <trkpt lat="49.8842" lon="2.26485">
        <ele>63.8</ele>
        <time>2022-07-30T19:07:45Z</time>
      </trkpt>
      <trkpt lat="49.8842" lon="2.26485">
        <ele>63.8</ele>
        <time>2022-07-30T19:07:46Z</time>
      </trkpt>
      <trkpt lat="49.8842" lon="2.26485">
        <ele>63.8</ele>
        <time>2022-07-30T19:07:47Z</time>
      </trkpt>
      <trkpt lat="49.8842" lon="2.26486">
        <ele>63.9</ele>
        <time>2022-07-30T19:07:48Z</time>
      </trkpt>
      <trkpt lat="49.8842" lon="2.26486">
        <ele>63.9</ele>
        <time>2022-07-30T19:07:49Z</time>
      </trkpt>
      <trkpt lat="49.8842" lon="2.26486">
        <ele>63.9</ele>
        <time>2022-07-30T19:07:50Z</time>
      </trkpt>
      <trkpt lat="49.8842" lon="2.26486">
        <ele>63.9</ele>
        <time>2022-07-30T19:07:51Z</time>
      </trkpt>
      <trkpt lat="49.8842" lon="2.26486">
        <ele>63.9</ele>
        <time>2022-07-30T19:07:52Z</time>
      </trkpt>
      <trkpt lat="49.8842" lon="2.26485">
        <ele>63.9</ele>
        <time>2022-07-30T19:07:54Z</time>
      </trkpt>
      <trkpt lat="49.8842" lon="2.26485">
        <ele>63.9</ele>
        <time>2022-07-30T19:07:55Z</time>
      </trkpt>
      <trkpt lat="49.8842" lon="2.26485">
        <ele>63.9</ele>
        <time>2022-07-30T19:07:56Z</time>
      </trkpt>
      <trkpt lat="49.8842" lon="2.26485">
        <ele>63.9</ele>
        <time>2022-07-30T19:07:57Z</time>
      </trkpt>
      <trkpt lat="49.8842" lon="2.26484">
        <ele>63.9</ele>
        <time>2022-07-30T19:07:59Z</time>
      </trkpt>
      <trkpt lat="49.8842" lon="2.26484">
        <ele>63.9</ele>
        <time>2022-07-30T19:08:00Z</time>
      </trkpt>
      <trkpt lat="49.8842" lon="2.26485">
        <ele>63.9</ele>
        <time>2022-07-30T19:08:01Z</time>
      </trkpt>
      <trkpt lat="49.8842" lon="2.26484">
        <ele>63.9</ele>
        <time>2022-07-30T19:08:02Z</time>
      </trkpt>
      <trkpt lat="49.8842" lon="2.26484">
        <ele>63.9</ele>
        <time>2022-07-30T19:08:03Z</time>
      </trkpt>
      <trkpt lat="49.8842" lon="2.26484">
        <ele>63.9</ele>
        <time>2022-07-30T19:08:04Z</time>
      </trkpt>
      <trkpt lat="49.8842" lon="2.26484">
        <ele>63.9</ele>
        <time>2022-07-30T19:08:05Z</time>
      </trkpt>
      <trkpt lat="49.8842" lon="2.26484">
        <ele>63.9</ele>
        <time>2022-07-30T19:08:06Z</time>
      </trkpt>
      <trkpt lat="49.8842" lon="2.26484">
        <ele>63.9</ele>
        <time>2022-07-30T19:08:07Z</time>
      </trkpt>
      <trkpt lat="49.8842" lon="2.26484">
        <ele>63.9</ele>
        <time>2022-07-30T19:08:08Z</time>
      </trkpt>
      <trkpt lat="49.8842" lon="2.26484">
        <ele>63.9</ele>
        <time>2022-07-30T19:08:09Z</time>
      </trkpt>
      <trkpt lat="49.8842" lon="2.26484">
        <ele>63.9</ele>
        <time>2022-07-30T19:08:10Z</time>
      </trkpt>
      <trkpt lat="49.8842" lon="2.26484">
        <ele>63.9</ele>
        <time>2022-07-30T19:08:11Z</time>
      </trkpt>
      <trkpt lat="49.8842" lon="2.26484">
        <ele>63.9</ele>
        <time>2022-07-30T19:08:12Z</time>
      </trkpt>
      <trkpt lat="49.8842" lon="2.26484">
        <ele>63.9</ele>
        <time>2022-07-30T19:08:13Z</time>
      </trkpt>
      <trkpt lat="49.8842" lon="2.26484">
        <ele>63.9</ele>
        <time>2022-07-30T19:08:14Z</time>
      </trkpt>
      <trkpt lat="49.8842" lon="2.26484">
        <ele>63.9</ele>
        <time>2022-07-30T19:08:15Z</time>
      </trkpt>
      <trkpt lat="49.8842" lon="2.26484">
        <ele>63.9</ele>
        <time>2022-07-30T19:08:16Z</time>
      </trkpt>
      <trkpt lat="49.8842" lon="2.26485">
        <ele>63.9</ele>
        <time>2022-07-30T19:08:17Z</time>
      </trkpt>
      <trkpt lat="49.88419" lon="2.26486">
        <ele>63.9</ele>
        <time>2022-07-30T19:08:19Z</time>
      </trkpt>
      <trkpt lat="49.88418" lon="2.26486">
        <ele>64</ele>
        <time>2022-07-30T19:08:20Z</time>
      </trkpt>
      <trkpt lat="49.88416" lon="2.26486">
        <ele>64</ele>
        <time>2022-07-30T19:08:21Z</time>
      </trkpt>
      <trkpt lat="49.88416" lon="2.26486">
        <ele>64</ele>
        <time>2022-07-30T19:08:23Z</time>
      </trkpt>
      <trkpt lat="49.88415" lon="2.26486">
        <ele>64.1</ele>
        <time>2022-07-30T19:08:24Z</time>
      </trkpt>
      <trkpt lat="49.88412" lon="2.26486">
        <ele>64.1</ele>
        <time>2022-07-30T19:08:25Z</time>
      </trkpt>
      <trkpt lat="49.88408" lon="2.26487">
        <ele>64.2</ele>
        <time>2022-07-30T19:08:27Z</time>
      </trkpt>
      <trkpt lat="49.88407" lon="2.26487">
        <ele>64.3</ele>
        <time>2022-07-30T19:08:28Z</time>
      </trkpt>
      <trkpt lat="49.88406" lon="2.26487">
        <ele>64.3</ele>
        <time>2022-07-30T19:08:29Z</time>
      </trkpt>
      <trkpt lat="49.88404" lon="2.26487">
        <ele>64.3</ele>
        <time>2022-07-30T19:08:30Z</time>
      </trkpt>
      <trkpt lat="49.88402" lon="2.26487">
        <ele>64.4</ele>
        <time>2022-07-30T19:08:32Z</time>
      </trkpt>
      <trkpt lat="49.88401" lon="2.26487">
        <ele>64.4</ele>
        <time>2022-07-30T19:08:33Z</time>
      </trkpt>
      <trkpt lat="49.884" lon="2.26488">
        <ele>64.5</ele>
        <time>2022-07-30T19:08:34Z</time>
      </trkpt>
      <trkpt lat="49.88398" lon="2.26488">
        <ele>64.5</ele>
        <time>2022-07-30T19:08:36Z</time>
      </trkpt>
      <trkpt lat="49.88397" lon="2.26489">
        <ele>64.5</ele>
        <time>2022-07-30T19:08:37Z</time>
      </trkpt>
      <trkpt lat="49.88396" lon="2.26489">
        <ele>64.5</ele>
        <time>2022-07-30T19:08:38Z</time>
      </trkpt>
      <trkpt lat="49.88395" lon="2.26489">
        <ele>64.6</ele>
        <time>2022-07-30T19:08:39Z</time>
      </trkpt>
      <trkpt lat="49.88394" lon="2.26489">
        <ele>64.6</ele>
        <time>2022-07-30T19:08:40Z</time>
      </trkpt>
      <trkpt lat="49.88393" lon="2.2649">
        <ele>64.6</ele>
        <time>2022-07-30T19:08:41Z</time>
      </trkpt>
      <trkpt lat="49.88392" lon="2.26491">
        <ele>64.7</ele>
        <time>2022-07-30T19:08:42Z</time>
      </trkpt>
      <trkpt lat="49.8839" lon="2.26492">
        <ele>64.7</ele>
        <time>2022-07-30T19:08:44Z</time>
      </trkpt>
      <trkpt lat="49.8839" lon="2.26492">
        <ele>64.7</ele>
        <time>2022-07-30T19:08:45Z</time>
      </trkpt>
      <trkpt lat="49.88389" lon="2.26492">
        <ele>64.8</ele>
        <time>2022-07-30T19:08:46Z</time>
      </trkpt>
      <trkpt lat="49.88388" lon="2.26493">
        <ele>64.8</ele>
        <time>2022-07-30T19:08:47Z</time>
      </trkpt>
      <trkpt lat="49.88387" lon="2.26493">
        <ele>64.8</ele>
        <time>2022-07-30T19:08:48Z</time>
      </trkpt>
      <trkpt lat="49.88386" lon="2.26494">
        <ele>64.8</ele>
        <time>2022-07-30T19:08:49Z</time>
      </trkpt>
      <trkpt lat="49.88385" lon="2.26494">
        <ele>64.9</ele>
        <time>2022-07-30T19:08:50Z</time>
      </trkpt>
      <trkpt lat="49.88384" lon="2.26495">
        <ele>64.9</ele>
        <time>2022-07-30T19:08:51Z</time>
      </trkpt>
      <trkpt lat="49.88383" lon="2.26495">
        <ele>64.9</ele>
        <time>2022-07-30T19:08:52Z</time>
      </trkpt>
      <trkpt lat="49.88382" lon="2.26495">
        <ele>64.9</ele>
        <time>2022-07-30T19:08:53Z</time>
      </trkpt>
      <trkpt lat="49.88381" lon="2.26496">
        <ele>64.9</ele>
        <time>2022-07-30T19:08:54Z</time>
      </trkpt>
      <trkpt lat="49.8838" lon="2.26496">
        <ele>65</ele>
        <time>2022-07-30T19:08:55Z</time>
      </trkpt>
      <trkpt lat="49.88379" lon="2.26497">
        <ele>65</ele>
        <time>2022-07-30T19:08:56Z</time>
      </trkpt>
      <trkpt lat="49.88377" lon="2.26497">
        <ele>65</ele>
        <time>2022-07-30T19:08:58Z</time>
      </trkpt>
      <trkpt lat="49.88376" lon="2.26497">
        <ele>65.1</ele>
        <time>2022-07-30T19:08:59Z</time>
      </trkpt>
      <trkpt lat="49.88375" lon="2.26497">
        <ele>65.1</ele>
        <time>2022-07-30T19:09:00Z</time>
      </trkpt>
      <trkpt lat="49.88374" lon="2.26498">
        <ele>65.1</ele>
        <time>2022-07-30T19:09:02Z</time>
      </trkpt>
      <trkpt lat="49.88372" lon="2.26498">
        <ele>65.2</ele>
        <time>2022-07-30T19:09:03Z</time>
      </trkpt>
      <trkpt lat="49.88372" lon="2.26498">
        <ele>65.2</ele>
        <time>2022-07-30T19:09:04Z</time>
      </trkpt>
      <trkpt lat="49.88371" lon="2.26498">
        <ele>65.2</ele>
        <time>2022-07-30T19:09:05Z</time>
      </trkpt>
      <trkpt lat="49.88369" lon="2.26499">
        <ele>65.2</ele>
        <time>2022-07-30T19:09:07Z</time>
      </trkpt>
      <trkpt lat="49.88368" lon="2.26499">
        <ele>65.3</ele>
        <time>2022-07-30T19:09:08Z</time>
      </trkpt>
      <trkpt lat="49.88368" lon="2.26499">
        <ele>65.3</ele>
        <time>2022-07-30T19:09:09Z</time>
      </trkpt>
      <trkpt lat="49.88367" lon="2.26499">
        <ele>65.3</ele>
        <time>2022-07-30T19:09:10Z</time>
      </trkpt>
      <trkpt lat="49.88366" lon="2.265">
        <ele>65.3</ele>
        <time>2022-07-30T19:09:12Z</time>
      </trkpt>
      <trkpt lat="49.88365" lon="2.265">
        <ele>65.4</ele>
        <time>2022-07-30T19:09:13Z</time>
      </trkpt>
      <trkpt lat="49.88364" lon="2.26501">
        <ele>65.4</ele>
        <time>2022-07-30T19:09:14Z</time>
      </trkpt>
      <trkpt lat="49.88363" lon="2.26501">
        <ele>65.4</ele>
        <time>2022-07-30T19:09:15Z</time>
      </trkpt>
      <trkpt lat="49.88362" lon="2.26502">
        <ele>65.4</ele>
        <time>2022-07-30T19:09:16Z</time>
      </trkpt>
      <trkpt lat="49.88361" lon="2.26502">
        <ele>65.5</ele>
        <time>2022-07-30T19:09:17Z</time>
      </trkpt>
      <trkpt lat="49.88359" lon="2.26502">
        <ele>65.5</ele>
        <time>2022-07-30T19:09:19Z</time>
      </trkpt>
      <trkpt lat="49.88359" lon="2.26502">
        <ele>65.5</ele>
        <time>2022-07-30T19:09:20Z</time>
      </trkpt>
      <trkpt lat="49.88357" lon="2.26502">
        <ele>65.6</ele>
        <time>2022-07-30T19:09:21Z</time>
      </trkpt>
      <trkpt lat="49.88355" lon="2.26502">
        <ele>65.6</ele>
        <time>2022-07-30T19:09:23Z</time>
      </trkpt>
      <trkpt lat="49.88354" lon="2.26502">
        <ele>65.7</ele>
        <time>2022-07-30T19:09:24Z</time>
      </trkpt>
      <trkpt lat="49.88354" lon="2.26502">
        <ele>65.7</ele>
        <time>2022-07-30T19:09:25Z</time>
      </trkpt>
      <trkpt lat="49.88353" lon="2.26502">
        <ele>65.7</ele>
        <time>2022-07-30T19:09:26Z</time>
      </trkpt>
      <trkpt lat="49.88351" lon="2.26501">
        <ele>65.7</ele>
        <time>2022-07-30T19:09:27Z</time>
      </trkpt>
      <trkpt lat="49.8835" lon="2.26502">
        <ele>65.8</ele>
        <time>2022-07-30T19:09:29Z</time>
      </trkpt>
      <trkpt lat="49.88349" lon="2.26502">
        <ele>65.8</ele>
        <time>2022-07-30T19:09:30Z</time>
      </trkpt>
      <trkpt lat="49.88348" lon="2.26502">
        <ele>65.8</ele>
        <time>2022-07-30T19:09:31Z</time>
      </trkpt>
      <trkpt lat="49.88347" lon="2.26503">
        <ele>65.9</ele>
        <time>2022-07-30T19:09:32Z</time>
      </trkpt>
      <trkpt lat="49.88346" lon="2.26504">
        <ele>65.9</ele>
        <time>2022-07-30T19:09:33Z</time>
      </trkpt>
      <trkpt lat="49.88345" lon="2.26504">
        <ele>65.9</ele>
        <time>2022-07-30T19:09:34Z</time>
      </trkpt>
      <trkpt lat="49.88345" lon="2.26505">
        <ele>65.9</ele>
        <time>2022-07-30T19:09:36Z</time>
      </trkpt>
      <trkpt lat="49.88344" lon="2.26505">
        <ele>66</ele>
        <time>2022-07-30T19:09:37Z</time>
      </trkpt>
      <trkpt lat="49.88343" lon="2.26506">
        <ele>66</ele>
        <time>2022-07-30T19:09:38Z</time>
      </trkpt>
      <trkpt lat="49.88342" lon="2.26506">
        <ele>66</ele>
        <time>2022-07-30T19:09:39Z</time>
      </trkpt>
      <trkpt lat="49.88342" lon="2.26506">
        <ele>66</ele>
        <time>2022-07-30T19:09:40Z</time>
      </trkpt>
      <trkpt lat="49.88341" lon="2.26507">
        <ele>66.1</ele>
        <time>2022-07-30T19:09:42Z</time>
      </trkpt>
      <trkpt lat="49.88339" lon="2.26507">
        <ele>66.1</ele>
        <time>2022-07-30T19:09:43Z</time>
      </trkpt>
      <trkpt lat="49.88338" lon="2.26508">
        <ele>66.1</ele>
        <time>2022-07-30T19:09:44Z</time>
      </trkpt>
      <trkpt lat="49.88337" lon="2.26509">
        <ele>66.2</ele>
        <time>2022-07-30T19:09:45Z</time>
      </trkpt>
      <trkpt lat="49.88336" lon="2.2651">
        <ele>66.2</ele>
        <time>2022-07-30T19:09:47Z</time>
      </trkpt>
      <trkpt lat="49.88335" lon="2.26511">
        <ele>66.2</ele>
        <time>2022-07-30T19:09:48Z</time>
      </trkpt>
      <trkpt lat="49.88334" lon="2.26512">
        <ele>66.3</ele>
        <time>2022-07-30T19:09:49Z</time>
      </trkpt>
      <trkpt lat="49.88333" lon="2.26513">
        <ele>66.3</ele>
        <time>2022-07-30T19:09:50Z</time>
      </trkpt>
      <trkpt lat="49.88333" lon="2.26513">
        <ele>66.3</ele>
        <time>2022-07-30T19:09:51Z</time>
      </trkpt>
      <trkpt lat="49.88333" lon="2.26513">
        <ele>66.3</ele>
        <time>2022-07-30T19:09:52Z</time>
      </trkpt>
      <trkpt lat="49.88332" lon="2.26514">
        <ele>66.3</ele>
        <time>2022-07-30T19:09:54Z</time>
      </trkpt>
      <trkpt lat="49.88332" lon="2.26514">
        <ele>66.3</ele>
        <time>2022-07-30T19:09:55Z</time>
      </trkpt>
      <trkpt lat="49.88331" lon="2.26515">
        <ele>66.4</ele>
        <time>2022-07-30T19:09:56Z</time>
      </trkpt>
      <trkpt lat="49.8833" lon="2.26515">
        <ele>66.4</ele>
        <time>2022-07-30T19:09:57Z</time>
      </trkpt>
      <trkpt lat="49.88329" lon="2.26516">
        <ele>66.4</ele>
        <time>2022-07-30T19:09:59Z</time>
      </trkpt>
      <trkpt lat="49.88329" lon="2.26516">
        <ele>66.4</ele>
        <time>2022-07-30T19:10:00Z</time>
      </trkpt>
      <trkpt lat="49.88328" lon="2.26517">
        <ele>66.4</ele>
        <time>2022-07-30T19:10:01Z</time>
      </trkpt>
      <trkpt lat="49.88328" lon="2.26518">
        <ele>66.4</ele>
        <time>2022-07-30T19:10:02Z</time>
      </trkpt>
      <trkpt lat="49.88327" lon="2.26519">
        <ele>66.5</ele>
        <time>2022-07-30T19:10:03Z</time>
      </trkpt>
      <trkpt lat="49.88327" lon="2.2652">
        <ele>66.5</ele>
        <time>2022-07-30T19:10:05Z</time>
      </trkpt>
      <trkpt lat="49.88326" lon="2.26521">
        <ele>66.5</ele>
        <time>2022-07-30T19:10:06Z</time>
      </trkpt>
      <trkpt lat="49.88325" lon="2.26522">
        <ele>66.5</ele>
        <time>2022-07-30T19:10:07Z</time>
      </trkpt>
      <trkpt lat="49.88324" lon="2.26523">
        <ele>66.5</ele>
        <time>2022-07-30T19:10:09Z</time>
      </trkpt>
      <trkpt lat="49.88323" lon="2.26523">
        <ele>66.5</ele>
        <time>2022-07-30T19:10:10Z</time>
      </trkpt>
      <trkpt lat="49.88322" lon="2.26522">
        <ele>66.6</ele>
        <time>2022-07-30T19:10:12Z</time>
      </trkpt>
      <trkpt lat="49.88321" lon="2.26522">
        <ele>66.6</ele>
        <time>2022-07-30T19:10:13Z</time>
      </trkpt>
      <trkpt lat="49.88321" lon="2.26522">
        <ele>66.6</ele>
        <time>2022-07-30T19:10:14Z</time>
      </trkpt>
      <trkpt lat="49.8832" lon="2.26522">
        <ele>66.6</ele>
        <time>2022-07-30T19:10:16Z</time>
      </trkpt>
      <trkpt lat="49.88319" lon="2.26521">
        <ele>66.6</ele>
        <time>2022-07-30T19:10:17Z</time>
      </trkpt>
      <trkpt lat="49.88319" lon="2.26521">
        <ele>66.6</ele>
        <time>2022-07-30T19:10:18Z</time>
      </trkpt>
      <trkpt lat="49.88319" lon="2.2652">
        <ele>66.6</ele>
        <time>2022-07-30T19:10:20Z</time>
      </trkpt>
      <trkpt lat="49.88318" lon="2.2652">
        <ele>66.6</ele>
        <time>2022-07-30T19:10:21Z</time>
      </trkpt>
      <trkpt lat="49.88318" lon="2.2652">
        <ele>66.6</ele>
        <time>2022-07-30T19:10:22Z</time>
      </trkpt>
      <trkpt lat="49.88318" lon="2.26521">
        <ele>66.6</ele>
        <time>2022-07-30T19:10:23Z</time>
      </trkpt>
      <trkpt lat="49.88317" lon="2.26521">
        <ele>66.6</ele>
        <time>2022-07-30T19:10:25Z</time>
      </trkpt>
      <trkpt lat="49.88317" lon="2.26521">
        <ele>66.6</ele>
        <time>2022-07-30T19:10:26Z</time>
      </trkpt>
      <trkpt lat="49.88316" lon="2.26522">
        <ele>66.6</ele>
        <time>2022-07-30T19:10:27Z</time>
      </trkpt>
      <trkpt lat="49.88316" lon="2.26523">
        <ele>66.6</ele>
        <time>2022-07-30T19:10:29Z</time>
      </trkpt>
      <trkpt lat="49.88315" lon="2.26524">
        <ele>66.6</ele>
        <time>2022-07-30T19:10:30Z</time>
      </trkpt>
      <trkpt lat="49.88315" lon="2.26524">
        <ele>66.6</ele>
        <time>2022-07-30T19:10:31Z</time>
      </trkpt>
      <trkpt lat="49.88314" lon="2.26525">
        <ele>66.6</ele>
        <time>2022-07-30T19:10:33Z</time>
      </trkpt>
      <trkpt lat="49.88313" lon="2.26526">
        <ele>66.6</ele>
        <time>2022-07-30T19:10:34Z</time>
      </trkpt>
      <trkpt lat="49.88313" lon="2.26526">
        <ele>66.7</ele>
        <time>2022-07-30T19:10:35Z</time>
      </trkpt>
      <trkpt lat="49.88312" lon="2.26526">
        <ele>66.7</ele>
        <time>2022-07-30T19:10:36Z</time>
      </trkpt>
      <trkpt lat="49.8831" lon="2.26526">
        <ele>66.7</ele>
        <time>2022-07-30T19:10:37Z</time>
      </trkpt>
      <trkpt lat="49.88309" lon="2.26526">
        <ele>66.7</ele>
        <time>2022-07-30T19:10:39Z</time>
      </trkpt>
      <trkpt lat="49.88309" lon="2.26527">
        <ele>66.7</ele>
        <time>2022-07-30T19:10:40Z</time>
      </trkpt>
      <trkpt lat="49.88307" lon="2.26527">
        <ele>66.7</ele>
        <time>2022-07-30T19:10:41Z</time>
      </trkpt>
      <trkpt lat="49.88306" lon="2.26527">
        <ele>66.7</ele>
        <time>2022-07-30T19:10:42Z</time>
      </trkpt>
      <trkpt lat="49.88306" lon="2.26527">
        <ele>66.7</ele>
        <time>2022-07-30T19:10:43Z</time>
      </trkpt>
      <trkpt lat="49.88305" lon="2.26528">
        <ele>66.7</ele>
        <time>2022-07-30T19:10:44Z</time>
      </trkpt>
      <trkpt lat="49.88304" lon="2.26528">
        <ele>66.7</ele>
        <time>2022-07-30T19:10:45Z</time>
      </trkpt>
      <trkpt lat="49.88303" lon="2.26528">
        <ele>66.7</ele>
        <time>2022-07-30T19:10:46Z</time>
      </trkpt>
      <trkpt lat="49.88303" lon="2.26528">
        <ele>66.8</ele>
        <time>2022-07-30T19:10:47Z</time>
      </trkpt>
      <trkpt lat="49.88301" lon="2.26528">
        <ele>66.8</ele>
        <time>2022-07-30T19:10:49Z</time>
      </trkpt>
      <trkpt lat="49.88299" lon="2.26528">
        <ele>66.8</ele>
        <time>2022-07-30T19:10:50Z</time>
      </trkpt>
      <trkpt lat="49.88297" lon="2.26528">
        <ele>66.8</ele>
        <time>2022-07-30T19:10:51Z</time>
      </trkpt>
      <trkpt lat="49.88296" lon="2.26528">
        <ele>66.8</ele>
        <time>2022-07-30T19:10:52Z</time>
      </trkpt>
      <trkpt lat="49.88295" lon="2.26528">
        <ele>66.8</ele>
        <time>2022-07-30T19:10:54Z</time>
      </trkpt>
      <trkpt lat="49.88294" lon="2.26528">
        <ele>66.8</ele>
        <time>2022-07-30T19:10:55Z</time>
      </trkpt>
      <trkpt lat="49.88293" lon="2.26528">
        <ele>66.8</ele>
        <time>2022-07-30T19:10:56Z</time>
      </trkpt>
      <trkpt lat="49.88292" lon="2.26528">
        <ele>66.9</ele>
        <time>2022-07-30T19:10:57Z</time>
      </trkpt>
      <trkpt lat="49.8829" lon="2.26528">
        <ele>66.9</ele>
        <time>2022-07-30T19:10:58Z</time>
      </trkpt>
      <trkpt lat="49.88289" lon="2.26528">
        <ele>66.9</ele>
        <time>2022-07-30T19:10:59Z</time>
      </trkpt>
      <trkpt lat="49.88288" lon="2.26528">
        <ele>66.9</ele>
        <time>2022-07-30T19:11:00Z</time>
      </trkpt>
      <trkpt lat="49.88287" lon="2.26528">
        <ele>66.9</ele>
        <time>2022-07-30T19:11:02Z</time>
      </trkpt>
      <trkpt lat="49.88286" lon="2.26529">
        <ele>66.9</ele>
        <time>2022-07-30T19:11:03Z</time>
      </trkpt>
      <trkpt lat="49.88285" lon="2.26529">
        <ele>66.9</ele>
        <time>2022-07-30T19:11:04Z</time>
      </trkpt>
      <trkpt lat="49.88284" lon="2.26529">
        <ele>66.9</ele>
        <time>2022-07-30T19:11:06Z</time>
      </trkpt>
      <trkpt lat="49.88282" lon="2.26529">
        <ele>67</ele>
        <time>2022-07-30T19:11:08Z</time>
      </trkpt>
      <trkpt lat="49.88282" lon="2.26528">
        <ele>67</ele>
        <time>2022-07-30T19:11:09Z</time>
      </trkpt>
      <trkpt lat="49.8828" lon="2.26529">
        <ele>67</ele>
        <time>2022-07-30T19:11:10Z</time>
      </trkpt>
      <trkpt lat="49.8828" lon="2.2653">
        <ele>67</ele>
        <time>2022-07-30T19:11:11Z</time>
      </trkpt>
      <trkpt lat="49.88279" lon="2.26531">
        <ele>67</ele>
        <time>2022-07-30T19:11:12Z</time>
      </trkpt>
      <trkpt lat="49.88279" lon="2.26531">
        <ele>67</ele>
        <time>2022-07-30T19:11:13Z</time>
      </trkpt>
      <trkpt lat="49.88278" lon="2.26532">
        <ele>67</ele>
        <time>2022-07-30T19:11:15Z</time>
      </trkpt>
      <trkpt lat="49.88278" lon="2.26532">
        <ele>67</ele>
        <time>2022-07-30T19:11:16Z</time>
      </trkpt>
      <trkpt lat="49.88277" lon="2.26533">
        <ele>67</ele>
        <time>2022-07-30T19:11:17Z</time>
      </trkpt>
      <trkpt lat="49.88276" lon="2.26534">
        <ele>67</ele>
        <time>2022-07-30T19:11:18Z</time>
      </trkpt>
      <trkpt lat="49.88276" lon="2.26534">
        <ele>67.1</ele>
        <time>2022-07-30T19:11:19Z</time>
      </trkpt>
      <trkpt lat="49.88274" lon="2.26535">
        <ele>67.1</ele>
        <time>2022-07-30T19:11:20Z</time>
      </trkpt>
      <trkpt lat="49.88273" lon="2.26535">
        <ele>67.1</ele>
        <time>2022-07-30T19:11:21Z</time>
      </trkpt>
      <trkpt lat="49.88272" lon="2.26536">
        <ele>67.1</ele>
        <time>2022-07-30T19:11:23Z</time>
      </trkpt>
      <trkpt lat="49.88271" lon="2.26536">
        <ele>67.1</ele>
        <time>2022-07-30T19:11:24Z</time>
      </trkpt>
      <trkpt lat="49.88269" lon="2.26536">
        <ele>67.1</ele>
        <time>2022-07-30T19:11:25Z</time>
      </trkpt>
      <trkpt lat="49.88268" lon="2.26536">
        <ele>67.1</ele>
        <time>2022-07-30T19:11:26Z</time>
      </trkpt>
      <trkpt lat="49.88267" lon="2.26536">
        <ele>67.2</ele>
        <time>2022-07-30T19:11:27Z</time>
      </trkpt>
      <trkpt lat="49.88265" lon="2.26536">
        <ele>67.2</ele>
        <time>2022-07-30T19:11:28Z</time>
      </trkpt>
      <trkpt lat="49.88264" lon="2.26537">
        <ele>67.2</ele>
        <time>2022-07-30T19:11:30Z</time>
      </trkpt>
      <trkpt lat="49.88263" lon="2.26537">
        <ele>67.2</ele>
        <time>2022-07-30T19:11:31Z</time>
      </trkpt>
      <trkpt lat="49.88262" lon="2.26538">
        <ele>67.2</ele>
        <time>2022-07-30T19:11:32Z</time>
      </trkpt>
      <trkpt lat="49.8826" lon="2.26538">
        <ele>67.2</ele>
        <time>2022-07-30T19:11:33Z</time>
      </trkpt>
      <trkpt lat="49.88259" lon="2.26539">
        <ele>67.3</ele>
        <time>2022-07-30T19:11:34Z</time>
      </trkpt>
      <trkpt lat="49.88257" lon="2.26539">
        <ele>67.3</ele>
        <time>2022-07-30T19:11:35Z</time>
      </trkpt>
      <trkpt lat="49.88257" lon="2.26539">
        <ele>67.3</ele>
        <time>2022-07-30T19:11:36Z</time>
      </trkpt>
      <trkpt lat="49.88256" lon="2.2654">
        <ele>67.3</ele>
        <time>2022-07-30T19:11:37Z</time>
      </trkpt>
      <trkpt lat="49.88254" lon="2.2654">
        <ele>67.3</ele>
        <time>2022-07-30T19:11:38Z</time>
      </trkpt>
      <trkpt lat="49.88253" lon="2.2654">
        <ele>67.3</ele>
        <time>2022-07-30T19:11:39Z</time>
      </trkpt>
      <trkpt lat="49.88252" lon="2.26541">
        <ele>67.3</ele>
        <time>2022-07-30T19:11:40Z</time>
      </trkpt>
      <trkpt lat="49.88251" lon="2.26541">
        <ele>67.3</ele>
        <time>2022-07-30T19:11:41Z</time>
      </trkpt>
      <trkpt lat="49.8825" lon="2.26542">
        <ele>67.4</ele>
        <time>2022-07-30T19:11:42Z</time>
      </trkpt>
      <trkpt lat="49.88249" lon="2.26542">
        <ele>67.4</ele>
        <time>2022-07-30T19:11:43Z</time>
      </trkpt>
      <trkpt lat="49.88248" lon="2.26542">
        <ele>67.4</ele>
        <time>2022-07-30T19:11:44Z</time>
      </trkpt>
      <trkpt lat="49.88246" lon="2.26542">
        <ele>67.4</ele>
        <time>2022-07-30T19:11:45Z</time>
      </trkpt>
      <trkpt lat="49.88245" lon="2.26542">
        <ele>67.4</ele>
        <time>2022-07-30T19:11:47Z</time>
      </trkpt>
      <trkpt lat="49.88244" lon="2.26542">
        <ele>67.4</ele>
        <time>2022-07-30T19:11:48Z</time>
      </trkpt>
      <trkpt lat="49.88243" lon="2.26542">
        <ele>67.4</ele>
        <time>2022-07-30T19:11:49Z</time>
      </trkpt>
      <trkpt lat="49.88241" lon="2.26542">
        <ele>67.4</ele>
        <time>2022-07-30T19:11:50Z</time>
      </trkpt>
      <trkpt lat="49.8824" lon="2.26542">
        <ele>67.5</ele>
        <time>2022-07-30T19:11:51Z</time>
      </trkpt>
      <trkpt lat="49.88239" lon="2.26542">
        <ele>67.5</ele>
        <time>2022-07-30T19:11:52Z</time>
      </trkpt>
      <trkpt lat="49.88238" lon="2.26543">
        <ele>67.5</ele>
        <time>2022-07-30T19:11:54Z</time>
      </trkpt>
      <trkpt lat="49.88237" lon="2.26543">
        <ele>67.5</ele>
        <time>2022-07-30T19:11:55Z</time>
      </trkpt>
      <trkpt lat="49.88236" lon="2.26545">
        <ele>67.5</ele>
        <time>2022-07-30T19:11:56Z</time>
      </trkpt>
      <trkpt lat="49.88235" lon="2.26546">
        <ele>67.5</ele>
        <time>2022-07-30T19:11:57Z</time>
      </trkpt>
      <trkpt lat="49.88234" lon="2.26547">
        <ele>67.5</ele>
        <time>2022-07-30T19:11:59Z</time>
      </trkpt>
      <trkpt lat="49.88234" lon="2.26548">
        <ele>67.5</ele>
        <time>2022-07-30T19:12:00Z</time>
      </trkpt>
      <trkpt lat="49.88233" lon="2.26549">
        <ele>67.5</ele>
        <time>2022-07-30T19:12:01Z</time>
      </trkpt>
      <trkpt lat="49.88232" lon="2.26549">
        <ele>67.5</ele>
        <time>2022-07-30T19:12:03Z</time>
      </trkpt>
      <trkpt lat="49.88231" lon="2.2655">
        <ele>67.6</ele>
        <time>2022-07-30T19:12:04Z</time>
      </trkpt>
      <trkpt lat="49.88231" lon="2.2655">
        <ele>67.6</ele>
        <time>2022-07-30T19:12:05Z</time>
      </trkpt>
      <trkpt lat="49.8823" lon="2.26551">
        <ele>67.6</ele>
        <time>2022-07-30T19:12:06Z</time>
      </trkpt>
      <trkpt lat="49.88229" lon="2.26551">
        <ele>67.6</ele>
        <time>2022-07-30T19:12:07Z</time>
      </trkpt>
      <trkpt lat="49.88229" lon="2.26551">
        <ele>67.6</ele>
        <time>2022-07-30T19:12:09Z</time>
      </trkpt>
      <trkpt lat="49.88228" lon="2.26551">
        <ele>67.6</ele>
        <time>2022-07-30T19:12:10Z</time>
      </trkpt>
      <trkpt lat="49.88227" lon="2.26552">
        <ele>67.6</ele>
        <time>2022-07-30T19:12:11Z</time>
      </trkpt>
      <trkpt lat="49.88226" lon="2.26552">
        <ele>67.6</ele>
        <time>2022-07-30T19:12:12Z</time>
      </trkpt>
      <trkpt lat="49.88226" lon="2.26552">
        <ele>67.6</ele>
        <time>2022-07-30T19:12:13Z</time>
      </trkpt>
      <trkpt lat="49.88225" lon="2.26552">
        <ele>67.6</ele>
        <time>2022-07-30T19:12:14Z</time>
      </trkpt>
      <trkpt lat="49.88224" lon="2.26552">
        <ele>67.6</ele>
        <time>2022-07-30T19:12:15Z</time>
      </trkpt>
      <trkpt lat="49.88223" lon="2.26552">
        <ele>67.6</ele>
        <time>2022-07-30T19:12:16Z</time>
      </trkpt>
      <trkpt lat="49.88222" lon="2.26552">
        <ele>67.6</ele>
        <time>2022-07-30T19:12:18Z</time>
      </trkpt>
      <trkpt lat="49.88221" lon="2.26553">
        <ele>67.7</ele>
        <time>2022-07-30T19:12:19Z</time>
      </trkpt>
      <trkpt lat="49.8822" lon="2.26553">
        <ele>67.7</ele>
        <time>2022-07-30T19:12:20Z</time>
      </trkpt>
      <trkpt lat="49.8822" lon="2.26553">
        <ele>67.7</ele>
        <time>2022-07-30T19:12:21Z</time>
      </trkpt>
      <trkpt lat="49.88219" lon="2.26553">
        <ele>67.7</ele>
        <time>2022-07-30T19:12:22Z</time>
      </trkpt>
      <trkpt lat="49.88218" lon="2.26553">
        <ele>67.7</ele>
        <time>2022-07-30T19:12:23Z</time>
      </trkpt>
      <trkpt lat="49.88217" lon="2.26554">
        <ele>67.7</ele>
        <time>2022-07-30T19:12:24Z</time>
      </trkpt>
      <trkpt lat="49.88216" lon="2.26554">
        <ele>67.7</ele>
        <time>2022-07-30T19:12:26Z</time>
      </trkpt>
      <trkpt lat="49.88215" lon="2.26554">
        <ele>67.7</ele>
        <time>2022-07-30T19:12:27Z</time>
      </trkpt>
      <trkpt lat="49.88214" lon="2.26555">
        <ele>67.7</ele>
        <time>2022-07-30T19:12:28Z</time>
      </trkpt>
      <trkpt lat="49.88214" lon="2.26555">
        <ele>67.7</ele>
        <time>2022-07-30T19:12:29Z</time>
      </trkpt>
      <trkpt lat="49.88213" lon="2.26555">
        <ele>67.7</ele>
        <time>2022-07-30T19:12:31Z</time>
      </trkpt>
      <trkpt lat="49.88212" lon="2.26556">
        <ele>67.7</ele>
        <time>2022-07-30T19:12:32Z</time>
      </trkpt>
      <trkpt lat="49.88212" lon="2.26556">
        <ele>67.7</ele>
        <time>2022-07-30T19:12:33Z</time>
      </trkpt>
      <trkpt lat="49.88211" lon="2.26557">
        <ele>67.7</ele>
        <time>2022-07-30T19:12:34Z</time>
      </trkpt>
      <trkpt lat="49.8821" lon="2.26559">
        <ele>67.8</ele>
        <time>2022-07-30T19:12:36Z</time>
      </trkpt>
      <trkpt lat="49.88209" lon="2.26559">
        <ele>67.8</ele>
        <time>2022-07-30T19:12:37Z</time>
      </trkpt>
      <trkpt lat="49.88208" lon="2.2656">
        <ele>67.8</ele>
        <time>2022-07-30T19:12:38Z</time>
      </trkpt>
      <trkpt lat="49.88207" lon="2.2656">
        <ele>67.8</ele>
        <time>2022-07-30T19:12:39Z</time>
      </trkpt>
      <trkpt lat="49.88206" lon="2.26561">
        <ele>67.8</ele>
        <time>2022-07-30T19:12:40Z</time>
      </trkpt>
      <trkpt lat="49.88205" lon="2.26561">
        <ele>67.8</ele>
        <time>2022-07-30T19:12:41Z</time>
      </trkpt>
      <trkpt lat="49.88203" lon="2.26562">
        <ele>67.8</ele>
        <time>2022-07-30T19:12:43Z</time>
      </trkpt>
      <trkpt lat="49.88202" lon="2.26562">
        <ele>67.8</ele>
        <time>2022-07-30T19:12:44Z</time>
      </trkpt>
      <trkpt lat="49.88201" lon="2.26563">
        <ele>67.8</ele>
        <time>2022-07-30T19:12:45Z</time>
      </trkpt>
      <trkpt lat="49.882" lon="2.26563">
        <ele>67.9</ele>
        <time>2022-07-30T19:12:47Z</time>
      </trkpt>
      <trkpt lat="49.88199" lon="2.26564">
        <ele>67.9</ele>
        <time>2022-07-30T19:12:48Z</time>
      </trkpt>
      <trkpt lat="49.88198" lon="2.26565">
        <ele>67.9</ele>
        <time>2022-07-30T19:12:49Z</time>
      </trkpt>
      <trkpt lat="49.88197" lon="2.26565">
        <ele>67.9</ele>
        <time>2022-07-30T19:12:50Z</time>
      </trkpt>
      <trkpt lat="49.88196" lon="2.26566">
        <ele>67.9</ele>
        <time>2022-07-30T19:12:52Z</time>
      </trkpt>
      <trkpt lat="49.88195" lon="2.26566">
        <ele>67.9</ele>
        <time>2022-07-30T19:12:53Z</time>
      </trkpt>
      <trkpt lat="49.88194" lon="2.26567">
        <ele>67.9</ele>
        <time>2022-07-30T19:12:54Z</time>
      </trkpt>
      <trkpt lat="49.88193" lon="2.26567">
        <ele>67.9</ele>
        <time>2022-07-30T19:12:55Z</time>
      </trkpt>
      <trkpt lat="49.88191" lon="2.26567">
        <ele>67.9</ele>
        <time>2022-07-30T19:12:56Z</time>
      </trkpt>
      <trkpt lat="49.8819" lon="2.26567">
        <ele>67.9</ele>
        <time>2022-07-30T19:12:57Z</time>
      </trkpt>
      <trkpt lat="49.88188" lon="2.26568">
        <ele>67.9</ele>
        <time>2022-07-30T19:12:59Z</time>
      </trkpt>
      <trkpt lat="49.88187" lon="2.26569">
        <ele>67.9</ele>
        <time>2022-07-30T19:13:00Z</time>
      </trkpt>
      <trkpt lat="49.88186" lon="2.26569">
        <ele>67.9</ele>
        <time>2022-07-30T19:13:02Z</time>
      </trkpt>
      <trkpt lat="49.88185" lon="2.26569">
        <ele>67.9</ele>
        <time>2022-07-30T19:13:03Z</time>
      </trkpt>
      <trkpt lat="49.88184" lon="2.2657">
        <ele>67.9</ele>
        <time>2022-07-30T19:13:04Z</time>
      </trkpt>
      <trkpt lat="49.88183" lon="2.2657">
        <ele>67.9</ele>
        <time>2022-07-30T19:13:05Z</time>
      </trkpt>
      <trkpt lat="49.88182" lon="2.2657">
        <ele>67.9</ele>
        <time>2022-07-30T19:13:06Z</time>
      </trkpt>
      <trkpt lat="49.88181" lon="2.2657">
        <ele>67.9</ele>
        <time>2022-07-30T19:13:07Z</time>
      </trkpt>
      <trkpt lat="49.8818" lon="2.2657">
        <ele>67.9</ele>
        <time>2022-07-30T19:13:08Z</time>
      </trkpt>
      <trkpt lat="49.88179" lon="2.2657">
        <ele>67.9</ele>
        <time>2022-07-30T19:13:09Z</time>
      </trkpt>
      <trkpt lat="49.88178" lon="2.26569">
        <ele>67.9</ele>
        <time>2022-07-30T19:13:11Z</time>
      </trkpt>
      <trkpt lat="49.88177" lon="2.26569">
        <ele>67.9</ele>
        <time>2022-07-30T19:13:12Z</time>
      </trkpt>
      <trkpt lat="49.88176" lon="2.26569">
        <ele>67.9</ele>
        <time>2022-07-30T19:13:13Z</time>
      </trkpt>
      <trkpt lat="49.88175" lon="2.26569">
        <ele>67.9</ele>
        <time>2022-07-30T19:13:14Z</time>
      </trkpt>
      <trkpt lat="49.88174" lon="2.26568">
        <ele>67.9</ele>
        <time>2022-07-30T19:13:15Z</time>
      </trkpt>
      <trkpt lat="49.88172" lon="2.26568">
        <ele>67.8</ele>
        <time>2022-07-30T19:13:17Z</time>
      </trkpt>
      <trkpt lat="49.88171" lon="2.26568">
        <ele>67.8</ele>
        <time>2022-07-30T19:13:18Z</time>
      </trkpt>
      <trkpt lat="49.8817" lon="2.26569">
        <ele>67.8</ele>
        <time>2022-07-30T19:13:19Z</time>
      </trkpt>
      <trkpt lat="49.88169" lon="2.26569">
        <ele>67.8</ele>
        <time>2022-07-30T19:13:20Z</time>
      </trkpt>
      <trkpt lat="49.88166" lon="2.26569">
        <ele>67.8</ele>
        <time>2022-07-30T19:13:22Z</time>
      </trkpt>
      <trkpt lat="49.88166" lon="2.26569">
        <ele>67.8</ele>
        <time>2022-07-30T19:13:23Z</time>
      </trkpt>
      <trkpt lat="49.88165" lon="2.26569">
        <ele>67.8</ele>
        <time>2022-07-30T19:13:24Z</time>
      </trkpt>
      <trkpt lat="49.88164" lon="2.26569">
        <ele>67.8</ele>
        <time>2022-07-30T19:13:25Z</time>
      </trkpt>
      <trkpt lat="49.88163" lon="2.2657">
        <ele>67.8</ele>
        <time>2022-07-30T19:13:26Z</time>
      </trkpt>
      <trkpt lat="49.88162" lon="2.2657">
        <ele>67.8</ele>
        <time>2022-07-30T19:13:27Z</time>
      </trkpt>
      <trkpt lat="49.88161" lon="2.2657">
        <ele>67.8</ele>
        <time>2022-07-30T19:13:29Z</time>
      </trkpt>
      <trkpt lat="49.8816" lon="2.26571">
        <ele>67.8</ele>
        <time>2022-07-30T19:13:30Z</time>
      </trkpt>
      <trkpt lat="49.88159" lon="2.26571">
        <ele>67.8</ele>
        <time>2022-07-30T19:13:31Z</time>
      </trkpt>
      <trkpt lat="49.88158" lon="2.26572">
        <ele>67.8</ele>
        <time>2022-07-30T19:13:32Z</time>
      </trkpt>
      <trkpt lat="49.88157" lon="2.26572">
        <ele>67.7</ele>
        <time>2022-07-30T19:13:33Z</time>
      </trkpt>
      <trkpt lat="49.88156" lon="2.26572">
        <ele>67.7</ele>
        <time>2022-07-30T19:13:34Z</time>
      </trkpt>
      <trkpt lat="49.88156" lon="2.26573">
        <ele>67.7</ele>
        <time>2022-07-30T19:13:35Z</time>
      </trkpt>
      <trkpt lat="49.88153" lon="2.26573">
        <ele>67.7</ele>
        <time>2022-07-30T19:13:36Z</time>
      </trkpt>
      <trkpt lat="49.88152" lon="2.26574">
        <ele>67.7</ele>
        <time>2022-07-30T19:13:37Z</time>
      </trkpt>
      <trkpt lat="49.88151" lon="2.26574">
        <ele>67.7</ele>
        <time>2022-07-30T19:13:39Z</time>
      </trkpt>
      <trkpt lat="49.8815" lon="2.26574">
        <ele>67.7</ele>
        <time>2022-07-30T19:13:40Z</time>
      </trkpt>
      <trkpt lat="49.8815" lon="2.26575">
        <ele>67.7</ele>
        <time>2022-07-30T19:13:42Z</time>
      </trkpt>
      <trkpt lat="49.88149" lon="2.26575">
        <ele>67.7</ele>
        <time>2022-07-30T19:13:43Z</time>
      </trkpt>
      <trkpt lat="49.88148" lon="2.26575">
        <ele>67.7</ele>
        <time>2022-07-30T19:13:44Z</time>
      </trkpt>
      <trkpt lat="49.88147" lon="2.26575">
        <ele>67.7</ele>
        <time>2022-07-30T19:13:45Z</time>
      </trkpt>
      <trkpt lat="49.88146" lon="2.26576">
        <ele>67.7</ele>
        <time>2022-07-30T19:13:46Z</time>
      </trkpt>
      <trkpt lat="49.88146" lon="2.26575">
        <ele>67.6</ele>
        <time>2022-07-30T19:13:47Z</time>
      </trkpt>
      <trkpt lat="49.88145" lon="2.26575">
        <ele>67.6</ele>
        <time>2022-07-30T19:13:48Z</time>
      </trkpt>
      <trkpt lat="49.88144" lon="2.26575">
        <ele>67.6</ele>
        <time>2022-07-30T19:13:49Z</time>
      </trkpt>
      <trkpt lat="49.88143" lon="2.26575">
        <ele>67.6</ele>
        <time>2022-07-30T19:13:51Z</time>
      </trkpt>
      <trkpt lat="49.88142" lon="2.26576">
        <ele>67.6</ele>
        <time>2022-07-30T19:13:52Z</time>
      </trkpt>
      <trkpt lat="49.88141" lon="2.26576">
        <ele>67.6</ele>
        <time>2022-07-30T19:13:53Z</time>
      </trkpt>
      <trkpt lat="49.8814" lon="2.26576">
        <ele>67.6</ele>
        <time>2022-07-30T19:13:54Z</time>
      </trkpt>
      <trkpt lat="49.8814" lon="2.26576">
        <ele>67.6</ele>
        <time>2022-07-30T19:13:55Z</time>
      </trkpt>
      <trkpt lat="49.88138" lon="2.26576">
        <ele>67.6</ele>
        <time>2022-07-30T19:13:57Z</time>
      </trkpt>
      <trkpt lat="49.88137" lon="2.26576">
        <ele>67.6</ele>
        <time>2022-07-30T19:13:58Z</time>
      </trkpt>
      <trkpt lat="49.88137" lon="2.26578">
        <ele>67.6</ele>
        <time>2022-07-30T19:13:59Z</time>
      </trkpt>
      <trkpt lat="49.88136" lon="2.26579">
        <ele>67.6</ele>
        <time>2022-07-30T19:14:00Z</time>
      </trkpt>
      <trkpt lat="49.88135" lon="2.2658">
        <ele>67.5</ele>
        <time>2022-07-30T19:14:02Z</time>
      </trkpt>
      <trkpt lat="49.88134" lon="2.26581">
        <ele>67.5</ele>
        <time>2022-07-30T19:14:03Z</time>
      </trkpt>
      <trkpt lat="49.88132" lon="2.26582">
        <ele>67.5</ele>
        <time>2022-07-30T19:14:04Z</time>
      </trkpt>
      <trkpt lat="49.88131" lon="2.26583">
        <ele>67.5</ele>
        <time>2022-07-30T19:14:05Z</time>
      </trkpt>
      <trkpt lat="49.88131" lon="2.26583">
        <ele>67.5</ele>
        <time>2022-07-30T19:14:06Z</time>
      </trkpt>
      <trkpt lat="49.88129" lon="2.26584">
        <ele>67.5</ele>
        <time>2022-07-30T19:14:07Z</time>
      </trkpt>
      <trkpt lat="49.88129" lon="2.26585">
        <ele>67.5</ele>
        <time>2022-07-30T19:14:08Z</time>
      </trkpt>
      <trkpt lat="49.88128" lon="2.26585">
        <ele>67.4</ele>
        <time>2022-07-30T19:14:09Z</time>
      </trkpt>
      <trkpt lat="49.88127" lon="2.26586">
        <ele>67.4</ele>
        <time>2022-07-30T19:14:11Z</time>
      </trkpt>
      <trkpt lat="49.88126" lon="2.26586">
        <ele>67.4</ele>
        <time>2022-07-30T19:14:12Z</time>
      </trkpt>
      <trkpt lat="49.88125" lon="2.26587">
        <ele>67.4</ele>
        <time>2022-07-30T19:14:13Z</time>
      </trkpt>
      <trkpt lat="49.88124" lon="2.26587">
        <ele>67.4</ele>
        <time>2022-07-30T19:14:14Z</time>
      </trkpt>
      <trkpt lat="49.88123" lon="2.26588">
        <ele>67.4</ele>
        <time>2022-07-30T19:14:16Z</time>
      </trkpt>
      <trkpt lat="49.88121" lon="2.26588">
        <ele>67.4</ele>
        <time>2022-07-30T19:14:17Z</time>
      </trkpt>
      <trkpt lat="49.8812" lon="2.26589">
        <ele>67.4</ele>
        <time>2022-07-30T19:14:18Z</time>
      </trkpt>
      <trkpt lat="49.8812" lon="2.26589">
        <ele>67.3</ele>
        <time>2022-07-30T19:14:19Z</time>
      </trkpt>
      <trkpt lat="49.88119" lon="2.2659">
        <ele>67.3</ele>
        <time>2022-07-30T19:14:20Z</time>
      </trkpt>
      <trkpt lat="49.88118" lon="2.26591">
        <ele>67.3</ele>
        <time>2022-07-30T19:14:21Z</time>
      </trkpt>
      <trkpt lat="49.88117" lon="2.26591">
        <ele>67.3</ele>
        <time>2022-07-30T19:14:22Z</time>
      </trkpt>
      <trkpt lat="49.88116" lon="2.26592">
        <ele>67.3</ele>
        <time>2022-07-30T19:14:24Z</time>
      </trkpt>
      <trkpt lat="49.88115" lon="2.26592">
        <ele>67.3</ele>
        <time>2022-07-30T19:14:25Z</time>
      </trkpt>
      <trkpt lat="49.88114" lon="2.26592">
        <ele>67.3</ele>
        <time>2022-07-30T19:14:26Z</time>
      </trkpt>
      <trkpt lat="49.88113" lon="2.26593">
        <ele>67.3</ele>
        <time>2022-07-30T19:14:27Z</time>
      </trkpt>
      <trkpt lat="49.88112" lon="2.26593">
        <ele>67.2</ele>
        <time>2022-07-30T19:14:28Z</time>
      </trkpt>
      <trkpt lat="49.8811" lon="2.26594">
        <ele>67.2</ele>
        <time>2022-07-30T19:14:30Z</time>
      </trkpt>
      <trkpt lat="49.88108" lon="2.26594">
        <ele>67.2</ele>
        <time>2022-07-30T19:14:32Z</time>
      </trkpt>
      <trkpt lat="49.88107" lon="2.26594">
        <ele>67.2</ele>
        <time>2022-07-30T19:14:33Z</time>
      </trkpt>
      <trkpt lat="49.88106" lon="2.26594">
        <ele>67.2</ele>
        <time>2022-07-30T19:14:34Z</time>
      </trkpt>
      <trkpt lat="49.88105" lon="2.26594">
        <ele>67.2</ele>
        <time>2022-07-30T19:14:35Z</time>
      </trkpt>
      <trkpt lat="49.88103" lon="2.26595">
        <ele>67.1</ele>
        <time>2022-07-30T19:14:37Z</time>
      </trkpt>
      <trkpt lat="49.88102" lon="2.26595">
        <ele>67.1</ele>
        <time>2022-07-30T19:14:38Z</time>
      </trkpt>
      <trkpt lat="49.88102" lon="2.26595">
        <ele>67.1</ele>
        <time>2022-07-30T19:14:39Z</time>
      </trkpt>
      <trkpt lat="49.881" lon="2.26595">
        <ele>67.1</ele>
        <time>2022-07-30T19:14:41Z</time>
      </trkpt>
      <trkpt lat="49.88099" lon="2.26595">
        <ele>67.1</ele>
        <time>2022-07-30T19:14:42Z</time>
      </trkpt>
      <trkpt lat="49.88098" lon="2.26595">
        <ele>67.1</ele>
        <time>2022-07-30T19:14:43Z</time>
      </trkpt>
      <trkpt lat="49.88097" lon="2.26595">
        <ele>67.1</ele>
        <time>2022-07-30T19:14:44Z</time>
      </trkpt>
      <trkpt lat="49.88097" lon="2.26596">
        <ele>67.1</ele>
        <time>2022-07-30T19:14:45Z</time>
      </trkpt>
      <trkpt lat="49.88096" lon="2.26596">
        <ele>67.1</ele>
        <time>2022-07-30T19:14:46Z</time>
      </trkpt>
      <trkpt lat="49.88095" lon="2.26596">
        <ele>67.1</ele>
        <time>2022-07-30T19:14:47Z</time>
      </trkpt>
      <trkpt lat="49.88093" lon="2.26597">
        <ele>67</ele>
        <time>2022-07-30T19:14:48Z</time>
      </trkpt>
      <trkpt lat="49.88092" lon="2.26597">
        <ele>67</ele>
        <time>2022-07-30T19:14:50Z</time>
      </trkpt>
      <trkpt lat="49.88091" lon="2.26597">
        <ele>67</ele>
        <time>2022-07-30T19:14:51Z</time>
      </trkpt>
      <trkpt lat="49.88089" lon="2.26598">
        <ele>67</ele>
        <time>2022-07-30T19:14:52Z</time>
      </trkpt>
      <trkpt lat="49.88088" lon="2.26599">
        <ele>67</ele>
        <time>2022-07-30T19:14:53Z</time>
      </trkpt>
      <trkpt lat="49.88087" lon="2.26599">
        <ele>67</ele>
        <time>2022-07-30T19:14:55Z</time>
      </trkpt>
      <trkpt lat="49.88086" lon="2.266">
        <ele>67</ele>
        <time>2022-07-30T19:14:56Z</time>
      </trkpt>
      <trkpt lat="49.88085" lon="2.266">
        <ele>67</ele>
        <time>2022-07-30T19:14:57Z</time>
      </trkpt>
      <trkpt lat="49.88084" lon="2.26601">
        <ele>66.9</ele>
        <time>2022-07-30T19:14:58Z</time>
      </trkpt>
      <trkpt lat="49.88083" lon="2.26602">
        <ele>66.9</ele>
        <time>2022-07-30T19:14:59Z</time>
      </trkpt>
      <trkpt lat="49.88081" lon="2.26603">
        <ele>66.9</ele>
        <time>2022-07-30T19:15:00Z</time>
      </trkpt>
      <trkpt lat="49.88081" lon="2.26604">
        <ele>66.9</ele>
        <time>2022-07-30T19:15:01Z</time>
      </trkpt>
      <trkpt lat="49.8808" lon="2.26604">
        <ele>66.9</ele>
        <time>2022-07-30T19:15:03Z</time>
      </trkpt>
      <trkpt lat="49.88079" lon="2.26605">
        <ele>66.9</ele>
        <time>2022-07-30T19:15:04Z</time>
      </trkpt>
      <trkpt lat="49.88078" lon="2.26606">
        <ele>66.9</ele>
        <time>2022-07-30T19:15:05Z</time>
      </trkpt>
      <trkpt lat="49.88078" lon="2.26606">
        <ele>66.9</ele>
        <time>2022-07-30T19:15:06Z</time>
      </trkpt>
      <trkpt lat="49.88077" lon="2.26607">
        <ele>66.9</ele>
        <time>2022-07-30T19:15:07Z</time>
      </trkpt>
      <trkpt lat="49.88076" lon="2.26607">
        <ele>66.9</ele>
        <time>2022-07-30T19:15:09Z</time>
      </trkpt>
      <trkpt lat="49.88075" lon="2.26607">
        <ele>66.9</ele>
        <time>2022-07-30T19:15:10Z</time>
      </trkpt>
      <trkpt lat="49.88074" lon="2.26608">
        <ele>66.9</ele>
        <time>2022-07-30T19:15:11Z</time>
      </trkpt>
      <trkpt lat="49.88073" lon="2.26608">
        <ele>66.9</ele>
        <time>2022-07-30T19:15:12Z</time>
      </trkpt>
      <trkpt lat="49.88073" lon="2.26608">
        <ele>66.9</ele>
        <time>2022-07-30T19:15:13Z</time>
      </trkpt>
      <trkpt lat="49.88072" lon="2.26609">
        <ele>66.9</ele>
        <time>2022-07-30T19:15:14Z</time>
      </trkpt>
      <trkpt lat="49.88071" lon="2.26609">
        <ele>66.9</ele>
        <time>2022-07-30T19:15:15Z</time>
      </trkpt>
      <trkpt lat="49.8807" lon="2.26609">
        <ele>66.8</ele>
        <time>2022-07-30T19:15:16Z</time>
      </trkpt>
      <trkpt lat="49.88069" lon="2.2661">
        <ele>66.8</ele>
        <time>2022-07-30T19:15:17Z</time>
      </trkpt>
      <trkpt lat="49.88067" lon="2.2661">
        <ele>66.8</ele>
        <time>2022-07-30T19:15:18Z</time>
      </trkpt>
      <trkpt lat="49.88066" lon="2.26611">
        <ele>66.8</ele>
        <time>2022-07-30T19:15:20Z</time>
      </trkpt>
      <trkpt lat="49.88065" lon="2.26611">
        <ele>66.8</ele>
        <time>2022-07-30T19:15:21Z</time>
      </trkpt>
      <trkpt lat="49.88064" lon="2.26611">
        <ele>66.8</ele>
        <time>2022-07-30T19:15:22Z</time>
      </trkpt>
      <trkpt lat="49.88064" lon="2.26611">
        <ele>66.8</ele>
        <time>2022-07-30T19:15:24Z</time>
      </trkpt>
      <trkpt lat="49.88063" lon="2.26611">
        <ele>66.8</ele>
        <time>2022-07-30T19:15:25Z</time>
      </trkpt>
      <trkpt lat="49.88062" lon="2.26611">
        <ele>66.8</ele>
        <time>2022-07-30T19:15:26Z</time>
      </trkpt>
      <trkpt lat="49.88062" lon="2.26612">
        <ele>66.8</ele>
        <time>2022-07-30T19:15:27Z</time>
      </trkpt>
      <trkpt lat="49.88061" lon="2.26612">
        <ele>66.8</ele>
        <time>2022-07-30T19:15:28Z</time>
      </trkpt>
      <trkpt lat="49.88061" lon="2.26613">
        <ele>66.8</ele>
        <time>2022-07-30T19:15:29Z</time>
      </trkpt>
      <trkpt lat="49.8806" lon="2.26613">
        <ele>66.8</ele>
        <time>2022-07-30T19:15:30Z</time>
      </trkpt>
      <trkpt lat="49.8806" lon="2.26614">
        <ele>66.8</ele>
        <time>2022-07-30T19:15:31Z</time>
      </trkpt>
      <trkpt lat="49.8806" lon="2.26615">
        <ele>66.8</ele>
        <time>2022-07-30T19:15:32Z</time>
      </trkpt>
      <trkpt lat="49.8806" lon="2.26615">
        <ele>66.8</ele>
        <time>2022-07-30T19:15:33Z</time>
      </trkpt>
      <trkpt lat="49.88059" lon="2.26616">
        <ele>66.8</ele>
        <time>2022-07-30T19:15:34Z</time>
      </trkpt>
      <trkpt lat="49.8806" lon="2.26616">
        <ele>66.8</ele>
        <time>2022-07-30T19:15:35Z</time>
      </trkpt>
      <trkpt lat="49.8806" lon="2.26617">
        <ele>66.8</ele>
        <time>2022-07-30T19:15:37Z</time>
      </trkpt>
      <trkpt lat="49.8806" lon="2.26618">
        <ele>66.8</ele>
        <time>2022-07-30T19:15:38Z</time>
      </trkpt>
      <trkpt lat="49.88061" lon="2.26618">
        <ele>66.8</ele>
        <time>2022-07-30T19:15:39Z</time>
      </trkpt>
      <trkpt lat="49.88062" lon="2.26619">
        <ele>66.7</ele>
        <time>2022-07-30T19:15:40Z</time>
      </trkpt>
      <trkpt lat="49.88063" lon="2.26622">
        <ele>66.8</ele>
        <time>2022-07-30T19:15:41Z</time>
      </trkpt>
      <trkpt lat="49.88064" lon="2.26623">
        <ele>66.8</ele>
        <time>2022-07-30T19:15:42Z</time>
      </trkpt>
      <trkpt lat="49.88064" lon="2.26624">
        <ele>66.7</ele>
        <time>2022-07-30T19:15:43Z</time>
      </trkpt>
      <trkpt lat="49.88065" lon="2.26625">
        <ele>66.7</ele>
        <time>2022-07-30T19:15:45Z</time>
      </trkpt>
      <trkpt lat="49.88066" lon="2.26627">
        <ele>66.7</ele>
        <time>2022-07-30T19:15:46Z</time>
      </trkpt>
      <trkpt lat="49.88068" lon="2.2663">
        <ele>66.7</ele>
        <time>2022-07-30T19:15:47Z</time>
      </trkpt>
      <trkpt lat="49.88068" lon="2.26631">
        <ele>66.7</ele>
        <time>2022-07-30T19:15:48Z</time>
      </trkpt>
      <trkpt lat="49.88069" lon="2.26632">
        <ele>66.7</ele>
        <time>2022-07-30T19:15:49Z</time>
      </trkpt>
      <trkpt lat="49.8807" lon="2.26635">
        <ele>66.7</ele>
        <time>2022-07-30T19:15:51Z</time>
      </trkpt>
      <trkpt lat="49.8807" lon="2.26636">
        <ele>66.6</ele>
        <time>2022-07-30T19:15:52Z</time>
      </trkpt>
      <trkpt lat="49.8807" lon="2.26637">
        <ele>66.6</ele>
        <time>2022-07-30T19:15:53Z</time>
      </trkpt>
      <trkpt lat="49.88071" lon="2.26639">
        <ele>66.6</ele>
        <time>2022-07-30T19:15:54Z</time>
      </trkpt>
      <trkpt lat="49.88071" lon="2.2664">
        <ele>66.6</ele>
        <time>2022-07-30T19:15:55Z</time>
      </trkpt>
      <trkpt lat="49.88071" lon="2.26641">
        <ele>66.6</ele>
        <time>2022-07-30T19:15:56Z</time>
      </trkpt>
      <trkpt lat="49.8807" lon="2.26641">
        <ele>66.6</ele>
        <time>2022-07-30T19:15:57Z</time>
      </trkpt>
      <trkpt lat="49.8807" lon="2.26641">
        <ele>66.6</ele>
        <time>2022-07-30T19:15:59Z</time>
      </trkpt>
      <trkpt lat="49.8807" lon="2.26642">
        <ele>66.6</ele>
        <time>2022-07-30T19:16:00Z</time>
      </trkpt>
      <trkpt lat="49.88071" lon="2.26644">
        <ele>66.6</ele>
        <time>2022-07-30T19:16:01Z</time>
      </trkpt>
      <trkpt lat="49.88071" lon="2.26645">
        <ele>66.6</ele>
        <time>2022-07-30T19:16:02Z</time>
      </trkpt>
      <trkpt lat="49.88071" lon="2.26646">
        <ele>66.6</ele>
        <time>2022-07-30T19:16:04Z</time>
      </trkpt>
      <trkpt lat="49.88072" lon="2.26647">
        <ele>66.6</ele>
        <time>2022-07-30T19:16:05Z</time>
      </trkpt>
      <trkpt lat="49.88072" lon="2.26649">
        <ele>66.6</ele>
        <time>2022-07-30T19:16:06Z</time>
      </trkpt>
      <trkpt lat="49.88074" lon="2.26651">
        <ele>66.6</ele>
        <time>2022-07-30T19:16:08Z</time>
      </trkpt>
      <trkpt lat="49.88075" lon="2.26654">
        <ele>66.6</ele>
        <time>2022-07-30T19:16:10Z</time>
      </trkpt>
      <trkpt lat="49.88076" lon="2.26656">
        <ele>66.6</ele>
        <time>2022-07-30T19:16:11Z</time>
      </trkpt>
      <trkpt lat="49.88076" lon="2.26657">
        <ele>66.6</ele>
        <time>2022-07-30T19:16:12Z</time>
      </trkpt>
      <trkpt lat="49.88077" lon="2.2666">
        <ele>66.5</ele>
        <time>2022-07-30T19:16:13Z</time>
      </trkpt>
      <trkpt lat="49.88078" lon="2.26663">
        <ele>66.5</ele>
        <time>2022-07-30T19:16:14Z</time>
      </trkpt>
      <trkpt lat="49.88079" lon="2.26664">
        <ele>66.5</ele>
        <time>2022-07-30T19:16:16Z</time>
      </trkpt>
      <trkpt lat="49.88078" lon="2.26667">
        <ele>66.5</ele>
        <time>2022-07-30T19:16:18Z</time>
      </trkpt>
      <trkpt lat="49.88078" lon="2.26669">
        <ele>66.5</ele>
        <time>2022-07-30T19:16:19Z</time>
      </trkpt>
      <trkpt lat="49.88077" lon="2.26671">
        <ele>66.5</ele>
        <time>2022-07-30T19:16:20Z</time>
      </trkpt>
      <trkpt lat="49.88077" lon="2.26673">
        <ele>66.5</ele>
        <time>2022-07-30T19:16:21Z</time>
      </trkpt>
      <trkpt lat="49.88076" lon="2.26674">
        <ele>66.5</ele>
        <time>2022-07-30T19:16:23Z</time>
      </trkpt>
      <trkpt lat="49.88075" lon="2.26675">
        <ele>66.5</ele>
        <time>2022-07-30T19:16:24Z</time>
      </trkpt>
      <trkpt lat="49.88075" lon="2.26677">
        <ele>66.5</ele>
        <time>2022-07-30T19:16:25Z</time>
      </trkpt>
      <trkpt lat="49.88074" lon="2.26678">
        <ele>66.5</ele>
        <time>2022-07-30T19:16:26Z</time>
      </trkpt>
      <trkpt lat="49.88073" lon="2.2668">
        <ele>66.5</ele>
        <time>2022-07-30T19:16:27Z</time>
      </trkpt>
      <trkpt lat="49.88073" lon="2.26683">
        <ele>66.4</ele>
        <time>2022-07-30T19:16:29Z</time>
      </trkpt>
      <trkpt lat="49.88073" lon="2.26684">
        <ele>66.4</ele>
        <time>2022-07-30T19:16:30Z</time>
      </trkpt>
      <trkpt lat="49.88073" lon="2.26685">
        <ele>66.4</ele>
        <time>2022-07-30T19:16:31Z</time>
      </trkpt>
      <trkpt lat="49.88074" lon="2.26683">
        <ele>66.4</ele>
        <time>2022-07-30T19:16:33Z</time>
      </trkpt>
      <trkpt lat="49.88074" lon="2.26683">
        <ele>66.4</ele>
        <time>2022-07-30T19:16:34Z</time>
      </trkpt>
      <trkpt lat="49.88074" lon="2.26682">
        <ele>66.4</ele>
        <time>2022-07-30T19:16:35Z</time>
      </trkpt>
      <trkpt lat="49.88074" lon="2.26682">
        <ele>66.4</ele>
        <time>2022-07-30T19:16:36Z</time>
      </trkpt>
      <trkpt lat="49.88074" lon="2.26682">
        <ele>66.4</ele>
        <time>2022-07-30T19:16:37Z</time>
      </trkpt>
      <trkpt lat="49.88074" lon="2.26682">
        <ele>66.4</ele>
        <time>2022-07-30T19:16:38Z</time>
      </trkpt>
      <trkpt lat="49.88074" lon="2.26682">
        <ele>66.4</ele>
        <time>2022-07-30T19:16:39Z</time>
      </trkpt>
      <trkpt lat="49.88075" lon="2.26683">
        <ele>66.4</ele>
        <time>2022-07-30T19:16:41Z</time>
      </trkpt>
      <trkpt lat="49.88075" lon="2.26684">
        <ele>66.4</ele>
        <time>2022-07-30T19:16:42Z</time>
      </trkpt>
      <trkpt lat="49.88076" lon="2.26684">
        <ele>66.4</ele>
        <time>2022-07-30T19:16:43Z</time>
      </trkpt>
      <trkpt lat="49.88077" lon="2.26685">
        <ele>66.4</ele>
        <time>2022-07-30T19:16:45Z</time>
      </trkpt>
      <trkpt lat="49.88079" lon="2.26686">
        <ele>66.4</ele>
        <time>2022-07-30T19:16:46Z</time>
      </trkpt>
      <trkpt lat="49.8808" lon="2.26688">
        <ele>66.4</ele>
        <time>2022-07-30T19:16:48Z</time>
      </trkpt>
      <trkpt lat="49.88081" lon="2.2669">
        <ele>66.4</ele>
        <time>2022-07-30T19:16:49Z</time>
      </trkpt>
      <trkpt lat="49.88082" lon="2.26693">
        <ele>66.4</ele>
        <time>2022-07-30T19:16:50Z</time>
      </trkpt>
      <trkpt lat="49.88082" lon="2.26694">
        <ele>66.4</ele>
        <time>2022-07-30T19:16:51Z</time>
      </trkpt>
      <trkpt lat="49.88082" lon="2.26696">
        <ele>66.4</ele>
        <time>2022-07-30T19:16:52Z</time>
      </trkpt>
      <trkpt lat="49.88082" lon="2.26697">
        <ele>66.4</ele>
        <time>2022-07-30T19:16:53Z</time>
      </trkpt>
      <trkpt lat="49.88082" lon="2.26699">
        <ele>66.4</ele>
        <time>2022-07-30T19:16:55Z</time>
      </trkpt>
      <trkpt lat="49.88082" lon="2.267">
        <ele>66.4</ele>
        <time>2022-07-30T19:16:56Z</time>
      </trkpt>
      <trkpt lat="49.88083" lon="2.26702">
        <ele>66.4</ele>
        <time>2022-07-30T19:16:57Z</time>
      </trkpt>
      <trkpt lat="49.88083" lon="2.26704">
        <ele>66.4</ele>
        <time>2022-07-30T19:16:58Z</time>
      </trkpt>
      <trkpt lat="49.88082" lon="2.26705">
        <ele>66.4</ele>
        <time>2022-07-30T19:16:59Z</time>
      </trkpt>
      <trkpt lat="49.88083" lon="2.26705">
        <ele>66.4</ele>
        <time>2022-07-30T19:17:00Z</time>
      </trkpt>
      <trkpt lat="49.88083" lon="2.26707">
        <ele>66.4</ele>
        <time>2022-07-30T19:17:01Z</time>
      </trkpt>
      <trkpt lat="49.88083" lon="2.26709">
        <ele>66.4</ele>
        <time>2022-07-30T19:17:02Z</time>
      </trkpt>
      <trkpt lat="49.88083" lon="2.26712">
        <ele>66.3</ele>
        <time>2022-07-30T19:17:04Z</time>
      </trkpt>
      <trkpt lat="49.88083" lon="2.26713">
        <ele>66.3</ele>
        <time>2022-07-30T19:17:05Z</time>
      </trkpt>
      <trkpt lat="49.88083" lon="2.26714">
        <ele>66.3</ele>
        <time>2022-07-30T19:17:06Z</time>
      </trkpt>
      <trkpt lat="49.88084" lon="2.26716">
        <ele>66.3</ele>
        <time>2022-07-30T19:17:08Z</time>
      </trkpt>
      <trkpt lat="49.88084" lon="2.26718">
        <ele>66.3</ele>
        <time>2022-07-30T19:17:09Z</time>
      </trkpt>
      <trkpt lat="49.88084" lon="2.26719">
        <ele>66.3</ele>
        <time>2022-07-30T19:17:10Z</time>
      </trkpt>
      <trkpt lat="49.88084" lon="2.26721">
        <ele>66.3</ele>
        <time>2022-07-30T19:17:11Z</time>
      </trkpt>
      <trkpt lat="49.88085" lon="2.26722">
        <ele>66.3</ele>
        <time>2022-07-30T19:17:12Z</time>
      </trkpt>
      <trkpt lat="49.88085" lon="2.26724">
        <ele>66.3</ele>
        <time>2022-07-30T19:17:13Z</time>
      </trkpt>
      <trkpt lat="49.88086" lon="2.26725">
        <ele>66.3</ele>
        <time>2022-07-30T19:17:14Z</time>
      </trkpt>
      <trkpt lat="49.88086" lon="2.26727">
        <ele>66.4</ele>
        <time>2022-07-30T19:17:15Z</time>
      </trkpt>
      <trkpt lat="49.88087" lon="2.26728">
        <ele>66.4</ele>
        <time>2022-07-30T19:17:17Z</time>
      </trkpt>
      <trkpt lat="49.88088" lon="2.2673">
        <ele>66.4</ele>
        <time>2022-07-30T19:17:18Z</time>
      </trkpt>
      <trkpt lat="49.88088" lon="2.26731">
        <ele>66.4</ele>
        <time>2022-07-30T19:17:19Z</time>
      </trkpt>
      <trkpt lat="49.88089" lon="2.26733">
        <ele>66.4</ele>
        <time>2022-07-30T19:17:20Z</time>
      </trkpt>
      <trkpt lat="49.88089" lon="2.26734">
        <ele>66.4</ele>
        <time>2022-07-30T19:17:21Z</time>
      </trkpt>
      <trkpt lat="49.88089" lon="2.26737">
        <ele>66.4</ele>
        <time>2022-07-30T19:17:23Z</time>
      </trkpt>
      <trkpt lat="49.8809" lon="2.26738">
        <ele>66.4</ele>
        <time>2022-07-30T19:17:24Z</time>
      </trkpt>
      <trkpt lat="49.8809" lon="2.26739">
        <ele>66.3</ele>
        <time>2022-07-30T19:17:25Z</time>
      </trkpt>
      <trkpt lat="49.8809" lon="2.2674">
        <ele>66.3</ele>
        <time>2022-07-30T19:17:26Z</time>
      </trkpt>
      <trkpt lat="49.88091" lon="2.26742">
        <ele>66.3</ele>
        <time>2022-07-30T19:17:27Z</time>
      </trkpt>
      <trkpt lat="49.88091" lon="2.26743">
        <ele>66.3</ele>
        <time>2022-07-30T19:17:28Z</time>
      </trkpt>
      <trkpt lat="49.88091" lon="2.26745">
        <ele>66.3</ele>
        <time>2022-07-30T19:17:29Z</time>
      </trkpt>
      <trkpt lat="49.88092" lon="2.26746">
        <ele>66.3</ele>
        <time>2022-07-30T19:17:30Z</time>
      </trkpt>
      <trkpt lat="49.88092" lon="2.26748">
        <ele>66.3</ele>
        <time>2022-07-30T19:17:31Z</time>
      </trkpt>
      <trkpt lat="49.88092" lon="2.26749">
        <ele>66.3</ele>
        <time>2022-07-30T19:17:32Z</time>
      </trkpt>
      <trkpt lat="49.88093" lon="2.26751">
        <ele>66.3</ele>
        <time>2022-07-30T19:17:34Z</time>
      </trkpt>
      <trkpt lat="49.88093" lon="2.26753">
        <ele>66.3</ele>
        <time>2022-07-30T19:17:35Z</time>
      </trkpt>
      <trkpt lat="49.88094" lon="2.26754">
        <ele>66.3</ele>
        <time>2022-07-30T19:17:36Z</time>
      </trkpt>
      <trkpt lat="49.88094" lon="2.26756">
        <ele>66.3</ele>
        <time>2022-07-30T19:17:37Z</time>
      </trkpt>
      <trkpt lat="49.88095" lon="2.26756">
        <ele>66.3</ele>
        <time>2022-07-30T19:17:38Z</time>
      </trkpt>
      <trkpt lat="49.88095" lon="2.26756">
        <ele>66.3</ele>
        <time>2022-07-30T19:17:39Z</time>
      </trkpt>
      <trkpt lat="49.88095" lon="2.26755">
        <ele>66.3</ele>
        <time>2022-07-30T19:17:40Z</time>
      </trkpt>
      <trkpt lat="49.88095" lon="2.26754">
        <ele>66.3</ele>
        <time>2022-07-30T19:17:41Z</time>
      </trkpt>
      <trkpt lat="49.88095" lon="2.26754">
        <ele>66.3</ele>
        <time>2022-07-30T19:17:42Z</time>
      </trkpt>
      <trkpt lat="49.88095" lon="2.26753">
        <ele>66.3</ele>
        <time>2022-07-30T19:17:43Z</time>
      </trkpt>
      <trkpt lat="49.88096" lon="2.26753">
        <ele>66.3</ele>
        <time>2022-07-30T19:17:44Z</time>
      </trkpt>
      <trkpt lat="49.88096" lon="2.26753">
        <ele>66.3</ele>
        <time>2022-07-30T19:17:45Z</time>
      </trkpt>
      <trkpt lat="49.88096" lon="2.26752">
        <ele>66.3</ele>
        <time>2022-07-30T19:17:46Z</time>
      </trkpt>
      <trkpt lat="49.88096" lon="2.26752">
        <ele>66.3</ele>
        <time>2022-07-30T19:17:47Z</time>
      </trkpt>
      <trkpt lat="49.88095" lon="2.26752">
        <ele>66.3</ele>
        <time>2022-07-30T19:17:48Z</time>
      </trkpt>
      <trkpt lat="49.88095" lon="2.26751">
        <ele>66.3</ele>
        <time>2022-07-30T19:17:49Z</time>
      </trkpt>
      <trkpt lat="49.88095" lon="2.26751">
        <ele>66.3</ele>
        <time>2022-07-30T19:17:50Z</time>
      </trkpt>
      <trkpt lat="49.88095" lon="2.26751">
        <ele>66.3</ele>
        <time>2022-07-30T19:17:51Z</time>
      </trkpt>
      <trkpt lat="49.88095" lon="2.26751">
        <ele>66.3</ele>
        <time>2022-07-30T19:17:52Z</time>
      </trkpt>
      <trkpt lat="49.88095" lon="2.26751">
        <ele>66.3</ele>
        <time>2022-07-30T19:17:53Z</time>
      </trkpt>
      <trkpt lat="49.88095" lon="2.26751">
        <ele>66.3</ele>
        <time>2022-07-30T19:17:54Z</time>
      </trkpt>
      <trkpt lat="49.88095" lon="2.26751">
        <ele>66.3</ele>
        <time>2022-07-30T19:17:55Z</time>
      </trkpt>
      <trkpt lat="49.88095" lon="2.26751">
        <ele>66.3</ele>
        <time>2022-07-30T19:17:56Z</time>
      </trkpt>
      <trkpt lat="49.88095" lon="2.26751">
        <ele>66.3</ele>
        <time>2022-07-30T19:17:57Z</time>
      </trkpt>
      <trkpt lat="49.88095" lon="2.26751">
        <ele>66.3</ele>
        <time>2022-07-30T19:17:58Z</time>
      </trkpt>
      <trkpt lat="49.88095" lon="2.26751">
        <ele>66.3</ele>
        <time>2022-07-30T19:17:59Z</time>
      </trkpt>
      <trkpt lat="49.88095" lon="2.26751">
        <ele>66.3</ele>
        <time>2022-07-30T19:18:00Z</time>
      </trkpt>
      <trkpt lat="49.88095" lon="2.26751">
        <ele>66.3</ele>
        <time>2022-07-30T19:18:01Z</time>
      </trkpt>
      <trkpt lat="49.88095" lon="2.26751">
        <ele>66.3</ele>
        <time>2022-07-30T19:18:02Z</time>
      </trkpt>
      <trkpt lat="49.88095" lon="2.26751">
        <ele>66.3</ele>
        <time>2022-07-30T19:18:03Z</time>
      </trkpt>
      <trkpt lat="49.88095" lon="2.26751">
        <ele>66.3</ele>
        <time>2022-07-30T19:18:04Z</time>
      </trkpt>
      <trkpt lat="49.88095" lon="2.26751">
        <ele>66.3</ele>
        <time>2022-07-30T19:18:05Z</time>
      </trkpt>
      <trkpt lat="49.88095" lon="2.26751">
        <ele>66.3</ele>
        <time>2022-07-30T19:18:06Z</time>
      </trkpt>
      <trkpt lat="49.88095" lon="2.26751">
        <ele>66.3</ele>
        <time>2022-07-30T19:18:07Z</time>
      </trkpt>
      <trkpt lat="49.88095" lon="2.26751">
        <ele>66.3</ele>
        <time>2022-07-30T19:18:08Z</time>
      </trkpt>
      <trkpt lat="49.88095" lon="2.26751">
        <ele>66.3</ele>
        <time>2022-07-30T19:18:09Z</time>
      </trkpt>
      <trkpt lat="49.88095" lon="2.26751">
        <ele>66.3</ele>
        <time>2022-07-30T19:18:10Z</time>
      </trkpt>
      <trkpt lat="49.88095" lon="2.26751">
        <ele>66.3</ele>
        <time>2022-07-30T19:18:11Z</time>
      </trkpt>
      <trkpt lat="49.88095" lon="2.26751">
        <ele>66.3</ele>
        <time>2022-07-30T19:18:12Z</time>
      </trkpt>
      <trkpt lat="49.88095" lon="2.26751">
        <ele>66.3</ele>
        <time>2022-07-30T19:18:13Z</time>
      </trkpt>
      <trkpt lat="49.88095" lon="2.26751">
        <ele>66.3</ele>
        <time>2022-07-30T19:18:14Z</time>
      </trkpt>
      <trkpt lat="49.88095" lon="2.26751">
        <ele>66.3</ele>
        <time>2022-07-30T19:18:15Z</time>
      </trkpt>
      <trkpt lat="49.88095" lon="2.26751">
        <ele>66.3</ele>
        <time>2022-07-30T19:18:16Z</time>
      </trkpt>
      <trkpt lat="49.88095" lon="2.26751">
        <ele>66.3</ele>
        <time>2022-07-30T19:18:17Z</time>
      </trkpt>
      <trkpt lat="49.88095" lon="2.26751">
        <ele>66.3</ele>
        <time>2022-07-30T19:18:18Z</time>
      </trkpt>
      <trkpt lat="49.88095" lon="2.26751">
        <ele>66.3</ele>
        <time>2022-07-30T19:18:19Z</time>
      </trkpt>
      <trkpt lat="49.88095" lon="2.26751">
        <ele>66.3</ele>
        <time>2022-07-30T19:18:20Z</time>
      </trkpt>
      <trkpt lat="49.88095" lon="2.26751">
        <ele>66.3</ele>
        <time>2022-07-30T19:18:21Z</time>
      </trkpt>
      <trkpt lat="49.88095" lon="2.26751">
        <ele>66.3</ele>
        <time>2022-07-30T19:18:22Z</time>
      </trkpt>
      <trkpt lat="49.88095" lon="2.26751">
        <ele>66.3</ele>
        <time>2022-07-30T19:18:23Z</time>
      </trkpt>
      <trkpt lat="49.88095" lon="2.26751">
        <ele>66.3</ele>
        <time>2022-07-30T19:18:24Z</time>
      </trkpt>
      <trkpt lat="49.88095" lon="2.26751">
        <ele>66.3</ele>
        <time>2022-07-30T19:18:25Z</time>
      </trkpt>
      <trkpt lat="49.88095" lon="2.26751">
        <ele>66.3</ele>
        <time>2022-07-30T19:18:26Z</time>
      </trkpt>
      <trkpt lat="49.88095" lon="2.26751">
        <ele>66.3</ele>
        <time>2022-07-30T19:18:27Z</time>
      </trkpt>
      <trkpt lat="49.88095" lon="2.26751">
        <ele>66.3</ele>
        <time>2022-07-30T19:18:28Z</time>
      </trkpt>
      <trkpt lat="49.88095" lon="2.26751">
        <ele>66.3</ele>
        <time>2022-07-30T19:18:29Z</time>
      </trkpt>
      <trkpt lat="49.88095" lon="2.26751">
        <ele>66.3</ele>
        <time>2022-07-30T19:18:30Z</time>
      </trkpt>
      <trkpt lat="49.88095" lon="2.26751">
        <ele>66.3</ele>
        <time>2022-07-30T19:18:31Z</time>
      </trkpt>
      <trkpt lat="49.88095" lon="2.26751">
        <ele>66.3</ele>
        <time>2022-07-30T19:18:32Z</time>
      </trkpt>
      <trkpt lat="49.88095" lon="2.26751">
        <ele>66.3</ele>
        <time>2022-07-30T19:18:33Z</time>
      </trkpt>
      <trkpt lat="49.88095" lon="2.26751">
        <ele>66.3</ele>
        <time>2022-07-30T19:18:34Z</time>
      </trkpt>
      <trkpt lat="49.88095" lon="2.26751">
        <ele>66.3</ele>
        <time>2022-07-30T19:18:35Z</time>
      </trkpt>
      <trkpt lat="49.88095" lon="2.26751">
        <ele>66.3</ele>
        <time>2022-07-30T19:18:36Z</time>
      </trkpt>
      <trkpt lat="49.88095" lon="2.26751">
        <ele>66.3</ele>
        <time>2022-07-30T19:18:37Z</time>
      </trkpt>
      <trkpt lat="49.88095" lon="2.26751">
        <ele>66.3</ele>
        <time>2022-07-30T19:18:38Z</time>
      </trkpt>
      <trkpt lat="49.88095" lon="2.26751">
        <ele>66.3</ele>
        <time>2022-07-30T19:18:39Z</time>
      </trkpt>
      <trkpt lat="49.88095" lon="2.26751">
        <ele>66.3</ele>
        <time>2022-07-30T19:18:40Z</time>
      </trkpt>
      <trkpt lat="49.88095" lon="2.26751">
        <ele>66.3</ele>
        <time>2022-07-30T19:18:41Z</time>
      </trkpt>
      <trkpt lat="49.88095" lon="2.26751">
        <ele>66.3</ele>
        <time>2022-07-30T19:18:42Z</time>
      </trkpt>
      <trkpt lat="49.88095" lon="2.26751">
        <ele>66.3</ele>
        <time>2022-07-30T19:18:43Z</time>
      </trkpt>
      <trkpt lat="49.88095" lon="2.26751">
        <ele>66.3</ele>
        <time>2022-07-30T19:18:44Z</time>
      </trkpt>
      <trkpt lat="49.88095" lon="2.26751">
        <ele>66.3</ele>
        <time>2022-07-30T19:18:45Z</time>
      </trkpt>
      <trkpt lat="49.88095" lon="2.26751">
        <ele>66.3</ele>
        <time>2022-07-30T19:18:46Z</time>
      </trkpt>
      <trkpt lat="49.88095" lon="2.26751">
        <ele>66.3</ele>
        <time>2022-07-30T19:18:47Z</time>
      </trkpt>
      <trkpt lat="49.88095" lon="2.26751">
        <ele>66.3</ele>
        <time>2022-07-30T19:18:48Z</time>
      </trkpt>
      <trkpt lat="49.88095" lon="2.26751">
        <ele>66.3</ele>
        <time>2022-07-30T19:18:49Z</time>
      </trkpt>
      <trkpt lat="49.88095" lon="2.26751">
        <ele>66.3</ele>
        <time>2022-07-30T19:18:50Z</time>
      </trkpt>
      <trkpt lat="49.88095" lon="2.26751">
        <ele>66.3</ele>
        <time>2022-07-30T19:18:51Z</time>
      </trkpt>
      <trkpt lat="49.88095" lon="2.26751">
        <ele>66.3</ele>
        <time>2022-07-30T19:18:52Z</time>
      </trkpt>
      <trkpt lat="49.88095" lon="2.26751">
        <ele>66.3</ele>
        <time>2022-07-30T19:18:53Z</time>
      </trkpt>
      <trkpt lat="49.88095" lon="2.26751">
        <ele>66.3</ele>
        <time>2022-07-30T19:18:54Z</time>
      </trkpt>
      <trkpt lat="49.88095" lon="2.26751">
        <ele>66.3</ele>
        <time>2022-07-30T19:18:55Z</time>
      </trkpt>
      <trkpt lat="49.88095" lon="2.26751">
        <ele>66.3</ele>
        <time>2022-07-30T19:18:56Z</time>
      </trkpt>
      <trkpt lat="49.88095" lon="2.26751">
        <ele>66.3</ele>
        <time>2022-07-30T19:18:57Z</time>
      </trkpt>
      <trkpt lat="49.88095" lon="2.26751">
        <ele>66.3</ele>
        <time>2022-07-30T19:18:58Z</time>
      </trkpt>
      <trkpt lat="49.88093" lon="2.26749">
        <ele>66.2</ele>
        <time>2022-07-30T19:18:59Z</time>
      </trkpt>
      <trkpt lat="49.88092" lon="2.26748">
        <ele>66.2</ele>
        <time>2022-07-30T19:19:00Z</time>
      </trkpt>
      <trkpt lat="49.88093" lon="2.2675">
        <ele>66.2</ele>
        <time>2022-07-30T19:19:01Z</time>
      </trkpt>
      <trkpt lat="49.88094" lon="2.2675">
        <ele>66.2</ele>
        <time>2022-07-30T19:19:02Z</time>
      </trkpt>
      <trkpt lat="49.88094" lon="2.26751">
        <ele>66.2</ele>
        <time>2022-07-30T19:19:03Z</time>
      </trkpt>
      <trkpt lat="49.88093" lon="2.26751">
        <ele>66.2</ele>
        <time>2022-07-30T19:19:04Z</time>
      </trkpt>
      <trkpt lat="49.88092" lon="2.26752">
        <ele>66.2</ele>
        <time>2022-07-30T19:19:05Z</time>
      </trkpt>
      <trkpt lat="49.88092" lon="2.26755">
        <ele>66.2</ele>
        <time>2022-07-30T19:19:07Z</time>
      </trkpt>
      <trkpt lat="49.88093" lon="2.26758">
        <ele>66.2</ele>
        <time>2022-07-30T19:19:08Z</time>
      </trkpt>
      <trkpt lat="49.88093" lon="2.2676">
        <ele>66.2</ele>
        <time>2022-07-30T19:19:10Z</time>
      </trkpt>
      <trkpt lat="49.88094" lon="2.26762">
        <ele>66.2</ele>
        <time>2022-07-30T19:19:11Z</time>
      </trkpt>
      <trkpt lat="49.88095" lon="2.26764">
        <ele>66.2</ele>
        <time>2022-07-30T19:19:12Z</time>
      </trkpt>
      <trkpt lat="49.88096" lon="2.26767">
        <ele>66.1</ele>
        <time>2022-07-30T19:19:13Z</time>
      </trkpt>
      <trkpt lat="49.88096" lon="2.26768">
        <ele>66.1</ele>
        <time>2022-07-30T19:19:15Z</time>
      </trkpt>
      <trkpt lat="49.88097" lon="2.2677">
        <ele>66.1</ele>
        <time>2022-07-30T19:19:16Z</time>
      </trkpt>
      <trkpt lat="49.88097" lon="2.26771">
        <ele>66.1</ele>
        <time>2022-07-30T19:19:17Z</time>
      </trkpt>
      <trkpt lat="49.88098" lon="2.26772">
        <ele>66.1</ele>
        <time>2022-07-30T19:19:18Z</time>
      </trkpt>
      <trkpt lat="49.88098" lon="2.26774">
        <ele>66.1</ele>
        <time>2022-07-30T19:19:19Z</time>
      </trkpt>
      <trkpt lat="49.88099" lon="2.26775">
        <ele>66.1</ele>
        <time>2022-07-30T19:19:20Z</time>
      </trkpt>
      <trkpt lat="49.881" lon="2.26776">
        <ele>66.1</ele>
        <time>2022-07-30T19:19:21Z</time>
      </trkpt>
      <trkpt lat="49.88102" lon="2.26778">
        <ele>66.1</ele>
        <time>2022-07-30T19:19:23Z</time>
      </trkpt>
      <trkpt lat="49.88103" lon="2.26779">
        <ele>66.1</ele>
        <time>2022-07-30T19:19:24Z</time>
      </trkpt>
      <trkpt lat="49.88103" lon="2.2678">
        <ele>66.1</ele>
        <time>2022-07-30T19:19:25Z</time>
      </trkpt>
      <trkpt lat="49.88105" lon="2.26782">
        <ele>66.1</ele>
        <time>2022-07-30T19:19:26Z</time>
      </trkpt>
      <trkpt lat="49.88105" lon="2.26782">
        <ele>66</ele>
        <time>2022-07-30T19:19:27Z</time>
      </trkpt>
      <trkpt lat="49.88106" lon="2.26783">
        <ele>66</ele>
        <time>2022-07-30T19:19:28Z</time>
      </trkpt>
      <trkpt lat="49.88107" lon="2.26784">
        <ele>66</ele>
        <time>2022-07-30T19:19:29Z</time>
      </trkpt>
      <trkpt lat="49.88107" lon="2.26785">
        <ele>66</ele>
        <time>2022-07-30T19:19:31Z</time>
      </trkpt>
      <trkpt lat="49.88108" lon="2.26787">
        <ele>66</ele>
        <time>2022-07-30T19:19:32Z</time>
      </trkpt>
      <trkpt lat="49.8811" lon="2.26788">
        <ele>66</ele>
        <time>2022-07-30T19:19:33Z</time>
      </trkpt>
      <trkpt lat="49.88111" lon="2.26789">
        <ele>66</ele>
        <time>2022-07-30T19:19:34Z</time>
      </trkpt>
      <trkpt lat="49.88111" lon="2.26789">
        <ele>66</ele>
        <time>2022-07-30T19:19:35Z</time>
      </trkpt>
      <trkpt lat="49.88113" lon="2.26791">
        <ele>66</ele>
        <time>2022-07-30T19:19:37Z</time>
      </trkpt>
      <trkpt lat="49.88114" lon="2.26792">
        <ele>66</ele>
        <time>2022-07-30T19:19:38Z</time>
      </trkpt>
      <trkpt lat="49.88115" lon="2.26793">
        <ele>65.9</ele>
        <time>2022-07-30T19:19:39Z</time>
      </trkpt>
      <trkpt lat="49.88116" lon="2.26794">
        <ele>65.9</ele>
        <time>2022-07-30T19:19:40Z</time>
      </trkpt>
      <trkpt lat="49.88117" lon="2.26796">
        <ele>65.9</ele>
        <time>2022-07-30T19:19:42Z</time>
      </trkpt>
      <trkpt lat="49.88118" lon="2.26797">
        <ele>65.9</ele>
        <time>2022-07-30T19:19:43Z</time>
      </trkpt>
      <trkpt lat="49.88119" lon="2.26798">
        <ele>65.9</ele>
        <time>2022-07-30T19:19:44Z</time>
      </trkpt>
      <trkpt lat="49.88119" lon="2.26799">
        <ele>65.9</ele>
        <time>2022-07-30T19:19:46Z</time>
      </trkpt>
      <trkpt lat="49.8812" lon="2.268">
        <ele>65.9</ele>
        <time>2022-07-30T19:19:47Z</time>
      </trkpt>
      <trkpt lat="49.8812" lon="2.26802">
        <ele>65.9</ele>
        <time>2022-07-30T19:19:48Z</time>
      </trkpt>
      <trkpt lat="49.88121" lon="2.26803">
        <ele>65.9</ele>
        <time>2022-07-30T19:19:49Z</time>
      </trkpt>
      <trkpt lat="49.88121" lon="2.26804">
        <ele>65.9</ele>
        <time>2022-07-30T19:19:51Z</time>
      </trkpt>
      <trkpt lat="49.88122" lon="2.26806">
        <ele>65.8</ele>
        <time>2022-07-30T19:19:52Z</time>
      </trkpt>
      <trkpt lat="49.88122" lon="2.26807">
        <ele>65.8</ele>
        <time>2022-07-30T19:19:53Z</time>
      </trkpt>
      <trkpt lat="49.88123" lon="2.26809">
        <ele>65.8</ele>
        <time>2022-07-30T19:19:54Z</time>
      </trkpt>
      <trkpt lat="49.88123" lon="2.2681">
        <ele>65.8</ele>
        <time>2022-07-30T19:19:56Z</time>
      </trkpt>
      <trkpt lat="49.88123" lon="2.26812">
        <ele>65.8</ele>
        <time>2022-07-30T19:19:57Z</time>
      </trkpt>
      <trkpt lat="49.88124" lon="2.26814">
        <ele>65.8</ele>
        <time>2022-07-30T19:19:58Z</time>
      </trkpt>
      <trkpt lat="49.88125" lon="2.26814">
        <ele>65.8</ele>
        <time>2022-07-30T19:19:59Z</time>
      </trkpt>
      <trkpt lat="49.88125" lon="2.26815">
        <ele>65.8</ele>
        <time>2022-07-30T19:20:00Z</time>
      </trkpt>
      <trkpt lat="49.88126" lon="2.26816">
        <ele>65.8</ele>
        <time>2022-07-30T19:20:01Z</time>
      </trkpt>
      <trkpt lat="49.88126" lon="2.26818">
        <ele>65.8</ele>
        <time>2022-07-30T19:20:02Z</time>
      </trkpt>
      <trkpt lat="49.88127" lon="2.2682">
        <ele>65.7</ele>
        <time>2022-07-30T19:20:04Z</time>
      </trkpt>
      <trkpt lat="49.88128" lon="2.26821">
        <ele>65.7</ele>
        <time>2022-07-30T19:20:05Z</time>
      </trkpt>
      <trkpt lat="49.88128" lon="2.26822">
        <ele>65.7</ele>
        <time>2022-07-30T19:20:06Z</time>
      </trkpt>
      <trkpt lat="49.88129" lon="2.26824">
        <ele>65.7</ele>
        <time>2022-07-30T19:20:08Z</time>
      </trkpt>
      <trkpt lat="49.88129" lon="2.26825">
        <ele>65.7</ele>
        <time>2022-07-30T19:20:09Z</time>
      </trkpt>
      <trkpt lat="49.88129" lon="2.26825">
        <ele>65.7</ele>
        <time>2022-07-30T19:20:10Z</time>
      </trkpt>
      <trkpt lat="49.88129" lon="2.26825">
        <ele>65.7</ele>
        <time>2022-07-30T19:20:11Z</time>
      </trkpt>
      <trkpt lat="49.88129" lon="2.26825">
        <ele>65.7</ele>
        <time>2022-07-30T19:20:12Z</time>
      </trkpt>
      <trkpt lat="49.88129" lon="2.26826">
        <ele>65.7</ele>
        <time>2022-07-30T19:20:13Z</time>
      </trkpt>
      <trkpt lat="49.88129" lon="2.26826">
        <ele>65.7</ele>
        <time>2022-07-30T19:20:14Z</time>
      </trkpt>
      <trkpt lat="49.88129" lon="2.26826">
        <ele>65.7</ele>
        <time>2022-07-30T19:20:15Z</time>
      </trkpt>
      <trkpt lat="49.88129" lon="2.26826">
        <ele>65.7</ele>
        <time>2022-07-30T19:20:16Z</time>
      </trkpt>
      <trkpt lat="49.88129" lon="2.26826">
        <ele>65.7</ele>
        <time>2022-07-30T19:20:17Z</time>
      </trkpt>
      <trkpt lat="49.88129" lon="2.26826">
        <ele>65.7</ele>
        <time>2022-07-30T19:20:18Z</time>
      </trkpt>
      <trkpt lat="49.88129" lon="2.26826">
        <ele>65.7</ele>
        <time>2022-07-30T19:20:19Z</time>
      </trkpt>
      <trkpt lat="49.88129" lon="2.26826">
        <ele>65.7</ele>
        <time>2022-07-30T19:20:20Z</time>
      </trkpt>
      <trkpt lat="49.88129" lon="2.26825">
        <ele>65.7</ele>
        <time>2022-07-30T19:20:21Z</time>
      </trkpt>
      <trkpt lat="49.88129" lon="2.26825">
        <ele>65.7</ele>
        <time>2022-07-30T19:20:22Z</time>
      </trkpt>
      <trkpt lat="49.88129" lon="2.26825">
        <ele>65.7</ele>
        <time>2022-07-30T19:20:23Z</time>
      </trkpt>
      <trkpt lat="49.88129" lon="2.26825">
        <ele>65.7</ele>
        <time>2022-07-30T19:20:24Z</time>
      </trkpt>
      <trkpt lat="49.88129" lon="2.26825">
        <ele>65.7</ele>
        <time>2022-07-30T19:20:25Z</time>
      </trkpt>
      <trkpt lat="49.88129" lon="2.26825">
        <ele>65.7</ele>
        <time>2022-07-30T19:20:26Z</time>
      </trkpt>
      <trkpt lat="49.88129" lon="2.26825">
        <ele>65.7</ele>
        <time>2022-07-30T19:20:27Z</time>
      </trkpt>
      <trkpt lat="49.88129" lon="2.26824">
        <ele>65.7</ele>
        <time>2022-07-30T19:20:28Z</time>
      </trkpt>
      <trkpt lat="49.88129" lon="2.26824">
        <ele>65.7</ele>
        <time>2022-07-30T19:20:29Z</time>
      </trkpt>
      <trkpt lat="49.88129" lon="2.26824">
        <ele>65.7</ele>
        <time>2022-07-30T19:20:30Z</time>
      </trkpt>
      <trkpt lat="49.88129" lon="2.26824">
        <ele>65.7</ele>
        <time>2022-07-30T19:20:31Z</time>
      </trkpt>
      <trkpt lat="49.88129" lon="2.26824">
        <ele>65.7</ele>
        <time>2022-07-30T19:20:32Z</time>
      </trkpt>
      <trkpt lat="49.88129" lon="2.26824">
        <ele>65.7</ele>
        <time>2022-07-30T19:20:33Z</time>
      </trkpt>
      <trkpt lat="49.88129" lon="2.26824">
        <ele>65.7</ele>
        <time>2022-07-30T19:20:34Z</time>
      </trkpt>
      <trkpt lat="49.88129" lon="2.26824">
        <ele>65.7</ele>
        <time>2022-07-30T19:20:35Z</time>
      </trkpt>
      <trkpt lat="49.88129" lon="2.26824">
        <ele>65.7</ele>
        <time>2022-07-30T19:20:36Z</time>
      </trkpt>
      <trkpt lat="49.88129" lon="2.26824">
        <ele>65.7</ele>
        <time>2022-07-30T19:20:37Z</time>
      </trkpt>
      <trkpt lat="49.88129" lon="2.26824">
        <ele>65.7</ele>
        <time>2022-07-30T19:20:38Z</time>
      </trkpt>
      <trkpt lat="49.88129" lon="2.26824">
        <ele>65.7</ele>
        <time>2022-07-30T19:20:39Z</time>
      </trkpt>
      <trkpt lat="49.88129" lon="2.26824">
        <ele>65.7</ele>
        <time>2022-07-30T19:20:40Z</time>
      </trkpt>
      <trkpt lat="49.88129" lon="2.26824">
        <ele>65.7</ele>
        <time>2022-07-30T19:20:41Z</time>
      </trkpt>
      <trkpt lat="49.88129" lon="2.26824">
        <ele>65.7</ele>
        <time>2022-07-30T19:20:42Z</time>
      </trkpt>
      <trkpt lat="49.88129" lon="2.26824">
        <ele>65.7</ele>
        <time>2022-07-30T19:20:43Z</time>
      </trkpt>
      <trkpt lat="49.88129" lon="2.26824">
        <ele>65.7</ele>
        <time>2022-07-30T19:20:44Z</time>
      </trkpt>
      <trkpt lat="49.88129" lon="2.26824">
        <ele>65.7</ele>
        <time>2022-07-30T19:20:45Z</time>
      </trkpt>
      <trkpt lat="49.88129" lon="2.26824">
        <ele>65.7</ele>
        <time>2022-07-30T19:20:46Z</time>
      </trkpt>
      <trkpt lat="49.88129" lon="2.26824">
        <ele>65.7</ele>
        <time>2022-07-30T19:20:47Z</time>
      </trkpt>
      <trkpt lat="49.88129" lon="2.26824">
        <ele>65.7</ele>
        <time>2022-07-30T19:20:48Z</time>
      </trkpt>
      <trkpt lat="49.88129" lon="2.26824">
        <ele>65.7</ele>
        <time>2022-07-30T19:20:49Z</time>
      </trkpt>
      <trkpt lat="49.88129" lon="2.26824">
        <ele>65.7</ele>
        <time>2022-07-30T19:20:50Z</time>
      </trkpt>
      <trkpt lat="49.88129" lon="2.26824">
        <ele>65.7</ele>
        <time>2022-07-30T19:20:51Z</time>
      </trkpt>
      <trkpt lat="49.88129" lon="2.26824">
        <ele>65.7</ele>
        <time>2022-07-30T19:20:52Z</time>
      </trkpt>
      <trkpt lat="49.88129" lon="2.26824">
        <ele>65.7</ele>
        <time>2022-07-30T19:20:53Z</time>
      </trkpt>
      <trkpt lat="49.88129" lon="2.26824">
        <ele>65.7</ele>
        <time>2022-07-30T19:20:54Z</time>
      </trkpt>
      <trkpt lat="49.88129" lon="2.26824">
        <ele>65.7</ele>
        <time>2022-07-30T19:20:55Z</time>
      </trkpt>
      <trkpt lat="49.88129" lon="2.26824">
        <ele>65.7</ele>
        <time>2022-07-30T19:20:56Z</time>
      </trkpt>
      <trkpt lat="49.88129" lon="2.26824">
        <ele>65.7</ele>
        <time>2022-07-30T19:20:57Z</time>
      </trkpt>
      <trkpt lat="49.88129" lon="2.26824">
        <ele>65.7</ele>
        <time>2022-07-30T19:20:58Z</time>
      </trkpt>
      <trkpt lat="49.88129" lon="2.26824">
        <ele>65.7</ele>
        <time>2022-07-30T19:20:59Z</time>
      </trkpt>
      <trkpt lat="49.88129" lon="2.26824">
        <ele>65.7</ele>
        <time>2022-07-30T19:21:00Z</time>
      </trkpt>
      <trkpt lat="49.88129" lon="2.26824">
        <ele>65.7</ele>
        <time>2022-07-30T19:21:01Z</time>
      </trkpt>
      <trkpt lat="49.88129" lon="2.26824">
        <ele>65.7</ele>
        <time>2022-07-30T19:21:02Z</time>
      </trkpt>
      <trkpt lat="49.88129" lon="2.26824">
        <ele>65.7</ele>
        <time>2022-07-30T19:21:03Z</time>
      </trkpt>
      <trkpt lat="49.88129" lon="2.26824">
        <ele>65.7</ele>
        <time>2022-07-30T19:21:04Z</time>
      </trkpt>
      <trkpt lat="49.88129" lon="2.26824">
        <ele>65.7</ele>
        <time>2022-07-30T19:21:05Z</time>
      </trkpt>
      <trkpt lat="49.88129" lon="2.26824">
        <ele>65.7</ele>
        <time>2022-07-30T19:21:06Z</time>
      </trkpt>
      <trkpt lat="49.88129" lon="2.26824">
        <ele>65.7</ele>
        <time>2022-07-30T19:21:07Z</time>
      </trkpt>
      <trkpt lat="49.88129" lon="2.26824">
        <ele>65.7</ele>
        <time>2022-07-30T19:21:08Z</time>
      </trkpt>
      <trkpt lat="49.88129" lon="2.26824">
        <ele>65.7</ele>
        <time>2022-07-30T19:21:09Z</time>
      </trkpt>
      <trkpt lat="49.88129" lon="2.26824">
        <ele>65.7</ele>
        <time>2022-07-30T19:21:10Z</time>
      </trkpt>
      <trkpt lat="49.88129" lon="2.26824">
        <ele>65.7</ele>
        <time>2022-07-30T19:21:11Z</time>
      </trkpt>
      <trkpt lat="49.88129" lon="2.26825">
        <ele>65.7</ele>
        <time>2022-07-30T19:21:12Z</time>
      </trkpt>
      <trkpt lat="49.88128" lon="2.26825">
        <ele>65.7</ele>
        <time>2022-07-30T19:21:13Z</time>
      </trkpt>
      <trkpt lat="49.88128" lon="2.26826">
        <ele>65.7</ele>
        <time>2022-07-30T19:21:15Z</time>
      </trkpt>
      <trkpt lat="49.88126" lon="2.26828">
        <ele>65.6</ele>
        <time>2022-07-30T19:21:16Z</time>
      </trkpt>
      <trkpt lat="49.88126" lon="2.26831">
        <ele>65.6</ele>
        <time>2022-07-30T19:21:17Z</time>
      </trkpt>
      <trkpt lat="49.88126" lon="2.26833">
        <ele>65.6</ele>
        <time>2022-07-30T19:21:18Z</time>
      </trkpt>
      <trkpt lat="49.88126" lon="2.26835">
        <ele>65.6</ele>
        <time>2022-07-30T19:21:20Z</time>
      </trkpt>
      <trkpt lat="49.88127" lon="2.26837">
        <ele>65.6</ele>
        <time>2022-07-30T19:21:21Z</time>
      </trkpt>
      <trkpt lat="49.88127" lon="2.26838">
        <ele>65.6</ele>
        <time>2022-07-30T19:21:23Z</time>
      </trkpt>
      <trkpt lat="49.88127" lon="2.2684">
        <ele>65.6</ele>
        <time>2022-07-30T19:21:24Z</time>
      </trkpt>
      <trkpt lat="49.88127" lon="2.26843">
        <ele>65.5</ele>
        <time>2022-07-30T19:21:25Z</time>
      </trkpt>
      <trkpt lat="49.88127" lon="2.26846">
        <ele>65.5</ele>
        <time>2022-07-30T19:21:27Z</time>
      </trkpt>
      <trkpt lat="49.88128" lon="2.26847">
        <ele>65.5</ele>
        <time>2022-07-30T19:21:28Z</time>
      </trkpt>
      <trkpt lat="49.8813" lon="2.26847">
        <ele>65.5</ele>
        <time>2022-07-30T19:21:29Z</time>
      </trkpt>
      <trkpt lat="49.88131" lon="2.26847">
        <ele>65.5</ele>
        <time>2022-07-30T19:21:30Z</time>
      </trkpt>
      <trkpt lat="49.88132" lon="2.26848">
        <ele>65.5</ele>
        <time>2022-07-30T19:21:32Z</time>
      </trkpt>
      <trkpt lat="49.88133" lon="2.26848">
        <ele>65.5</ele>
        <time>2022-07-30T19:21:33Z</time>
      </trkpt>
      <trkpt lat="49.88134" lon="2.26848">
        <ele>65.4</ele>
        <time>2022-07-30T19:21:34Z</time>
      </trkpt>
      <trkpt lat="49.88135" lon="2.26848">
        <ele>65.4</ele>
        <time>2022-07-30T19:21:35Z</time>
      </trkpt>
      <trkpt lat="49.88136" lon="2.26848">
        <ele>65.4</ele>
        <time>2022-07-30T19:21:36Z</time>
      </trkpt>
      <trkpt lat="49.88137" lon="2.26848">
        <ele>65.4</ele>
        <time>2022-07-30T19:21:38Z</time>
      </trkpt>
      <trkpt lat="49.88139" lon="2.26848">
        <ele>65.4</ele>
        <time>2022-07-30T19:21:39Z</time>
      </trkpt>
      <trkpt lat="49.8814" lon="2.26849">
        <ele>65.4</ele>
        <time>2022-07-30T19:21:40Z</time>
      </trkpt>
      <trkpt lat="49.8814" lon="2.26849">
        <ele>65.4</ele>
        <time>2022-07-30T19:21:41Z</time>
      </trkpt>
      <trkpt lat="49.88142" lon="2.26851">
        <ele>65.4</ele>
        <time>2022-07-30T19:21:43Z</time>
      </trkpt>
      <trkpt lat="49.88143" lon="2.26852">
        <ele>65.4</ele>
        <time>2022-07-30T19:21:44Z</time>
      </trkpt>
      <trkpt lat="49.88143" lon="2.26853">
        <ele>65.4</ele>
        <time>2022-07-30T19:21:45Z</time>
      </trkpt>
      <trkpt lat="49.88144" lon="2.26855">
        <ele>65.4</ele>
        <time>2022-07-30T19:21:46Z</time>
      </trkpt>
      <trkpt lat="49.88145" lon="2.26856">
        <ele>65.4</ele>
        <time>2022-07-30T19:21:48Z</time>
      </trkpt>
      <trkpt lat="49.88146" lon="2.26858">
        <ele>65.4</ele>
        <time>2022-07-30T19:21:49Z</time>
      </trkpt>
      <trkpt lat="49.88147" lon="2.2686">
        <ele>65.4</ele>
        <time>2022-07-30T19:21:50Z</time>
      </trkpt>
      <trkpt lat="49.88148" lon="2.26861">
        <ele>65.4</ele>
        <time>2022-07-30T19:21:51Z</time>
      </trkpt>
      <trkpt lat="49.88148" lon="2.26862">
        <ele>65.3</ele>
        <time>2022-07-30T19:21:52Z</time>
      </trkpt>
      <trkpt lat="49.88149" lon="2.26864">
        <ele>65.3</ele>
        <time>2022-07-30T19:21:53Z</time>
      </trkpt>
      <trkpt lat="49.8815" lon="2.26867">
        <ele>65.3</ele>
        <time>2022-07-30T19:21:54Z</time>
      </trkpt>
      <trkpt lat="49.8815" lon="2.26868">
        <ele>65.3</ele>
        <time>2022-07-30T19:21:55Z</time>
      </trkpt>
      <trkpt lat="49.88151" lon="2.26869">
        <ele>65.3</ele>
        <time>2022-07-30T19:21:57Z</time>
      </trkpt>
      <trkpt lat="49.88151" lon="2.26871">
        <ele>65.3</ele>
        <time>2022-07-30T19:21:58Z</time>
      </trkpt>
      <trkpt lat="49.88152" lon="2.26872">
        <ele>65.3</ele>
        <time>2022-07-30T19:21:59Z</time>
      </trkpt>
      <trkpt lat="49.88153" lon="2.26875">
        <ele>65.3</ele>
        <time>2022-07-30T19:22:00Z</time>
      </trkpt>
      <trkpt lat="49.88153" lon="2.26876">
        <ele>65.3</ele>
        <time>2022-07-30T19:22:01Z</time>
      </trkpt>
      <trkpt lat="49.88154" lon="2.26877">
        <ele>65.3</ele>
        <time>2022-07-30T19:22:02Z</time>
      </trkpt>
      <trkpt lat="49.88155" lon="2.2688">
        <ele>65.3</ele>
        <time>2022-07-30T19:22:04Z</time>
      </trkpt>
      <trkpt lat="49.88157" lon="2.26881">
        <ele>65.3</ele>
        <time>2022-07-30T19:22:05Z</time>
      </trkpt>
      <trkpt lat="49.88157" lon="2.26882">
        <ele>65.3</ele>
        <time>2022-07-30T19:22:06Z</time>
      </trkpt>
      <trkpt lat="49.88158" lon="2.26883">
        <ele>65.3</ele>
        <time>2022-07-30T19:22:07Z</time>
      </trkpt>
      <trkpt lat="49.88159" lon="2.26884">
        <ele>65.3</ele>
        <time>2022-07-30T19:22:08Z</time>
      </trkpt>
      <trkpt lat="49.8816" lon="2.26887">
        <ele>65.3</ele>
        <time>2022-07-30T19:22:09Z</time>
      </trkpt>
      <trkpt lat="49.88161" lon="2.26888">
        <ele>65.3</ele>
        <time>2022-07-30T19:22:11Z</time>
      </trkpt>
      <trkpt lat="49.88161" lon="2.26889">
        <ele>65.3</ele>
        <time>2022-07-30T19:22:12Z</time>
      </trkpt>
      <trkpt lat="49.88161" lon="2.26891">
        <ele>65.3</ele>
        <time>2022-07-30T19:22:13Z</time>
      </trkpt>
      <trkpt lat="49.88162" lon="2.26894">
        <ele>65.2</ele>
        <time>2022-07-30T19:22:15Z</time>
      </trkpt>
      <trkpt lat="49.88162" lon="2.26894">
        <ele>65.2</ele>
        <time>2022-07-30T19:22:16Z</time>
      </trkpt>
      <trkpt lat="49.88162" lon="2.26896">
        <ele>65.2</ele>
        <time>2022-07-30T19:22:17Z</time>
      </trkpt>
      <trkpt lat="49.88162" lon="2.26898">
        <ele>65.2</ele>
        <time>2022-07-30T19:22:18Z</time>
      </trkpt>
      <trkpt lat="49.88162" lon="2.269">
        <ele>65.2</ele>
        <time>2022-07-30T19:22:20Z</time>
      </trkpt>
      <trkpt lat="49.88162" lon="2.26901">
        <ele>65.2</ele>
        <time>2022-07-30T19:22:21Z</time>
      </trkpt>
      <trkpt lat="49.88162" lon="2.26902">
        <ele>65.2</ele>
        <time>2022-07-30T19:22:22Z</time>
      </trkpt>
      <trkpt lat="49.88163" lon="2.26903">
        <ele>65.2</ele>
        <time>2022-07-30T19:22:23Z</time>
      </trkpt>
      <trkpt lat="49.88163" lon="2.26904">
        <ele>65.2</ele>
        <time>2022-07-30T19:22:24Z</time>
      </trkpt>
      <trkpt lat="49.88163" lon="2.26905">
        <ele>65.2</ele>
        <time>2022-07-30T19:22:25Z</time>
      </trkpt>
      <trkpt lat="49.88164" lon="2.26906">
        <ele>65.2</ele>
        <time>2022-07-30T19:22:26Z</time>
      </trkpt>
      <trkpt lat="49.88164" lon="2.26908">
        <ele>65.2</ele>
        <time>2022-07-30T19:22:27Z</time>
      </trkpt>
      <trkpt lat="49.88164" lon="2.26909">
        <ele>65.2</ele>
        <time>2022-07-30T19:22:29Z</time>
      </trkpt>
      <trkpt lat="49.88164" lon="2.26912">
        <ele>65.2</ele>
        <time>2022-07-30T19:22:30Z</time>
      </trkpt>
      <trkpt lat="49.88164" lon="2.26913">
        <ele>65.2</ele>
        <time>2022-07-30T19:22:31Z</time>
      </trkpt>
      <trkpt lat="49.88164" lon="2.26914">
        <ele>65.2</ele>
        <time>2022-07-30T19:22:32Z</time>
      </trkpt>
      <trkpt lat="49.88165" lon="2.26914">
        <ele>65.1</ele>
        <time>2022-07-30T19:22:33Z</time>
      </trkpt>
      <trkpt lat="49.88165" lon="2.26916">
        <ele>65.1</ele>
        <time>2022-07-30T19:22:34Z</time>
      </trkpt>
      <trkpt lat="49.88165" lon="2.26918">
        <ele>65.1</ele>
        <time>2022-07-30T19:22:36Z</time>
      </trkpt>
      <trkpt lat="49.88165" lon="2.26919">
        <ele>65.1</ele>
        <time>2022-07-30T19:22:37Z</time>
      </trkpt>
      <trkpt lat="49.88166" lon="2.2692">
        <ele>65.1</ele>
        <time>2022-07-30T19:22:38Z</time>
      </trkpt>
      <trkpt lat="49.88166" lon="2.26921">
        <ele>65.1</ele>
        <time>2022-07-30T19:22:39Z</time>
      </trkpt>
      <trkpt lat="49.88166" lon="2.26923">
        <ele>65.1</ele>
        <time>2022-07-30T19:22:40Z</time>
      </trkpt>
      <trkpt lat="49.88166" lon="2.26925">
        <ele>65.1</ele>
        <time>2022-07-30T19:22:41Z</time>
      </trkpt>
      <trkpt lat="49.88167" lon="2.26926">
        <ele>65.1</ele>
        <time>2022-07-30T19:22:43Z</time>
      </trkpt>
      <trkpt lat="49.88167" lon="2.26928">
        <ele>65.1</ele>
        <time>2022-07-30T19:22:44Z</time>
      </trkpt>
      <trkpt lat="49.88169" lon="2.2693">
        <ele>65.1</ele>
        <time>2022-07-30T19:22:45Z</time>
      </trkpt>
      <trkpt lat="49.8817" lon="2.26931">
        <ele>65.1</ele>
        <time>2022-07-30T19:22:46Z</time>
      </trkpt>
      <trkpt lat="49.88172" lon="2.26933">
        <ele>65.1</ele>
        <time>2022-07-30T19:22:47Z</time>
      </trkpt>
      <trkpt lat="49.88172" lon="2.26934">
        <ele>65.1</ele>
        <time>2022-07-30T19:22:49Z</time>
      </trkpt>
      <trkpt lat="49.88173" lon="2.26935">
        <ele>65</ele>
        <time>2022-07-30T19:22:50Z</time>
      </trkpt>
      <trkpt lat="49.88173" lon="2.26936">
        <ele>65</ele>
        <time>2022-07-30T19:22:51Z</time>
      </trkpt>
      <trkpt lat="49.88173" lon="2.26939">
        <ele>65</ele>
        <time>2022-07-30T19:22:53Z</time>
      </trkpt>
      <trkpt lat="49.88173" lon="2.2694">
        <ele>65</ele>
        <time>2022-07-30T19:22:54Z</time>
      </trkpt>
      <trkpt lat="49.88173" lon="2.26941">
        <ele>65</ele>
        <time>2022-07-30T19:22:55Z</time>
      </trkpt>
      <trkpt lat="49.88173" lon="2.26941">
        <ele>65</ele>
        <time>2022-07-30T19:22:56Z</time>
      </trkpt>
      <trkpt lat="49.88173" lon="2.26941">
        <ele>65</ele>
        <time>2022-07-30T19:22:57Z</time>
      </trkpt>
      <trkpt lat="49.88173" lon="2.26942">
        <ele>65</ele>
        <time>2022-07-30T19:22:58Z</time>
      </trkpt>
      <trkpt lat="49.88173" lon="2.26942">
        <ele>65</ele>
        <time>2022-07-30T19:22:59Z</time>
      </trkpt>
      <trkpt lat="49.88174" lon="2.26943">
        <ele>65</ele>
        <time>2022-07-30T19:23:00Z</time>
      </trkpt>
      <trkpt lat="49.88175" lon="2.26944">
        <ele>65</ele>
        <time>2022-07-30T19:23:02Z</time>
      </trkpt>
      <trkpt lat="49.88175" lon="2.26946">
        <ele>65</ele>
        <time>2022-07-30T19:23:03Z</time>
      </trkpt>
      <trkpt lat="49.88176" lon="2.26947">
        <ele>65</ele>
        <time>2022-07-30T19:23:04Z</time>
      </trkpt>
      <trkpt lat="49.88176" lon="2.26948">
        <ele>65</ele>
        <time>2022-07-30T19:23:05Z</time>
      </trkpt>
      <trkpt lat="49.88176" lon="2.2695">
        <ele>65</ele>
        <time>2022-07-30T19:23:06Z</time>
      </trkpt>
      <trkpt lat="49.88177" lon="2.26951">
        <ele>65</ele>
        <time>2022-07-30T19:23:07Z</time>
      </trkpt>
      <trkpt lat="49.88177" lon="2.26954">
        <ele>65</ele>
        <time>2022-07-30T19:23:09Z</time>
      </trkpt>
      <trkpt lat="49.88177" lon="2.26955">
        <ele>65</ele>
        <time>2022-07-30T19:23:10Z</time>
      </trkpt>
      <trkpt lat="49.88178" lon="2.26957">
        <ele>65</ele>
        <time>2022-07-30T19:23:11Z</time>
      </trkpt>
      <trkpt lat="49.88178" lon="2.26958">
        <ele>65</ele>
        <time>2022-07-30T19:23:13Z</time>
      </trkpt>
      <trkpt lat="49.88179" lon="2.2696">
        <ele>65</ele>
        <time>2022-07-30T19:23:14Z</time>
      </trkpt>
      <trkpt lat="49.88179" lon="2.26962">
        <ele>65</ele>
        <time>2022-07-30T19:23:15Z</time>
      </trkpt>
      <trkpt lat="49.88179" lon="2.26962">
        <ele>65</ele>
        <time>2022-07-30T19:23:16Z</time>
      </trkpt>
      <trkpt lat="49.8818" lon="2.26965">
        <ele>65</ele>
        <time>2022-07-30T19:23:17Z</time>
      </trkpt>
      <trkpt lat="49.88181" lon="2.26967">
        <ele>65</ele>
        <time>2022-07-30T19:23:19Z</time>
      </trkpt>
      <trkpt lat="49.88181" lon="2.26968">
        <ele>65</ele>
        <time>2022-07-30T19:23:20Z</time>
      </trkpt>
      <trkpt lat="49.88181" lon="2.26969">
        <ele>65</ele>
        <time>2022-07-30T19:23:21Z</time>
      </trkpt>
      <trkpt lat="49.88182" lon="2.26971">
        <ele>64.9</ele>
        <time>2022-07-30T19:23:22Z</time>
      </trkpt>
      <trkpt lat="49.88183" lon="2.26972">
        <ele>64.9</ele>
        <time>2022-07-30T19:23:24Z</time>
      </trkpt>
      <trkpt lat="49.88183" lon="2.26974">
        <ele>64.9</ele>
        <time>2022-07-30T19:23:25Z</time>
      </trkpt>
      <trkpt lat="49.88184" lon="2.26975">
        <ele>64.9</ele>
        <time>2022-07-30T19:23:26Z</time>
      </trkpt>
      <trkpt lat="49.88184" lon="2.26977">
        <ele>64.9</ele>
        <time>2022-07-30T19:23:27Z</time>
      </trkpt>
      <trkpt lat="49.88185" lon="2.26979">
        <ele>64.9</ele>
        <time>2022-07-30T19:23:29Z</time>
      </trkpt>
      <trkpt lat="49.88185" lon="2.26982">
        <ele>64.9</ele>
        <time>2022-07-30T19:23:30Z</time>
      </trkpt>
      <trkpt lat="49.88185" lon="2.26982">
        <ele>64.9</ele>
        <time>2022-07-30T19:23:31Z</time>
      </trkpt>
      <trkpt lat="49.88185" lon="2.26983">
        <ele>64.9</ele>
        <time>2022-07-30T19:23:32Z</time>
      </trkpt>
      <trkpt lat="49.88185" lon="2.26983">
        <ele>64.9</ele>
        <time>2022-07-30T19:23:33Z</time>
      </trkpt>
      <trkpt lat="49.88185" lon="2.26985">
        <ele>64.9</ele>
        <time>2022-07-30T19:23:34Z</time>
      </trkpt>
      <trkpt lat="49.88185" lon="2.26986">
        <ele>64.9</ele>
        <time>2022-07-30T19:23:35Z</time>
      </trkpt>
      <trkpt lat="49.88185" lon="2.26987">
        <ele>64.9</ele>
        <time>2022-07-30T19:23:36Z</time>
      </trkpt>
      <trkpt lat="49.88185" lon="2.26988">
        <ele>64.9</ele>
        <time>2022-07-30T19:23:37Z</time>
      </trkpt>
      <trkpt lat="49.88185" lon="2.2699">
        <ele>64.9</ele>
        <time>2022-07-30T19:23:39Z</time>
      </trkpt>
      <trkpt lat="49.88186" lon="2.26992">
        <ele>64.9</ele>
        <time>2022-07-30T19:23:41Z</time>
      </trkpt>
      <trkpt lat="49.88186" lon="2.26994">
        <ele>64.9</ele>
        <time>2022-07-30T19:23:42Z</time>
      </trkpt>
      <trkpt lat="49.88187" lon="2.26995">
        <ele>64.9</ele>
        <time>2022-07-30T19:23:43Z</time>
      </trkpt>
      <trkpt lat="49.88187" lon="2.26996">
        <ele>64.8</ele>
        <time>2022-07-30T19:23:44Z</time>
      </trkpt>
      <trkpt lat="49.88188" lon="2.26998">
        <ele>64.8</ele>
        <time>2022-07-30T19:23:46Z</time>
      </trkpt>
      <trkpt lat="49.88188" lon="2.26999">
        <ele>64.8</ele>
        <time>2022-07-30T19:23:47Z</time>
      </trkpt>
      <trkpt lat="49.88189" lon="2.27001">
        <ele>64.8</ele>
        <time>2022-07-30T19:23:48Z</time>
      </trkpt>
      <trkpt lat="49.8819" lon="2.27003">
        <ele>64.8</ele>
        <time>2022-07-30T19:23:49Z</time>
      </trkpt>
      <trkpt lat="49.8819" lon="2.27004">
        <ele>64.8</ele>
        <time>2022-07-30T19:23:50Z</time>
      </trkpt>
      <trkpt lat="49.88191" lon="2.27006">
        <ele>64.8</ele>
        <time>2022-07-30T19:23:52Z</time>
      </trkpt>
      <trkpt lat="49.88191" lon="2.27007">
        <ele>64.8</ele>
        <time>2022-07-30T19:23:53Z</time>
      </trkpt>
      <trkpt lat="49.88191" lon="2.27009">
        <ele>64.8</ele>
        <time>2022-07-30T19:23:54Z</time>
      </trkpt>
      <trkpt lat="49.88192" lon="2.2701">
        <ele>64.8</ele>
        <time>2022-07-30T19:23:55Z</time>
      </trkpt>
      <trkpt lat="49.88192" lon="2.2701">
        <ele>64.8</ele>
        <time>2022-07-30T19:23:56Z</time>
      </trkpt>
      <trkpt lat="49.88193" lon="2.27011">
        <ele>64.8</ele>
        <time>2022-07-30T19:23:57Z</time>
      </trkpt>
      <trkpt lat="49.88194" lon="2.27013">
        <ele>64.8</ele>
        <time>2022-07-30T19:23:58Z</time>
      </trkpt>
      <trkpt lat="49.88194" lon="2.27014">
        <ele>64.8</ele>
        <time>2022-07-30T19:23:59Z</time>
      </trkpt>
      <trkpt lat="49.88195" lon="2.27015">
        <ele>64.8</ele>
        <time>2022-07-30T19:24:01Z</time>
      </trkpt>
      <trkpt lat="49.88196" lon="2.27016">
        <ele>64.8</ele>
        <time>2022-07-30T19:24:02Z</time>
      </trkpt>
      <trkpt lat="49.88196" lon="2.27017">
        <ele>64.7</ele>
        <time>2022-07-30T19:24:03Z</time>
      </trkpt>
      <trkpt lat="49.88197" lon="2.2702">
        <ele>64.7</ele>
        <time>2022-07-30T19:24:04Z</time>
      </trkpt>
      <trkpt lat="49.88197" lon="2.27021">
        <ele>64.7</ele>
        <time>2022-07-30T19:24:05Z</time>
      </trkpt>
      <trkpt lat="49.88198" lon="2.27023">
        <ele>64.7</ele>
        <time>2022-07-30T19:24:06Z</time>
      </trkpt>
      <trkpt lat="49.88198" lon="2.27024">
        <ele>64.7</ele>
        <time>2022-07-30T19:24:08Z</time>
      </trkpt>
      <trkpt lat="49.88199" lon="2.27026">
        <ele>64.7</ele>
        <time>2022-07-30T19:24:09Z</time>
      </trkpt>
      <trkpt lat="49.882" lon="2.2703">
        <ele>64.7</ele>
        <time>2022-07-30T19:24:11Z</time>
      </trkpt>
      <trkpt lat="49.882" lon="2.27031">
        <ele>64.7</ele>
        <time>2022-07-30T19:24:12Z</time>
      </trkpt>
      <trkpt lat="49.88201" lon="2.27034">
        <ele>64.7</ele>
        <time>2022-07-30T19:24:13Z</time>
      </trkpt>
      <trkpt lat="49.88202" lon="2.27036">
        <ele>64.7</ele>
        <time>2022-07-30T19:24:14Z</time>
      </trkpt>
      <trkpt lat="49.88202" lon="2.27038">
        <ele>64.7</ele>
        <time>2022-07-30T19:24:16Z</time>
      </trkpt>
      <trkpt lat="49.88203" lon="2.27039">
        <ele>64.7</ele>
        <time>2022-07-30T19:24:17Z</time>
      </trkpt>
      <trkpt lat="49.88203" lon="2.2704">
        <ele>64.7</ele>
        <time>2022-07-30T19:24:18Z</time>
      </trkpt>
      <trkpt lat="49.88204" lon="2.27041">
        <ele>64.7</ele>
        <time>2022-07-30T19:24:19Z</time>
      </trkpt>
      <trkpt lat="49.88205" lon="2.27043">
        <ele>64.7</ele>
        <time>2022-07-30T19:24:20Z</time>
      </trkpt>
      <trkpt lat="49.88205" lon="2.27043">
        <ele>64.7</ele>
        <time>2022-07-30T19:24:21Z</time>
      </trkpt>
      <trkpt lat="49.88205" lon="2.27045">
        <ele>64.6</ele>
        <time>2022-07-30T19:24:22Z</time>
      </trkpt>
      <trkpt lat="49.88205" lon="2.27046">
        <ele>64.6</ele>
        <time>2022-07-30T19:24:23Z</time>
      </trkpt>
      <trkpt lat="49.88205" lon="2.27047">
        <ele>64.6</ele>
        <time>2022-07-30T19:24:24Z</time>
      </trkpt>
      <trkpt lat="49.88206" lon="2.27048">
        <ele>64.6</ele>
        <time>2022-07-30T19:24:25Z</time>
      </trkpt>
      <trkpt lat="49.88206" lon="2.27049">
        <ele>64.6</ele>
        <time>2022-07-30T19:24:26Z</time>
      </trkpt>
      <trkpt lat="49.88207" lon="2.27051">
        <ele>64.6</ele>
        <time>2022-07-30T19:24:27Z</time>
      </trkpt>
      <trkpt lat="49.88207" lon="2.27053">
        <ele>64.6</ele>
        <time>2022-07-30T19:24:29Z</time>
      </trkpt>
      <trkpt lat="49.88207" lon="2.27054">
        <ele>64.6</ele>
        <time>2022-07-30T19:24:30Z</time>
      </trkpt>
      <trkpt lat="49.88207" lon="2.27055">
        <ele>64.6</ele>
        <time>2022-07-30T19:24:31Z</time>
      </trkpt>
      <trkpt lat="49.88208" lon="2.27057">
        <ele>64.6</ele>
        <time>2022-07-30T19:24:32Z</time>
      </trkpt>
      <trkpt lat="49.88208" lon="2.27059">
        <ele>64.6</ele>
        <time>2022-07-30T19:24:33Z</time>
      </trkpt>
      <trkpt lat="49.88209" lon="2.27062">
        <ele>64.6</ele>
        <time>2022-07-30T19:24:35Z</time>
      </trkpt>
      <trkpt lat="49.88209" lon="2.27062">
        <ele>64.6</ele>
        <time>2022-07-30T19:24:36Z</time>
      </trkpt>
      <trkpt lat="49.88209" lon="2.27063">
        <ele>64.6</ele>
        <time>2022-07-30T19:24:37Z</time>
      </trkpt>
      <trkpt lat="49.8821" lon="2.27064">
        <ele>64.6</ele>
        <time>2022-07-30T19:24:38Z</time>
      </trkpt>
      <trkpt lat="49.8821" lon="2.27067">
        <ele>64.6</ele>
        <time>2022-07-30T19:24:39Z</time>
      </trkpt>
      <trkpt lat="49.8821" lon="2.27069">
        <ele>64.6</ele>
        <time>2022-07-30T19:24:41Z</time>
      </trkpt>
      <trkpt lat="49.88211" lon="2.27072">
        <ele>64.6</ele>
        <time>2022-07-30T19:24:42Z</time>
      </trkpt>
      <trkpt lat="49.88211" lon="2.27073">
        <ele>64.6</ele>
        <time>2022-07-30T19:24:43Z</time>
      </trkpt>
      <trkpt lat="49.88211" lon="2.27074">
        <ele>64.5</ele>
        <time>2022-07-30T19:24:44Z</time>
      </trkpt>
      <trkpt lat="49.88212" lon="2.27075">
        <ele>64.5</ele>
        <time>2022-07-30T19:24:45Z</time>
      </trkpt>
      <trkpt lat="49.88212" lon="2.27076">
        <ele>64.5</ele>
        <time>2022-07-30T19:24:46Z</time>
      </trkpt>
      <trkpt lat="49.88211" lon="2.27077">
        <ele>64.5</ele>
        <time>2022-07-30T19:24:47Z</time>
      </trkpt>
      <trkpt lat="49.88211" lon="2.27078">
        <ele>64.5</ele>
        <time>2022-07-30T19:24:49Z</time>
      </trkpt>
      <trkpt lat="49.8821" lon="2.27079">
        <ele>64.5</ele>
        <time>2022-07-30T19:24:51Z</time>
      </trkpt>
      <trkpt lat="49.8821" lon="2.27079">
        <ele>64.5</ele>
        <time>2022-07-30T19:24:52Z</time>
      </trkpt>
      <trkpt lat="49.8821" lon="2.27079">
        <ele>64.5</ele>
        <time>2022-07-30T19:24:53Z</time>
      </trkpt>
      <trkpt lat="49.8821" lon="2.27078">
        <ele>64.5</ele>
        <time>2022-07-30T19:24:54Z</time>
      </trkpt>
      <trkpt lat="49.8821" lon="2.27078">
        <ele>64.5</ele>
        <time>2022-07-30T19:24:55Z</time>
      </trkpt>
      <trkpt lat="49.8821" lon="2.27078">
        <ele>64.5</ele>
        <time>2022-07-30T19:24:56Z</time>
      </trkpt>
      <trkpt lat="49.8821" lon="2.27079">
        <ele>64.5</ele>
        <time>2022-07-30T19:24:57Z</time>
      </trkpt>
      <trkpt lat="49.88211" lon="2.2708">
        <ele>64.5</ele>
        <time>2022-07-30T19:24:58Z</time>
      </trkpt>
      <trkpt lat="49.88211" lon="2.2708">
        <ele>64.5</ele>
        <time>2022-07-30T19:24:59Z</time>
      </trkpt>
      <trkpt lat="49.88212" lon="2.27082">
        <ele>64.5</ele>
        <time>2022-07-30T19:25:01Z</time>
      </trkpt>
      <trkpt lat="49.88212" lon="2.27083">
        <ele>64.5</ele>
        <time>2022-07-30T19:25:02Z</time>
      </trkpt>
      <trkpt lat="49.88213" lon="2.27084">
        <ele>64.5</ele>
        <time>2022-07-30T19:25:03Z</time>
      </trkpt>
      <trkpt lat="49.88214" lon="2.27085">
        <ele>64.5</ele>
        <time>2022-07-30T19:25:04Z</time>
      </trkpt>
      <trkpt lat="49.88214" lon="2.27087">
        <ele>64.5</ele>
        <time>2022-07-30T19:25:05Z</time>
      </trkpt>
      <trkpt lat="49.88215" lon="2.27088">
        <ele>64.5</ele>
        <time>2022-07-30T19:25:06Z</time>
      </trkpt>
      <trkpt lat="49.88215" lon="2.27091">
        <ele>64.4</ele>
        <time>2022-07-30T19:25:08Z</time>
      </trkpt>
      <trkpt lat="49.88215" lon="2.27092">
        <ele>64.4</ele>
        <time>2022-07-30T19:25:10Z</time>
      </trkpt>
      <trkpt lat="49.88215" lon="2.27093">
        <ele>64.4</ele>
        <time>2022-07-30T19:25:11Z</time>
      </trkpt>
      <trkpt lat="49.88215" lon="2.27094">
        <ele>64.4</ele>
        <time>2022-07-30T19:25:12Z</time>
      </trkpt>
      <trkpt lat="49.88215" lon="2.27094">
        <ele>64.4</ele>
        <time>2022-07-30T19:25:13Z</time>
      </trkpt>
      <trkpt lat="49.88215" lon="2.27096">
        <ele>64.4</ele>
        <time>2022-07-30T19:25:15Z</time>
      </trkpt>
      <trkpt lat="49.88215" lon="2.27096">
        <ele>64.4</ele>
        <time>2022-07-30T19:25:17Z</time>
      </trkpt>
      <trkpt lat="49.88214" lon="2.27097">
        <ele>64.4</ele>
        <time>2022-07-30T19:25:18Z</time>
      </trkpt>
      <trkpt lat="49.88214" lon="2.27097">
        <ele>64.4</ele>
        <time>2022-07-30T19:25:19Z</time>
      </trkpt>
      <trkpt lat="49.88214" lon="2.27097">
        <ele>64.4</ele>
        <time>2022-07-30T19:25:20Z</time>
      </trkpt>
      <trkpt lat="49.88215" lon="2.27096">
        <ele>64.4</ele>
        <time>2022-07-30T19:25:21Z</time>
      </trkpt>
      <trkpt lat="49.88215" lon="2.27096">
        <ele>64.4</ele>
        <time>2022-07-30T19:25:22Z</time>
      </trkpt>
      <trkpt lat="49.88215" lon="2.27096">
        <ele>64.4</ele>
        <time>2022-07-30T19:25:23Z</time>
      </trkpt>
      <trkpt lat="49.88216" lon="2.27097">
        <ele>64.4</ele>
        <time>2022-07-30T19:25:24Z</time>
      </trkpt>
      <trkpt lat="49.88216" lon="2.27098">
        <ele>64.4</ele>
        <time>2022-07-30T19:25:26Z</time>
      </trkpt>
      <trkpt lat="49.88217" lon="2.27099">
        <ele>64.4</ele>
        <time>2022-07-30T19:25:27Z</time>
      </trkpt>
      <trkpt lat="49.88218" lon="2.27101">
        <ele>64.4</ele>
        <time>2022-07-30T19:25:28Z</time>
      </trkpt>
      <trkpt lat="49.88218" lon="2.27103">
        <ele>64.3</ele>
        <time>2022-07-30T19:25:29Z</time>
      </trkpt>
      <trkpt lat="49.8822" lon="2.27106">
        <ele>64.3</ele>
        <time>2022-07-30T19:25:31Z</time>
      </trkpt>
      <trkpt lat="49.8822" lon="2.27108">
        <ele>64.3</ele>
        <time>2022-07-30T19:25:32Z</time>
      </trkpt>
      <trkpt lat="49.8822" lon="2.27111">
        <ele>64.3</ele>
        <time>2022-07-30T19:25:33Z</time>
      </trkpt>
      <trkpt lat="49.88219" lon="2.27113">
        <ele>64.3</ele>
        <time>2022-07-30T19:25:35Z</time>
      </trkpt>
      <trkpt lat="49.88219" lon="2.27114">
        <ele>64.2</ele>
        <time>2022-07-30T19:25:36Z</time>
      </trkpt>
      <trkpt lat="49.88218" lon="2.27116">
        <ele>64.2</ele>
        <time>2022-07-30T19:25:37Z</time>
      </trkpt>
      <trkpt lat="49.88217" lon="2.27118">
        <ele>64.2</ele>
        <time>2022-07-30T19:25:38Z</time>
      </trkpt>
      <trkpt lat="49.88216" lon="2.2712">
        <ele>64.2</ele>
        <time>2022-07-30T19:25:40Z</time>
      </trkpt>
      <trkpt lat="49.88216" lon="2.27121">
        <ele>64.2</ele>
        <time>2022-07-30T19:25:41Z</time>
      </trkpt>
      <trkpt lat="49.88216" lon="2.27119">
        <ele>64.2</ele>
        <time>2022-07-30T19:25:42Z</time>
      </trkpt>
      <trkpt lat="49.88215" lon="2.27119">
        <ele>64.1</ele>
        <time>2022-07-30T19:25:43Z</time>
      </trkpt>
      <trkpt lat="49.88214" lon="2.27119">
        <ele>64.1</ele>
        <time>2022-07-30T19:25:44Z</time>
      </trkpt>
      <trkpt lat="49.88213" lon="2.27118">
        <ele>64.1</ele>
        <time>2022-07-30T19:25:45Z</time>
      </trkpt>
      <trkpt lat="49.88212" lon="2.27119">
        <ele>64.1</ele>
        <time>2022-07-30T19:25:47Z</time>
      </trkpt>
      <trkpt lat="49.88212" lon="2.27119">
        <ele>64.1</ele>
        <time>2022-07-30T19:25:48Z</time>
      </trkpt>
      <trkpt lat="49.88211" lon="2.2712">
        <ele>64.1</ele>
        <time>2022-07-30T19:25:49Z</time>
      </trkpt>
      <trkpt lat="49.88211" lon="2.27121">
        <ele>64.1</ele>
        <time>2022-07-30T19:25:50Z</time>
      </trkpt>
      <trkpt lat="49.88211" lon="2.27123">
        <ele>64.1</ele>
        <time>2022-07-30T19:25:51Z</time>
      </trkpt>
      <trkpt lat="49.8821" lon="2.27125">
        <ele>64</ele>
        <time>2022-07-30T19:25:53Z</time>
      </trkpt>
      <trkpt lat="49.8821" lon="2.27125">
        <ele>64</ele>
        <time>2022-07-30T19:25:54Z</time>
      </trkpt>
      <trkpt lat="49.88209" lon="2.27126">
        <ele>64</ele>
        <time>2022-07-30T19:25:55Z</time>
      </trkpt>
      <trkpt lat="49.88209" lon="2.27127">
        <ele>64</ele>
        <time>2022-07-30T19:25:56Z</time>
      </trkpt>
      <trkpt lat="49.88208" lon="2.27128">
        <ele>64</ele>
        <time>2022-07-30T19:25:58Z</time>
      </trkpt>
      <trkpt lat="49.88206" lon="2.27129">
        <ele>64</ele>
        <time>2022-07-30T19:26:00Z</time>
      </trkpt>
      <trkpt lat="49.88206" lon="2.2713">
        <ele>63.9</ele>
        <time>2022-07-30T19:26:01Z</time>
      </trkpt>
      <trkpt lat="49.88206" lon="2.27131">
        <ele>63.9</ele>
        <time>2022-07-30T19:26:02Z</time>
      </trkpt>
      <trkpt lat="49.88206" lon="2.27131">
        <ele>63.9</ele>
        <time>2022-07-30T19:26:03Z</time>
      </trkpt>
      <trkpt lat="49.88206" lon="2.27132">
        <ele>63.9</ele>
        <time>2022-07-30T19:26:04Z</time>
      </trkpt>
      <trkpt lat="49.88206" lon="2.27131">
        <ele>63.9</ele>
        <time>2022-07-30T19:26:05Z</time>
      </trkpt>
      <trkpt lat="49.88206" lon="2.27131">
        <ele>63.9</ele>
        <time>2022-07-30T19:26:06Z</time>
      </trkpt>
      <trkpt lat="49.88206" lon="2.27131">
        <ele>63.9</ele>
        <time>2022-07-30T19:26:07Z</time>
      </trkpt>
      <trkpt lat="49.88206" lon="2.27131">
        <ele>63.9</ele>
        <time>2022-07-30T19:26:08Z</time>
      </trkpt>
      <trkpt lat="49.88206" lon="2.27131">
        <ele>63.9</ele>
        <time>2022-07-30T19:26:09Z</time>
      </trkpt>
      <trkpt lat="49.88206" lon="2.27131">
        <ele>63.9</ele>
        <time>2022-07-30T19:26:10Z</time>
      </trkpt>
      <trkpt lat="49.88206" lon="2.27131">
        <ele>63.9</ele>
        <time>2022-07-30T19:26:11Z</time>
      </trkpt>
      <trkpt lat="49.88206" lon="2.27132">
        <ele>63.9</ele>
        <time>2022-07-30T19:26:12Z</time>
      </trkpt>
      <trkpt lat="49.88206" lon="2.27132">
        <ele>63.9</ele>
        <time>2022-07-30T19:26:13Z</time>
      </trkpt>
      <trkpt lat="49.88206" lon="2.27132">
        <ele>63.9</ele>
        <time>2022-07-30T19:26:14Z</time>
      </trkpt>
      <trkpt lat="49.88206" lon="2.27132">
        <ele>63.9</ele>
        <time>2022-07-30T19:26:15Z</time>
      </trkpt>
      <trkpt lat="49.88206" lon="2.27132">
        <ele>63.9</ele>
        <time>2022-07-30T19:26:16Z</time>
      </trkpt>
      <trkpt lat="49.88206" lon="2.27132">
        <ele>63.9</ele>
        <time>2022-07-30T19:26:17Z</time>
      </trkpt>
      <trkpt lat="49.88206" lon="2.27132">
        <ele>63.9</ele>
        <time>2022-07-30T19:26:18Z</time>
      </trkpt>
      <trkpt lat="49.88206" lon="2.27129">
        <ele>63.9</ele>
        <time>2022-07-30T19:26:19Z</time>
      </trkpt>
      <trkpt lat="49.88206" lon="2.27129">
        <ele>63.9</ele>
        <time>2022-07-30T19:26:20Z</time>
      </trkpt>
      <trkpt lat="49.88206" lon="2.27129">
        <ele>63.9</ele>
        <time>2022-07-30T19:26:21Z</time>
      </trkpt>
      <trkpt lat="49.88206" lon="2.27128">
        <ele>63.9</ele>
        <time>2022-07-30T19:26:22Z</time>
      </trkpt>
      <trkpt lat="49.88206" lon="2.27128">
        <ele>63.9</ele>
        <time>2022-07-30T19:26:23Z</time>
      </trkpt>
      <trkpt lat="49.88206" lon="2.27128">
        <ele>63.9</ele>
        <time>2022-07-30T19:26:24Z</time>
      </trkpt>
      <trkpt lat="49.88206" lon="2.27128">
        <ele>63.9</ele>
        <time>2022-07-30T19:26:25Z</time>
      </trkpt>
      <trkpt lat="49.88206" lon="2.27128">
        <ele>63.9</ele>
        <time>2022-07-30T19:26:26Z</time>
      </trkpt>
      <trkpt lat="49.88206" lon="2.27128">
        <ele>63.9</ele>
        <time>2022-07-30T19:26:27Z</time>
      </trkpt>
      <trkpt lat="49.88206" lon="2.27128">
        <ele>63.9</ele>
        <time>2022-07-30T19:26:28Z</time>
      </trkpt>
      <trkpt lat="49.88206" lon="2.27128">
        <ele>63.9</ele>
        <time>2022-07-30T19:26:29Z</time>
      </trkpt>
      <trkpt lat="49.88206" lon="2.27128">
        <ele>63.9</ele>
        <time>2022-07-30T19:26:30Z</time>
      </trkpt>
      <trkpt lat="49.88206" lon="2.27128">
        <ele>63.9</ele>
        <time>2022-07-30T19:26:31Z</time>
      </trkpt>
      <trkpt lat="49.88206" lon="2.27128">
        <ele>63.9</ele>
        <time>2022-07-30T19:26:32Z</time>
      </trkpt>
      <trkpt lat="49.88206" lon="2.27128">
        <ele>63.9</ele>
        <time>2022-07-30T19:26:33Z</time>
      </trkpt>
      <trkpt lat="49.88206" lon="2.27128">
        <ele>63.9</ele>
        <time>2022-07-30T19:26:34Z</time>
      </trkpt>
      <trkpt lat="49.88206" lon="2.27128">
        <ele>63.9</ele>
        <time>2022-07-30T19:26:35Z</time>
      </trkpt>
      <trkpt lat="49.88206" lon="2.27128">
        <ele>63.9</ele>
        <time>2022-07-30T19:26:36Z</time>
      </trkpt>
      <trkpt lat="49.88206" lon="2.27128">
        <ele>63.9</ele>
        <time>2022-07-30T19:26:37Z</time>
      </trkpt>
      <trkpt lat="49.88206" lon="2.27128">
        <ele>63.9</ele>
        <time>2022-07-30T19:26:38Z</time>
      </trkpt>
      <trkpt lat="49.88206" lon="2.27128">
        <ele>63.9</ele>
        <time>2022-07-30T19:26:39Z</time>
      </trkpt>
      <trkpt lat="49.88206" lon="2.27128">
        <ele>63.9</ele>
        <time>2022-07-30T19:26:40Z</time>
      </trkpt>
      <trkpt lat="49.88206" lon="2.27128">
        <ele>63.9</ele>
        <time>2022-07-30T19:26:41Z</time>
      </trkpt>
      <trkpt lat="49.88206" lon="2.27128">
        <ele>63.9</ele>
        <time>2022-07-30T19:26:42Z</time>
      </trkpt>
      <trkpt lat="49.88206" lon="2.27128">
        <ele>63.9</ele>
        <time>2022-07-30T19:26:43Z</time>
      </trkpt>
      <trkpt lat="49.88206" lon="2.27128">
        <ele>63.9</ele>
        <time>2022-07-30T19:26:44Z</time>
      </trkpt>
      <trkpt lat="49.88206" lon="2.27128">
        <ele>63.9</ele>
        <time>2022-07-30T19:26:45Z</time>
      </trkpt>
      <trkpt lat="49.88206" lon="2.27128">
        <ele>63.9</ele>
        <time>2022-07-30T19:26:46Z</time>
      </trkpt>
      <trkpt lat="49.88206" lon="2.27128">
        <ele>63.9</ele>
        <time>2022-07-30T19:26:47Z</time>
      </trkpt>
      <trkpt lat="49.88206" lon="2.27128">
        <ele>63.9</ele>
        <time>2022-07-30T19:26:48Z</time>
      </trkpt>
      <trkpt lat="49.88206" lon="2.27128">
        <ele>63.9</ele>
        <time>2022-07-30T19:26:49Z</time>
      </trkpt>
      <trkpt lat="49.88206" lon="2.27128">
        <ele>63.9</ele>
        <time>2022-07-30T19:26:50Z</time>
      </trkpt>
      <trkpt lat="49.88206" lon="2.27128">
        <ele>63.9</ele>
        <time>2022-07-30T19:26:51Z</time>
      </trkpt>
      <trkpt lat="49.88206" lon="2.27128">
        <ele>63.9</ele>
        <time>2022-07-30T19:26:52Z</time>
      </trkpt>
      <trkpt lat="49.88206" lon="2.27128">
        <ele>63.9</ele>
        <time>2022-07-30T19:26:53Z</time>
      </trkpt>
      <trkpt lat="49.88206" lon="2.27128">
        <ele>63.9</ele>
        <time>2022-07-30T19:26:54Z</time>
      </trkpt>
      <trkpt lat="49.88206" lon="2.27128">
        <ele>63.9</ele>
        <time>2022-07-30T19:26:55Z</time>
      </trkpt>
      <trkpt lat="49.88206" lon="2.27128">
        <ele>63.9</ele>
        <time>2022-07-30T19:26:56Z</time>
      </trkpt>
      <trkpt lat="49.88206" lon="2.27128">
        <ele>63.9</ele>
        <time>2022-07-30T19:26:57Z</time>
      </trkpt>
      <trkpt lat="49.88206" lon="2.27128">
        <ele>63.9</ele>
        <time>2022-07-30T19:26:58Z</time>
      </trkpt>
      <trkpt lat="49.88206" lon="2.27128">
        <ele>63.9</ele>
        <time>2022-07-30T19:26:59Z</time>
      </trkpt>
      <trkpt lat="49.88206" lon="2.27128">
        <ele>63.9</ele>
        <time>2022-07-30T19:27:00Z</time>
      </trkpt>
      <trkpt lat="49.88206" lon="2.27128">
        <ele>63.9</ele>
        <time>2022-07-30T19:27:01Z</time>
      </trkpt>
      <trkpt lat="49.88206" lon="2.27128">
        <ele>63.9</ele>
        <time>2022-07-30T19:27:02Z</time>
      </trkpt>
      <trkpt lat="49.88206" lon="2.27128">
        <ele>63.9</ele>
        <time>2022-07-30T19:27:03Z</time>
      </trkpt>
      <trkpt lat="49.88206" lon="2.27128">
        <ele>63.9</ele>
        <time>2022-07-30T19:27:04Z</time>
      </trkpt>
      <trkpt lat="49.88206" lon="2.27128">
        <ele>63.9</ele>
        <time>2022-07-30T19:27:05Z</time>
      </trkpt>
      <trkpt lat="49.88206" lon="2.27128">
        <ele>63.9</ele>
        <time>2022-07-30T19:27:06Z</time>
      </trkpt>
      <trkpt lat="49.88206" lon="2.27128">
        <ele>63.9</ele>
        <time>2022-07-30T19:27:07Z</time>
      </trkpt>
      <trkpt lat="49.88206" lon="2.27128">
        <ele>63.9</ele>
        <time>2022-07-30T19:27:08Z</time>
      </trkpt>
      <trkpt lat="49.88206" lon="2.27128">
        <ele>63.9</ele>
        <time>2022-07-30T19:27:09Z</time>
      </trkpt>
      <trkpt lat="49.88206" lon="2.27128">
        <ele>63.9</ele>
        <time>2022-07-30T19:27:10Z</time>
      </trkpt>
      <trkpt lat="49.88206" lon="2.27128">
        <ele>63.9</ele>
        <time>2022-07-30T19:27:11Z</time>
      </trkpt>
      <trkpt lat="49.88206" lon="2.27128">
        <ele>63.9</ele>
        <time>2022-07-30T19:27:12Z</time>
      </trkpt>
      <trkpt lat="49.88206" lon="2.27128">
        <ele>63.9</ele>
        <time>2022-07-30T19:27:13Z</time>
      </trkpt>
      <trkpt lat="49.88206" lon="2.27128">
        <ele>63.9</ele>
        <time>2022-07-30T19:27:14Z</time>
      </trkpt>
      <trkpt lat="49.88206" lon="2.27128">
        <ele>63.9</ele>
        <time>2022-07-30T19:27:15Z</time>
      </trkpt>
      <trkpt lat="49.88206" lon="2.27128">
        <ele>63.9</ele>
        <time>2022-07-30T19:27:16Z</time>
      </trkpt>
      <trkpt lat="49.88206" lon="2.27128">
        <ele>63.9</ele>
        <time>2022-07-30T19:27:17Z</time>
      </trkpt>
      <trkpt lat="49.88206" lon="2.27128">
        <ele>63.9</ele>
        <time>2022-07-30T19:27:18Z</time>
      </trkpt>
      <trkpt lat="49.88206" lon="2.27128">
        <ele>63.9</ele>
        <time>2022-07-30T19:27:19Z</time>
      </trkpt>
      <trkpt lat="49.88206" lon="2.27128">
        <ele>63.9</ele>
        <time>2022-07-30T19:27:20Z</time>
      </trkpt>
      <trkpt lat="49.88206" lon="2.27128">
        <ele>63.9</ele>
        <time>2022-07-30T19:27:21Z</time>
      </trkpt>
      <trkpt lat="49.88206" lon="2.27128">
        <ele>63.9</ele>
        <time>2022-07-30T19:27:22Z</time>
      </trkpt>
      <trkpt lat="49.88206" lon="2.27128">
        <ele>63.9</ele>
        <time>2022-07-30T19:27:23Z</time>
      </trkpt>
      <trkpt lat="49.88206" lon="2.27128">
        <ele>63.9</ele>
        <time>2022-07-30T19:27:24Z</time>
      </trkpt>
      <trkpt lat="49.88206" lon="2.27128">
        <ele>63.9</ele>
        <time>2022-07-30T19:27:25Z</time>
      </trkpt>
      <trkpt lat="49.88206" lon="2.27128">
        <ele>63.9</ele>
        <time>2022-07-30T19:27:26Z</time>
      </trkpt>
      <trkpt lat="49.88206" lon="2.27128">
        <ele>63.9</ele>
        <time>2022-07-30T19:27:27Z</time>
      </trkpt>
      <trkpt lat="49.88206" lon="2.27128">
        <ele>63.9</ele>
        <time>2022-07-30T19:27:28Z</time>
      </trkpt>
      <trkpt lat="49.88206" lon="2.27128">
        <ele>63.9</ele>
        <time>2022-07-30T19:27:29Z</time>
      </trkpt>
      <trkpt lat="49.88206" lon="2.27128">
        <ele>63.9</ele>
        <time>2022-07-30T19:27:30Z</time>
      </trkpt>
      <trkpt lat="49.88206" lon="2.27128">
        <ele>63.9</ele>
        <time>2022-07-30T19:27:31Z</time>
      </trkpt>
      <trkpt lat="49.88206" lon="2.27128">
        <ele>63.9</ele>
        <time>2022-07-30T19:27:32Z</time>
      </trkpt>
      <trkpt lat="49.88206" lon="2.27128">
        <ele>63.9</ele>
        <time>2022-07-30T19:27:33Z</time>
      </trkpt>
      <trkpt lat="49.88206" lon="2.27128">
        <ele>63.9</ele>
        <time>2022-07-30T19:27:34Z</time>
      </trkpt>
      <trkpt lat="49.88206" lon="2.27128">
        <ele>63.9</ele>
        <time>2022-07-30T19:27:35Z</time>
      </trkpt>
      <trkpt lat="49.88206" lon="2.27128">
        <ele>63.9</ele>
        <time>2022-07-30T19:27:36Z</time>
      </trkpt>
      <trkpt lat="49.88206" lon="2.27128">
        <ele>63.9</ele>
        <time>2022-07-30T19:27:37Z</time>
      </trkpt>
      <trkpt lat="49.88206" lon="2.27128">
        <ele>63.9</ele>
        <time>2022-07-30T19:27:38Z</time>
      </trkpt>
      <trkpt lat="49.88206" lon="2.27128">
        <ele>63.9</ele>
        <time>2022-07-30T19:27:39Z</time>
      </trkpt>
      <trkpt lat="49.88206" lon="2.27128">
        <ele>63.9</ele>
        <time>2022-07-30T19:27:40Z</time>
      </trkpt>
      <trkpt lat="49.88206" lon="2.27128">
        <ele>63.9</ele>
        <time>2022-07-30T19:27:41Z</time>
      </trkpt>
      <trkpt lat="49.88206" lon="2.27128">
        <ele>63.9</ele>
        <time>2022-07-30T19:27:42Z</time>
      </trkpt>
      <trkpt lat="49.88206" lon="2.27128">
        <ele>63.9</ele>
        <time>2022-07-30T19:27:43Z</time>
      </trkpt>
      <trkpt lat="49.88206" lon="2.27128">
        <ele>63.9</ele>
        <time>2022-07-30T19:27:44Z</time>
      </trkpt>
      <trkpt lat="49.88206" lon="2.27128">
        <ele>63.9</ele>
        <time>2022-07-30T19:27:45Z</time>
      </trkpt>
      <trkpt lat="49.88206" lon="2.27128">
        <ele>63.9</ele>
        <time>2022-07-30T19:27:46Z</time>
      </trkpt>
      <trkpt lat="49.88206" lon="2.27128">
        <ele>63.9</ele>
        <time>2022-07-30T19:27:47Z</time>
      </trkpt>
      <trkpt lat="49.88206" lon="2.27128">
        <ele>63.9</ele>
        <time>2022-07-30T19:27:48Z</time>
      </trkpt>
      <trkpt lat="49.88206" lon="2.27128">
        <ele>63.9</ele>
        <time>2022-07-30T19:27:49Z</time>
      </trkpt>
      <trkpt lat="49.88206" lon="2.27128">
        <ele>63.9</ele>
        <time>2022-07-30T19:27:50Z</time>
      </trkpt>
      <trkpt lat="49.88206" lon="2.27128">
        <ele>63.9</ele>
        <time>2022-07-30T19:27:51Z</time>
      </trkpt>
      <trkpt lat="49.88206" lon="2.27128">
        <ele>63.9</ele>
        <time>2022-07-30T19:27:52Z</time>
      </trkpt>
      <trkpt lat="49.88207" lon="2.27127">
        <ele>63.8</ele>
        <time>2022-07-30T19:27:53Z</time>
      </trkpt>
      <trkpt lat="49.88206" lon="2.27127">
        <ele>63.8</ele>
        <time>2022-07-30T19:27:54Z</time>
      </trkpt>
      <trkpt lat="49.88206" lon="2.27129">
        <ele>63.8</ele>
        <time>2022-07-30T19:27:56Z</time>
      </trkpt>
      <trkpt lat="49.88205" lon="2.27132">
        <ele>63.8</ele>
        <time>2022-07-30T19:27:57Z</time>
      </trkpt>
      <trkpt lat="49.88204" lon="2.27132">
        <ele>63.8</ele>
        <time>2022-07-30T19:27:58Z</time>
      </trkpt>
      <trkpt lat="49.88203" lon="2.27132">
        <ele>63.7</ele>
        <time>2022-07-30T19:28:00Z</time>
      </trkpt>
      <trkpt lat="49.88203" lon="2.27133">
        <ele>63.7</ele>
        <time>2022-07-30T19:28:01Z</time>
      </trkpt>
      <trkpt lat="49.88202" lon="2.27133">
        <ele>63.7</ele>
        <time>2022-07-30T19:28:02Z</time>
      </trkpt>
      <trkpt lat="49.88202" lon="2.27133">
        <ele>63.7</ele>
        <time>2022-07-30T19:28:03Z</time>
      </trkpt>
      <trkpt lat="49.88201" lon="2.27133">
        <ele>63.7</ele>
        <time>2022-07-30T19:28:04Z</time>
      </trkpt>
      <trkpt lat="49.88201" lon="2.27133">
        <ele>63.7</ele>
        <time>2022-07-30T19:28:05Z</time>
      </trkpt>
      <trkpt lat="49.882" lon="2.27134">
        <ele>63.7</ele>
        <time>2022-07-30T19:28:06Z</time>
      </trkpt>
      <trkpt lat="49.882" lon="2.27134">
        <ele>63.7</ele>
        <time>2022-07-30T19:28:07Z</time>
      </trkpt>
      <trkpt lat="49.882" lon="2.27134">
        <ele>63.7</ele>
        <time>2022-07-30T19:28:08Z</time>
      </trkpt>
      <trkpt lat="49.882" lon="2.27134">
        <ele>63.7</ele>
        <time>2022-07-30T19:28:09Z</time>
      </trkpt>
      <trkpt lat="49.88199" lon="2.27134">
        <ele>63.7</ele>
        <time>2022-07-30T19:28:11Z</time>
      </trkpt>
      <trkpt lat="49.88198" lon="2.27136">
        <ele>63.6</ele>
        <time>2022-07-30T19:28:12Z</time>
      </trkpt>
      <trkpt lat="49.88197" lon="2.27137">
        <ele>63.6</ele>
        <time>2022-07-30T19:28:13Z</time>
      </trkpt>
      <trkpt lat="49.88196" lon="2.27137">
        <ele>63.6</ele>
        <time>2022-07-30T19:28:15Z</time>
      </trkpt>
      <trkpt lat="49.88196" lon="2.27137">
        <ele>63.6</ele>
        <time>2022-07-30T19:28:16Z</time>
      </trkpt>
      <trkpt lat="49.88195" lon="2.27137">
        <ele>63.6</ele>
        <time>2022-07-30T19:28:17Z</time>
      </trkpt>
      <trkpt lat="49.88195" lon="2.27137">
        <ele>63.6</ele>
        <time>2022-07-30T19:28:18Z</time>
      </trkpt>
      <trkpt lat="49.88194" lon="2.27137">
        <ele>63.6</ele>
        <time>2022-07-30T19:28:19Z</time>
      </trkpt>
      <trkpt lat="49.88193" lon="2.27138">
        <ele>63.4</ele>
        <time>2022-07-30T19:28:20Z</time>
      </trkpt>
      <trkpt lat="49.88192" lon="2.27138">
        <ele>63.4</ele>
        <time>2022-07-30T19:28:21Z</time>
      </trkpt>
      <trkpt lat="49.88191" lon="2.27139">
        <ele>63.4</ele>
        <time>2022-07-30T19:28:22Z</time>
      </trkpt>
      <trkpt lat="49.88191" lon="2.2714">
        <ele>63.4</ele>
        <time>2022-07-30T19:28:23Z</time>
      </trkpt>
      <trkpt lat="49.88189" lon="2.27142">
        <ele>63.4</ele>
        <time>2022-07-30T19:28:24Z</time>
      </trkpt>
      <trkpt lat="49.88187" lon="2.27144">
        <ele>63.4</ele>
        <time>2022-07-30T19:28:26Z</time>
      </trkpt>
      <trkpt lat="49.88186" lon="2.27145">
        <ele>63.4</ele>
        <time>2022-07-30T19:28:27Z</time>
      </trkpt>
      <trkpt lat="49.88185" lon="2.27146">
        <ele>63.3</ele>
        <time>2022-07-30T19:28:28Z</time>
      </trkpt>
      <trkpt lat="49.88184" lon="2.27148">
        <ele>63.3</ele>
        <time>2022-07-30T19:28:29Z</time>
      </trkpt>
      <trkpt lat="49.88183" lon="2.27149">
        <ele>63.3</ele>
        <time>2022-07-30T19:28:30Z</time>
      </trkpt>
      <trkpt lat="49.88182" lon="2.27151">
        <ele>63.3</ele>
        <time>2022-07-30T19:28:32Z</time>
      </trkpt>
      <trkpt lat="49.88181" lon="2.27152">
        <ele>63.2</ele>
        <time>2022-07-30T19:28:33Z</time>
      </trkpt>
      <trkpt lat="49.88181" lon="2.27153">
        <ele>63.2</ele>
        <time>2022-07-30T19:28:34Z</time>
      </trkpt>
      <trkpt lat="49.8818" lon="2.27154">
        <ele>63.2</ele>
        <time>2022-07-30T19:28:35Z</time>
      </trkpt>
      <trkpt lat="49.88179" lon="2.27155">
        <ele>63.2</ele>
        <time>2022-07-30T19:28:36Z</time>
      </trkpt>
      <trkpt lat="49.88178" lon="2.27157">
        <ele>63.2</ele>
        <time>2022-07-30T19:28:38Z</time>
      </trkpt>
      <trkpt lat="49.88176" lon="2.27158">
        <ele>63.1</ele>
        <time>2022-07-30T19:28:39Z</time>
      </trkpt>
      <trkpt lat="49.88176" lon="2.27159">
        <ele>63.2</ele>
        <time>2022-07-30T19:28:40Z</time>
      </trkpt>
      <trkpt lat="49.88176" lon="2.27159">
        <ele>63.2</ele>
        <time>2022-07-30T19:28:41Z</time>
      </trkpt>
      <trkpt lat="49.88176" lon="2.27161">
        <ele>63.1</ele>
        <time>2022-07-30T19:28:43Z</time>
      </trkpt>
      <trkpt lat="49.88175" lon="2.27162">
        <ele>63.1</ele>
        <time>2022-07-30T19:28:44Z</time>
      </trkpt>
      <trkpt lat="49.88174" lon="2.27163">
        <ele>63.1</ele>
        <time>2022-07-30T19:28:45Z</time>
      </trkpt>
      <trkpt lat="49.88174" lon="2.27164">
        <ele>63.1</ele>
        <time>2022-07-30T19:28:46Z</time>
      </trkpt>
      <trkpt lat="49.88173" lon="2.27165">
        <ele>63.1</ele>
        <time>2022-07-30T19:28:47Z</time>
      </trkpt>
      <trkpt lat="49.88171" lon="2.27167">
        <ele>63.1</ele>
        <time>2022-07-30T19:28:48Z</time>
      </trkpt>
      <trkpt lat="49.8817" lon="2.27168">
        <ele>63</ele>
        <time>2022-07-30T19:28:50Z</time>
      </trkpt>
      <trkpt lat="49.88169" lon="2.2717">
        <ele>63.1</ele>
        <time>2022-07-30T19:28:51Z</time>
      </trkpt>
      <trkpt lat="49.88168" lon="2.27171">
        <ele>63.1</ele>
        <time>2022-07-30T19:28:52Z</time>
      </trkpt>
      <trkpt lat="49.88167" lon="2.27173">
        <ele>63</ele>
        <time>2022-07-30T19:28:54Z</time>
      </trkpt>
      <trkpt lat="49.88166" lon="2.27174">
        <ele>63</ele>
        <time>2022-07-30T19:28:55Z</time>
      </trkpt>
      <trkpt lat="49.88166" lon="2.27174">
        <ele>63</ele>
        <time>2022-07-30T19:28:56Z</time>
      </trkpt>
      <trkpt lat="49.88166" lon="2.27175">
        <ele>63</ele>
        <time>2022-07-30T19:28:57Z</time>
      </trkpt>
      <trkpt lat="49.88167" lon="2.27175">
        <ele>63</ele>
        <time>2022-07-30T19:28:59Z</time>
      </trkpt>
      <trkpt lat="49.88167" lon="2.27175">
        <ele>63</ele>
        <time>2022-07-30T19:29:00Z</time>
      </trkpt>
      <trkpt lat="49.88166" lon="2.27176">
        <ele>63</ele>
        <time>2022-07-30T19:29:01Z</time>
      </trkpt>
      <trkpt lat="49.88166" lon="2.27176">
        <ele>63</ele>
        <time>2022-07-30T19:29:02Z</time>
      </trkpt>
      <trkpt lat="49.88166" lon="2.27177">
        <ele>63</ele>
        <time>2022-07-30T19:29:03Z</time>
      </trkpt>
      <trkpt lat="49.88165" lon="2.27177">
        <ele>63</ele>
        <time>2022-07-30T19:29:04Z</time>
      </trkpt>
      <trkpt lat="49.88165" lon="2.27178">
        <ele>63</ele>
        <time>2022-07-30T19:29:05Z</time>
      </trkpt>
      <trkpt lat="49.88164" lon="2.27179">
        <ele>63</ele>
        <time>2022-07-30T19:29:07Z</time>
      </trkpt>
      <trkpt lat="49.88163" lon="2.2718">
        <ele>63</ele>
        <time>2022-07-30T19:29:08Z</time>
      </trkpt>
      <trkpt lat="49.88162" lon="2.27181">
        <ele>62.9</ele>
        <time>2022-07-30T19:29:09Z</time>
      </trkpt>
      <trkpt lat="49.88161" lon="2.27183">
        <ele>62.9</ele>
        <time>2022-07-30T19:29:10Z</time>
      </trkpt>
      <trkpt lat="49.8816" lon="2.27184">
        <ele>62.9</ele>
        <time>2022-07-30T19:29:11Z</time>
      </trkpt>
      <trkpt lat="49.88159" lon="2.27186">
        <ele>62.9</ele>
        <time>2022-07-30T19:29:12Z</time>
      </trkpt>
      <trkpt lat="49.88158" lon="2.27187">
        <ele>62.9</ele>
        <time>2022-07-30T19:29:14Z</time>
      </trkpt>
      <trkpt lat="49.88157" lon="2.27191">
        <ele>62.8</ele>
        <time>2022-07-30T19:29:15Z</time>
      </trkpt>
      <trkpt lat="49.88157" lon="2.27191">
        <ele>62.8</ele>
        <time>2022-07-30T19:29:16Z</time>
      </trkpt>
      <trkpt lat="49.88157" lon="2.27192">
        <ele>62.8</ele>
        <time>2022-07-30T19:29:17Z</time>
      </trkpt>
      <trkpt lat="49.88156" lon="2.27194">
        <ele>62.8</ele>
        <time>2022-07-30T19:29:20Z</time>
      </trkpt>
      <trkpt lat="49.88156" lon="2.27194">
        <ele>62.8</ele>
        <time>2022-07-30T19:29:21Z</time>
      </trkpt>
      <trkpt lat="49.88156" lon="2.27195">
        <ele>62.8</ele>
        <time>2022-07-30T19:29:22Z</time>
      </trkpt>
      <trkpt lat="49.88155" lon="2.27197">
        <ele>62.8</ele>
        <time>2022-07-30T19:29:23Z</time>
      </trkpt>
      <trkpt lat="49.88155" lon="2.27198">
        <ele>62.7</ele>
        <time>2022-07-30T19:29:24Z</time>
      </trkpt>
      <trkpt lat="49.88154" lon="2.27199">
        <ele>62.7</ele>
        <time>2022-07-30T19:29:25Z</time>
      </trkpt>
      <trkpt lat="49.88154" lon="2.272">
        <ele>62.7</ele>
        <time>2022-07-30T19:29:26Z</time>
      </trkpt>
      <trkpt lat="49.88154" lon="2.27201">
        <ele>62.7</ele>
        <time>2022-07-30T19:29:27Z</time>
      </trkpt>
      <trkpt lat="49.88153" lon="2.27202">
        <ele>62.7</ele>
        <time>2022-07-30T19:29:28Z</time>
      </trkpt>
      <trkpt lat="49.88153" lon="2.27203">
        <ele>62.7</ele>
        <time>2022-07-30T19:29:29Z</time>
      </trkpt>
      <trkpt lat="49.88153" lon="2.27205">
        <ele>62.7</ele>
        <time>2022-07-30T19:29:30Z</time>
      </trkpt>
      <trkpt lat="49.88153" lon="2.27204">
        <ele>62.7</ele>
        <time>2022-07-30T19:29:31Z</time>
      </trkpt>
      <trkpt lat="49.88153" lon="2.27204">
        <ele>62.7</ele>
        <time>2022-07-30T19:29:32Z</time>
      </trkpt>
      <trkpt lat="49.88153" lon="2.27204">
        <ele>62.7</ele>
        <time>2022-07-30T19:29:33Z</time>
      </trkpt>
      <trkpt lat="49.88153" lon="2.27204">
        <ele>62.7</ele>
        <time>2022-07-30T19:29:34Z</time>
      </trkpt>
      <trkpt lat="49.88153" lon="2.27204">
        <ele>62.7</ele>
        <time>2022-07-30T19:29:35Z</time>
      </trkpt>
      <trkpt lat="49.88153" lon="2.27204">
        <ele>62.7</ele>
        <time>2022-07-30T19:29:36Z</time>
      </trkpt>
      <trkpt lat="49.88153" lon="2.27204">
        <ele>62.7</ele>
        <time>2022-07-30T19:29:37Z</time>
      </trkpt>
      <trkpt lat="49.88153" lon="2.27204">
        <ele>62.7</ele>
        <time>2022-07-30T19:29:38Z</time>
      </trkpt>
      <trkpt lat="49.88153" lon="2.27204">
        <ele>62.7</ele>
        <time>2022-07-30T19:29:39Z</time>
      </trkpt>
      <trkpt lat="49.88153" lon="2.27205">
        <ele>62.7</ele>
        <time>2022-07-30T19:29:40Z</time>
      </trkpt>
      <trkpt lat="49.88153" lon="2.27205">
        <ele>62.7</ele>
        <time>2022-07-30T19:29:41Z</time>
      </trkpt>
      <trkpt lat="49.88153" lon="2.27205">
        <ele>62.7</ele>
        <time>2022-07-30T19:29:42Z</time>
      </trkpt>
      <trkpt lat="49.88153" lon="2.27205">
        <ele>62.7</ele>
        <time>2022-07-30T19:29:43Z</time>
      </trkpt>
      <trkpt lat="49.88153" lon="2.27205">
        <ele>62.7</ele>
        <time>2022-07-30T19:29:44Z</time>
      </trkpt>
      <trkpt lat="49.88154" lon="2.27202">
        <ele>62.8</ele>
        <time>2022-07-30T19:29:45Z</time>
      </trkpt>
      <trkpt lat="49.88154" lon="2.27202">
        <ele>62.8</ele>
        <time>2022-07-30T19:29:46Z</time>
      </trkpt>
      <trkpt lat="49.88154" lon="2.27202">
        <ele>62.8</ele>
        <time>2022-07-30T19:29:47Z</time>
      </trkpt>
      <trkpt lat="49.88154" lon="2.27202">
        <ele>62.8</ele>
        <time>2022-07-30T19:29:48Z</time>
      </trkpt>
      <trkpt lat="49.88154" lon="2.27202">
        <ele>62.8</ele>
        <time>2022-07-30T19:29:49Z</time>
      </trkpt>
      <trkpt lat="49.88154" lon="2.27202">
        <ele>62.8</ele>
        <time>2022-07-30T19:29:50Z</time>
      </trkpt>
      <trkpt lat="49.88154" lon="2.27202">
        <ele>62.8</ele>
        <time>2022-07-30T19:29:51Z</time>
      </trkpt>
      <trkpt lat="49.88154" lon="2.27202">
        <ele>62.8</ele>
        <time>2022-07-30T19:29:52Z</time>
      </trkpt>
      <trkpt lat="49.88154" lon="2.27202">
        <ele>62.8</ele>
        <time>2022-07-30T19:29:53Z</time>
      </trkpt>
      <trkpt lat="49.88154" lon="2.27202">
        <ele>62.8</ele>
        <time>2022-07-30T19:29:54Z</time>
      </trkpt>
      <trkpt lat="49.88154" lon="2.27202">
        <ele>62.8</ele>
        <time>2022-07-30T19:29:55Z</time>
      </trkpt>
      <trkpt lat="49.88154" lon="2.27202">
        <ele>62.8</ele>
        <time>2022-07-30T19:29:56Z</time>
      </trkpt>
      <trkpt lat="49.88154" lon="2.27202">
        <ele>62.8</ele>
        <time>2022-07-30T19:29:57Z</time>
      </trkpt>
      <trkpt lat="49.88154" lon="2.27202">
        <ele>62.8</ele>
        <time>2022-07-30T19:29:58Z</time>
      </trkpt>
      <trkpt lat="49.88154" lon="2.27202">
        <ele>62.8</ele>
        <time>2022-07-30T19:29:59Z</time>
      </trkpt>
      <trkpt lat="49.88154" lon="2.27202">
        <ele>62.8</ele>
        <time>2022-07-30T19:30:00Z</time>
      </trkpt>
      <trkpt lat="49.88154" lon="2.27202">
        <ele>62.8</ele>
        <time>2022-07-30T19:30:01Z</time>
      </trkpt>
      <trkpt lat="49.88154" lon="2.27202">
        <ele>62.8</ele>
        <time>2022-07-30T19:30:02Z</time>
      </trkpt>
      <trkpt lat="49.88154" lon="2.27202">
        <ele>62.8</ele>
        <time>2022-07-30T19:30:03Z</time>
      </trkpt>
      <trkpt lat="49.88154" lon="2.27202">
        <ele>62.8</ele>
        <time>2022-07-30T19:30:04Z</time>
      </trkpt>
      <trkpt lat="49.88154" lon="2.27202">
        <ele>62.9</ele>
        <time>2022-07-30T19:30:05Z</time>
      </trkpt>
      <trkpt lat="49.88154" lon="2.27202">
        <ele>62.9</ele>
        <time>2022-07-30T19:30:06Z</time>
      </trkpt>
      <trkpt lat="49.88154" lon="2.27202">
        <ele>62.9</ele>
        <time>2022-07-30T19:30:07Z</time>
      </trkpt>
      <trkpt lat="49.88155" lon="2.27201">
        <ele>62.9</ele>
        <time>2022-07-30T19:30:08Z</time>
      </trkpt>
      <trkpt lat="49.88155" lon="2.27201">
        <ele>62.9</ele>
        <time>2022-07-30T19:30:09Z</time>
      </trkpt>
      <trkpt lat="49.88155" lon="2.27202">
        <ele>62.9</ele>
        <time>2022-07-30T19:30:10Z</time>
      </trkpt>
      <trkpt lat="49.88154" lon="2.27203">
        <ele>62.8</ele>
        <time>2022-07-30T19:30:11Z</time>
      </trkpt>
      <trkpt lat="49.88153" lon="2.27204">
        <ele>62.8</ele>
        <time>2022-07-30T19:30:12Z</time>
      </trkpt>
      <trkpt lat="49.88152" lon="2.27205">
        <ele>62.8</ele>
        <time>2022-07-30T19:30:13Z</time>
      </trkpt>
      <trkpt lat="49.88152" lon="2.27206">
        <ele>62.8</ele>
        <time>2022-07-30T19:30:15Z</time>
      </trkpt>
      <trkpt lat="49.88151" lon="2.27207">
        <ele>62.7</ele>
        <time>2022-07-30T19:30:16Z</time>
      </trkpt>
      <trkpt lat="49.8815" lon="2.27208">
        <ele>62.8</ele>
        <time>2022-07-30T19:30:17Z</time>
      </trkpt>
      <trkpt lat="49.88149" lon="2.27209">
        <ele>62.8</ele>
        <time>2022-07-30T19:30:18Z</time>
      </trkpt>
      <trkpt lat="49.88148" lon="2.2721">
        <ele>62.8</ele>
        <time>2022-07-30T19:30:19Z</time>
      </trkpt>
      <trkpt lat="49.88146" lon="2.27212">
        <ele>62.7</ele>
        <time>2022-07-30T19:30:20Z</time>
      </trkpt>
      <trkpt lat="49.88144" lon="2.27213">
        <ele>62.7</ele>
        <time>2022-07-30T19:30:22Z</time>
      </trkpt>
      <trkpt lat="49.88143" lon="2.27214">
        <ele>62.7</ele>
        <time>2022-07-30T19:30:23Z</time>
      </trkpt>
      <trkpt lat="49.88141" lon="2.27216">
        <ele>62.7</ele>
        <time>2022-07-30T19:30:24Z</time>
      </trkpt>
      <trkpt lat="49.8814" lon="2.27217">
        <ele>62.7</ele>
        <time>2022-07-30T19:30:25Z</time>
      </trkpt>
      <trkpt lat="49.8814" lon="2.27217">
        <ele>62.7</ele>
        <time>2022-07-30T19:30:26Z</time>
      </trkpt>
      <trkpt lat="49.88139" lon="2.27218">
        <ele>62.7</ele>
        <time>2022-07-30T19:30:27Z</time>
      </trkpt>
      <trkpt lat="49.88138" lon="2.27218">
        <ele>62.7</ele>
        <time>2022-07-30T19:30:28Z</time>
      </trkpt>
      <trkpt lat="49.88137" lon="2.27219">
        <ele>62.7</ele>
        <time>2022-07-30T19:30:29Z</time>
      </trkpt>
      <trkpt lat="49.88135" lon="2.27219">
        <ele>62.7</ele>
        <time>2022-07-30T19:30:30Z</time>
      </trkpt>
      <trkpt lat="49.88134" lon="2.27219">
        <ele>62.7</ele>
        <time>2022-07-30T19:30:32Z</time>
      </trkpt>
      <trkpt lat="49.88134" lon="2.27219">
        <ele>62.7</ele>
        <time>2022-07-30T19:30:33Z</time>
      </trkpt>
      <trkpt lat="49.88133" lon="2.2722">
        <ele>62.8</ele>
        <time>2022-07-30T19:30:34Z</time>
      </trkpt>
      <trkpt lat="49.88133" lon="2.27222">
        <ele>62.7</ele>
        <time>2022-07-30T19:30:35Z</time>
      </trkpt>
      <trkpt lat="49.88132" lon="2.27223">
        <ele>62.7</ele>
        <time>2022-07-30T19:30:36Z</time>
      </trkpt>
      <trkpt lat="49.88132" lon="2.27224">
        <ele>62.7</ele>
        <time>2022-07-30T19:30:37Z</time>
      </trkpt>
      <trkpt lat="49.88131" lon="2.27225">
        <ele>62.7</ele>
        <time>2022-07-30T19:30:39Z</time>
      </trkpt>
      <trkpt lat="49.8813" lon="2.27227">
        <ele>62.7</ele>
        <time>2022-07-30T19:30:40Z</time>
      </trkpt>
      <trkpt lat="49.8813" lon="2.27228">
        <ele>62.7</ele>
        <time>2022-07-30T19:30:41Z</time>
      </trkpt>
      <trkpt lat="49.8813" lon="2.27229">
        <ele>62.6</ele>
        <time>2022-07-30T19:30:42Z</time>
      </trkpt>
      <trkpt lat="49.8813" lon="2.2723">
        <ele>62.6</ele>
        <time>2022-07-30T19:30:44Z</time>
      </trkpt>
      <trkpt lat="49.88129" lon="2.27232">
        <ele>62.6</ele>
        <time>2022-07-30T19:30:46Z</time>
      </trkpt>
      <trkpt lat="49.88128" lon="2.27233">
        <ele>62.6</ele>
        <time>2022-07-30T19:30:47Z</time>
      </trkpt>
      <trkpt lat="49.88128" lon="2.27234">
        <ele>62.6</ele>
        <time>2022-07-30T19:30:48Z</time>
      </trkpt>
      <trkpt lat="49.88127" lon="2.27236">
        <ele>62.6</ele>
        <time>2022-07-30T19:30:50Z</time>
      </trkpt>
      <trkpt lat="49.88127" lon="2.27237">
        <ele>62.6</ele>
        <time>2022-07-30T19:30:51Z</time>
      </trkpt>
      <trkpt lat="49.88126" lon="2.27238">
        <ele>62.6</ele>
        <time>2022-07-30T19:30:52Z</time>
      </trkpt>
      <trkpt lat="49.88126" lon="2.2724">
        <ele>62.6</ele>
        <time>2022-07-30T19:30:53Z</time>
      </trkpt>
      <trkpt lat="49.88125" lon="2.27241">
        <ele>62.6</ele>
        <time>2022-07-30T19:30:54Z</time>
      </trkpt>
      <trkpt lat="49.88124" lon="2.27242">
        <ele>62.6</ele>
        <time>2022-07-30T19:30:56Z</time>
      </trkpt>
      <trkpt lat="49.88124" lon="2.27242">
        <ele>62.6</ele>
        <time>2022-07-30T19:30:57Z</time>
      </trkpt>
      <trkpt lat="49.88123" lon="2.27243">
        <ele>62.6</ele>
        <time>2022-07-30T19:30:58Z</time>
      </trkpt>
      <trkpt lat="49.88121" lon="2.27246">
        <ele>62.6</ele>
        <time>2022-07-30T19:31:01Z</time>
      </trkpt>
      <trkpt lat="49.88121" lon="2.27246">
        <ele>62.6</ele>
        <time>2022-07-30T19:31:02Z</time>
      </trkpt>
      <trkpt lat="49.8812" lon="2.27247">
        <ele>62.6</ele>
        <time>2022-07-30T19:31:03Z</time>
      </trkpt>
      <trkpt lat="49.8812" lon="2.27248">
        <ele>62.7</ele>
        <time>2022-07-30T19:31:04Z</time>
      </trkpt>
      <trkpt lat="49.88121" lon="2.2725">
        <ele>62.6</ele>
        <time>2022-07-30T19:31:05Z</time>
      </trkpt>
      <trkpt lat="49.88122" lon="2.27251">
        <ele>62.6</ele>
        <time>2022-07-30T19:31:07Z</time>
      </trkpt>
      <trkpt lat="49.88122" lon="2.27252">
        <ele>62.6</ele>
        <time>2022-07-30T19:31:08Z</time>
      </trkpt>
      <trkpt lat="49.88123" lon="2.27253">
        <ele>62.6</ele>
        <time>2022-07-30T19:31:09Z</time>
      </trkpt>
      <trkpt lat="49.88124" lon="2.27255">
        <ele>62.6</ele>
        <time>2022-07-30T19:31:10Z</time>
      </trkpt>
      <trkpt lat="49.88124" lon="2.27256">
        <ele>62.6</ele>
        <time>2022-07-30T19:31:12Z</time>
      </trkpt>
      <trkpt lat="49.88125" lon="2.27258">
        <ele>62.5</ele>
        <time>2022-07-30T19:31:13Z</time>
      </trkpt>
      <trkpt lat="49.88126" lon="2.27259">
        <ele>62.5</ele>
        <time>2022-07-30T19:31:14Z</time>
      </trkpt>
      <trkpt lat="49.88127" lon="2.2726">
        <ele>62.5</ele>
        <time>2022-07-30T19:31:15Z</time>
      </trkpt>
      <trkpt lat="49.88128" lon="2.27261">
        <ele>62.5</ele>
        <time>2022-07-30T19:31:16Z</time>
      </trkpt>
      <trkpt lat="49.88128" lon="2.27262">
        <ele>62.5</ele>
        <time>2022-07-30T19:31:17Z</time>
      </trkpt>
      <trkpt lat="49.8813" lon="2.27265">
        <ele>62.4</ele>
        <time>2022-07-30T19:31:18Z</time>
      </trkpt>
      <trkpt lat="49.88131" lon="2.27266">
        <ele>62.4</ele>
        <time>2022-07-30T19:31:20Z</time>
      </trkpt>
      <trkpt lat="49.88132" lon="2.27268">
        <ele>62.4</ele>
        <time>2022-07-30T19:31:21Z</time>
      </trkpt>
      <trkpt lat="49.88132" lon="2.27268">
        <ele>62.4</ele>
        <time>2022-07-30T19:31:22Z</time>
      </trkpt>
      <trkpt lat="49.88132" lon="2.27271">
        <ele>62.3</ele>
        <time>2022-07-30T19:31:24Z</time>
      </trkpt>
      <trkpt lat="49.88132" lon="2.27273">
        <ele>62.3</ele>
        <time>2022-07-30T19:31:25Z</time>
      </trkpt>
      <trkpt lat="49.8813" lon="2.27277">
        <ele>62.4</ele>
        <time>2022-07-30T19:31:26Z</time>
      </trkpt>
      <trkpt lat="49.8813" lon="2.27278">
        <ele>62.4</ele>
        <time>2022-07-30T19:31:27Z</time>
      </trkpt>
      <trkpt lat="49.88129" lon="2.27281">
        <ele>62.4</ele>
        <time>2022-07-30T19:31:29Z</time>
      </trkpt>
      <trkpt lat="49.88128" lon="2.27282">
        <ele>62.4</ele>
        <time>2022-07-30T19:31:30Z</time>
      </trkpt>
      <trkpt lat="49.88128" lon="2.27284">
        <ele>62.4</ele>
        <time>2022-07-30T19:31:31Z</time>
      </trkpt>
      <trkpt lat="49.88128" lon="2.27284">
        <ele>62.4</ele>
        <time>2022-07-30T19:31:32Z</time>
      </trkpt>
      <trkpt lat="49.88127" lon="2.27286">
        <ele>62.5</ele>
        <time>2022-07-30T19:31:33Z</time>
      </trkpt>
      <trkpt lat="49.88127" lon="2.27287">
        <ele>62.5</ele>
        <time>2022-07-30T19:31:35Z</time>
      </trkpt>
      <trkpt lat="49.88128" lon="2.27288">
        <ele>62.4</ele>
        <time>2022-07-30T19:31:36Z</time>
      </trkpt>
      <trkpt lat="49.88129" lon="2.27289">
        <ele>62.4</ele>
        <time>2022-07-30T19:31:37Z</time>
      </trkpt>
      <trkpt lat="49.88129" lon="2.2729">
        <ele>62.4</ele>
        <time>2022-07-30T19:31:38Z</time>
      </trkpt>
      <trkpt lat="49.8813" lon="2.27292">
        <ele>62.4</ele>
        <time>2022-07-30T19:31:39Z</time>
      </trkpt>
      <trkpt lat="49.8813" lon="2.27293">
        <ele>62.4</ele>
        <time>2022-07-30T19:31:40Z</time>
      </trkpt>
      <trkpt lat="49.8813" lon="2.27295">
        <ele>62.4</ele>
        <time>2022-07-30T19:31:41Z</time>
      </trkpt>
      <trkpt lat="49.8813" lon="2.27297">
        <ele>62.4</ele>
        <time>2022-07-30T19:31:42Z</time>
      </trkpt>
      <trkpt lat="49.8813" lon="2.27297">
        <ele>62.4</ele>
        <time>2022-07-30T19:31:43Z</time>
      </trkpt>
      <trkpt lat="49.88131" lon="2.27299">
        <ele>62.4</ele>
        <time>2022-07-30T19:31:45Z</time>
      </trkpt>
      <trkpt lat="49.8813" lon="2.273">
        <ele>62.4</ele>
        <time>2022-07-30T19:31:46Z</time>
      </trkpt>
      <trkpt lat="49.8813" lon="2.273">
        <ele>62.4</ele>
        <time>2022-07-30T19:31:47Z</time>
      </trkpt>
      <trkpt lat="49.8813" lon="2.27299">
        <ele>62.4</ele>
        <time>2022-07-30T19:31:48Z</time>
      </trkpt>
      <trkpt lat="49.88129" lon="2.27298">
        <ele>62.4</ele>
        <time>2022-07-30T19:31:49Z</time>
      </trkpt>
      <trkpt lat="49.88129" lon="2.27298">
        <ele>62.4</ele>
        <time>2022-07-30T19:31:50Z</time>
      </trkpt>
      <trkpt lat="49.88128" lon="2.27297">
        <ele>62.4</ele>
        <time>2022-07-30T19:31:51Z</time>
      </trkpt>
      <trkpt lat="49.88128" lon="2.27297">
        <ele>62.4</ele>
        <time>2022-07-30T19:31:52Z</time>
      </trkpt>
      <trkpt lat="49.88128" lon="2.27297">
        <ele>62.5</ele>
        <time>2022-07-30T19:31:53Z</time>
      </trkpt>
      <trkpt lat="49.88128" lon="2.27297">
        <ele>62.5</ele>
        <time>2022-07-30T19:31:54Z</time>
      </trkpt>
      <trkpt lat="49.88128" lon="2.27297">
        <ele>62.5</ele>
        <time>2022-07-30T19:31:55Z</time>
      </trkpt>
      <trkpt lat="49.88128" lon="2.27296">
        <ele>62.4</ele>
        <time>2022-07-30T19:31:56Z</time>
      </trkpt>
      <trkpt lat="49.88128" lon="2.27296">
        <ele>62.4</ele>
        <time>2022-07-30T19:31:57Z</time>
      </trkpt>
      <trkpt lat="49.88128" lon="2.27296">
        <ele>62.5</ele>
        <time>2022-07-30T19:31:58Z</time>
      </trkpt>
      <trkpt lat="49.88128" lon="2.27296">
        <ele>62.5</ele>
        <time>2022-07-30T19:31:59Z</time>
      </trkpt>
      <trkpt lat="49.88128" lon="2.27296">
        <ele>62.5</ele>
        <time>2022-07-30T19:32:00Z</time>
      </trkpt>
      <trkpt lat="49.88127" lon="2.27293">
        <ele>62.5</ele>
        <time>2022-07-30T19:32:01Z</time>
      </trkpt>
      <trkpt lat="49.88127" lon="2.27293">
        <ele>62.5</ele>
        <time>2022-07-30T19:32:02Z</time>
      </trkpt>
      <trkpt lat="49.88127" lon="2.27293">
        <ele>62.5</ele>
        <time>2022-07-30T19:32:03Z</time>
      </trkpt>
      <trkpt lat="49.88127" lon="2.27293">
        <ele>62.5</ele>
        <time>2022-07-30T19:32:04Z</time>
      </trkpt>
      <trkpt lat="49.88128" lon="2.27294">
        <ele>62.5</ele>
        <time>2022-07-30T19:32:05Z</time>
      </trkpt>
      <trkpt lat="49.88128" lon="2.27296">
        <ele>62.4</ele>
        <time>2022-07-30T19:32:06Z</time>
      </trkpt>
      <trkpt lat="49.88128" lon="2.27296">
        <ele>62.5</ele>
        <time>2022-07-30T19:32:07Z</time>
      </trkpt>
      <trkpt lat="49.88128" lon="2.27296">
        <ele>62.5</ele>
        <time>2022-07-30T19:32:08Z</time>
      </trkpt>
      <trkpt lat="49.88128" lon="2.27296">
        <ele>62.5</ele>
        <time>2022-07-30T19:32:09Z</time>
      </trkpt>
      <trkpt lat="49.88128" lon="2.27296">
        <ele>62.5</ele>
        <time>2022-07-30T19:32:10Z</time>
      </trkpt>
      <trkpt lat="49.88128" lon="2.27296">
        <ele>62.5</ele>
        <time>2022-07-30T19:32:11Z</time>
      </trkpt>
      <trkpt lat="49.88128" lon="2.27296">
        <ele>62.5</ele>
        <time>2022-07-30T19:32:12Z</time>
      </trkpt>
      <trkpt lat="49.88128" lon="2.27296">
        <ele>62.5</ele>
        <time>2022-07-30T19:32:13Z</time>
      </trkpt>
      <trkpt lat="49.88128" lon="2.27296">
        <ele>62.5</ele>
        <time>2022-07-30T19:32:14Z</time>
      </trkpt>
      <trkpt lat="49.88128" lon="2.27296">
        <ele>62.5</ele>
        <time>2022-07-30T19:32:15Z</time>
      </trkpt>
      <trkpt lat="49.88128" lon="2.27296">
        <ele>62.5</ele>
        <time>2022-07-30T19:32:16Z</time>
      </trkpt>
      <trkpt lat="49.88128" lon="2.27296">
        <ele>62.5</ele>
        <time>2022-07-30T19:32:17Z</time>
      </trkpt>
      <trkpt lat="49.88128" lon="2.27296">
        <ele>62.5</ele>
        <time>2022-07-30T19:32:18Z</time>
      </trkpt>
      <trkpt lat="49.88129" lon="2.27296">
        <ele>62.5</ele>
        <time>2022-07-30T19:32:19Z</time>
      </trkpt>
      <trkpt lat="49.88129" lon="2.27298">
        <ele>62.5</ele>
        <time>2022-07-30T19:32:20Z</time>
      </trkpt>
      <trkpt lat="49.8813" lon="2.27299">
        <ele>62.5</ele>
        <time>2022-07-30T19:32:21Z</time>
      </trkpt>
      <trkpt lat="49.8813" lon="2.27299">
        <ele>62.5</ele>
        <time>2022-07-30T19:32:22Z</time>
      </trkpt>
      <trkpt lat="49.8813" lon="2.27299">
        <ele>62.5</ele>
        <time>2022-07-30T19:32:23Z</time>
      </trkpt>
      <trkpt lat="49.8813" lon="2.27299">
        <ele>62.5</ele>
        <time>2022-07-30T19:32:24Z</time>
      </trkpt>
      <trkpt lat="49.88129" lon="2.27299">
        <ele>62.5</ele>
        <time>2022-07-30T19:32:25Z</time>
      </trkpt>
      <trkpt lat="49.88129" lon="2.273">
        <ele>62.5</ele>
        <time>2022-07-30T19:32:26Z</time>
      </trkpt>
      <trkpt lat="49.88128" lon="2.27302">
        <ele>62.6</ele>
        <time>2022-07-30T19:32:27Z</time>
      </trkpt>
      <trkpt lat="49.88127" lon="2.27305">
        <ele>62.6</ele>
        <time>2022-07-30T19:32:28Z</time>
      </trkpt>
      <trkpt lat="49.88126" lon="2.27305">
        <ele>62.6</ele>
        <time>2022-07-30T19:32:30Z</time>
      </trkpt>
      <trkpt lat="49.88125" lon="2.27306">
        <ele>62.7</ele>
        <time>2022-07-30T19:32:31Z</time>
      </trkpt>
      <trkpt lat="49.88125" lon="2.27307">
        <ele>62.7</ele>
        <time>2022-07-30T19:32:32Z</time>
      </trkpt>
      <trkpt lat="49.88124" lon="2.27307">
        <ele>62.7</ele>
        <time>2022-07-30T19:32:33Z</time>
      </trkpt>
      <trkpt lat="49.88122" lon="2.27307">
        <ele>62.7</ele>
        <time>2022-07-30T19:32:34Z</time>
      </trkpt>
      <trkpt lat="49.88121" lon="2.27306">
        <ele>62.7</ele>
        <time>2022-07-30T19:32:35Z</time>
      </trkpt>
      <trkpt lat="49.88119" lon="2.273">
        <ele>62.7</ele>
        <time>2022-07-30T19:32:37Z</time>
      </trkpt>
      <trkpt lat="49.88119" lon="2.27299">
        <ele>62.7</ele>
        <time>2022-07-30T19:32:38Z</time>
      </trkpt>
      <trkpt lat="49.88118" lon="2.27298">
        <ele>62.7</ele>
        <time>2022-07-30T19:32:39Z</time>
      </trkpt>
      <trkpt lat="49.88117" lon="2.27296">
        <ele>62.7</ele>
        <time>2022-07-30T19:32:40Z</time>
      </trkpt>
      <trkpt lat="49.88117" lon="2.27291">
        <ele>62.7</ele>
        <time>2022-07-30T19:32:41Z</time>
      </trkpt>
      <trkpt lat="49.88118" lon="2.27289">
        <ele>62.8</ele>
        <time>2022-07-30T19:32:42Z</time>
      </trkpt>
      <trkpt lat="49.88117" lon="2.27288">
        <ele>62.8</ele>
        <time>2022-07-30T19:32:43Z</time>
      </trkpt>
      <trkpt lat="49.88117" lon="2.27286">
        <ele>62.8</ele>
        <time>2022-07-30T19:32:44Z</time>
      </trkpt>
      <trkpt lat="49.88116" lon="2.27282">
        <ele>62.8</ele>
        <time>2022-07-30T19:32:46Z</time>
      </trkpt>
      <trkpt lat="49.88117" lon="2.27281">
        <ele>62.8</ele>
        <time>2022-07-30T19:32:47Z</time>
      </trkpt>
      <trkpt lat="49.88116" lon="2.27279">
        <ele>62.8</ele>
        <time>2022-07-30T19:32:48Z</time>
      </trkpt>
      <trkpt lat="49.88116" lon="2.27278">
        <ele>62.8</ele>
        <time>2022-07-30T19:32:49Z</time>
      </trkpt>
      <trkpt lat="49.88115" lon="2.27278">
        <ele>62.8</ele>
        <time>2022-07-30T19:32:50Z</time>
      </trkpt>
      <trkpt lat="49.88113" lon="2.27276">
        <ele>62.8</ele>
        <time>2022-07-30T19:32:52Z</time>
      </trkpt>
      <trkpt lat="49.88113" lon="2.27274">
        <ele>62.8</ele>
        <time>2022-07-30T19:32:53Z</time>
      </trkpt>
      <trkpt lat="49.88112" lon="2.27274">
        <ele>62.8</ele>
        <time>2022-07-30T19:32:54Z</time>
      </trkpt>
      <trkpt lat="49.88111" lon="2.27273">
        <ele>62.8</ele>
        <time>2022-07-30T19:32:55Z</time>
      </trkpt>
      <trkpt lat="49.88108" lon="2.27277">
        <ele>62.8</ele>
        <time>2022-07-30T19:32:57Z</time>
      </trkpt>
      <trkpt lat="49.88107" lon="2.2728">
        <ele>62.8</ele>
        <time>2022-07-30T19:32:58Z</time>
      </trkpt>
      <trkpt lat="49.88106" lon="2.2728">
        <ele>62.8</ele>
        <time>2022-07-30T19:32:59Z</time>
      </trkpt>
      <trkpt lat="49.88105" lon="2.2728">
        <ele>62.8</ele>
        <time>2022-07-30T19:33:00Z</time>
      </trkpt>
      <trkpt lat="49.88105" lon="2.27279">
        <ele>62.8</ele>
        <time>2022-07-30T19:33:01Z</time>
      </trkpt>
      <trkpt lat="49.88105" lon="2.27278">
        <ele>62.8</ele>
        <time>2022-07-30T19:33:02Z</time>
      </trkpt>
      <trkpt lat="49.88104" lon="2.27277">
        <ele>62.8</ele>
        <time>2022-07-30T19:33:03Z</time>
      </trkpt>
      <trkpt lat="49.88103" lon="2.27276">
        <ele>62.8</ele>
        <time>2022-07-30T19:33:04Z</time>
      </trkpt>
      <trkpt lat="49.88102" lon="2.27274">
        <ele>62.8</ele>
        <time>2022-07-30T19:33:06Z</time>
      </trkpt>
      <trkpt lat="49.88103" lon="2.27271">
        <ele>62.9</ele>
        <time>2022-07-30T19:33:08Z</time>
      </trkpt>
      <trkpt lat="49.88103" lon="2.2727">
        <ele>62.9</ele>
        <time>2022-07-30T19:33:09Z</time>
      </trkpt>
      <trkpt lat="49.88101" lon="2.27267">
        <ele>62.9</ele>
        <time>2022-07-30T19:33:10Z</time>
      </trkpt>
      <trkpt lat="49.88101" lon="2.27265">
        <ele>62.9</ele>
        <time>2022-07-30T19:33:11Z</time>
      </trkpt>
      <trkpt lat="49.881" lon="2.27264">
        <ele>62.9</ele>
        <time>2022-07-30T19:33:13Z</time>
      </trkpt>
      <trkpt lat="49.88099" lon="2.27263">
        <ele>62.9</ele>
        <time>2022-07-30T19:33:14Z</time>
      </trkpt>
      <trkpt lat="49.88098" lon="2.27263">
        <ele>62.9</ele>
        <time>2022-07-30T19:33:15Z</time>
      </trkpt>
      <trkpt lat="49.881" lon="2.27259">
        <ele>62.9</ele>
        <time>2022-07-30T19:33:16Z</time>
      </trkpt>
      <trkpt lat="49.88101" lon="2.27258">
        <ele>62.9</ele>
        <time>2022-07-30T19:33:17Z</time>
      </trkpt>
      <trkpt lat="49.881" lon="2.27257">
        <ele>62.9</ele>
        <time>2022-07-30T19:33:19Z</time>
      </trkpt>
      <trkpt lat="49.88099" lon="2.27256">
        <ele>62.9</ele>
        <time>2022-07-30T19:33:20Z</time>
      </trkpt>
      <trkpt lat="49.88098" lon="2.27254">
        <ele>62.9</ele>
        <time>2022-07-30T19:33:22Z</time>
      </trkpt>
      <trkpt lat="49.88098" lon="2.27251">
        <ele>62.9</ele>
        <time>2022-07-30T19:33:23Z</time>
      </trkpt>
      <trkpt lat="49.88097" lon="2.2725">
        <ele>62.9</ele>
        <time>2022-07-30T19:33:24Z</time>
      </trkpt>
      <trkpt lat="49.88097" lon="2.27249">
        <ele>62.9</ele>
        <time>2022-07-30T19:33:25Z</time>
      </trkpt>
      <trkpt lat="49.88095" lon="2.27248">
        <ele>62.9</ele>
        <time>2022-07-30T19:33:26Z</time>
      </trkpt>
      <trkpt lat="49.88093" lon="2.27248">
        <ele>62.9</ele>
        <time>2022-07-30T19:33:28Z</time>
      </trkpt>
      <trkpt lat="49.88092" lon="2.27248">
        <ele>62.9</ele>
        <time>2022-07-30T19:33:29Z</time>
      </trkpt>
      <trkpt lat="49.88091" lon="2.27247">
        <ele>62.9</ele>
        <time>2022-07-30T19:33:30Z</time>
      </trkpt>
      <trkpt lat="49.88091" lon="2.27245">
        <ele>63</ele>
        <time>2022-07-30T19:33:31Z</time>
      </trkpt>
      <trkpt lat="49.88091" lon="2.27245">
        <ele>63</ele>
        <time>2022-07-30T19:33:32Z</time>
      </trkpt>
      <trkpt lat="49.8809" lon="2.27243">
        <ele>63</ele>
        <time>2022-07-30T19:33:33Z</time>
      </trkpt>
      <trkpt lat="49.88089" lon="2.27242">
        <ele>63</ele>
        <time>2022-07-30T19:33:35Z</time>
      </trkpt>
      <trkpt lat="49.88088" lon="2.27241">
        <ele>63</ele>
        <time>2022-07-30T19:33:36Z</time>
      </trkpt>
      <trkpt lat="49.88087" lon="2.27241">
        <ele>63</ele>
        <time>2022-07-30T19:33:37Z</time>
      </trkpt>
      <trkpt lat="49.88086" lon="2.2724">
        <ele>63</ele>
        <time>2022-07-30T19:33:38Z</time>
      </trkpt>
      <trkpt lat="49.88085" lon="2.27239">
        <ele>63</ele>
        <time>2022-07-30T19:33:39Z</time>
      </trkpt>
      <trkpt lat="49.88085" lon="2.27239">
        <ele>63</ele>
        <time>2022-07-30T19:33:40Z</time>
      </trkpt>
      <trkpt lat="49.88084" lon="2.27237">
        <ele>63</ele>
        <time>2022-07-30T19:33:42Z</time>
      </trkpt>
      <trkpt lat="49.88084" lon="2.27235">
        <ele>63</ele>
        <time>2022-07-30T19:33:43Z</time>
      </trkpt>
      <trkpt lat="49.88083" lon="2.27234">
        <ele>63</ele>
        <time>2022-07-30T19:33:44Z</time>
      </trkpt>
      <trkpt lat="49.88083" lon="2.27232">
        <ele>63</ele>
        <time>2022-07-30T19:33:46Z</time>
      </trkpt>
      <trkpt lat="49.88082" lon="2.2723">
        <ele>63</ele>
        <time>2022-07-30T19:33:47Z</time>
      </trkpt>
      <trkpt lat="49.88082" lon="2.27228">
        <ele>63</ele>
        <time>2022-07-30T19:33:48Z</time>
      </trkpt>
      <trkpt lat="49.88082" lon="2.27227">
        <ele>63</ele>
        <time>2022-07-30T19:33:49Z</time>
      </trkpt>
      <trkpt lat="49.88081" lon="2.27226">
        <ele>63</ele>
        <time>2022-07-30T19:33:50Z</time>
      </trkpt>
      <trkpt lat="49.8808" lon="2.27225">
        <ele>63</ele>
        <time>2022-07-30T19:33:52Z</time>
      </trkpt>
      <trkpt lat="49.8808" lon="2.27224">
        <ele>63</ele>
        <time>2022-07-30T19:33:53Z</time>
      </trkpt>
      <trkpt lat="49.88079" lon="2.27224">
        <ele>63</ele>
        <time>2022-07-30T19:33:54Z</time>
      </trkpt>
      <trkpt lat="49.88079" lon="2.27224">
        <ele>63</ele>
        <time>2022-07-30T19:33:55Z</time>
      </trkpt>
      <trkpt lat="49.88079" lon="2.27224">
        <ele>63</ele>
        <time>2022-07-30T19:33:57Z</time>
      </trkpt>
      <trkpt lat="49.88079" lon="2.27224">
        <ele>63</ele>
        <time>2022-07-30T19:33:58Z</time>
      </trkpt>
      <trkpt lat="49.88079" lon="2.27224">
        <ele>63</ele>
        <time>2022-07-30T19:33:59Z</time>
      </trkpt>
      <trkpt lat="49.88079" lon="2.27224">
        <ele>63</ele>
        <time>2022-07-30T19:34:00Z</time>
      </trkpt>
      <trkpt lat="49.88079" lon="2.27223">
        <ele>63</ele>
        <time>2022-07-30T19:34:01Z</time>
      </trkpt>
      <trkpt lat="49.88079" lon="2.27223">
        <ele>63</ele>
        <time>2022-07-30T19:34:02Z</time>
      </trkpt>
      <trkpt lat="49.88079" lon="2.27223">
        <ele>63</ele>
        <time>2022-07-30T19:34:03Z</time>
      </trkpt>
      <trkpt lat="49.88079" lon="2.27223">
        <ele>63</ele>
        <time>2022-07-30T19:34:04Z</time>
      </trkpt>
      <trkpt lat="49.88079" lon="2.27223">
        <ele>63</ele>
        <time>2022-07-30T19:34:05Z</time>
      </trkpt>
      <trkpt lat="49.88079" lon="2.27223">
        <ele>63</ele>
        <time>2022-07-30T19:34:06Z</time>
      </trkpt>
      <trkpt lat="49.88079" lon="2.27223">
        <ele>63</ele>
        <time>2022-07-30T19:34:07Z</time>
      </trkpt>
      <trkpt lat="49.88079" lon="2.27223">
        <ele>63</ele>
        <time>2022-07-30T19:34:08Z</time>
      </trkpt>
      <trkpt lat="49.88079" lon="2.27223">
        <ele>63</ele>
        <time>2022-07-30T19:34:09Z</time>
      </trkpt>
      <trkpt lat="49.88079" lon="2.27223">
        <ele>63</ele>
        <time>2022-07-30T19:34:10Z</time>
      </trkpt>
      <trkpt lat="49.88079" lon="2.27223">
        <ele>63</ele>
        <time>2022-07-30T19:34:11Z</time>
      </trkpt>
      <trkpt lat="49.88079" lon="2.27223">
        <ele>63</ele>
        <time>2022-07-30T19:34:12Z</time>
      </trkpt>
      <trkpt lat="49.88079" lon="2.27223">
        <ele>63</ele>
        <time>2022-07-30T19:34:13Z</time>
      </trkpt>
      <trkpt lat="49.88079" lon="2.27224">
        <ele>63</ele>
        <time>2022-07-30T19:34:14Z</time>
      </trkpt>
      <trkpt lat="49.88079" lon="2.27224">
        <ele>63</ele>
        <time>2022-07-30T19:34:15Z</time>
      </trkpt>
      <trkpt lat="49.88079" lon="2.27224">
        <ele>63</ele>
        <time>2022-07-30T19:34:16Z</time>
      </trkpt>
      <trkpt lat="49.88079" lon="2.27224">
        <ele>63</ele>
        <time>2022-07-30T19:34:17Z</time>
      </trkpt>
      <trkpt lat="49.88079" lon="2.27224">
        <ele>63</ele>
        <time>2022-07-30T19:34:18Z</time>
      </trkpt>
      <trkpt lat="49.88079" lon="2.27224">
        <ele>63</ele>
        <time>2022-07-30T19:34:19Z</time>
      </trkpt>
      <trkpt lat="49.88079" lon="2.27224">
        <ele>63</ele>
        <time>2022-07-30T19:34:20Z</time>
      </trkpt>
      <trkpt lat="49.88079" lon="2.27224">
        <ele>63</ele>
        <time>2022-07-30T19:34:21Z</time>
      </trkpt>
      <trkpt lat="49.88079" lon="2.27224">
        <ele>63</ele>
        <time>2022-07-30T19:34:22Z</time>
      </trkpt>
      <trkpt lat="49.88079" lon="2.27224">
        <ele>63</ele>
        <time>2022-07-30T19:34:23Z</time>
      </trkpt>
      <trkpt lat="49.88079" lon="2.27224">
        <ele>63</ele>
        <time>2022-07-30T19:34:24Z</time>
      </trkpt>
      <trkpt lat="49.88079" lon="2.27224">
        <ele>63</ele>
        <time>2022-07-30T19:34:25Z</time>
      </trkpt>
      <trkpt lat="49.88079" lon="2.27224">
        <ele>63</ele>
        <time>2022-07-30T19:34:26Z</time>
      </trkpt>
      <trkpt lat="49.88079" lon="2.27224">
        <ele>63</ele>
        <time>2022-07-30T19:34:27Z</time>
      </trkpt>
      <trkpt lat="49.88079" lon="2.27224">
        <ele>63</ele>
        <time>2022-07-30T19:34:28Z</time>
      </trkpt>
      <trkpt lat="49.88079" lon="2.27224">
        <ele>63</ele>
        <time>2022-07-30T19:34:29Z</time>
      </trkpt>
      <trkpt lat="49.88079" lon="2.27224">
        <ele>63</ele>
        <time>2022-07-30T19:34:30Z</time>
      </trkpt>
      <trkpt lat="49.88079" lon="2.27224">
        <ele>63</ele>
        <time>2022-07-30T19:34:31Z</time>
      </trkpt>
      <trkpt lat="49.88079" lon="2.27224">
        <ele>63</ele>
        <time>2022-07-30T19:34:32Z</time>
      </trkpt>
      <trkpt lat="49.88079" lon="2.27224">
        <ele>63</ele>
        <time>2022-07-30T19:34:33Z</time>
      </trkpt>
      <trkpt lat="49.88079" lon="2.27224">
        <ele>63</ele>
        <time>2022-07-30T19:34:34Z</time>
      </trkpt>
      <trkpt lat="49.88079" lon="2.27224">
        <ele>63</ele>
        <time>2022-07-30T19:34:35Z</time>
      </trkpt>
      <trkpt lat="49.88079" lon="2.27224">
        <ele>63</ele>
        <time>2022-07-30T19:34:36Z</time>
      </trkpt>
      <trkpt lat="49.88079" lon="2.27224">
        <ele>63</ele>
        <time>2022-07-30T19:34:37Z</time>
      </trkpt>
      <trkpt lat="49.88079" lon="2.27224">
        <ele>63</ele>
        <time>2022-07-30T19:34:38Z</time>
      </trkpt>
      <trkpt lat="49.88079" lon="2.27224">
        <ele>63</ele>
        <time>2022-07-30T19:34:39Z</time>
      </trkpt>
      <trkpt lat="49.88079" lon="2.27224">
        <ele>63</ele>
        <time>2022-07-30T19:34:40Z</time>
      </trkpt>
      <trkpt lat="49.88079" lon="2.27224">
        <ele>63</ele>
        <time>2022-07-30T19:34:41Z</time>
      </trkpt>
      <trkpt lat="49.88079" lon="2.27224">
        <ele>63</ele>
        <time>2022-07-30T19:34:42Z</time>
      </trkpt>
      <trkpt lat="49.88079" lon="2.27224">
        <ele>63</ele>
        <time>2022-07-30T19:34:43Z</time>
      </trkpt>
      <trkpt lat="49.88079" lon="2.27224">
        <ele>63</ele>
        <time>2022-07-30T19:34:44Z</time>
      </trkpt>
      <trkpt lat="49.88079" lon="2.27224">
        <ele>63</ele>
        <time>2022-07-30T19:34:45Z</time>
      </trkpt>
      <trkpt lat="49.88079" lon="2.27224">
        <ele>63</ele>
        <time>2022-07-30T19:34:46Z</time>
      </trkpt>
      <trkpt lat="49.88079" lon="2.27224">
        <ele>63</ele>
        <time>2022-07-30T19:34:47Z</time>
      </trkpt>
      <trkpt lat="49.88079" lon="2.27227">
        <ele>63</ele>
        <time>2022-07-30T19:34:48Z</time>
      </trkpt>
      <trkpt lat="49.88078" lon="2.27228">
        <ele>63.1</ele>
        <time>2022-07-30T19:34:49Z</time>
      </trkpt>
      <trkpt lat="49.88078" lon="2.27228">
        <ele>63.1</ele>
        <time>2022-07-30T19:34:50Z</time>
      </trkpt>
      <trkpt lat="49.88077" lon="2.27228">
        <ele>63.1</ele>
        <time>2022-07-30T19:34:51Z</time>
      </trkpt>
      <trkpt lat="49.88077" lon="2.27228">
        <ele>63.1</ele>
        <time>2022-07-30T19:34:52Z</time>
      </trkpt>
      <trkpt lat="49.88077" lon="2.27228">
        <ele>63.1</ele>
        <time>2022-07-30T19:34:53Z</time>
      </trkpt>
      <trkpt lat="49.88077" lon="2.27227">
        <ele>63.1</ele>
        <time>2022-07-30T19:34:54Z</time>
      </trkpt>
      <trkpt lat="49.88076" lon="2.27229">
        <ele>63.1</ele>
        <time>2022-07-30T19:34:55Z</time>
      </trkpt>
      <trkpt lat="49.88076" lon="2.27229">
        <ele>63.1</ele>
        <time>2022-07-30T19:34:56Z</time>
      </trkpt>
      <trkpt lat="49.88075" lon="2.27228">
        <ele>63.1</ele>
        <time>2022-07-30T19:34:57Z</time>
      </trkpt>
      <trkpt lat="49.88075" lon="2.27227">
        <ele>63.1</ele>
        <time>2022-07-30T19:34:58Z</time>
      </trkpt>
      <trkpt lat="49.88074" lon="2.27226">
        <ele>63.1</ele>
        <time>2022-07-30T19:34:59Z</time>
      </trkpt>
      <trkpt lat="49.88074" lon="2.27225">
        <ele>63.1</ele>
        <time>2022-07-30T19:35:00Z</time>
      </trkpt>
      <trkpt lat="49.88074" lon="2.27223">
        <ele>63.1</ele>
        <time>2022-07-30T19:35:01Z</time>
      </trkpt>
      <trkpt lat="49.88074" lon="2.2722">
        <ele>63.1</ele>
        <time>2022-07-30T19:35:02Z</time>
      </trkpt>
      <trkpt lat="49.88074" lon="2.27219">
        <ele>63.1</ele>
        <time>2022-07-30T19:35:03Z</time>
      </trkpt>
      <trkpt lat="49.88074" lon="2.27219">
        <ele>63.1</ele>
        <time>2022-07-30T19:35:04Z</time>
      </trkpt>
      <trkpt lat="49.88074" lon="2.27218">
        <ele>63.1</ele>
        <time>2022-07-30T19:35:05Z</time>
      </trkpt>
      <trkpt lat="49.88073" lon="2.27218">
        <ele>63.1</ele>
        <time>2022-07-30T19:35:06Z</time>
      </trkpt>
      <trkpt lat="49.88073" lon="2.27218">
        <ele>63.1</ele>
        <time>2022-07-30T19:35:07Z</time>
      </trkpt>
      <trkpt lat="49.88073" lon="2.27217">
        <ele>63.1</ele>
        <time>2022-07-30T19:35:08Z</time>
      </trkpt>
      <trkpt lat="49.88072" lon="2.27216">
        <ele>63.1</ele>
        <time>2022-07-30T19:35:09Z</time>
      </trkpt>
      <trkpt lat="49.88071" lon="2.27216">
        <ele>63.1</ele>
        <time>2022-07-30T19:35:11Z</time>
      </trkpt>
      <trkpt lat="49.88071" lon="2.27215">
        <ele>63.1</ele>
        <time>2022-07-30T19:35:12Z</time>
      </trkpt>
      <trkpt lat="49.88071" lon="2.27215">
        <ele>63.1</ele>
        <time>2022-07-30T19:35:13Z</time>
      </trkpt>
      <trkpt lat="49.88071" lon="2.27215">
        <ele>63.1</ele>
        <time>2022-07-30T19:35:14Z</time>
      </trkpt>
      <trkpt lat="49.8807" lon="2.27215">
        <ele>63.1</ele>
        <time>2022-07-30T19:35:16Z</time>
      </trkpt>
      <trkpt lat="49.8807" lon="2.27214">
        <ele>63.1</ele>
        <time>2022-07-30T19:35:17Z</time>
      </trkpt>
      <trkpt lat="49.88069" lon="2.27214">
        <ele>63.1</ele>
        <time>2022-07-30T19:35:18Z</time>
      </trkpt>
      <trkpt lat="49.88069" lon="2.27213">
        <ele>63.1</ele>
        <time>2022-07-30T19:35:19Z</time>
      </trkpt>
      <trkpt lat="49.88068" lon="2.27213">
        <ele>63.1</ele>
        <time>2022-07-30T19:35:20Z</time>
      </trkpt>
      <trkpt lat="49.88067" lon="2.27213">
        <ele>63.1</ele>
        <time>2022-07-30T19:35:21Z</time>
      </trkpt>
      <trkpt lat="49.88066" lon="2.27212">
        <ele>63.1</ele>
        <time>2022-07-30T19:35:22Z</time>
      </trkpt>
      <trkpt lat="49.88065" lon="2.27212">
        <ele>63.1</ele>
        <time>2022-07-30T19:35:23Z</time>
      </trkpt>
      <trkpt lat="49.88064" lon="2.27212">
        <ele>63.1</ele>
        <time>2022-07-30T19:35:24Z</time>
      </trkpt>
      <trkpt lat="49.88063" lon="2.27211">
        <ele>63.1</ele>
        <time>2022-07-30T19:35:25Z</time>
      </trkpt>
      <trkpt lat="49.88062" lon="2.27208">
        <ele>63.1</ele>
        <time>2022-07-30T19:35:27Z</time>
      </trkpt>
      <trkpt lat="49.88062" lon="2.27207">
        <ele>63.1</ele>
        <time>2022-07-30T19:35:28Z</time>
      </trkpt>
      <trkpt lat="49.88061" lon="2.27206">
        <ele>63.1</ele>
        <time>2022-07-30T19:35:29Z</time>
      </trkpt>
      <trkpt lat="49.8806" lon="2.27205">
        <ele>63.1</ele>
        <time>2022-07-30T19:35:30Z</time>
      </trkpt>
      <trkpt lat="49.8806" lon="2.27204">
        <ele>63.1</ele>
        <time>2022-07-30T19:35:31Z</time>
      </trkpt>
      <trkpt lat="49.88059" lon="2.27202">
        <ele>63.1</ele>
        <time>2022-07-30T19:35:32Z</time>
      </trkpt>
      <trkpt lat="49.88058" lon="2.27201">
        <ele>63.1</ele>
        <time>2022-07-30T19:35:33Z</time>
      </trkpt>
      <trkpt lat="49.88057" lon="2.272">
        <ele>63.1</ele>
        <time>2022-07-30T19:35:35Z</time>
      </trkpt>
      <trkpt lat="49.88057" lon="2.27199">
        <ele>63</ele>
        <time>2022-07-30T19:35:36Z</time>
      </trkpt>
      <trkpt lat="49.88056" lon="2.27199">
        <ele>63</ele>
        <time>2022-07-30T19:35:37Z</time>
      </trkpt>
      <trkpt lat="49.88055" lon="2.27198">
        <ele>63</ele>
        <time>2022-07-30T19:35:39Z</time>
      </trkpt>
      <trkpt lat="49.88055" lon="2.27197">
        <ele>63</ele>
        <time>2022-07-30T19:35:40Z</time>
      </trkpt>
      <trkpt lat="49.88054" lon="2.27197">
        <ele>63</ele>
        <time>2022-07-30T19:35:41Z</time>
      </trkpt>
      <trkpt lat="49.88054" lon="2.27196">
        <ele>63</ele>
        <time>2022-07-30T19:35:43Z</time>
      </trkpt>
      <trkpt lat="49.88053" lon="2.27196">
        <ele>63</ele>
        <time>2022-07-30T19:35:44Z</time>
      </trkpt>
      <trkpt lat="49.88052" lon="2.27194">
        <ele>63</ele>
        <time>2022-07-30T19:35:45Z</time>
      </trkpt>
      <trkpt lat="49.88051" lon="2.27193">
        <ele>63</ele>
        <time>2022-07-30T19:35:47Z</time>
      </trkpt>
      <trkpt lat="49.8805" lon="2.27193">
        <ele>63</ele>
        <time>2022-07-30T19:35:48Z</time>
      </trkpt>
      <trkpt lat="49.88049" lon="2.27192">
        <ele>63</ele>
        <time>2022-07-30T19:35:50Z</time>
      </trkpt>
      <trkpt lat="49.88048" lon="2.27192">
        <ele>63</ele>
        <time>2022-07-30T19:35:51Z</time>
      </trkpt>
      <trkpt lat="49.88047" lon="2.27191">
        <ele>63</ele>
        <time>2022-07-30T19:35:52Z</time>
      </trkpt>
      <trkpt lat="49.88046" lon="2.27191">
        <ele>63</ele>
        <time>2022-07-30T19:35:53Z</time>
      </trkpt>
      <trkpt lat="49.88046" lon="2.27191">
        <ele>63</ele>
        <time>2022-07-30T19:35:54Z</time>
      </trkpt>
      <trkpt lat="49.88045" lon="2.2719">
        <ele>63</ele>
        <time>2022-07-30T19:35:56Z</time>
      </trkpt>
      <trkpt lat="49.88045" lon="2.2719">
        <ele>63</ele>
        <time>2022-07-30T19:35:57Z</time>
      </trkpt>
      <trkpt lat="49.88044" lon="2.27189">
        <ele>63</ele>
        <time>2022-07-30T19:35:58Z</time>
      </trkpt>
      <trkpt lat="49.88044" lon="2.27189">
        <ele>62.9</ele>
        <time>2022-07-30T19:35:59Z</time>
      </trkpt>
      <trkpt lat="49.88043" lon="2.27189">
        <ele>62.9</ele>
        <time>2022-07-30T19:36:00Z</time>
      </trkpt>
      <trkpt lat="49.88043" lon="2.27189">
        <ele>62.9</ele>
        <time>2022-07-30T19:36:01Z</time>
      </trkpt>
      <trkpt lat="49.88042" lon="2.27189">
        <ele>62.9</ele>
        <time>2022-07-30T19:36:02Z</time>
      </trkpt>
      <trkpt lat="49.88041" lon="2.27188">
        <ele>62.9</ele>
        <time>2022-07-30T19:36:04Z</time>
      </trkpt>
      <trkpt lat="49.88041" lon="2.27188">
        <ele>62.9</ele>
        <time>2022-07-30T19:36:05Z</time>
      </trkpt>
      <trkpt lat="49.8804" lon="2.27187">
        <ele>62.9</ele>
        <time>2022-07-30T19:36:06Z</time>
      </trkpt>
      <trkpt lat="49.88039" lon="2.27186">
        <ele>62.9</ele>
        <time>2022-07-30T19:36:07Z</time>
      </trkpt>
      <trkpt lat="49.88038" lon="2.27185">
        <ele>62.9</ele>
        <time>2022-07-30T19:36:09Z</time>
      </trkpt>
      <trkpt lat="49.88038" lon="2.27184">
        <ele>62.9</ele>
        <time>2022-07-30T19:36:10Z</time>
      </trkpt>
      <trkpt lat="49.88037" lon="2.27183">
        <ele>62.9</ele>
        <time>2022-07-30T19:36:11Z</time>
      </trkpt>
      <trkpt lat="49.88036" lon="2.27182">
        <ele>62.9</ele>
        <time>2022-07-30T19:36:12Z</time>
      </trkpt>
      <trkpt lat="49.88036" lon="2.27182">
        <ele>62.9</ele>
        <time>2022-07-30T19:36:13Z</time>
      </trkpt>
      <trkpt lat="49.88035" lon="2.27181">
        <ele>62.9</ele>
        <time>2022-07-30T19:36:14Z</time>
      </trkpt>
      <trkpt lat="49.88034" lon="2.2718">
        <ele>62.9</ele>
        <time>2022-07-30T19:36:16Z</time>
      </trkpt>
      <trkpt lat="49.88034" lon="2.27178">
        <ele>62.9</ele>
        <time>2022-07-30T19:36:17Z</time>
      </trkpt>
      <trkpt lat="49.88033" lon="2.27177">
        <ele>62.9</ele>
        <time>2022-07-30T19:36:19Z</time>
      </trkpt>
      <trkpt lat="49.88032" lon="2.27176">
        <ele>62.9</ele>
        <time>2022-07-30T19:36:20Z</time>
      </trkpt>
      <trkpt lat="49.88031" lon="2.27174">
        <ele>62.9</ele>
        <time>2022-07-30T19:36:21Z</time>
      </trkpt>
      <trkpt lat="49.8803" lon="2.27173">
        <ele>62.9</ele>
        <time>2022-07-30T19:36:22Z</time>
      </trkpt>
      <trkpt lat="49.88029" lon="2.27172">
        <ele>62.9</ele>
        <time>2022-07-30T19:36:24Z</time>
      </trkpt>
      <trkpt lat="49.88029" lon="2.2717">
        <ele>62.9</ele>
        <time>2022-07-30T19:36:25Z</time>
      </trkpt>
      <trkpt lat="49.88028" lon="2.27169">
        <ele>62.9</ele>
        <time>2022-07-30T19:36:26Z</time>
      </trkpt>
      <trkpt lat="49.88027" lon="2.27168">
        <ele>62.9</ele>
        <time>2022-07-30T19:36:27Z</time>
      </trkpt>
      <trkpt lat="49.88026" lon="2.27167">
        <ele>62.9</ele>
        <time>2022-07-30T19:36:28Z</time>
      </trkpt>
      <trkpt lat="49.88026" lon="2.27165">
        <ele>62.9</ele>
        <time>2022-07-30T19:36:29Z</time>
      </trkpt>
      <trkpt lat="49.88025" lon="2.27164">
        <ele>62.9</ele>
        <time>2022-07-30T19:36:30Z</time>
      </trkpt>
      <trkpt lat="49.88023" lon="2.27162">
        <ele>62.9</ele>
        <time>2022-07-30T19:36:31Z</time>
      </trkpt>
      <trkpt lat="49.88022" lon="2.27161">
        <ele>62.9</ele>
        <time>2022-07-30T19:36:33Z</time>
      </trkpt>
      <trkpt lat="49.88021" lon="2.27161">
        <ele>62.9</ele>
        <time>2022-07-30T19:36:34Z</time>
      </trkpt>
      <trkpt lat="49.8802" lon="2.2716">
        <ele>62.9</ele>
        <time>2022-07-30T19:36:35Z</time>
      </trkpt>
      <trkpt lat="49.88019" lon="2.27159">
        <ele>62.9</ele>
        <time>2022-07-30T19:36:36Z</time>
      </trkpt>
      <trkpt lat="49.88017" lon="2.27158">
        <ele>63</ele>
        <time>2022-07-30T19:36:38Z</time>
      </trkpt>
      <trkpt lat="49.88016" lon="2.27157">
        <ele>63</ele>
        <time>2022-07-30T19:36:39Z</time>
      </trkpt>
      <trkpt lat="49.88015" lon="2.27157">
        <ele>63</ele>
        <time>2022-07-30T19:36:40Z</time>
      </trkpt>
      <trkpt lat="49.88014" lon="2.27156">
        <ele>63</ele>
        <time>2022-07-30T19:36:41Z</time>
      </trkpt>
      <trkpt lat="49.88013" lon="2.27153">
        <ele>63</ele>
        <time>2022-07-30T19:36:43Z</time>
      </trkpt>
      <trkpt lat="49.88012" lon="2.27153">
        <ele>63</ele>
        <time>2022-07-30T19:36:44Z</time>
      </trkpt>
      <trkpt lat="49.88011" lon="2.27152">
        <ele>63</ele>
        <time>2022-07-30T19:36:45Z</time>
      </trkpt>
      <trkpt lat="49.88009" lon="2.27152">
        <ele>63</ele>
        <time>2022-07-30T19:36:46Z</time>
      </trkpt>
      <trkpt lat="49.88006" lon="2.27148">
        <ele>63</ele>
        <time>2022-07-30T19:36:47Z</time>
      </trkpt>
      <trkpt lat="49.88005" lon="2.27148">
        <ele>63</ele>
        <time>2022-07-30T19:36:49Z</time>
      </trkpt>
      <trkpt lat="49.88004" lon="2.27148">
        <ele>63.1</ele>
        <time>2022-07-30T19:36:50Z</time>
      </trkpt>
      <trkpt lat="49.88003" lon="2.27147">
        <ele>63.1</ele>
        <time>2022-07-30T19:36:51Z</time>
      </trkpt>
      <trkpt lat="49.88002" lon="2.27147">
        <ele>63.1</ele>
        <time>2022-07-30T19:36:52Z</time>
      </trkpt>
      <trkpt lat="49.88002" lon="2.27146">
        <ele>63.1</ele>
        <time>2022-07-30T19:36:53Z</time>
      </trkpt>
      <trkpt lat="49.88001" lon="2.27145">
        <ele>63.1</ele>
        <time>2022-07-30T19:36:54Z</time>
      </trkpt>
      <trkpt lat="49.87999" lon="2.27145">
        <ele>63.1</ele>
        <time>2022-07-30T19:36:55Z</time>
      </trkpt>
      <trkpt lat="49.87998" lon="2.27145">
        <ele>63.1</ele>
        <time>2022-07-30T19:36:57Z</time>
      </trkpt>
      <trkpt lat="49.87996" lon="2.27144">
        <ele>63.1</ele>
        <time>2022-07-30T19:36:58Z</time>
      </trkpt>
      <trkpt lat="49.87995" lon="2.27144">
        <ele>63.1</ele>
        <time>2022-07-30T19:36:59Z</time>
      </trkpt>
      <trkpt lat="49.87994" lon="2.27144">
        <ele>63.1</ele>
        <time>2022-07-30T19:37:00Z</time>
      </trkpt>
      <trkpt lat="49.87993" lon="2.27143">
        <ele>63.1</ele>
        <time>2022-07-30T19:37:01Z</time>
      </trkpt>
      <trkpt lat="49.8799" lon="2.27143">
        <ele>63.2</ele>
        <time>2022-07-30T19:37:02Z</time>
      </trkpt>
      <trkpt lat="49.8799" lon="2.27143">
        <ele>63.2</ele>
        <time>2022-07-30T19:37:03Z</time>
      </trkpt>
      <trkpt lat="49.87989" lon="2.27143">
        <ele>63.2</ele>
        <time>2022-07-30T19:37:05Z</time>
      </trkpt>
      <trkpt lat="49.87987" lon="2.27143">
        <ele>63.2</ele>
        <time>2022-07-30T19:37:06Z</time>
      </trkpt>
      <trkpt lat="49.87985" lon="2.27143">
        <ele>63.2</ele>
        <time>2022-07-30T19:37:08Z</time>
      </trkpt>
      <trkpt lat="49.87984" lon="2.27143">
        <ele>63.2</ele>
        <time>2022-07-30T19:37:09Z</time>
      </trkpt>
      <trkpt lat="49.87984" lon="2.27143">
        <ele>63.2</ele>
        <time>2022-07-30T19:37:10Z</time>
      </trkpt>
      <trkpt lat="49.87983" lon="2.27143">
        <ele>63.2</ele>
        <time>2022-07-30T19:37:11Z</time>
      </trkpt>
      <trkpt lat="49.87984" lon="2.27143">
        <ele>63.2</ele>
        <time>2022-07-30T19:37:12Z</time>
      </trkpt>
      <trkpt lat="49.87984" lon="2.27143">
        <ele>63.2</ele>
        <time>2022-07-30T19:37:13Z</time>
      </trkpt>
      <trkpt lat="49.87984" lon="2.27143">
        <ele>63.2</ele>
        <time>2022-07-30T19:37:14Z</time>
      </trkpt>
      <trkpt lat="49.87984" lon="2.27143">
        <ele>63.2</ele>
        <time>2022-07-30T19:37:15Z</time>
      </trkpt>
      <trkpt lat="49.87984" lon="2.27143">
        <ele>63.2</ele>
        <time>2022-07-30T19:37:16Z</time>
      </trkpt>
      <trkpt lat="49.87985" lon="2.27143">
        <ele>63.2</ele>
        <time>2022-07-30T19:37:18Z</time>
      </trkpt>
      <trkpt lat="49.87985" lon="2.27142">
        <ele>63.2</ele>
        <time>2022-07-30T19:37:19Z</time>
      </trkpt>
      <trkpt lat="49.87985" lon="2.27143">
        <ele>63.2</ele>
        <time>2022-07-30T19:37:20Z</time>
      </trkpt>
      <trkpt lat="49.87985" lon="2.27143">
        <ele>63.2</ele>
        <time>2022-07-30T19:37:21Z</time>
      </trkpt>
      <trkpt lat="49.87984" lon="2.27143">
        <ele>63.2</ele>
        <time>2022-07-30T19:37:23Z</time>
      </trkpt>
      <trkpt lat="49.87984" lon="2.27143">
        <ele>63.2</ele>
        <time>2022-07-30T19:37:24Z</time>
      </trkpt>
      <trkpt lat="49.87984" lon="2.27143">
        <ele>63.2</ele>
        <time>2022-07-30T19:37:25Z</time>
      </trkpt>
      <trkpt lat="49.87984" lon="2.27144">
        <ele>63.2</ele>
        <time>2022-07-30T19:37:26Z</time>
      </trkpt>
      <trkpt lat="49.87985" lon="2.27144">
        <ele>63.2</ele>
        <time>2022-07-30T19:37:27Z</time>
      </trkpt>
      <trkpt lat="49.87985" lon="2.27144">
        <ele>63.2</ele>
        <time>2022-07-30T19:37:28Z</time>
      </trkpt>
      <trkpt lat="49.87985" lon="2.27144">
        <ele>63.2</ele>
        <time>2022-07-30T19:37:29Z</time>
      </trkpt>
      <trkpt lat="49.87985" lon="2.27144">
        <ele>63.2</ele>
        <time>2022-07-30T19:37:30Z</time>
      </trkpt>
      <trkpt lat="49.87985" lon="2.27144">
        <ele>63.2</ele>
        <time>2022-07-30T19:37:31Z</time>
      </trkpt>
      <trkpt lat="49.87985" lon="2.27144">
        <ele>63.2</ele>
        <time>2022-07-30T19:37:32Z</time>
      </trkpt>
      <trkpt lat="49.87985" lon="2.27144">
        <ele>63.3</ele>
        <time>2022-07-30T19:37:33Z</time>
      </trkpt>
      <trkpt lat="49.87984" lon="2.27145">
        <ele>63.3</ele>
        <time>2022-07-30T19:37:34Z</time>
      </trkpt>
      <trkpt lat="49.87984" lon="2.27145">
        <ele>63.3</ele>
        <time>2022-07-30T19:37:35Z</time>
      </trkpt>
      <trkpt lat="49.87984" lon="2.27145">
        <ele>63.3</ele>
        <time>2022-07-30T19:37:36Z</time>
      </trkpt>
      <trkpt lat="49.87984" lon="2.27144">
        <ele>63.3</ele>
        <time>2022-07-30T19:37:37Z</time>
      </trkpt>
      <trkpt lat="49.87984" lon="2.27144">
        <ele>63.3</ele>
        <time>2022-07-30T19:37:38Z</time>
      </trkpt>
      <trkpt lat="49.87984" lon="2.27145">
        <ele>63.3</ele>
        <time>2022-07-30T19:37:39Z</time>
      </trkpt>
      <trkpt lat="49.87984" lon="2.27145">
        <ele>63.3</ele>
        <time>2022-07-30T19:37:40Z</time>
      </trkpt>
      <trkpt lat="49.87984" lon="2.27145">
        <ele>63.3</ele>
        <time>2022-07-30T19:37:41Z</time>
      </trkpt>
      <trkpt lat="49.87984" lon="2.27145">
        <ele>63.3</ele>
        <time>2022-07-30T19:37:42Z</time>
      </trkpt>
      <trkpt lat="49.87984" lon="2.27145">
        <ele>63.3</ele>
        <time>2022-07-30T19:37:43Z</time>
      </trkpt>
      <trkpt lat="49.87984" lon="2.27145">
        <ele>63.3</ele>
        <time>2022-07-30T19:37:44Z</time>
      </trkpt>
      <trkpt lat="49.87984" lon="2.27145">
        <ele>63.3</ele>
        <time>2022-07-30T19:37:45Z</time>
      </trkpt>
      <trkpt lat="49.87984" lon="2.27145">
        <ele>63.3</ele>
        <time>2022-07-30T19:37:46Z</time>
      </trkpt>
      <trkpt lat="49.87984" lon="2.27145">
        <ele>63.3</ele>
        <time>2022-07-30T19:37:47Z</time>
      </trkpt>
      <trkpt lat="49.87984" lon="2.27145">
        <ele>63.3</ele>
        <time>2022-07-30T19:37:48Z</time>
      </trkpt>
      <trkpt lat="49.87984" lon="2.27145">
        <ele>63.3</ele>
        <time>2022-07-30T19:37:49Z</time>
      </trkpt>
      <trkpt lat="49.87984" lon="2.27145">
        <ele>63.3</ele>
        <time>2022-07-30T19:37:50Z</time>
      </trkpt>
      <trkpt lat="49.87984" lon="2.27145">
        <ele>63.3</ele>
        <time>2022-07-30T19:37:51Z</time>
      </trkpt>
      <trkpt lat="49.87984" lon="2.27145">
        <ele>63.3</ele>
        <time>2022-07-30T19:37:52Z</time>
      </trkpt>
      <trkpt lat="49.87984" lon="2.27145">
        <ele>63.3</ele>
        <time>2022-07-30T19:37:53Z</time>
      </trkpt>
      <trkpt lat="49.87984" lon="2.27145">
        <ele>63.3</ele>
        <time>2022-07-30T19:37:54Z</time>
      </trkpt>
      <trkpt lat="49.87984" lon="2.27145">
        <ele>63.3</ele>
        <time>2022-07-30T19:37:55Z</time>
      </trkpt>
      <trkpt lat="49.87984" lon="2.27145">
        <ele>63.3</ele>
        <time>2022-07-30T19:37:56Z</time>
      </trkpt>
      <trkpt lat="49.87984" lon="2.27145">
        <ele>63.3</ele>
        <time>2022-07-30T19:37:57Z</time>
      </trkpt>
      <trkpt lat="49.87984" lon="2.27145">
        <ele>63.3</ele>
        <time>2022-07-30T19:37:58Z</time>
      </trkpt>
      <trkpt lat="49.87984" lon="2.27145">
        <ele>63.3</ele>
        <time>2022-07-30T19:37:59Z</time>
      </trkpt>
      <trkpt lat="49.87984" lon="2.27145">
        <ele>63.3</ele>
        <time>2022-07-30T19:38:00Z</time>
      </trkpt>
      <trkpt lat="49.87984" lon="2.27145">
        <ele>63.3</ele>
        <time>2022-07-30T19:38:01Z</time>
      </trkpt>
      <trkpt lat="49.87984" lon="2.27145">
        <ele>63.3</ele>
        <time>2022-07-30T19:38:02Z</time>
      </trkpt>
      <trkpt lat="49.87984" lon="2.27145">
        <ele>63.3</ele>
        <time>2022-07-30T19:38:03Z</time>
      </trkpt>
      <trkpt lat="49.87984" lon="2.27145">
        <ele>63.3</ele>
        <time>2022-07-30T19:38:04Z</time>
      </trkpt>
      <trkpt lat="49.87984" lon="2.27145">
        <ele>63.3</ele>
        <time>2022-07-30T19:38:05Z</time>
      </trkpt>
      <trkpt lat="49.87984" lon="2.27145">
        <ele>63.3</ele>
        <time>2022-07-30T19:38:06Z</time>
      </trkpt>
      <trkpt lat="49.87984" lon="2.27145">
        <ele>63.3</ele>
        <time>2022-07-30T19:38:07Z</time>
      </trkpt>
      <trkpt lat="49.87984" lon="2.27145">
        <ele>63.3</ele>
        <time>2022-07-30T19:38:08Z</time>
      </trkpt>
      <trkpt lat="49.87984" lon="2.27145">
        <ele>63.3</ele>
        <time>2022-07-30T19:38:09Z</time>
      </trkpt>
      <trkpt lat="49.87984" lon="2.27145">
        <ele>63.3</ele>
        <time>2022-07-30T19:38:10Z</time>
      </trkpt>
      <trkpt lat="49.87984" lon="2.27145">
        <ele>63.3</ele>
        <time>2022-07-30T19:38:11Z</time>
      </trkpt>
      <trkpt lat="49.87984" lon="2.27145">
        <ele>63.3</ele>
        <time>2022-07-30T19:38:12Z</time>
      </trkpt>
      <trkpt lat="49.87984" lon="2.27145">
        <ele>63.3</ele>
        <time>2022-07-30T19:38:13Z</time>
      </trkpt>
      <trkpt lat="49.87984" lon="2.27145">
        <ele>63.3</ele>
        <time>2022-07-30T19:38:14Z</time>
      </trkpt>
      <trkpt lat="49.87984" lon="2.27145">
        <ele>63.3</ele>
        <time>2022-07-30T19:38:15Z</time>
      </trkpt>
      <trkpt lat="49.87984" lon="2.27145">
        <ele>63.3</ele>
        <time>2022-07-30T19:38:16Z</time>
      </trkpt>
      <trkpt lat="49.87984" lon="2.27145">
        <ele>63.3</ele>
        <time>2022-07-30T19:38:17Z</time>
      </trkpt>
      <trkpt lat="49.87984" lon="2.27145">
        <ele>63.3</ele>
        <time>2022-07-30T19:38:18Z</time>
      </trkpt>
      <trkpt lat="49.87984" lon="2.27145">
        <ele>63.3</ele>
        <time>2022-07-30T19:38:19Z</time>
      </trkpt>
      <trkpt lat="49.87984" lon="2.27145">
        <ele>63.3</ele>
        <time>2022-07-30T19:38:20Z</time>
      </trkpt>
      <trkpt lat="49.87984" lon="2.27145">
        <ele>63.3</ele>
        <time>2022-07-30T19:38:21Z</time>
      </trkpt>
      <trkpt lat="49.87984" lon="2.27145">
        <ele>63.3</ele>
        <time>2022-07-30T19:38:22Z</time>
      </trkpt>
      <trkpt lat="49.87984" lon="2.27145">
        <ele>63.3</ele>
        <time>2022-07-30T19:38:23Z</time>
      </trkpt>
      <trkpt lat="49.87984" lon="2.27145">
        <ele>63.3</ele>
        <time>2022-07-30T19:38:24Z</time>
      </trkpt>
      <trkpt lat="49.87984" lon="2.27145">
        <ele>63.3</ele>
        <time>2022-07-30T19:38:25Z</time>
      </trkpt>
      <trkpt lat="49.87984" lon="2.27145">
        <ele>63.3</ele>
        <time>2022-07-30T19:38:26Z</time>
      </trkpt>
      <trkpt lat="49.87984" lon="2.27145">
        <ele>63.3</ele>
        <time>2022-07-30T19:38:27Z</time>
      </trkpt>
      <trkpt lat="49.87984" lon="2.27145">
        <ele>63.3</ele>
        <time>2022-07-30T19:38:28Z</time>
      </trkpt>
      <trkpt lat="49.87984" lon="2.27145">
        <ele>63.3</ele>
        <time>2022-07-30T19:38:29Z</time>
      </trkpt>
      <trkpt lat="49.87984" lon="2.27145">
        <ele>63.3</ele>
        <time>2022-07-30T19:38:30Z</time>
      </trkpt>
      <trkpt lat="49.87984" lon="2.27145">
        <ele>63.3</ele>
        <time>2022-07-30T19:38:31Z</time>
      </trkpt>
      <trkpt lat="49.87984" lon="2.27145">
        <ele>63.3</ele>
        <time>2022-07-30T19:38:32Z</time>
      </trkpt>
      <trkpt lat="49.87984" lon="2.27145">
        <ele>63.3</ele>
        <time>2022-07-30T19:38:33Z</time>
      </trkpt>
      <trkpt lat="49.87984" lon="2.27145">
        <ele>63.3</ele>
        <time>2022-07-30T19:38:34Z</time>
      </trkpt>
      <trkpt lat="49.87984" lon="2.27145">
        <ele>63.3</ele>
        <time>2022-07-30T19:38:35Z</time>
      </trkpt>
      <trkpt lat="49.87984" lon="2.27145">
        <ele>63.3</ele>
        <time>2022-07-30T19:38:36Z</time>
      </trkpt>
      <trkpt lat="49.87984" lon="2.27145">
        <ele>63.3</ele>
        <time>2022-07-30T19:38:37Z</time>
      </trkpt>
      <trkpt lat="49.87984" lon="2.27145">
        <ele>63.3</ele>
        <time>2022-07-30T19:38:38Z</time>
      </trkpt>
      <trkpt lat="49.87986" lon="2.27146">
        <ele>63.3</ele>
        <time>2022-07-30T19:38:39Z</time>
      </trkpt>
      <trkpt lat="49.87986" lon="2.27146">
        <ele>63.3</ele>
        <time>2022-07-30T19:38:40Z</time>
      </trkpt>
      <trkpt lat="49.87985" lon="2.27145">
        <ele>63.3</ele>
        <time>2022-07-30T19:38:41Z</time>
      </trkpt>
      <trkpt lat="49.87984" lon="2.27143">
        <ele>63.3</ele>
        <time>2022-07-30T19:38:42Z</time>
      </trkpt>
      <trkpt lat="49.87984" lon="2.27141">
        <ele>63.3</ele>
        <time>2022-07-30T19:38:43Z</time>
      </trkpt>
      <trkpt lat="49.87985" lon="2.27144">
        <ele>63.3</ele>
        <time>2022-07-30T19:38:44Z</time>
      </trkpt>
      <trkpt lat="49.87985" lon="2.27144">
        <ele>63.3</ele>
        <time>2022-07-30T19:38:45Z</time>
      </trkpt>
      <trkpt lat="49.87984" lon="2.27145">
        <ele>63.3</ele>
        <time>2022-07-30T19:38:46Z</time>
      </trkpt>
      <trkpt lat="49.87982" lon="2.27144">
        <ele>63.4</ele>
        <time>2022-07-30T19:38:48Z</time>
      </trkpt>
      <trkpt lat="49.87981" lon="2.27143">
        <ele>63.4</ele>
        <time>2022-07-30T19:38:49Z</time>
      </trkpt>
      <trkpt lat="49.8798" lon="2.27143">
        <ele>63.4</ele>
        <time>2022-07-30T19:38:50Z</time>
      </trkpt>
      <trkpt lat="49.87978" lon="2.27143">
        <ele>63.4</ele>
        <time>2022-07-30T19:38:51Z</time>
      </trkpt>
      <trkpt lat="49.87976" lon="2.27141">
        <ele>63.4</ele>
        <time>2022-07-30T19:38:52Z</time>
      </trkpt>
      <trkpt lat="49.87974" lon="2.27139">
        <ele>63.4</ele>
        <time>2022-07-30T19:38:53Z</time>
      </trkpt>
      <trkpt lat="49.87973" lon="2.27137">
        <ele>63.4</ele>
        <time>2022-07-30T19:38:54Z</time>
      </trkpt>
      <trkpt lat="49.87972" lon="2.27137">
        <ele>63.4</ele>
        <time>2022-07-30T19:38:55Z</time>
      </trkpt>
      <trkpt lat="49.87971" lon="2.27136">
        <ele>63.5</ele>
        <time>2022-07-30T19:38:56Z</time>
      </trkpt>
      <trkpt lat="49.87968" lon="2.27135">
        <ele>63.5</ele>
        <time>2022-07-30T19:38:58Z</time>
      </trkpt>
      <trkpt lat="49.87968" lon="2.27135">
        <ele>63.5</ele>
        <time>2022-07-30T19:38:59Z</time>
      </trkpt>
      <trkpt lat="49.87967" lon="2.27134">
        <ele>63.5</ele>
        <time>2022-07-30T19:39:00Z</time>
      </trkpt>
      <trkpt lat="49.87965" lon="2.27134">
        <ele>63.5</ele>
        <time>2022-07-30T19:39:01Z</time>
      </trkpt>
      <trkpt lat="49.87963" lon="2.27134">
        <ele>63.5</ele>
        <time>2022-07-30T19:39:03Z</time>
      </trkpt>
      <trkpt lat="49.87963" lon="2.27133">
        <ele>63.5</ele>
        <time>2022-07-30T19:39:04Z</time>
      </trkpt>
      <trkpt lat="49.87962" lon="2.27133">
        <ele>63.5</ele>
        <time>2022-07-30T19:39:05Z</time>
      </trkpt>
      <trkpt lat="49.87961" lon="2.27132">
        <ele>63.5</ele>
        <time>2022-07-30T19:39:06Z</time>
      </trkpt>
      <trkpt lat="49.8796" lon="2.27132">
        <ele>63.5</ele>
        <time>2022-07-30T19:39:08Z</time>
      </trkpt>
      <trkpt lat="49.87959" lon="2.27132">
        <ele>63.6</ele>
        <time>2022-07-30T19:39:09Z</time>
      </trkpt>
      <trkpt lat="49.87958" lon="2.27131">
        <ele>63.6</ele>
        <time>2022-07-30T19:39:10Z</time>
      </trkpt>
      <trkpt lat="49.87957" lon="2.27131">
        <ele>63.6</ele>
        <time>2022-07-30T19:39:11Z</time>
      </trkpt>
      <trkpt lat="49.87956" lon="2.27129">
        <ele>63.6</ele>
        <time>2022-07-30T19:39:13Z</time>
      </trkpt>
      <trkpt lat="49.87955" lon="2.27129">
        <ele>63.6</ele>
        <time>2022-07-30T19:39:14Z</time>
      </trkpt>
      <trkpt lat="49.87955" lon="2.27129">
        <ele>63.6</ele>
        <time>2022-07-30T19:39:15Z</time>
      </trkpt>
      <trkpt lat="49.87954" lon="2.27128">
        <ele>63.6</ele>
        <time>2022-07-30T19:39:16Z</time>
      </trkpt>
      <trkpt lat="49.87953" lon="2.27125">
        <ele>63.6</ele>
        <time>2022-07-30T19:39:18Z</time>
      </trkpt>
      <trkpt lat="49.87952" lon="2.27125">
        <ele>63.6</ele>
        <time>2022-07-30T19:39:19Z</time>
      </trkpt>
      <trkpt lat="49.87951" lon="2.27123">
        <ele>63.6</ele>
        <time>2022-07-30T19:39:21Z</time>
      </trkpt>
      <trkpt lat="49.87951" lon="2.27122">
        <ele>63.6</ele>
        <time>2022-07-30T19:39:22Z</time>
      </trkpt>
      <trkpt lat="49.87949" lon="2.27121">
        <ele>63.6</ele>
        <time>2022-07-30T19:39:23Z</time>
      </trkpt>
      <trkpt lat="49.87949" lon="2.2712">
        <ele>63.6</ele>
        <time>2022-07-30T19:39:24Z</time>
      </trkpt>
      <trkpt lat="49.87948" lon="2.2712">
        <ele>63.7</ele>
        <time>2022-07-30T19:39:25Z</time>
      </trkpt>
      <trkpt lat="49.87948" lon="2.27118">
        <ele>63.7</ele>
        <time>2022-07-30T19:39:27Z</time>
      </trkpt>
      <trkpt lat="49.87947" lon="2.27117">
        <ele>63.7</ele>
        <time>2022-07-30T19:39:28Z</time>
      </trkpt>
      <trkpt lat="49.87946" lon="2.27116">
        <ele>63.7</ele>
        <time>2022-07-30T19:39:29Z</time>
      </trkpt>
      <trkpt lat="49.87944" lon="2.27115">
        <ele>63.7</ele>
        <time>2022-07-30T19:39:30Z</time>
      </trkpt>
      <trkpt lat="49.87943" lon="2.27114">
        <ele>63.7</ele>
        <time>2022-07-30T19:39:32Z</time>
      </trkpt>
      <trkpt lat="49.87943" lon="2.27113">
        <ele>63.7</ele>
        <time>2022-07-30T19:39:33Z</time>
      </trkpt>
      <trkpt lat="49.87941" lon="2.27113">
        <ele>63.7</ele>
        <time>2022-07-30T19:39:34Z</time>
      </trkpt>
      <trkpt lat="49.87941" lon="2.27112">
        <ele>63.7</ele>
        <time>2022-07-30T19:39:35Z</time>
      </trkpt>
      <trkpt lat="49.8794" lon="2.27112">
        <ele>63.7</ele>
        <time>2022-07-30T19:39:36Z</time>
      </trkpt>
      <trkpt lat="49.87939" lon="2.27111">
        <ele>63.7</ele>
        <time>2022-07-30T19:39:37Z</time>
      </trkpt>
      <trkpt lat="49.87938" lon="2.27111">
        <ele>63.7</ele>
        <time>2022-07-30T19:39:38Z</time>
      </trkpt>
      <trkpt lat="49.87937" lon="2.27111">
        <ele>63.7</ele>
        <time>2022-07-30T19:39:40Z</time>
      </trkpt>
      <trkpt lat="49.87936" lon="2.2711">
        <ele>63.7</ele>
        <time>2022-07-30T19:39:41Z</time>
      </trkpt>
      <trkpt lat="49.87935" lon="2.2711">
        <ele>63.7</ele>
        <time>2022-07-30T19:39:42Z</time>
      </trkpt>
      <trkpt lat="49.87934" lon="2.27109">
        <ele>63.7</ele>
        <time>2022-07-30T19:39:43Z</time>
      </trkpt>
      <trkpt lat="49.87933" lon="2.27109">
        <ele>63.7</ele>
        <time>2022-07-30T19:39:45Z</time>
      </trkpt>
      <trkpt lat="49.87932" lon="2.27108">
        <ele>63.7</ele>
        <time>2022-07-30T19:39:46Z</time>
      </trkpt>
      <trkpt lat="49.87931" lon="2.27108">
        <ele>63.7</ele>
        <time>2022-07-30T19:39:47Z</time>
      </trkpt>
      <trkpt lat="49.8793" lon="2.27107">
        <ele>63.7</ele>
        <time>2022-07-30T19:39:48Z</time>
      </trkpt>
      <trkpt lat="49.8793" lon="2.27107">
        <ele>63.7</ele>
        <time>2022-07-30T19:39:49Z</time>
      </trkpt>
      <trkpt lat="49.87929" lon="2.27107">
        <ele>63.7</ele>
        <time>2022-07-30T19:39:50Z</time>
      </trkpt>
      <trkpt lat="49.87928" lon="2.27106">
        <ele>63.7</ele>
        <time>2022-07-30T19:39:51Z</time>
      </trkpt>
      <trkpt lat="49.87927" lon="2.27106">
        <ele>63.7</ele>
        <time>2022-07-30T19:39:52Z</time>
      </trkpt>
      <trkpt lat="49.87926" lon="2.27106">
        <ele>63.7</ele>
        <time>2022-07-30T19:39:53Z</time>
      </trkpt>
      <trkpt lat="49.87924" lon="2.27105">
        <ele>63.7</ele>
        <time>2022-07-30T19:39:55Z</time>
      </trkpt>
      <trkpt lat="49.87923" lon="2.27105">
        <ele>63.7</ele>
        <time>2022-07-30T19:39:56Z</time>
      </trkpt>
      <trkpt lat="49.87923" lon="2.27105">
        <ele>63.7</ele>
        <time>2022-07-30T19:39:57Z</time>
      </trkpt>
      <trkpt lat="49.87922" lon="2.27104">
        <ele>63.8</ele>
        <time>2022-07-30T19:39:58Z</time>
      </trkpt>
      <trkpt lat="49.87921" lon="2.27104">
        <ele>63.8</ele>
        <time>2022-07-30T19:39:59Z</time>
      </trkpt>
      <trkpt lat="49.87921" lon="2.27103">
        <ele>63.8</ele>
        <time>2022-07-30T19:40:00Z</time>
      </trkpt>
      <trkpt lat="49.8792" lon="2.27103">
        <ele>63.8</ele>
        <time>2022-07-30T19:40:01Z</time>
      </trkpt>
      <trkpt lat="49.87919" lon="2.27102">
        <ele>63.8</ele>
        <time>2022-07-30T19:40:03Z</time>
      </trkpt>
      <trkpt lat="49.87919" lon="2.27102">
        <ele>63.8</ele>
        <time>2022-07-30T19:40:04Z</time>
      </trkpt>
      <trkpt lat="49.87918" lon="2.27101">
        <ele>63.8</ele>
        <time>2022-07-30T19:40:05Z</time>
      </trkpt>
      <trkpt lat="49.87917" lon="2.271">
        <ele>63.8</ele>
        <time>2022-07-30T19:40:06Z</time>
      </trkpt>
      <trkpt lat="49.87916" lon="2.27099">
        <ele>63.8</ele>
        <time>2022-07-30T19:40:08Z</time>
      </trkpt>
      <trkpt lat="49.87916" lon="2.27099">
        <ele>63.8</ele>
        <time>2022-07-30T19:40:09Z</time>
      </trkpt>
      <trkpt lat="49.87915" lon="2.27099">
        <ele>63.8</ele>
        <time>2022-07-30T19:40:10Z</time>
      </trkpt>
      <trkpt lat="49.87915" lon="2.27098">
        <ele>63.8</ele>
        <time>2022-07-30T19:40:11Z</time>
      </trkpt>
      <trkpt lat="49.87915" lon="2.27098">
        <ele>63.8</ele>
        <time>2022-07-30T19:40:12Z</time>
      </trkpt>
      <trkpt lat="49.87914" lon="2.27098">
        <ele>63.8</ele>
        <time>2022-07-30T19:40:13Z</time>
      </trkpt>
      <trkpt lat="49.87914" lon="2.27097">
        <ele>63.8</ele>
        <time>2022-07-30T19:40:14Z</time>
      </trkpt>
      <trkpt lat="49.87913" lon="2.27097">
        <ele>63.8</ele>
        <time>2022-07-30T19:40:16Z</time>
      </trkpt>
      <trkpt lat="49.87912" lon="2.27096">
        <ele>63.8</ele>
        <time>2022-07-30T19:40:17Z</time>
      </trkpt>
      <trkpt lat="49.87911" lon="2.27095">
        <ele>63.8</ele>
        <time>2022-07-30T19:40:18Z</time>
      </trkpt>
      <trkpt lat="49.8791" lon="2.27095">
        <ele>63.8</ele>
        <time>2022-07-30T19:40:20Z</time>
      </trkpt>
      <trkpt lat="49.87909" lon="2.27094">
        <ele>63.8</ele>
        <time>2022-07-30T19:40:21Z</time>
      </trkpt>
      <trkpt lat="49.87907" lon="2.27093">
        <ele>63.8</ele>
        <time>2022-07-30T19:40:23Z</time>
      </trkpt>
      <trkpt lat="49.87907" lon="2.27092">
        <ele>63.8</ele>
        <time>2022-07-30T19:40:24Z</time>
      </trkpt>
      <trkpt lat="49.87906" lon="2.27091">
        <ele>63.8</ele>
        <time>2022-07-30T19:40:25Z</time>
      </trkpt>
      <trkpt lat="49.87905" lon="2.2709">
        <ele>63.8</ele>
        <time>2022-07-30T19:40:27Z</time>
      </trkpt>
      <trkpt lat="49.87904" lon="2.27088">
        <ele>63.8</ele>
        <time>2022-07-30T19:40:29Z</time>
      </trkpt>
      <trkpt lat="49.87903" lon="2.27087">
        <ele>63.8</ele>
        <time>2022-07-30T19:40:30Z</time>
      </trkpt>
      <trkpt lat="49.87903" lon="2.27086">
        <ele>63.8</ele>
        <time>2022-07-30T19:40:31Z</time>
      </trkpt>
      <trkpt lat="49.87902" lon="2.27083">
        <ele>63.8</ele>
        <time>2022-07-30T19:40:32Z</time>
      </trkpt>
      <trkpt lat="49.87901" lon="2.27082">
        <ele>63.8</ele>
        <time>2022-07-30T19:40:33Z</time>
      </trkpt>
      <trkpt lat="49.879" lon="2.2708">
        <ele>63.8</ele>
        <time>2022-07-30T19:40:35Z</time>
      </trkpt>
      <trkpt lat="49.879" lon="2.27078">
        <ele>63.8</ele>
        <time>2022-07-30T19:40:36Z</time>
      </trkpt>
      <trkpt lat="49.87899" lon="2.27077">
        <ele>63.8</ele>
        <time>2022-07-30T19:40:37Z</time>
      </trkpt>
      <trkpt lat="49.87898" lon="2.27075">
        <ele>63.8</ele>
        <time>2022-07-30T19:40:38Z</time>
      </trkpt>
      <trkpt lat="49.87899" lon="2.27075">
        <ele>63.8</ele>
        <time>2022-07-30T19:40:39Z</time>
      </trkpt>
      <trkpt lat="49.87899" lon="2.27075">
        <ele>63.8</ele>
        <time>2022-07-30T19:40:40Z</time>
      </trkpt>
      <trkpt lat="49.87898" lon="2.27074">
        <ele>63.8</ele>
        <time>2022-07-30T19:40:42Z</time>
      </trkpt>
      <trkpt lat="49.87898" lon="2.27073">
        <ele>63.8</ele>
        <time>2022-07-30T19:40:43Z</time>
      </trkpt>
      <trkpt lat="49.87897" lon="2.27072">
        <ele>63.8</ele>
        <time>2022-07-30T19:40:44Z</time>
      </trkpt>
      <trkpt lat="49.87898" lon="2.27073">
        <ele>63.8</ele>
        <time>2022-07-30T19:40:45Z</time>
      </trkpt>
      <trkpt lat="49.87897" lon="2.27073">
        <ele>63.8</ele>
        <time>2022-07-30T19:40:46Z</time>
      </trkpt>
      <trkpt lat="49.87897" lon="2.27073">
        <ele>63.8</ele>
        <time>2022-07-30T19:40:48Z</time>
      </trkpt>
      <trkpt lat="49.87896" lon="2.27072">
        <ele>63.8</ele>
        <time>2022-07-30T19:40:49Z</time>
      </trkpt>
      <trkpt lat="49.87895" lon="2.27071">
        <ele>63.8</ele>
        <time>2022-07-30T19:40:50Z</time>
      </trkpt>
      <trkpt lat="49.87894" lon="2.2707">
        <ele>63.8</ele>
        <time>2022-07-30T19:40:51Z</time>
      </trkpt>
      <trkpt lat="49.87893" lon="2.27068">
        <ele>63.8</ele>
        <time>2022-07-30T19:40:53Z</time>
      </trkpt>
      <trkpt lat="49.87893" lon="2.27067">
        <ele>63.8</ele>
        <time>2022-07-30T19:40:54Z</time>
      </trkpt>
      <trkpt lat="49.87892" lon="2.27066">
        <ele>63.8</ele>
        <time>2022-07-30T19:40:55Z</time>
      </trkpt>
      <trkpt lat="49.87891" lon="2.27066">
        <ele>63.8</ele>
        <time>2022-07-30T19:40:56Z</time>
      </trkpt>
      <trkpt lat="49.8789" lon="2.27064">
        <ele>63.8</ele>
        <time>2022-07-30T19:40:57Z</time>
      </trkpt>
      <trkpt lat="49.87889" lon="2.27063">
        <ele>63.8</ele>
        <time>2022-07-30T19:40:59Z</time>
      </trkpt>
      <trkpt lat="49.87889" lon="2.27062">
        <ele>63.8</ele>
        <time>2022-07-30T19:41:00Z</time>
      </trkpt>
      <trkpt lat="49.87888" lon="2.27062">
        <ele>63.8</ele>
        <time>2022-07-30T19:41:01Z</time>
      </trkpt>
      <trkpt lat="49.87886" lon="2.27061">
        <ele>63.8</ele>
        <time>2022-07-30T19:41:02Z</time>
      </trkpt>
      <trkpt lat="49.87885" lon="2.2706">
        <ele>63.8</ele>
        <time>2022-07-30T19:41:03Z</time>
      </trkpt>
      <trkpt lat="49.87885" lon="2.27059">
        <ele>63.8</ele>
        <time>2022-07-30T19:41:05Z</time>
      </trkpt>
      <trkpt lat="49.87884" lon="2.27058">
        <ele>63.8</ele>
        <time>2022-07-30T19:41:06Z</time>
      </trkpt>
      <trkpt lat="49.87883" lon="2.27057">
        <ele>63.8</ele>
        <time>2022-07-30T19:41:07Z</time>
      </trkpt>
      <trkpt lat="49.87882" lon="2.27056">
        <ele>63.8</ele>
        <time>2022-07-30T19:41:08Z</time>
      </trkpt>
      <trkpt lat="49.87882" lon="2.27055">
        <ele>63.8</ele>
        <time>2022-07-30T19:41:09Z</time>
      </trkpt>
      <trkpt lat="49.87881" lon="2.27054">
        <ele>63.8</ele>
        <time>2022-07-30T19:41:10Z</time>
      </trkpt>
      <trkpt lat="49.8788" lon="2.27052">
        <ele>63.8</ele>
        <time>2022-07-30T19:41:12Z</time>
      </trkpt>
      <trkpt lat="49.87879" lon="2.27051">
        <ele>63.8</ele>
        <time>2022-07-30T19:41:13Z</time>
      </trkpt>
      <trkpt lat="49.87878" lon="2.27049">
        <ele>63.8</ele>
        <time>2022-07-30T19:41:14Z</time>
      </trkpt>
      <trkpt lat="49.87878" lon="2.27048">
        <ele>63.8</ele>
        <time>2022-07-30T19:41:15Z</time>
      </trkpt>
      <trkpt lat="49.87877" lon="2.27046">
        <ele>63.8</ele>
        <time>2022-07-30T19:41:16Z</time>
      </trkpt>
      <trkpt lat="49.87877" lon="2.27045">
        <ele>63.8</ele>
        <time>2022-07-30T19:41:18Z</time>
      </trkpt>
      <trkpt lat="49.87876" lon="2.27044">
        <ele>63.8</ele>
        <time>2022-07-30T19:41:19Z</time>
      </trkpt>
      <trkpt lat="49.87876" lon="2.27042">
        <ele>63.8</ele>
        <time>2022-07-30T19:41:20Z</time>
      </trkpt>
      <trkpt lat="49.87875" lon="2.27041">
        <ele>63.8</ele>
        <time>2022-07-30T19:41:21Z</time>
      </trkpt>
      <trkpt lat="49.87874" lon="2.2704">
        <ele>63.8</ele>
        <time>2022-07-30T19:41:22Z</time>
      </trkpt>
      <trkpt lat="49.87873" lon="2.2704">
        <ele>63.8</ele>
        <time>2022-07-30T19:41:23Z</time>
      </trkpt>
      <trkpt lat="49.87872" lon="2.27038">
        <ele>63.8</ele>
        <time>2022-07-30T19:41:24Z</time>
      </trkpt>
      <trkpt lat="49.87871" lon="2.27037">
        <ele>63.8</ele>
        <time>2022-07-30T19:41:26Z</time>
      </trkpt>
      <trkpt lat="49.8787" lon="2.27035">
        <ele>63.8</ele>
        <time>2022-07-30T19:41:27Z</time>
      </trkpt>
      <trkpt lat="49.87869" lon="2.27034">
        <ele>63.8</ele>
        <time>2022-07-30T19:41:28Z</time>
      </trkpt>
      <trkpt lat="49.87868" lon="2.27033">
        <ele>63.8</ele>
        <time>2022-07-30T19:41:29Z</time>
      </trkpt>
      <trkpt lat="49.87868" lon="2.27032">
        <ele>63.9</ele>
        <time>2022-07-30T19:41:30Z</time>
      </trkpt>
      <trkpt lat="49.87867" lon="2.27028">
        <ele>63.9</ele>
        <time>2022-07-30T19:41:32Z</time>
      </trkpt>
      <trkpt lat="49.87867" lon="2.27027">
        <ele>63.9</ele>
        <time>2022-07-30T19:41:33Z</time>
      </trkpt>
      <trkpt lat="49.87866" lon="2.27025">
        <ele>63.9</ele>
        <time>2022-07-30T19:41:34Z</time>
      </trkpt>
      <trkpt lat="49.87866" lon="2.27024">
        <ele>63.9</ele>
        <time>2022-07-30T19:41:35Z</time>
      </trkpt>
      <trkpt lat="49.87865" lon="2.27022">
        <ele>63.9</ele>
        <time>2022-07-30T19:41:37Z</time>
      </trkpt>
      <trkpt lat="49.87865" lon="2.27019">
        <ele>63.9</ele>
        <time>2022-07-30T19:41:38Z</time>
      </trkpt>
      <trkpt lat="49.87865" lon="2.27018">
        <ele>63.9</ele>
        <time>2022-07-30T19:41:39Z</time>
      </trkpt>
      <trkpt lat="49.87864" lon="2.27017">
        <ele>63.9</ele>
        <time>2022-07-30T19:41:40Z</time>
      </trkpt>
      <trkpt lat="49.87863" lon="2.27016">
        <ele>64</ele>
        <time>2022-07-30T19:41:42Z</time>
      </trkpt>
      <trkpt lat="49.87861" lon="2.27015">
        <ele>64</ele>
        <time>2022-07-30T19:41:43Z</time>
      </trkpt>
      <trkpt lat="49.8786" lon="2.27014">
        <ele>64</ele>
        <time>2022-07-30T19:41:44Z</time>
      </trkpt>
      <trkpt lat="49.87857" lon="2.27013">
        <ele>64</ele>
        <time>2022-07-30T19:41:45Z</time>
      </trkpt>
      <trkpt lat="49.87856" lon="2.27013">
        <ele>64</ele>
        <time>2022-07-30T19:41:47Z</time>
      </trkpt>
      <trkpt lat="49.87854" lon="2.27013">
        <ele>64</ele>
        <time>2022-07-30T19:41:48Z</time>
      </trkpt>
      <trkpt lat="49.87854" lon="2.27013">
        <ele>64</ele>
        <time>2022-07-30T19:41:49Z</time>
      </trkpt>
      <trkpt lat="49.87853" lon="2.27013">
        <ele>64</ele>
        <time>2022-07-30T19:41:50Z</time>
      </trkpt>
      <trkpt lat="49.87853" lon="2.27013">
        <ele>64</ele>
        <time>2022-07-30T19:41:51Z</time>
      </trkpt>
      <trkpt lat="49.87851" lon="2.27014">
        <ele>64.1</ele>
        <time>2022-07-30T19:41:52Z</time>
      </trkpt>
      <trkpt lat="49.8785" lon="2.27014">
        <ele>64.1</ele>
        <time>2022-07-30T19:41:53Z</time>
      </trkpt>
      <trkpt lat="49.87849" lon="2.27015">
        <ele>64.1</ele>
        <time>2022-07-30T19:41:55Z</time>
      </trkpt>
      <trkpt lat="49.87848" lon="2.27015">
        <ele>64.1</ele>
        <time>2022-07-30T19:41:56Z</time>
      </trkpt>
      <trkpt lat="49.87846" lon="2.27015">
        <ele>64.1</ele>
        <time>2022-07-30T19:41:57Z</time>
      </trkpt>
      <trkpt lat="49.87845" lon="2.27014">
        <ele>64.1</ele>
        <time>2022-07-30T19:41:59Z</time>
      </trkpt>
      <trkpt lat="49.87846" lon="2.27014">
        <ele>64.1</ele>
        <time>2022-07-30T19:42:00Z</time>
      </trkpt>
      <trkpt lat="49.87846" lon="2.27013">
        <ele>64.1</ele>
        <time>2022-07-30T19:42:01Z</time>
      </trkpt>
      <trkpt lat="49.87849" lon="2.2701">
        <ele>64.1</ele>
        <time>2022-07-30T19:42:02Z</time>
      </trkpt>
      <trkpt lat="49.87849" lon="2.2701">
        <ele>64.2</ele>
        <time>2022-07-30T19:42:03Z</time>
      </trkpt>
      <trkpt lat="49.87849" lon="2.2701">
        <ele>64.2</ele>
        <time>2022-07-30T19:42:04Z</time>
      </trkpt>
      <trkpt lat="49.8785" lon="2.2701">
        <ele>64.2</ele>
        <time>2022-07-30T19:42:05Z</time>
      </trkpt>
      <trkpt lat="49.8785" lon="2.2701">
        <ele>64.2</ele>
        <time>2022-07-30T19:42:06Z</time>
      </trkpt>
      <trkpt lat="49.8785" lon="2.2701">
        <ele>64.2</ele>
        <time>2022-07-30T19:42:08Z</time>
      </trkpt>
      <trkpt lat="49.8785" lon="2.2701">
        <ele>64.2</ele>
        <time>2022-07-30T19:42:09Z</time>
      </trkpt>
      <trkpt lat="49.87851" lon="2.2701">
        <ele>64.2</ele>
        <time>2022-07-30T19:42:10Z</time>
      </trkpt>
      <trkpt lat="49.87851" lon="2.2701">
        <ele>64.2</ele>
        <time>2022-07-30T19:42:11Z</time>
      </trkpt>
      <trkpt lat="49.87851" lon="2.2701">
        <ele>64.2</ele>
        <time>2022-07-30T19:42:13Z</time>
      </trkpt>
      <trkpt lat="49.87851" lon="2.27011">
        <ele>64.2</ele>
        <time>2022-07-30T19:42:14Z</time>
      </trkpt>
      <trkpt lat="49.87852" lon="2.27011">
        <ele>64.2</ele>
        <time>2022-07-30T19:42:15Z</time>
      </trkpt>
      <trkpt lat="49.87853" lon="2.2701">
        <ele>64.2</ele>
        <time>2022-07-30T19:42:16Z</time>
      </trkpt>
      <trkpt lat="49.87854" lon="2.2701">
        <ele>64.2</ele>
        <time>2022-07-30T19:42:18Z</time>
      </trkpt>
      <trkpt lat="49.87855" lon="2.27009">
        <ele>64.2</ele>
        <time>2022-07-30T19:42:19Z</time>
      </trkpt>
      <trkpt lat="49.87856" lon="2.27009">
        <ele>64.2</ele>
        <time>2022-07-30T19:42:20Z</time>
      </trkpt>
      <trkpt lat="49.87857" lon="2.27009">
        <ele>64.2</ele>
        <time>2022-07-30T19:42:21Z</time>
      </trkpt>
      <trkpt lat="49.87857" lon="2.2701">
        <ele>64.2</ele>
        <time>2022-07-30T19:42:22Z</time>
      </trkpt>
      <trkpt lat="49.87856" lon="2.2701">
        <ele>64.2</ele>
        <time>2022-07-30T19:42:23Z</time>
      </trkpt>
      <trkpt lat="49.87857" lon="2.27011">
        <ele>64.2</ele>
        <time>2022-07-30T19:42:24Z</time>
      </trkpt>
      <trkpt lat="49.87857" lon="2.27011">
        <ele>64.2</ele>
        <time>2022-07-30T19:42:25Z</time>
      </trkpt>
      <trkpt lat="49.87857" lon="2.27011">
        <ele>64.2</ele>
        <time>2022-07-30T19:42:26Z</time>
      </trkpt>
      <trkpt lat="49.87857" lon="2.27012">
        <ele>64.2</ele>
        <time>2022-07-30T19:42:28Z</time>
      </trkpt>
      <trkpt lat="49.87857" lon="2.27012">
        <ele>64.2</ele>
        <time>2022-07-30T19:42:29Z</time>
      </trkpt>
      <trkpt lat="49.87857" lon="2.27012">
        <ele>64.2</ele>
        <time>2022-07-30T19:42:30Z</time>
      </trkpt>
      <trkpt lat="49.87857" lon="2.27012">
        <ele>64.2</ele>
        <time>2022-07-30T19:42:31Z</time>
      </trkpt>
      <trkpt lat="49.87857" lon="2.27012">
        <ele>64.2</ele>
        <time>2022-07-30T19:42:33Z</time>
      </trkpt>
      <trkpt lat="49.87858" lon="2.27012">
        <ele>64.2</ele>
        <time>2022-07-30T19:42:34Z</time>
      </trkpt>
      <trkpt lat="49.87859" lon="2.27013">
        <ele>64.3</ele>
        <time>2022-07-30T19:42:35Z</time>
      </trkpt>
      <trkpt lat="49.8786" lon="2.27013">
        <ele>64.3</ele>
        <time>2022-07-30T19:42:36Z</time>
      </trkpt>
      <trkpt lat="49.87862" lon="2.27013">
        <ele>64.3</ele>
        <time>2022-07-30T19:42:37Z</time>
      </trkpt>
      <trkpt lat="49.87862" lon="2.27013">
        <ele>64.3</ele>
        <time>2022-07-30T19:42:38Z</time>
      </trkpt>
      <trkpt lat="49.87862" lon="2.27013">
        <ele>64.3</ele>
        <time>2022-07-30T19:42:39Z</time>
      </trkpt>
      <trkpt lat="49.87858" lon="2.27013">
        <ele>64.3</ele>
        <time>2022-07-30T19:42:40Z</time>
      </trkpt>
      <trkpt lat="49.87854" lon="2.27012">
        <ele>64.3</ele>
        <time>2022-07-30T19:42:41Z</time>
      </trkpt>
      <trkpt lat="49.87861" lon="2.27014">
        <ele>64.4</ele>
        <time>2022-07-30T19:42:42Z</time>
      </trkpt>
      <trkpt lat="49.87861" lon="2.27013">
        <ele>64.4</ele>
        <time>2022-07-30T19:42:43Z</time>
      </trkpt>
      <trkpt lat="49.87861" lon="2.27013">
        <ele>64.4</ele>
        <time>2022-07-30T19:42:44Z</time>
      </trkpt>
      <trkpt lat="49.87861" lon="2.27013">
        <ele>64.4</ele>
        <time>2022-07-30T19:42:45Z</time>
      </trkpt>
      <trkpt lat="49.87861" lon="2.27014">
        <ele>64.4</ele>
        <time>2022-07-30T19:42:46Z</time>
      </trkpt>
      <trkpt lat="49.87861" lon="2.27014">
        <ele>64.4</ele>
        <time>2022-07-30T19:42:47Z</time>
      </trkpt>
      <trkpt lat="49.87861" lon="2.27014">
        <ele>64.4</ele>
        <time>2022-07-30T19:42:48Z</time>
      </trkpt>
      <trkpt lat="49.87861" lon="2.27014">
        <ele>64.4</ele>
        <time>2022-07-30T19:42:49Z</time>
      </trkpt>
      <trkpt lat="49.8786" lon="2.27014">
        <ele>64.4</ele>
        <time>2022-07-30T19:42:50Z</time>
      </trkpt>
      <trkpt lat="49.8786" lon="2.27014">
        <ele>64.4</ele>
        <time>2022-07-30T19:42:51Z</time>
      </trkpt>
      <trkpt lat="49.8786" lon="2.27014">
        <ele>64.4</ele>
        <time>2022-07-30T19:42:52Z</time>
      </trkpt>
      <trkpt lat="49.8786" lon="2.27014">
        <ele>64.4</ele>
        <time>2022-07-30T19:42:53Z</time>
      </trkpt>
      <trkpt lat="49.8786" lon="2.27014">
        <ele>64.4</ele>
        <time>2022-07-30T19:42:54Z</time>
      </trkpt>
      <trkpt lat="49.8786" lon="2.27014">
        <ele>64.4</ele>
        <time>2022-07-30T19:42:55Z</time>
      </trkpt>
      <trkpt lat="49.87859" lon="2.27014">
        <ele>64.4</ele>
        <time>2022-07-30T19:42:56Z</time>
      </trkpt>
      <trkpt lat="49.87859" lon="2.27014">
        <ele>64.4</ele>
        <time>2022-07-30T19:42:57Z</time>
      </trkpt>
      <trkpt lat="49.87859" lon="2.27014">
        <ele>64.4</ele>
        <time>2022-07-30T19:42:58Z</time>
      </trkpt>
      <trkpt lat="49.87859" lon="2.27014">
        <ele>64.4</ele>
        <time>2022-07-30T19:42:59Z</time>
      </trkpt>
      <trkpt lat="49.87859" lon="2.27014">
        <ele>64.4</ele>
        <time>2022-07-30T19:43:00Z</time>
      </trkpt>
      <trkpt lat="49.87859" lon="2.27014">
        <ele>64.4</ele>
        <time>2022-07-30T19:43:01Z</time>
      </trkpt>
      <trkpt lat="49.87859" lon="2.27014">
        <ele>64.4</ele>
        <time>2022-07-30T19:43:02Z</time>
      </trkpt>
      <trkpt lat="49.87858" lon="2.27014">
        <ele>64.4</ele>
        <time>2022-07-30T19:43:03Z</time>
      </trkpt>
      <trkpt lat="49.87858" lon="2.27014">
        <ele>64.4</ele>
        <time>2022-07-30T19:43:04Z</time>
      </trkpt>
      <trkpt lat="49.87858" lon="2.27014">
        <ele>64.4</ele>
        <time>2022-07-30T19:43:05Z</time>
      </trkpt>
      <trkpt lat="49.87858" lon="2.27014">
        <ele>64.4</ele>
        <time>2022-07-30T19:43:06Z</time>
      </trkpt>
      <trkpt lat="49.87858" lon="2.27014">
        <ele>64.4</ele>
        <time>2022-07-30T19:43:07Z</time>
      </trkpt>
      <trkpt lat="49.87858" lon="2.27014">
        <ele>64.4</ele>
        <time>2022-07-30T19:43:08Z</time>
      </trkpt>
      <trkpt lat="49.87857" lon="2.27014">
        <ele>64.4</ele>
        <time>2022-07-30T19:43:09Z</time>
      </trkpt>
      <trkpt lat="49.87857" lon="2.27014">
        <ele>64.4</ele>
        <time>2022-07-30T19:43:10Z</time>
      </trkpt>
      <trkpt lat="49.87857" lon="2.27014">
        <ele>64.4</ele>
        <time>2022-07-30T19:43:11Z</time>
      </trkpt>
      <trkpt lat="49.87857" lon="2.27014">
        <ele>64.4</ele>
        <time>2022-07-30T19:43:12Z</time>
      </trkpt>
      <trkpt lat="49.87857" lon="2.27014">
        <ele>64.4</ele>
        <time>2022-07-30T19:43:13Z</time>
      </trkpt>
      <trkpt lat="49.87857" lon="2.27014">
        <ele>64.4</ele>
        <time>2022-07-30T19:43:14Z</time>
      </trkpt>
      <trkpt lat="49.87857" lon="2.27014">
        <ele>64.4</ele>
        <time>2022-07-30T19:43:15Z</time>
      </trkpt>
      <trkpt lat="49.87856" lon="2.27014">
        <ele>64.4</ele>
        <time>2022-07-30T19:43:16Z</time>
      </trkpt>
      <trkpt lat="49.87856" lon="2.27014">
        <ele>64.4</ele>
        <time>2022-07-30T19:43:17Z</time>
      </trkpt>
      <trkpt lat="49.87856" lon="2.27014">
        <ele>64.4</ele>
        <time>2022-07-30T19:43:18Z</time>
      </trkpt>
      <trkpt lat="49.87856" lon="2.27014">
        <ele>64.4</ele>
        <time>2022-07-30T19:43:19Z</time>
      </trkpt>
      <trkpt lat="49.87856" lon="2.27014">
        <ele>64.4</ele>
        <time>2022-07-30T19:43:20Z</time>
      </trkpt>
      <trkpt lat="49.87856" lon="2.27014">
        <ele>64.4</ele>
        <time>2022-07-30T19:43:21Z</time>
      </trkpt>
      <trkpt lat="49.87855" lon="2.27014">
        <ele>64.4</ele>
        <time>2022-07-30T19:43:22Z</time>
      </trkpt>
      <trkpt lat="49.87855" lon="2.27014">
        <ele>64.4</ele>
        <time>2022-07-30T19:43:23Z</time>
      </trkpt>
      <trkpt lat="49.87855" lon="2.27014">
        <ele>64.4</ele>
        <time>2022-07-30T19:43:24Z</time>
      </trkpt>
      <trkpt lat="49.87855" lon="2.27014">
        <ele>64.4</ele>
        <time>2022-07-30T19:43:25Z</time>
      </trkpt>
      <trkpt lat="49.8786" lon="2.27014">
        <ele>64.5</ele>
        <time>2022-07-30T19:43:26Z</time>
      </trkpt>
      <trkpt lat="49.87861" lon="2.27013">
        <ele>64.5</ele>
        <time>2022-07-30T19:43:27Z</time>
      </trkpt>
      <trkpt lat="49.87862" lon="2.27013">
        <ele>64.5</ele>
        <time>2022-07-30T19:43:28Z</time>
      </trkpt>
      <trkpt lat="49.87862" lon="2.27013">
        <ele>64.5</ele>
        <time>2022-07-30T19:43:29Z</time>
      </trkpt>
      <trkpt lat="49.87862" lon="2.27013">
        <ele>64.5</ele>
        <time>2022-07-30T19:43:30Z</time>
      </trkpt>
      <trkpt lat="49.87862" lon="2.27013">
        <ele>64.5</ele>
        <time>2022-07-30T19:43:31Z</time>
      </trkpt>
      <trkpt lat="49.87862" lon="2.27013">
        <ele>64.5</ele>
        <time>2022-07-30T19:43:32Z</time>
      </trkpt>
      <trkpt lat="49.87862" lon="2.27013">
        <ele>64.5</ele>
        <time>2022-07-30T19:43:33Z</time>
      </trkpt>
      <trkpt lat="49.87862" lon="2.27013">
        <ele>64.5</ele>
        <time>2022-07-30T19:43:34Z</time>
      </trkpt>
      <trkpt lat="49.87862" lon="2.27013">
        <ele>64.5</ele>
        <time>2022-07-30T19:43:35Z</time>
      </trkpt>
      <trkpt lat="49.87862" lon="2.27013">
        <ele>64.5</ele>
        <time>2022-07-30T19:43:36Z</time>
      </trkpt>
      <trkpt lat="49.87862" lon="2.27013">
        <ele>64.5</ele>
        <time>2022-07-30T19:43:37Z</time>
      </trkpt>
      <trkpt lat="49.87862" lon="2.27013">
        <ele>64.5</ele>
        <time>2022-07-30T19:43:38Z</time>
      </trkpt>
      <trkpt lat="49.87862" lon="2.27013">
        <ele>64.5</ele>
        <time>2022-07-30T19:43:39Z</time>
      </trkpt>
      <trkpt lat="49.87862" lon="2.27013">
        <ele>64.5</ele>
        <time>2022-07-30T19:43:40Z</time>
      </trkpt>
      <trkpt lat="49.87862" lon="2.27013">
        <ele>64.5</ele>
        <time>2022-07-30T19:43:41Z</time>
      </trkpt>
      <trkpt lat="49.87862" lon="2.27013">
        <ele>64.5</ele>
        <time>2022-07-30T19:43:42Z</time>
      </trkpt>
      <trkpt lat="49.87862" lon="2.27013">
        <ele>64.5</ele>
        <time>2022-07-30T19:43:43Z</time>
      </trkpt>
      <trkpt lat="49.87862" lon="2.27013">
        <ele>64.5</ele>
        <time>2022-07-30T19:43:44Z</time>
      </trkpt>
      <trkpt lat="49.87862" lon="2.27013">
        <ele>64.5</ele>
        <time>2022-07-30T19:43:45Z</time>
      </trkpt>
      <trkpt lat="49.87862" lon="2.27013">
        <ele>64.5</ele>
        <time>2022-07-30T19:43:46Z</time>
      </trkpt>
      <trkpt lat="49.87862" lon="2.27013">
        <ele>64.5</ele>
        <time>2022-07-30T19:43:47Z</time>
      </trkpt>
      <trkpt lat="49.87862" lon="2.27013">
        <ele>64.5</ele>
        <time>2022-07-30T19:43:48Z</time>
      </trkpt>
      <trkpt lat="49.87862" lon="2.27013">
        <ele>64.5</ele>
        <time>2022-07-30T19:43:49Z</time>
      </trkpt>
      <trkpt lat="49.87862" lon="2.27013">
        <ele>64.5</ele>
        <time>2022-07-30T19:43:50Z</time>
      </trkpt>
      <trkpt lat="49.87862" lon="2.27013">
        <ele>64.5</ele>
        <time>2022-07-30T19:43:51Z</time>
      </trkpt>
      <trkpt lat="49.87862" lon="2.27013">
        <ele>64.5</ele>
        <time>2022-07-30T19:43:52Z</time>
      </trkpt>
      <trkpt lat="49.87862" lon="2.27013">
        <ele>64.5</ele>
        <time>2022-07-30T19:43:53Z</time>
      </trkpt>
      <trkpt lat="49.87862" lon="2.27013">
        <ele>64.5</ele>
        <time>2022-07-30T19:43:54Z</time>
      </trkpt>
      <trkpt lat="49.87862" lon="2.27013">
        <ele>64.5</ele>
        <time>2022-07-30T19:43:55Z</time>
      </trkpt>
      <trkpt lat="49.87862" lon="2.27013">
        <ele>64.5</ele>
        <time>2022-07-30T19:43:56Z</time>
      </trkpt>
      <trkpt lat="49.87862" lon="2.27013">
        <ele>64.5</ele>
        <time>2022-07-30T19:43:57Z</time>
      </trkpt>
      <trkpt lat="49.87862" lon="2.27013">
        <ele>64.5</ele>
        <time>2022-07-30T19:43:58Z</time>
      </trkpt>
      <trkpt lat="49.87862" lon="2.27013">
        <ele>64.5</ele>
        <time>2022-07-30T19:43:59Z</time>
      </trkpt>
      <trkpt lat="49.87862" lon="2.27013">
        <ele>64.5</ele>
        <time>2022-07-30T19:44:00Z</time>
      </trkpt>
      <trkpt lat="49.87862" lon="2.27013">
        <ele>64.5</ele>
        <time>2022-07-30T19:44:01Z</time>
      </trkpt>
      <trkpt lat="49.8786" lon="2.27012">
        <ele>64.5</ele>
        <time>2022-07-30T19:44:02Z</time>
      </trkpt>
      <trkpt lat="49.87858" lon="2.2701">
        <ele>64.5</ele>
        <time>2022-07-30T19:44:03Z</time>
      </trkpt>
      <trkpt lat="49.87856" lon="2.27008">
        <ele>64.6</ele>
        <time>2022-07-30T19:44:04Z</time>
      </trkpt>
      <trkpt lat="49.87861" lon="2.27013">
        <ele>64.6</ele>
        <time>2022-07-30T19:44:05Z</time>
      </trkpt>
      <trkpt lat="49.87861" lon="2.27013">
        <ele>64.6</ele>
        <time>2022-07-30T19:44:06Z</time>
      </trkpt>
      <trkpt lat="49.87861" lon="2.27013">
        <ele>64.6</ele>
        <time>2022-07-30T19:44:07Z</time>
      </trkpt>
      <trkpt lat="49.87861" lon="2.27013">
        <ele>64.6</ele>
        <time>2022-07-30T19:44:08Z</time>
      </trkpt>
      <trkpt lat="49.8786" lon="2.27013">
        <ele>64.6</ele>
        <time>2022-07-30T19:44:09Z</time>
      </trkpt>
      <trkpt lat="49.8786" lon="2.27013">
        <ele>64.6</ele>
        <time>2022-07-30T19:44:10Z</time>
      </trkpt>
      <trkpt lat="49.8786" lon="2.27013">
        <ele>64.6</ele>
        <time>2022-07-30T19:44:11Z</time>
      </trkpt>
      <trkpt lat="49.8786" lon="2.27013">
        <ele>64.6</ele>
        <time>2022-07-30T19:44:12Z</time>
      </trkpt>
      <trkpt lat="49.87859" lon="2.27013">
        <ele>64.6</ele>
        <time>2022-07-30T19:44:13Z</time>
      </trkpt>
      <trkpt lat="49.87859" lon="2.27013">
        <ele>64.6</ele>
        <time>2022-07-30T19:44:14Z</time>
      </trkpt>
      <trkpt lat="49.87859" lon="2.27012">
        <ele>64.6</ele>
        <time>2022-07-30T19:44:15Z</time>
      </trkpt>
      <trkpt lat="49.87859" lon="2.27012">
        <ele>64.6</ele>
        <time>2022-07-30T19:44:16Z</time>
      </trkpt>
      <trkpt lat="49.87858" lon="2.27012">
        <ele>64.6</ele>
        <time>2022-07-30T19:44:17Z</time>
      </trkpt>
      <trkpt lat="49.87858" lon="2.27012">
        <ele>64.6</ele>
        <time>2022-07-30T19:44:18Z</time>
      </trkpt>
      <trkpt lat="49.87858" lon="2.27012">
        <ele>64.6</ele>
        <time>2022-07-30T19:44:19Z</time>
      </trkpt>
      <trkpt lat="49.87858" lon="2.27012">
        <ele>64.6</ele>
        <time>2022-07-30T19:44:20Z</time>
      </trkpt>
      <trkpt lat="49.87857" lon="2.27012">
        <ele>64.6</ele>
        <time>2022-07-30T19:44:21Z</time>
      </trkpt>
      <trkpt lat="49.87857" lon="2.27012">
        <ele>64.6</ele>
        <time>2022-07-30T19:44:22Z</time>
      </trkpt>
      <trkpt lat="49.87857" lon="2.27012">
        <ele>64.6</ele>
        <time>2022-07-30T19:44:23Z</time>
      </trkpt>
      <trkpt lat="49.87856" lon="2.27012">
        <ele>64.6</ele>
        <time>2022-07-30T19:44:24Z</time>
      </trkpt>
      <trkpt lat="49.87856" lon="2.27012">
        <ele>64.6</ele>
        <time>2022-07-30T19:44:25Z</time>
      </trkpt>
      <trkpt lat="49.87856" lon="2.27012">
        <ele>64.6</ele>
        <time>2022-07-30T19:44:26Z</time>
      </trkpt>
      <trkpt lat="49.87856" lon="2.27012">
        <ele>64.6</ele>
        <time>2022-07-30T19:44:27Z</time>
      </trkpt>
      <trkpt lat="49.87855" lon="2.27012">
        <ele>64.6</ele>
        <time>2022-07-30T19:44:28Z</time>
      </trkpt>
      <trkpt lat="49.87854" lon="2.2701">
        <ele>64.6</ele>
        <time>2022-07-30T19:44:29Z</time>
      </trkpt>
      <trkpt lat="49.87853" lon="2.27009">
        <ele>64.7</ele>
        <time>2022-07-30T19:44:30Z</time>
      </trkpt>
      <trkpt lat="49.87853" lon="2.27007">
        <ele>64.7</ele>
        <time>2022-07-30T19:44:31Z</time>
      </trkpt>
      <trkpt lat="49.87852" lon="2.27006">
        <ele>64.7</ele>
        <time>2022-07-30T19:44:32Z</time>
      </trkpt>
      <trkpt lat="49.87852" lon="2.27005">
        <ele>64.7</ele>
        <time>2022-07-30T19:44:34Z</time>
      </trkpt>
      <trkpt lat="49.87851" lon="2.27004">
        <ele>64.7</ele>
        <time>2022-07-30T19:44:35Z</time>
      </trkpt>
      <trkpt lat="49.8785" lon="2.27">
        <ele>64.7</ele>
        <time>2022-07-30T19:44:36Z</time>
      </trkpt>
      <trkpt lat="49.8785" lon="2.26998">
        <ele>64.7</ele>
        <time>2022-07-30T19:44:38Z</time>
      </trkpt>
      <trkpt lat="49.87849" lon="2.26997">
        <ele>64.7</ele>
        <time>2022-07-30T19:44:39Z</time>
      </trkpt>
      <trkpt lat="49.87848" lon="2.26995">
        <ele>64.8</ele>
        <time>2022-07-30T19:44:40Z</time>
      </trkpt>
      <trkpt lat="49.87847" lon="2.26993">
        <ele>64.8</ele>
        <time>2022-07-30T19:44:41Z</time>
      </trkpt>
      <trkpt lat="49.87846" lon="2.26991">
        <ele>64.8</ele>
        <time>2022-07-30T19:44:42Z</time>
      </trkpt>
      <trkpt lat="49.87845" lon="2.2699">
        <ele>64.8</ele>
        <time>2022-07-30T19:44:43Z</time>
      </trkpt>
      <trkpt lat="49.87844" lon="2.26988">
        <ele>64.8</ele>
        <time>2022-07-30T19:44:45Z</time>
      </trkpt>
      <trkpt lat="49.87843" lon="2.26986">
        <ele>64.9</ele>
        <time>2022-07-30T19:44:46Z</time>
      </trkpt>
      <trkpt lat="49.87843" lon="2.26984">
        <ele>64.9</ele>
        <time>2022-07-30T19:44:47Z</time>
      </trkpt>
      <trkpt lat="49.87843" lon="2.26983">
        <ele>64.9</ele>
        <time>2022-07-30T19:44:49Z</time>
      </trkpt>
      <trkpt lat="49.87842" lon="2.26981">
        <ele>64.9</ele>
        <time>2022-07-30T19:44:50Z</time>
      </trkpt>
      <trkpt lat="49.87841" lon="2.2698">
        <ele>64.9</ele>
        <time>2022-07-30T19:44:51Z</time>
      </trkpt>
      <trkpt lat="49.87841" lon="2.26979">
        <ele>64.9</ele>
        <time>2022-07-30T19:44:53Z</time>
      </trkpt>
      <trkpt lat="49.87841" lon="2.26978">
        <ele>64.9</ele>
        <time>2022-07-30T19:44:54Z</time>
      </trkpt>
      <trkpt lat="49.87841" lon="2.26977">
        <ele>64.9</ele>
        <time>2022-07-30T19:44:55Z</time>
      </trkpt>
      <trkpt lat="49.8784" lon="2.26976">
        <ele>64.9</ele>
        <time>2022-07-30T19:44:56Z</time>
      </trkpt>
      <trkpt lat="49.8784" lon="2.26974">
        <ele>65</ele>
        <time>2022-07-30T19:44:57Z</time>
      </trkpt>
      <trkpt lat="49.8784" lon="2.26973">
        <ele>65</ele>
        <time>2022-07-30T19:44:59Z</time>
      </trkpt>
      <trkpt lat="49.8784" lon="2.26971">
        <ele>65</ele>
        <time>2022-07-30T19:45:00Z</time>
      </trkpt>
      <trkpt lat="49.87841" lon="2.26971">
        <ele>65</ele>
        <time>2022-07-30T19:45:01Z</time>
      </trkpt>
      <trkpt lat="49.87841" lon="2.2697">
        <ele>65</ele>
        <time>2022-07-30T19:45:02Z</time>
      </trkpt>
      <trkpt lat="49.87841" lon="2.2697">
        <ele>65</ele>
        <time>2022-07-30T19:45:03Z</time>
      </trkpt>
      <trkpt lat="49.87841" lon="2.26969">
        <ele>65</ele>
        <time>2022-07-30T19:45:04Z</time>
      </trkpt>
      <trkpt lat="49.8784" lon="2.26968">
        <ele>65</ele>
        <time>2022-07-30T19:45:05Z</time>
      </trkpt>
      <trkpt lat="49.8784" lon="2.26967">
        <ele>65</ele>
        <time>2022-07-30T19:45:07Z</time>
      </trkpt>
      <trkpt lat="49.8784" lon="2.26967">
        <ele>65</ele>
        <time>2022-07-30T19:45:08Z</time>
      </trkpt>
      <trkpt lat="49.87839" lon="2.26966">
        <ele>65</ele>
        <time>2022-07-30T19:45:09Z</time>
      </trkpt>
      <trkpt lat="49.87839" lon="2.26965">
        <ele>65</ele>
        <time>2022-07-30T19:45:11Z</time>
      </trkpt>
      <trkpt lat="49.87838" lon="2.26964">
        <ele>65.1</ele>
        <time>2022-07-30T19:45:12Z</time>
      </trkpt>
      <trkpt lat="49.87838" lon="2.26964">
        <ele>65.1</ele>
        <time>2022-07-30T19:45:13Z</time>
      </trkpt>
      <trkpt lat="49.87837" lon="2.26964">
        <ele>65.1</ele>
        <time>2022-07-30T19:45:14Z</time>
      </trkpt>
      <trkpt lat="49.87837" lon="2.26964">
        <ele>65.1</ele>
        <time>2022-07-30T19:45:16Z</time>
      </trkpt>
      <trkpt lat="49.87836" lon="2.26964">
        <ele>65.1</ele>
        <time>2022-07-30T19:45:17Z</time>
      </trkpt>
      <trkpt lat="49.87836" lon="2.26963">
        <ele>65.1</ele>
        <time>2022-07-30T19:45:18Z</time>
      </trkpt>
      <trkpt lat="49.87836" lon="2.26963">
        <ele>65.1</ele>
        <time>2022-07-30T19:45:19Z</time>
      </trkpt>
      <trkpt lat="49.87835" lon="2.26963">
        <ele>65.1</ele>
        <time>2022-07-30T19:45:20Z</time>
      </trkpt>
      <trkpt lat="49.87835" lon="2.26961">
        <ele>65.1</ele>
        <time>2022-07-30T19:45:21Z</time>
      </trkpt>
      <trkpt lat="49.87834" lon="2.2696">
        <ele>65.1</ele>
        <time>2022-07-30T19:45:23Z</time>
      </trkpt>
      <trkpt lat="49.87833" lon="2.26959">
        <ele>65.1</ele>
        <time>2022-07-30T19:45:24Z</time>
      </trkpt>
      <trkpt lat="49.87832" lon="2.26959">
        <ele>65.2</ele>
        <time>2022-07-30T19:45:25Z</time>
      </trkpt>
      <trkpt lat="49.87832" lon="2.26958">
        <ele>65.2</ele>
        <time>2022-07-30T19:45:26Z</time>
      </trkpt>
      <trkpt lat="49.87831" lon="2.26957">
        <ele>65.2</ele>
        <time>2022-07-30T19:45:27Z</time>
      </trkpt>
      <trkpt lat="49.87831" lon="2.26956">
        <ele>65.2</ele>
        <time>2022-07-30T19:45:28Z</time>
      </trkpt>
      <trkpt lat="49.8783" lon="2.26955">
        <ele>65.2</ele>
        <time>2022-07-30T19:45:29Z</time>
      </trkpt>
      <trkpt lat="49.8783" lon="2.26955">
        <ele>65.2</ele>
        <time>2022-07-30T19:45:30Z</time>
      </trkpt>
      <trkpt lat="49.87829" lon="2.26953">
        <ele>65.2</ele>
        <time>2022-07-30T19:45:32Z</time>
      </trkpt>
      <trkpt lat="49.8783" lon="2.26952">
        <ele>65.2</ele>
        <time>2022-07-30T19:45:33Z</time>
      </trkpt>
      <trkpt lat="49.8783" lon="2.26951">
        <ele>65.3</ele>
        <time>2022-07-30T19:45:34Z</time>
      </trkpt>
      <trkpt lat="49.8783" lon="2.2695">
        <ele>65.3</ele>
        <time>2022-07-30T19:45:36Z</time>
      </trkpt>
      <trkpt lat="49.8783" lon="2.26949">
        <ele>65.3</ele>
        <time>2022-07-30T19:45:37Z</time>
      </trkpt>
      <trkpt lat="49.8783" lon="2.26949">
        <ele>65.3</ele>
        <time>2022-07-30T19:45:38Z</time>
      </trkpt>
      <trkpt lat="49.8783" lon="2.26948">
        <ele>65.3</ele>
        <time>2022-07-30T19:45:39Z</time>
      </trkpt>
      <trkpt lat="49.87831" lon="2.26948">
        <ele>65.3</ele>
        <time>2022-07-30T19:45:40Z</time>
      </trkpt>
      <trkpt lat="49.87831" lon="2.26948">
        <ele>65.3</ele>
        <time>2022-07-30T19:45:41Z</time>
      </trkpt>
      <trkpt lat="49.87831" lon="2.26948">
        <ele>65.3</ele>
        <time>2022-07-30T19:45:42Z</time>
      </trkpt>
      <trkpt lat="49.87831" lon="2.26948">
        <ele>65.3</ele>
        <time>2022-07-30T19:45:43Z</time>
      </trkpt>
      <trkpt lat="49.87831" lon="2.26947">
        <ele>65.3</ele>
        <time>2022-07-30T19:45:44Z</time>
      </trkpt>
      <trkpt lat="49.87831" lon="2.26947">
        <ele>65.3</ele>
        <time>2022-07-30T19:45:45Z</time>
      </trkpt>
      <trkpt lat="49.87831" lon="2.26947">
        <ele>65.3</ele>
        <time>2022-07-30T19:45:46Z</time>
      </trkpt>
      <trkpt lat="49.87831" lon="2.26947">
        <ele>65.3</ele>
        <time>2022-07-30T19:45:47Z</time>
      </trkpt>
      <trkpt lat="49.87831" lon="2.26947">
        <ele>65.3</ele>
        <time>2022-07-30T19:45:48Z</time>
      </trkpt>
      <trkpt lat="49.8783" lon="2.26947">
        <ele>65.3</ele>
        <time>2022-07-30T19:45:49Z</time>
      </trkpt>
      <trkpt lat="49.8783" lon="2.26947">
        <ele>65.3</ele>
        <time>2022-07-30T19:45:50Z</time>
      </trkpt>
      <trkpt lat="49.8783" lon="2.26947">
        <ele>65.3</ele>
        <time>2022-07-30T19:45:51Z</time>
      </trkpt>
      <trkpt lat="49.8783" lon="2.26948">
        <ele>65.3</ele>
        <time>2022-07-30T19:45:52Z</time>
      </trkpt>
      <trkpt lat="49.8783" lon="2.26948">
        <ele>65.3</ele>
        <time>2022-07-30T19:45:53Z</time>
      </trkpt>
      <trkpt lat="49.8783" lon="2.26948">
        <ele>65.3</ele>
        <time>2022-07-30T19:45:54Z</time>
      </trkpt>
      <trkpt lat="49.8783" lon="2.26948">
        <ele>65.3</ele>
        <time>2022-07-30T19:45:55Z</time>
      </trkpt>
      <trkpt lat="49.8783" lon="2.26948">
        <ele>65.3</ele>
        <time>2022-07-30T19:45:56Z</time>
      </trkpt>
      <trkpt lat="49.8783" lon="2.26948">
        <ele>65.3</ele>
        <time>2022-07-30T19:45:57Z</time>
      </trkpt>
      <trkpt lat="49.8783" lon="2.26948">
        <ele>65.3</ele>
        <time>2022-07-30T19:45:58Z</time>
      </trkpt>
      <trkpt lat="49.8783" lon="2.26948">
        <ele>65.3</ele>
        <time>2022-07-30T19:45:59Z</time>
      </trkpt>
      <trkpt lat="49.8783" lon="2.26948">
        <ele>65.3</ele>
        <time>2022-07-30T19:46:00Z</time>
      </trkpt>
      <trkpt lat="49.8783" lon="2.26948">
        <ele>65.3</ele>
        <time>2022-07-30T19:46:01Z</time>
      </trkpt>
      <trkpt lat="49.8783" lon="2.26948">
        <ele>65.3</ele>
        <time>2022-07-30T19:46:02Z</time>
      </trkpt>
      <trkpt lat="49.8783" lon="2.26948">
        <ele>65.3</ele>
        <time>2022-07-30T19:46:03Z</time>
      </trkpt>
      <trkpt lat="49.8783" lon="2.26948">
        <ele>65.3</ele>
        <time>2022-07-30T19:46:04Z</time>
      </trkpt>
      <trkpt lat="49.8783" lon="2.26948">
        <ele>65.3</ele>
        <time>2022-07-30T19:46:05Z</time>
      </trkpt>
      <trkpt lat="49.8783" lon="2.26948">
        <ele>65.3</ele>
        <time>2022-07-30T19:46:06Z</time>
      </trkpt>
      <trkpt lat="49.8783" lon="2.26948">
        <ele>65.3</ele>
        <time>2022-07-30T19:46:07Z</time>
      </trkpt>
      <trkpt lat="49.8783" lon="2.26948">
        <ele>65.3</ele>
        <time>2022-07-30T19:46:08Z</time>
      </trkpt>
      <trkpt lat="49.8783" lon="2.26948">
        <ele>65.3</ele>
        <time>2022-07-30T19:46:09Z</time>
      </trkpt>
      <trkpt lat="49.8783" lon="2.26948">
        <ele>65.3</ele>
        <time>2022-07-30T19:46:10Z</time>
      </trkpt>
      <trkpt lat="49.8783" lon="2.26948">
        <ele>65.3</ele>
        <time>2022-07-30T19:46:11Z</time>
      </trkpt>
      <trkpt lat="49.8783" lon="2.26948">
        <ele>65.3</ele>
        <time>2022-07-30T19:46:12Z</time>
      </trkpt>
      <trkpt lat="49.8783" lon="2.26948">
        <ele>65.3</ele>
        <time>2022-07-30T19:46:13Z</time>
      </trkpt>
      <trkpt lat="49.8783" lon="2.26948">
        <ele>65.3</ele>
        <time>2022-07-30T19:46:14Z</time>
      </trkpt>
      <trkpt lat="49.8783" lon="2.26948">
        <ele>65.3</ele>
        <time>2022-07-30T19:46:15Z</time>
      </trkpt>
      <trkpt lat="49.8783" lon="2.26948">
        <ele>65.3</ele>
        <time>2022-07-30T19:46:16Z</time>
      </trkpt>
      <trkpt lat="49.8783" lon="2.26948">
        <ele>65.3</ele>
        <time>2022-07-30T19:46:17Z</time>
      </trkpt>
      <trkpt lat="49.8783" lon="2.26948">
        <ele>65.3</ele>
        <time>2022-07-30T19:46:18Z</time>
      </trkpt>
      <trkpt lat="49.8783" lon="2.26948">
        <ele>65.3</ele>
        <time>2022-07-30T19:46:19Z</time>
      </trkpt>
      <trkpt lat="49.8783" lon="2.26948">
        <ele>65.3</ele>
        <time>2022-07-30T19:46:20Z</time>
      </trkpt>
      <trkpt lat="49.8783" lon="2.26948">
        <ele>65.3</ele>
        <time>2022-07-30T19:46:21Z</time>
      </trkpt>
      <trkpt lat="49.8783" lon="2.26948">
        <ele>65.3</ele>
        <time>2022-07-30T19:46:22Z</time>
      </trkpt>
      <trkpt lat="49.8783" lon="2.26948">
        <ele>65.3</ele>
        <time>2022-07-30T19:46:23Z</time>
      </trkpt>
      <trkpt lat="49.8783" lon="2.26948">
        <ele>65.3</ele>
        <time>2022-07-30T19:46:24Z</time>
      </trkpt>
      <trkpt lat="49.8783" lon="2.26948">
        <ele>65.3</ele>
        <time>2022-07-30T19:46:25Z</time>
      </trkpt>
      <trkpt lat="49.8783" lon="2.26948">
        <ele>65.3</ele>
        <time>2022-07-30T19:46:26Z</time>
      </trkpt>
      <trkpt lat="49.8783" lon="2.26948">
        <ele>65.3</ele>
        <time>2022-07-30T19:46:27Z</time>
      </trkpt>
      <trkpt lat="49.8783" lon="2.26948">
        <ele>65.3</ele>
        <time>2022-07-30T19:46:28Z</time>
      </trkpt>
      <trkpt lat="49.8783" lon="2.26948">
        <ele>65.3</ele>
        <time>2022-07-30T19:46:29Z</time>
      </trkpt>
      <trkpt lat="49.8783" lon="2.26948">
        <ele>65.3</ele>
        <time>2022-07-30T19:46:30Z</time>
      </trkpt>
      <trkpt lat="49.8783" lon="2.26948">
        <ele>65.3</ele>
        <time>2022-07-30T19:46:31Z</time>
      </trkpt>
      <trkpt lat="49.8783" lon="2.26948">
        <ele>65.3</ele>
        <time>2022-07-30T19:46:32Z</time>
      </trkpt>
      <trkpt lat="49.8783" lon="2.26948">
        <ele>65.3</ele>
        <time>2022-07-30T19:46:33Z</time>
      </trkpt>
      <trkpt lat="49.8783" lon="2.26948">
        <ele>65.3</ele>
        <time>2022-07-30T19:46:34Z</time>
      </trkpt>
      <trkpt lat="49.8783" lon="2.26948">
        <ele>65.3</ele>
        <time>2022-07-30T19:46:35Z</time>
      </trkpt>
      <trkpt lat="49.8783" lon="2.26948">
        <ele>65.3</ele>
        <time>2022-07-30T19:46:36Z</time>
      </trkpt>
      <trkpt lat="49.8783" lon="2.26948">
        <ele>65.3</ele>
        <time>2022-07-30T19:46:37Z</time>
      </trkpt>
      <trkpt lat="49.8783" lon="2.26948">
        <ele>65.3</ele>
        <time>2022-07-30T19:46:38Z</time>
      </trkpt>
      <trkpt lat="49.8783" lon="2.26948">
        <ele>65.3</ele>
        <time>2022-07-30T19:46:39Z</time>
      </trkpt>
      <trkpt lat="49.8783" lon="2.26948">
        <ele>65.3</ele>
        <time>2022-07-30T19:46:40Z</time>
      </trkpt>
      <trkpt lat="49.8783" lon="2.26948">
        <ele>65.3</ele>
        <time>2022-07-30T19:46:41Z</time>
      </trkpt>
      <trkpt lat="49.8783" lon="2.26948">
        <ele>65.3</ele>
        <time>2022-07-30T19:46:42Z</time>
      </trkpt>
      <trkpt lat="49.8783" lon="2.26948">
        <ele>65.3</ele>
        <time>2022-07-30T19:46:43Z</time>
      </trkpt>
      <trkpt lat="49.8783" lon="2.26948">
        <ele>65.3</ele>
        <time>2022-07-30T19:46:44Z</time>
      </trkpt>
      <trkpt lat="49.8783" lon="2.26948">
        <ele>65.3</ele>
        <time>2022-07-30T19:46:45Z</time>
      </trkpt>
      <trkpt lat="49.8783" lon="2.26948">
        <ele>65.3</ele>
        <time>2022-07-30T19:46:46Z</time>
      </trkpt>
      <trkpt lat="49.8783" lon="2.26948">
        <ele>65.3</ele>
        <time>2022-07-30T19:46:47Z</time>
      </trkpt>
      <trkpt lat="49.8783" lon="2.26948">
        <ele>65.3</ele>
        <time>2022-07-30T19:46:48Z</time>
      </trkpt>
      <trkpt lat="49.8783" lon="2.26948">
        <ele>65.3</ele>
        <time>2022-07-30T19:46:49Z</time>
      </trkpt>
      <trkpt lat="49.8783" lon="2.26948">
        <ele>65.3</ele>
        <time>2022-07-30T19:46:50Z</time>
      </trkpt>
      <trkpt lat="49.8783" lon="2.26948">
        <ele>65.3</ele>
        <time>2022-07-30T19:46:51Z</time>
      </trkpt>
      <trkpt lat="49.8783" lon="2.26948">
        <ele>65.3</ele>
        <time>2022-07-30T19:46:52Z</time>
      </trkpt>
      <trkpt lat="49.8783" lon="2.26948">
        <ele>65.3</ele>
        <time>2022-07-30T19:46:53Z</time>
      </trkpt>
      <trkpt lat="49.8783" lon="2.26948">
        <ele>65.3</ele>
        <time>2022-07-30T19:46:54Z</time>
      </trkpt>
      <trkpt lat="49.8783" lon="2.26948">
        <ele>65.3</ele>
        <time>2022-07-30T19:46:55Z</time>
      </trkpt>
      <trkpt lat="49.8783" lon="2.26948">
        <ele>65.3</ele>
        <time>2022-07-30T19:46:56Z</time>
      </trkpt>
      <trkpt lat="49.8783" lon="2.26948">
        <ele>65.3</ele>
        <time>2022-07-30T19:46:57Z</time>
      </trkpt>
      <trkpt lat="49.8783" lon="2.26948">
        <ele>65.3</ele>
        <time>2022-07-30T19:46:58Z</time>
      </trkpt>
      <trkpt lat="49.8783" lon="2.26948">
        <ele>65.3</ele>
        <time>2022-07-30T19:46:59Z</time>
      </trkpt>
      <trkpt lat="49.8783" lon="2.26948">
        <ele>65.3</ele>
        <time>2022-07-30T19:47:00Z</time>
      </trkpt>
      <trkpt lat="49.8783" lon="2.26948">
        <ele>65.3</ele>
        <time>2022-07-30T19:47:01Z</time>
      </trkpt>
      <trkpt lat="49.8783" lon="2.26948">
        <ele>65.3</ele>
        <time>2022-07-30T19:47:02Z</time>
      </trkpt>
      <trkpt lat="49.8783" lon="2.26948">
        <ele>65.3</ele>
        <time>2022-07-30T19:47:03Z</time>
      </trkpt>
      <trkpt lat="49.8783" lon="2.26948">
        <ele>65.3</ele>
        <time>2022-07-30T19:47:04Z</time>
      </trkpt>
      <trkpt lat="49.8783" lon="2.26948">
        <ele>65.3</ele>
        <time>2022-07-30T19:47:05Z</time>
      </trkpt>
      <trkpt lat="49.8783" lon="2.26948">
        <ele>65.3</ele>
        <time>2022-07-30T19:47:06Z</time>
      </trkpt>
      <trkpt lat="49.8783" lon="2.26948">
        <ele>65.3</ele>
        <time>2022-07-30T19:47:07Z</time>
      </trkpt>
      <trkpt lat="49.8783" lon="2.26948">
        <ele>65.3</ele>
        <time>2022-07-30T19:47:08Z</time>
      </trkpt>
      <trkpt lat="49.8783" lon="2.26948">
        <ele>65.3</ele>
        <time>2022-07-30T19:47:09Z</time>
      </trkpt>
      <trkpt lat="49.8783" lon="2.26948">
        <ele>65.3</ele>
        <time>2022-07-30T19:47:10Z</time>
      </trkpt>
      <trkpt lat="49.8783" lon="2.26948">
        <ele>65.3</ele>
        <time>2022-07-30T19:47:11Z</time>
      </trkpt>
      <trkpt lat="49.8783" lon="2.26948">
        <ele>65.3</ele>
        <time>2022-07-30T19:47:12Z</time>
      </trkpt>
      <trkpt lat="49.8783" lon="2.26948">
        <ele>65.3</ele>
        <time>2022-07-30T19:47:13Z</time>
      </trkpt>
      <trkpt lat="49.8783" lon="2.26948">
        <ele>65.3</ele>
        <time>2022-07-30T19:47:14Z</time>
      </trkpt>
      <trkpt lat="49.8783" lon="2.26948">
        <ele>65.3</ele>
        <time>2022-07-30T19:47:15Z</time>
      </trkpt>
      <trkpt lat="49.8783" lon="2.26948">
        <ele>65.3</ele>
        <time>2022-07-30T19:47:16Z</time>
      </trkpt>
      <trkpt lat="49.8783" lon="2.26948">
        <ele>65.3</ele>
        <time>2022-07-30T19:47:17Z</time>
      </trkpt>
      <trkpt lat="49.8783" lon="2.26948">
        <ele>65.3</ele>
        <time>2022-07-30T19:47:18Z</time>
      </trkpt>
      <trkpt lat="49.8783" lon="2.26948">
        <ele>65.3</ele>
        <time>2022-07-30T19:47:19Z</time>
      </trkpt>
      <trkpt lat="49.8783" lon="2.26948">
        <ele>65.3</ele>
        <time>2022-07-30T19:47:20Z</time>
      </trkpt>
      <trkpt lat="49.8783" lon="2.26948">
        <ele>65.3</ele>
        <time>2022-07-30T19:47:21Z</time>
      </trkpt>
      <trkpt lat="49.8783" lon="2.2695">
        <ele>65.3</ele>
        <time>2022-07-30T19:47:22Z</time>
      </trkpt>
      <trkpt lat="49.87827" lon="2.26953">
        <ele>65.4</ele>
        <time>2022-07-30T19:47:23Z</time>
      </trkpt>
      <trkpt lat="49.87825" lon="2.26957">
        <ele>65.4</ele>
        <time>2022-07-30T19:47:24Z</time>
      </trkpt>
      <trkpt lat="49.87824" lon="2.26959">
        <ele>65.5</ele>
        <time>2022-07-30T19:47:25Z</time>
      </trkpt>
      <trkpt lat="49.87823" lon="2.2696">
        <ele>65.6</ele>
        <time>2022-07-30T19:47:26Z</time>
      </trkpt>
      <trkpt lat="49.87823" lon="2.26963">
        <ele>65.6</ele>
        <time>2022-07-30T19:47:27Z</time>
      </trkpt>
      <trkpt lat="49.87823" lon="2.26964">
        <ele>65.7</ele>
        <time>2022-07-30T19:47:29Z</time>
      </trkpt>
      <trkpt lat="49.87823" lon="2.26965">
        <ele>65.7</ele>
        <time>2022-07-30T19:47:30Z</time>
      </trkpt>
      <trkpt lat="49.87823" lon="2.26966">
        <ele>65.7</ele>
        <time>2022-07-30T19:47:31Z</time>
      </trkpt>
      <trkpt lat="49.87822" lon="2.26967">
        <ele>65.7</ele>
        <time>2022-07-30T19:47:32Z</time>
      </trkpt>
      <trkpt lat="49.87822" lon="2.26968">
        <ele>65.7</ele>
        <time>2022-07-30T19:47:34Z</time>
      </trkpt>
      <trkpt lat="49.87821" lon="2.26969">
        <ele>65.7</ele>
        <time>2022-07-30T19:47:35Z</time>
      </trkpt>
      <trkpt lat="49.8782" lon="2.26971">
        <ele>65.7</ele>
        <time>2022-07-30T19:47:36Z</time>
      </trkpt>
      <trkpt lat="49.87819" lon="2.26973">
        <ele>65.7</ele>
        <time>2022-07-30T19:47:38Z</time>
      </trkpt>
      <trkpt lat="49.87817" lon="2.26975">
        <ele>65.8</ele>
        <time>2022-07-30T19:47:39Z</time>
      </trkpt>
      <trkpt lat="49.87816" lon="2.26976">
        <ele>65.8</ele>
        <time>2022-07-30T19:47:40Z</time>
      </trkpt>
      <trkpt lat="49.87815" lon="2.26977">
        <ele>65.8</ele>
        <time>2022-07-30T19:47:42Z</time>
      </trkpt>
      <trkpt lat="49.87814" lon="2.26978">
        <ele>65.9</ele>
        <time>2022-07-30T19:47:43Z</time>
      </trkpt>
      <trkpt lat="49.87813" lon="2.2698">
        <ele>65.9</ele>
        <time>2022-07-30T19:47:44Z</time>
      </trkpt>
      <trkpt lat="49.87812" lon="2.26981">
        <ele>65.9</ele>
        <time>2022-07-30T19:47:45Z</time>
      </trkpt>
      <trkpt lat="49.87811" lon="2.26982">
        <ele>65.9</ele>
        <time>2022-07-30T19:47:47Z</time>
      </trkpt>
      <trkpt lat="49.87811" lon="2.26983">
        <ele>65.9</ele>
        <time>2022-07-30T19:47:48Z</time>
      </trkpt>
      <trkpt lat="49.87809" lon="2.26984">
        <ele>66</ele>
        <time>2022-07-30T19:47:49Z</time>
      </trkpt>
      <trkpt lat="49.87808" lon="2.26984">
        <ele>66</ele>
        <time>2022-07-30T19:47:51Z</time>
      </trkpt>
      <trkpt lat="49.87806" lon="2.26985">
        <ele>66</ele>
        <time>2022-07-30T19:47:52Z</time>
      </trkpt>
      <trkpt lat="49.87805" lon="2.26986">
        <ele>66</ele>
        <time>2022-07-30T19:47:53Z</time>
      </trkpt>
      <trkpt lat="49.87804" lon="2.26987">
        <ele>66.1</ele>
        <time>2022-07-30T19:47:55Z</time>
      </trkpt>
      <trkpt lat="49.87803" lon="2.26988">
        <ele>66.1</ele>
        <time>2022-07-30T19:47:56Z</time>
      </trkpt>
      <trkpt lat="49.87802" lon="2.26989">
        <ele>66.1</ele>
        <time>2022-07-30T19:47:57Z</time>
      </trkpt>
      <trkpt lat="49.878" lon="2.2699">
        <ele>66.1</ele>
        <time>2022-07-30T19:47:59Z</time>
      </trkpt>
      <trkpt lat="49.87797" lon="2.26991">
        <ele>66.2</ele>
        <time>2022-07-30T19:48:00Z</time>
      </trkpt>
      <trkpt lat="49.87796" lon="2.26991">
        <ele>66.2</ele>
        <time>2022-07-30T19:48:01Z</time>
      </trkpt>
      <trkpt lat="49.87794" lon="2.26992">
        <ele>66.3</ele>
        <time>2022-07-30T19:48:02Z</time>
      </trkpt>
      <trkpt lat="49.87793" lon="2.26993">
        <ele>66.3</ele>
        <time>2022-07-30T19:48:04Z</time>
      </trkpt>
      <trkpt lat="49.87792" lon="2.26994">
        <ele>66.3</ele>
        <time>2022-07-30T19:48:05Z</time>
      </trkpt>
      <trkpt lat="49.87792" lon="2.26994">
        <ele>66.3</ele>
        <time>2022-07-30T19:48:06Z</time>
      </trkpt>
      <trkpt lat="49.87792" lon="2.26995">
        <ele>66.3</ele>
        <time>2022-07-30T19:48:07Z</time>
      </trkpt>
      <trkpt lat="49.87791" lon="2.26998">
        <ele>66.4</ele>
        <time>2022-07-30T19:48:08Z</time>
      </trkpt>
      <trkpt lat="49.87791" lon="2.26999">
        <ele>66.4</ele>
        <time>2022-07-30T19:48:10Z</time>
      </trkpt>
      <trkpt lat="49.87791" lon="2.27">
        <ele>66.4</ele>
        <time>2022-07-30T19:48:11Z</time>
      </trkpt>
      <trkpt lat="49.87791" lon="2.27001">
        <ele>66.4</ele>
        <time>2022-07-30T19:48:12Z</time>
      </trkpt>
      <trkpt lat="49.8779" lon="2.27002">
        <ele>66.5</ele>
        <time>2022-07-30T19:48:13Z</time>
      </trkpt>
      <trkpt lat="49.87789" lon="2.27004">
        <ele>66.5</ele>
        <time>2022-07-30T19:48:15Z</time>
      </trkpt>
      <trkpt lat="49.87789" lon="2.27005">
        <ele>66.5</ele>
        <time>2022-07-30T19:48:16Z</time>
      </trkpt>
      <trkpt lat="49.87787" lon="2.27006">
        <ele>66.5</ele>
        <time>2022-07-30T19:48:17Z</time>
      </trkpt>
      <trkpt lat="49.87786" lon="2.27006">
        <ele>66.5</ele>
        <time>2022-07-30T19:48:18Z</time>
      </trkpt>
      <trkpt lat="49.87786" lon="2.27006">
        <ele>66.5</ele>
        <time>2022-07-30T19:48:19Z</time>
      </trkpt>
      <trkpt lat="49.87785" lon="2.27007">
        <ele>66.5</ele>
        <time>2022-07-30T19:48:20Z</time>
      </trkpt>
      <trkpt lat="49.87784" lon="2.27007">
        <ele>66.6</ele>
        <time>2022-07-30T19:48:21Z</time>
      </trkpt>
      <trkpt lat="49.87783" lon="2.27008">
        <ele>66.6</ele>
        <time>2022-07-30T19:48:22Z</time>
      </trkpt>
      <trkpt lat="49.87782" lon="2.27009">
        <ele>66.6</ele>
        <time>2022-07-30T19:48:23Z</time>
      </trkpt>
      <trkpt lat="49.87781" lon="2.27009">
        <ele>66.6</ele>
        <time>2022-07-30T19:48:24Z</time>
      </trkpt>
      <trkpt lat="49.8778" lon="2.2701">
        <ele>66.6</ele>
        <time>2022-07-30T19:48:26Z</time>
      </trkpt>
      <trkpt lat="49.87779" lon="2.2701">
        <ele>66.6</ele>
        <time>2022-07-30T19:48:27Z</time>
      </trkpt>
      <trkpt lat="49.87779" lon="2.27011">
        <ele>66.7</ele>
        <time>2022-07-30T19:48:28Z</time>
      </trkpt>
      <trkpt lat="49.87778" lon="2.27012">
        <ele>66.7</ele>
        <time>2022-07-30T19:48:29Z</time>
      </trkpt>
      <trkpt lat="49.87777" lon="2.27013">
        <ele>66.7</ele>
        <time>2022-07-30T19:48:31Z</time>
      </trkpt>
      <trkpt lat="49.87776" lon="2.27014">
        <ele>66.7</ele>
        <time>2022-07-30T19:48:32Z</time>
      </trkpt>
      <trkpt lat="49.87775" lon="2.27015">
        <ele>66.7</ele>
        <time>2022-07-30T19:48:33Z</time>
      </trkpt>
      <trkpt lat="49.87775" lon="2.27016">
        <ele>66.7</ele>
        <time>2022-07-30T19:48:35Z</time>
      </trkpt>
      <trkpt lat="49.87774" lon="2.27017">
        <ele>66.8</ele>
        <time>2022-07-30T19:48:36Z</time>
      </trkpt>
      <trkpt lat="49.87774" lon="2.27018">
        <ele>66.8</ele>
        <time>2022-07-30T19:48:37Z</time>
      </trkpt>
      <trkpt lat="49.87773" lon="2.27019">
        <ele>66.8</ele>
        <time>2022-07-30T19:48:38Z</time>
      </trkpt>
      <trkpt lat="49.87772" lon="2.2702">
        <ele>66.8</ele>
        <time>2022-07-30T19:48:40Z</time>
      </trkpt>
      <trkpt lat="49.87771" lon="2.27021">
        <ele>66.8</ele>
        <time>2022-07-30T19:48:41Z</time>
      </trkpt>
      <trkpt lat="49.87771" lon="2.27022">
        <ele>66.8</ele>
        <time>2022-07-30T19:48:42Z</time>
      </trkpt>
      <trkpt lat="49.87771" lon="2.27023">
        <ele>66.8</ele>
        <time>2022-07-30T19:48:43Z</time>
      </trkpt>
      <trkpt lat="49.87771" lon="2.27024">
        <ele>66.8</ele>
        <time>2022-07-30T19:48:44Z</time>
      </trkpt>
      <trkpt lat="49.87771" lon="2.27025">
        <ele>66.9</ele>
        <time>2022-07-30T19:48:46Z</time>
      </trkpt>
      <trkpt lat="49.8777" lon="2.27027">
        <ele>66.9</ele>
        <time>2022-07-30T19:48:47Z</time>
      </trkpt>
      <trkpt lat="49.87769" lon="2.27028">
        <ele>66.9</ele>
        <time>2022-07-30T19:48:48Z</time>
      </trkpt>
      <trkpt lat="49.87769" lon="2.27029">
        <ele>66.9</ele>
        <time>2022-07-30T19:48:49Z</time>
      </trkpt>
      <trkpt lat="49.87769" lon="2.2703">
        <ele>66.9</ele>
        <time>2022-07-30T19:48:50Z</time>
      </trkpt>
      <trkpt lat="49.87768" lon="2.27031">
        <ele>66.9</ele>
        <time>2022-07-30T19:48:51Z</time>
      </trkpt>
      <trkpt lat="49.87768" lon="2.27033">
        <ele>67</ele>
        <time>2022-07-30T19:48:52Z</time>
      </trkpt>
      <trkpt lat="49.87767" lon="2.27035">
        <ele>67</ele>
        <time>2022-07-30T19:48:54Z</time>
      </trkpt>
      <trkpt lat="49.87766" lon="2.27036">
        <ele>67</ele>
        <time>2022-07-30T19:48:55Z</time>
      </trkpt>
      <trkpt lat="49.87766" lon="2.27038">
        <ele>67</ele>
        <time>2022-07-30T19:48:56Z</time>
      </trkpt>
      <trkpt lat="49.87766" lon="2.27039">
        <ele>67</ele>
        <time>2022-07-30T19:48:57Z</time>
      </trkpt>
      <trkpt lat="49.87766" lon="2.27041">
        <ele>67</ele>
        <time>2022-07-30T19:48:58Z</time>
      </trkpt>
      <trkpt lat="49.87766" lon="2.27044">
        <ele>67.1</ele>
        <time>2022-07-30T19:49:00Z</time>
      </trkpt>
      <trkpt lat="49.87766" lon="2.27045">
        <ele>67.1</ele>
        <time>2022-07-30T19:49:01Z</time>
      </trkpt>
      <trkpt lat="49.87766" lon="2.27045">
        <ele>67.1</ele>
        <time>2022-07-30T19:49:02Z</time>
      </trkpt>
      <trkpt lat="49.87765" lon="2.27045">
        <ele>67.1</ele>
        <time>2022-07-30T19:49:03Z</time>
      </trkpt>
      <trkpt lat="49.87765" lon="2.27044">
        <ele>67.1</ele>
        <time>2022-07-30T19:49:04Z</time>
      </trkpt>
      <trkpt lat="49.87766" lon="2.27044">
        <ele>67.1</ele>
        <time>2022-07-30T19:49:05Z</time>
      </trkpt>
      <trkpt lat="49.87766" lon="2.27043">
        <ele>67.1</ele>
        <time>2022-07-30T19:49:06Z</time>
      </trkpt>
      <trkpt lat="49.87766" lon="2.27042">
        <ele>67.1</ele>
        <time>2022-07-30T19:49:07Z</time>
      </trkpt>
      <trkpt lat="49.87766" lon="2.27042">
        <ele>67.1</ele>
        <time>2022-07-30T19:49:08Z</time>
      </trkpt>
      <trkpt lat="49.87767" lon="2.27041">
        <ele>67.1</ele>
        <time>2022-07-30T19:49:09Z</time>
      </trkpt>
      <trkpt lat="49.87767" lon="2.27041">
        <ele>67.1</ele>
        <time>2022-07-30T19:49:10Z</time>
      </trkpt>
      <trkpt lat="49.87767" lon="2.27041">
        <ele>67.2</ele>
        <time>2022-07-30T19:49:11Z</time>
      </trkpt>
      <trkpt lat="49.87768" lon="2.27041">
        <ele>67.2</ele>
        <time>2022-07-30T19:49:12Z</time>
      </trkpt>
      <trkpt lat="49.87768" lon="2.27041">
        <ele>67.2</ele>
        <time>2022-07-30T19:49:13Z</time>
      </trkpt>
      <trkpt lat="49.87768" lon="2.27041">
        <ele>67.2</ele>
        <time>2022-07-30T19:49:14Z</time>
      </trkpt>
      <trkpt lat="49.87768" lon="2.27041">
        <ele>67.2</ele>
        <time>2022-07-30T19:49:15Z</time>
      </trkpt>
      <trkpt lat="49.87768" lon="2.27041">
        <ele>67.2</ele>
        <time>2022-07-30T19:49:16Z</time>
      </trkpt>
      <trkpt lat="49.87768" lon="2.27042">
        <ele>67.2</ele>
        <time>2022-07-30T19:49:17Z</time>
      </trkpt>
      <trkpt lat="49.87768" lon="2.27042">
        <ele>67.2</ele>
        <time>2022-07-30T19:49:18Z</time>
      </trkpt>
      <trkpt lat="49.87768" lon="2.27042">
        <ele>67.2</ele>
        <time>2022-07-30T19:49:19Z</time>
      </trkpt>
      <trkpt lat="49.87768" lon="2.27043">
        <ele>67.2</ele>
        <time>2022-07-30T19:49:20Z</time>
      </trkpt>
      <trkpt lat="49.87768" lon="2.27043">
        <ele>67.2</ele>
        <time>2022-07-30T19:49:21Z</time>
      </trkpt>
      <trkpt lat="49.87768" lon="2.27044">
        <ele>67.2</ele>
        <time>2022-07-30T19:49:22Z</time>
      </trkpt>
      <trkpt lat="49.87768" lon="2.27044">
        <ele>67.2</ele>
        <time>2022-07-30T19:49:23Z</time>
      </trkpt>
      <trkpt lat="49.87767" lon="2.27044">
        <ele>67.2</ele>
        <time>2022-07-30T19:49:24Z</time>
      </trkpt>
      <trkpt lat="49.87767" lon="2.27045">
        <ele>67.2</ele>
        <time>2022-07-30T19:49:25Z</time>
      </trkpt>
      <trkpt lat="49.87767" lon="2.27045">
        <ele>67.2</ele>
        <time>2022-07-30T19:49:26Z</time>
      </trkpt>
      <trkpt lat="49.87767" lon="2.27046">
        <ele>67.2</ele>
        <time>2022-07-30T19:49:28Z</time>
      </trkpt>
      <trkpt lat="49.87767" lon="2.27046">
        <ele>67.2</ele>
        <time>2022-07-30T19:49:29Z</time>
      </trkpt>
      <trkpt lat="49.87767" lon="2.27047">
        <ele>67.2</ele>
        <time>2022-07-30T19:49:30Z</time>
      </trkpt>
      <trkpt lat="49.87766" lon="2.27049">
        <ele>67.3</ele>
        <time>2022-07-30T19:49:32Z</time>
      </trkpt>
      <trkpt lat="49.87765" lon="2.2705">
        <ele>67.3</ele>
        <time>2022-07-30T19:49:33Z</time>
      </trkpt>
      <trkpt lat="49.87765" lon="2.27051">
        <ele>67.3</ele>
        <time>2022-07-30T19:49:34Z</time>
      </trkpt>
      <trkpt lat="49.87764" lon="2.27053">
        <ele>67.3</ele>
        <time>2022-07-30T19:49:36Z</time>
      </trkpt>
      <trkpt lat="49.87764" lon="2.27054">
        <ele>67.3</ele>
        <time>2022-07-30T19:49:37Z</time>
      </trkpt>
      <trkpt lat="49.87764" lon="2.27055">
        <ele>67.4</ele>
        <time>2022-07-30T19:49:38Z</time>
      </trkpt>
      <trkpt lat="49.87764" lon="2.27056">
        <ele>67.4</ele>
        <time>2022-07-30T19:49:39Z</time>
      </trkpt>
      <trkpt lat="49.87764" lon="2.27057">
        <ele>67.4</ele>
        <time>2022-07-30T19:49:40Z</time>
      </trkpt>
      <trkpt lat="49.87764" lon="2.2706">
        <ele>67.4</ele>
        <time>2022-07-30T19:49:41Z</time>
      </trkpt>
      <trkpt lat="49.87764" lon="2.27062">
        <ele>67.4</ele>
        <time>2022-07-30T19:49:43Z</time>
      </trkpt>
      <trkpt lat="49.87764" lon="2.27064">
        <ele>67.6</ele>
        <time>2022-07-30T19:49:44Z</time>
      </trkpt>
      <trkpt lat="49.87764" lon="2.27065">
        <ele>67.6</ele>
        <time>2022-07-30T19:49:45Z</time>
      </trkpt>
      <trkpt lat="49.87763" lon="2.27067">
        <ele>67.6</ele>
        <time>2022-07-30T19:49:46Z</time>
      </trkpt>
      <trkpt lat="49.87763" lon="2.27068">
        <ele>67.6</ele>
        <time>2022-07-30T19:49:47Z</time>
      </trkpt>
      <trkpt lat="49.87763" lon="2.27069">
        <ele>67.6</ele>
        <time>2022-07-30T19:49:48Z</time>
      </trkpt>
      <trkpt lat="49.87763" lon="2.2707">
        <ele>67.6</ele>
        <time>2022-07-30T19:49:49Z</time>
      </trkpt>
      <trkpt lat="49.87763" lon="2.27071">
        <ele>67.6</ele>
        <time>2022-07-30T19:49:50Z</time>
      </trkpt>
      <trkpt lat="49.87763" lon="2.27071">
        <ele>67.6</ele>
        <time>2022-07-30T19:49:51Z</time>
      </trkpt>
      <trkpt lat="49.87763" lon="2.27071">
        <ele>67.6</ele>
        <time>2022-07-30T19:49:52Z</time>
      </trkpt>
      <trkpt lat="49.87763" lon="2.27071">
        <ele>67.6</ele>
        <time>2022-07-30T19:49:53Z</time>
      </trkpt>
      <trkpt lat="49.87763" lon="2.27071">
        <ele>67.6</ele>
        <time>2022-07-30T19:49:54Z</time>
      </trkpt>
      <trkpt lat="49.87762" lon="2.27071">
        <ele>67.6</ele>
        <time>2022-07-30T19:49:55Z</time>
      </trkpt>
      <trkpt lat="49.87762" lon="2.27072">
        <ele>67.6</ele>
        <time>2022-07-30T19:49:56Z</time>
      </trkpt>
      <trkpt lat="49.87762" lon="2.27071">
        <ele>67.6</ele>
        <time>2022-07-30T19:49:57Z</time>
      </trkpt>
      <trkpt lat="49.87762" lon="2.27071">
        <ele>67.6</ele>
        <time>2022-07-30T19:49:58Z</time>
      </trkpt>
      <trkpt lat="49.87762" lon="2.27071">
        <ele>67.6</ele>
        <time>2022-07-30T19:49:59Z</time>
      </trkpt>
      <trkpt lat="49.87762" lon="2.27071">
        <ele>67.6</ele>
        <time>2022-07-30T19:50:00Z</time>
      </trkpt>
      <trkpt lat="49.87762" lon="2.27071">
        <ele>67.6</ele>
        <time>2022-07-30T19:50:01Z</time>
      </trkpt>
      <trkpt lat="49.87762" lon="2.27071">
        <ele>67.6</ele>
        <time>2022-07-30T19:50:02Z</time>
      </trkpt>
      <trkpt lat="49.87762" lon="2.27071">
        <ele>67.6</ele>
        <time>2022-07-30T19:50:03Z</time>
      </trkpt>
      <trkpt lat="49.87762" lon="2.27071">
        <ele>67.6</ele>
        <time>2022-07-30T19:50:04Z</time>
      </trkpt>
      <trkpt lat="49.87762" lon="2.27072">
        <ele>67.6</ele>
        <time>2022-07-30T19:50:05Z</time>
      </trkpt>
      <trkpt lat="49.87762" lon="2.27071">
        <ele>67.6</ele>
        <time>2022-07-30T19:50:06Z</time>
      </trkpt>
      <trkpt lat="49.87762" lon="2.27071">
        <ele>67.6</ele>
        <time>2022-07-30T19:50:07Z</time>
      </trkpt>
      <trkpt lat="49.87762" lon="2.27071">
        <ele>67.6</ele>
        <time>2022-07-30T19:50:08Z</time>
      </trkpt>
      <trkpt lat="49.87762" lon="2.27071">
        <ele>67.6</ele>
        <time>2022-07-30T19:50:09Z</time>
      </trkpt>
      <trkpt lat="49.87762" lon="2.27071">
        <ele>67.6</ele>
        <time>2022-07-30T19:50:10Z</time>
      </trkpt>
      <trkpt lat="49.87762" lon="2.27071">
        <ele>67.6</ele>
        <time>2022-07-30T19:50:11Z</time>
      </trkpt>
      <trkpt lat="49.87762" lon="2.27071">
        <ele>67.6</ele>
        <time>2022-07-30T19:50:12Z</time>
      </trkpt>
      <trkpt lat="49.87762" lon="2.27071">
        <ele>67.6</ele>
        <time>2022-07-30T19:50:13Z</time>
      </trkpt>
      <trkpt lat="49.87762" lon="2.27071">
        <ele>67.6</ele>
        <time>2022-07-30T19:50:14Z</time>
      </trkpt>
      <trkpt lat="49.87762" lon="2.27071">
        <ele>67.6</ele>
        <time>2022-07-30T19:50:15Z</time>
      </trkpt>
      <trkpt lat="49.87762" lon="2.27071">
        <ele>67.6</ele>
        <time>2022-07-30T19:50:16Z</time>
      </trkpt>
      <trkpt lat="49.87762" lon="2.27071">
        <ele>67.6</ele>
        <time>2022-07-30T19:50:17Z</time>
      </trkpt>
      <trkpt lat="49.87762" lon="2.27071">
        <ele>67.6</ele>
        <time>2022-07-30T19:50:18Z</time>
      </trkpt>
      <trkpt lat="49.87762" lon="2.27071">
        <ele>67.6</ele>
        <time>2022-07-30T19:50:19Z</time>
      </trkpt>
      <trkpt lat="49.87762" lon="2.27071">
        <ele>67.6</ele>
        <time>2022-07-30T19:50:20Z</time>
      </trkpt>
      <trkpt lat="49.87762" lon="2.27071">
        <ele>67.6</ele>
        <time>2022-07-30T19:50:21Z</time>
      </trkpt>
      <trkpt lat="49.87762" lon="2.27071">
        <ele>67.6</ele>
        <time>2022-07-30T19:50:22Z</time>
      </trkpt>
      <trkpt lat="49.87762" lon="2.27071">
        <ele>67.6</ele>
        <time>2022-07-30T19:50:23Z</time>
      </trkpt>
      <trkpt lat="49.87762" lon="2.27071">
        <ele>67.6</ele>
        <time>2022-07-30T19:50:24Z</time>
      </trkpt>
      <trkpt lat="49.87762" lon="2.27071">
        <ele>67.6</ele>
        <time>2022-07-30T19:50:25Z</time>
      </trkpt>
      <trkpt lat="49.87762" lon="2.27071">
        <ele>67.6</ele>
        <time>2022-07-30T19:50:26Z</time>
      </trkpt>
      <trkpt lat="49.87762" lon="2.27071">
        <ele>67.6</ele>
        <time>2022-07-30T19:50:27Z</time>
      </trkpt>
      <trkpt lat="49.87763" lon="2.27069">
        <ele>67.6</ele>
        <time>2022-07-30T19:50:28Z</time>
      </trkpt>
      <trkpt lat="49.87763" lon="2.27068">
        <ele>67.6</ele>
        <time>2022-07-30T19:50:29Z</time>
      </trkpt>
      <trkpt lat="49.87763" lon="2.27069">
        <ele>67.6</ele>
        <time>2022-07-30T19:50:30Z</time>
      </trkpt>
      <trkpt lat="49.87763" lon="2.27069">
        <ele>67.6</ele>
        <time>2022-07-30T19:50:31Z</time>
      </trkpt>
      <trkpt lat="49.87762" lon="2.2707">
        <ele>67.6</ele>
        <time>2022-07-30T19:50:32Z</time>
      </trkpt>
      <trkpt lat="49.87762" lon="2.2707">
        <ele>67.6</ele>
        <time>2022-07-30T19:50:33Z</time>
      </trkpt>
      <trkpt lat="49.87761" lon="2.2707">
        <ele>67.7</ele>
        <time>2022-07-30T19:50:34Z</time>
      </trkpt>
      <trkpt lat="49.87761" lon="2.27071">
        <ele>67.7</ele>
        <time>2022-07-30T19:50:36Z</time>
      </trkpt>
      <trkpt lat="49.8776" lon="2.27072">
        <ele>67.7</ele>
        <time>2022-07-30T19:50:37Z</time>
      </trkpt>
      <trkpt lat="49.87759" lon="2.27072">
        <ele>67.7</ele>
        <time>2022-07-30T19:50:38Z</time>
      </trkpt>
      <trkpt lat="49.87758" lon="2.27073">
        <ele>67.7</ele>
        <time>2022-07-30T19:50:39Z</time>
      </trkpt>
      <trkpt lat="49.87757" lon="2.27074">
        <ele>67.8</ele>
        <time>2022-07-30T19:50:40Z</time>
      </trkpt>
      <trkpt lat="49.87756" lon="2.27074">
        <ele>67.8</ele>
        <time>2022-07-30T19:50:42Z</time>
      </trkpt>
      <trkpt lat="49.87754" lon="2.27075">
        <ele>67.8</ele>
        <time>2022-07-30T19:50:43Z</time>
      </trkpt>
      <trkpt lat="49.87753" lon="2.27074">
        <ele>67.8</ele>
        <time>2022-07-30T19:50:44Z</time>
      </trkpt>
      <trkpt lat="49.87752" lon="2.27073">
        <ele>67.8</ele>
        <time>2022-07-30T19:50:46Z</time>
      </trkpt>
      <trkpt lat="49.8775" lon="2.27072">
        <ele>67.8</ele>
        <time>2022-07-30T19:50:47Z</time>
      </trkpt>
      <trkpt lat="49.87749" lon="2.27073">
        <ele>67.8</ele>
        <time>2022-07-30T19:50:49Z</time>
      </trkpt>
      <trkpt lat="49.87748" lon="2.27074">
        <ele>67.8</ele>
        <time>2022-07-30T19:50:50Z</time>
      </trkpt>
      <trkpt lat="49.87747" lon="2.27074">
        <ele>67.9</ele>
        <time>2022-07-30T19:50:51Z</time>
      </trkpt>
      <trkpt lat="49.87746" lon="2.27074">
        <ele>67.9</ele>
        <time>2022-07-30T19:50:52Z</time>
      </trkpt>
      <trkpt lat="49.87745" lon="2.27072">
        <ele>67.9</ele>
        <time>2022-07-30T19:50:54Z</time>
      </trkpt>
      <trkpt lat="49.87745" lon="2.27072">
        <ele>67.9</ele>
        <time>2022-07-30T19:50:55Z</time>
      </trkpt>
      <trkpt lat="49.87745" lon="2.27071">
        <ele>67.9</ele>
        <time>2022-07-30T19:50:56Z</time>
      </trkpt>
      <trkpt lat="49.87745" lon="2.27071">
        <ele>67.9</ele>
        <time>2022-07-30T19:50:57Z</time>
      </trkpt>
      <trkpt lat="49.87745" lon="2.2707">
        <ele>67.9</ele>
        <time>2022-07-30T19:50:58Z</time>
      </trkpt>
      <trkpt lat="49.87746" lon="2.2707">
        <ele>67.9</ele>
        <time>2022-07-30T19:50:59Z</time>
      </trkpt>
      <trkpt lat="49.87746" lon="2.2707">
        <ele>67.9</ele>
        <time>2022-07-30T19:51:00Z</time>
      </trkpt>
      <trkpt lat="49.87746" lon="2.2707">
        <ele>67.9</ele>
        <time>2022-07-30T19:51:01Z</time>
      </trkpt>
      <trkpt lat="49.87747" lon="2.2707">
        <ele>67.9</ele>
        <time>2022-07-30T19:51:02Z</time>
      </trkpt>
      <trkpt lat="49.87747" lon="2.2707">
        <ele>67.9</ele>
        <time>2022-07-30T19:51:03Z</time>
      </trkpt>
      <trkpt lat="49.87747" lon="2.2707">
        <ele>67.9</ele>
        <time>2022-07-30T19:51:04Z</time>
      </trkpt>
      <trkpt lat="49.87747" lon="2.2707">
        <ele>67.9</ele>
        <time>2022-07-30T19:51:05Z</time>
      </trkpt>
      <trkpt lat="49.87747" lon="2.2707">
        <ele>67.9</ele>
        <time>2022-07-30T19:51:06Z</time>
      </trkpt>
      <trkpt lat="49.87747" lon="2.2707">
        <ele>67.9</ele>
        <time>2022-07-30T19:51:07Z</time>
      </trkpt>
      <trkpt lat="49.87747" lon="2.2707">
        <ele>67.9</ele>
        <time>2022-07-30T19:51:08Z</time>
      </trkpt>
      <trkpt lat="49.87747" lon="2.2707">
        <ele>67.9</ele>
        <time>2022-07-30T19:51:09Z</time>
      </trkpt>
      <trkpt lat="49.87747" lon="2.2707">
        <ele>67.9</ele>
        <time>2022-07-30T19:51:10Z</time>
      </trkpt>
      <trkpt lat="49.87747" lon="2.27071">
        <ele>67.9</ele>
        <time>2022-07-30T19:51:11Z</time>
      </trkpt>
      <trkpt lat="49.87747" lon="2.27071">
        <ele>67.9</ele>
        <time>2022-07-30T19:51:12Z</time>
      </trkpt>
      <trkpt lat="49.87747" lon="2.27071">
        <ele>67.9</ele>
        <time>2022-07-30T19:51:13Z</time>
      </trkpt>
      <trkpt lat="49.87747" lon="2.27071">
        <ele>67.9</ele>
        <time>2022-07-30T19:51:14Z</time>
      </trkpt>
      <trkpt lat="49.87747" lon="2.27071">
        <ele>67.9</ele>
        <time>2022-07-30T19:51:15Z</time>
      </trkpt>
      <trkpt lat="49.87747" lon="2.27071">
        <ele>67.9</ele>
        <time>2022-07-30T19:51:16Z</time>
      </trkpt>
      <trkpt lat="49.87749" lon="2.27071">
        <ele>67.9</ele>
        <time>2022-07-30T19:51:17Z</time>
      </trkpt>
      <trkpt lat="49.87749" lon="2.27071">
        <ele>67.9</ele>
        <time>2022-07-30T19:51:18Z</time>
      </trkpt>
      <trkpt lat="49.8775" lon="2.27071">
        <ele>67.9</ele>
        <time>2022-07-30T19:51:19Z</time>
      </trkpt>
      <trkpt lat="49.87748" lon="2.27069">
        <ele>67.9</ele>
        <time>2022-07-30T19:51:20Z</time>
      </trkpt>
      <trkpt lat="49.87748" lon="2.27068">
        <ele>67.9</ele>
        <time>2022-07-30T19:51:22Z</time>
      </trkpt>
      <trkpt lat="49.87748" lon="2.27067">
        <ele>67.9</ele>
        <time>2022-07-30T19:51:23Z</time>
      </trkpt>
      <trkpt lat="49.87748" lon="2.27066">
        <ele>67.9</ele>
        <time>2022-07-30T19:51:24Z</time>
      </trkpt>
      <trkpt lat="49.87747" lon="2.27065">
        <ele>67.9</ele>
        <time>2022-07-30T19:51:25Z</time>
      </trkpt>
      <trkpt lat="49.87747" lon="2.27064">
        <ele>67.9</ele>
        <time>2022-07-30T19:51:26Z</time>
      </trkpt>
      <trkpt lat="49.87746" lon="2.27063">
        <ele>67.9</ele>
        <time>2022-07-30T19:51:27Z</time>
      </trkpt>
      <trkpt lat="49.87746" lon="2.27062">
        <ele>67.9</ele>
        <time>2022-07-30T19:51:29Z</time>
      </trkpt>
      <trkpt lat="49.87745" lon="2.27061">
        <ele>67.9</ele>
        <time>2022-07-30T19:51:30Z</time>
      </trkpt>
      <trkpt lat="49.87744" lon="2.27062">
        <ele>67.9</ele>
        <time>2022-07-30T19:51:31Z</time>
      </trkpt>
      <trkpt lat="49.87743" lon="2.27063">
        <ele>67.9</ele>
        <time>2022-07-30T19:51:32Z</time>
      </trkpt>
      <trkpt lat="49.87742" lon="2.27065">
        <ele>67.9</ele>
        <time>2022-07-30T19:51:33Z</time>
      </trkpt>
      <trkpt lat="49.87741" lon="2.27066">
        <ele>67.9</ele>
        <time>2022-07-30T19:51:35Z</time>
      </trkpt>
      <trkpt lat="49.8774" lon="2.27069">
        <ele>67.9</ele>
        <time>2022-07-30T19:51:36Z</time>
      </trkpt>
      <trkpt lat="49.87739" lon="2.2707">
        <ele>67.9</ele>
        <time>2022-07-30T19:51:37Z</time>
      </trkpt>
      <trkpt lat="49.87738" lon="2.27071">
        <ele>67.9</ele>
        <time>2022-07-30T19:51:38Z</time>
      </trkpt>
      <trkpt lat="49.87738" lon="2.27073">
        <ele>67.8</ele>
        <time>2022-07-30T19:51:39Z</time>
      </trkpt>
      <trkpt lat="49.87736" lon="2.27075">
        <ele>67.8</ele>
        <time>2022-07-30T19:51:40Z</time>
      </trkpt>
      <trkpt lat="49.87735" lon="2.27077">
        <ele>67.8</ele>
        <time>2022-07-30T19:51:42Z</time>
      </trkpt>
      <trkpt lat="49.87734" lon="2.27078">
        <ele>67.8</ele>
        <time>2022-07-30T19:51:43Z</time>
      </trkpt>
      <trkpt lat="49.87733" lon="2.2708">
        <ele>67.8</ele>
        <time>2022-07-30T19:51:44Z</time>
      </trkpt>
      <trkpt lat="49.87732" lon="2.27081">
        <ele>67.8</ele>
        <time>2022-07-30T19:51:45Z</time>
      </trkpt>
      <trkpt lat="49.8773" lon="2.27082">
        <ele>67.8</ele>
        <time>2022-07-30T19:51:46Z</time>
      </trkpt>
      <trkpt lat="49.87729" lon="2.27084">
        <ele>67.8</ele>
        <time>2022-07-30T19:51:47Z</time>
      </trkpt>
      <trkpt lat="49.87727" lon="2.27086">
        <ele>67.8</ele>
        <time>2022-07-30T19:51:48Z</time>
      </trkpt>
      <trkpt lat="49.87726" lon="2.27086">
        <ele>67.8</ele>
        <time>2022-07-30T19:51:49Z</time>
      </trkpt>
      <trkpt lat="49.87726" lon="2.27087">
        <ele>67.8</ele>
        <time>2022-07-30T19:51:50Z</time>
      </trkpt>
      <trkpt lat="49.87724" lon="2.27089">
        <ele>67.8</ele>
        <time>2022-07-30T19:51:51Z</time>
      </trkpt>
      <trkpt lat="49.87723" lon="2.2709">
        <ele>67.8</ele>
        <time>2022-07-30T19:51:53Z</time>
      </trkpt>
      <trkpt lat="49.87722" lon="2.27092">
        <ele>67.8</ele>
        <time>2022-07-30T19:51:54Z</time>
      </trkpt>
      <trkpt lat="49.87721" lon="2.27094">
        <ele>67.8</ele>
        <time>2022-07-30T19:51:55Z</time>
      </trkpt>
      <trkpt lat="49.87719" lon="2.27095">
        <ele>67.9</ele>
        <time>2022-07-30T19:51:56Z</time>
      </trkpt>
      <trkpt lat="49.87719" lon="2.27096">
        <ele>67.9</ele>
        <time>2022-07-30T19:51:57Z</time>
      </trkpt>
      <trkpt lat="49.87718" lon="2.27098">
        <ele>67.9</ele>
        <time>2022-07-30T19:51:58Z</time>
      </trkpt>
      <trkpt lat="49.87717" lon="2.27099">
        <ele>67.9</ele>
        <time>2022-07-30T19:51:59Z</time>
      </trkpt>
      <trkpt lat="49.87716" lon="2.27101">
        <ele>67.9</ele>
        <time>2022-07-30T19:52:01Z</time>
      </trkpt>
      <trkpt lat="49.87715" lon="2.27103">
        <ele>67.9</ele>
        <time>2022-07-30T19:52:02Z</time>
      </trkpt>
      <trkpt lat="49.87715" lon="2.27104">
        <ele>67.9</ele>
        <time>2022-07-30T19:52:03Z</time>
      </trkpt>
      <trkpt lat="49.87714" lon="2.27106">
        <ele>67.9</ele>
        <time>2022-07-30T19:52:04Z</time>
      </trkpt>
      <trkpt lat="49.87713" lon="2.27109">
        <ele>67.9</ele>
        <time>2022-07-30T19:52:05Z</time>
      </trkpt>
      <trkpt lat="49.87713" lon="2.2711">
        <ele>67.9</ele>
        <time>2022-07-30T19:52:06Z</time>
      </trkpt>
      <trkpt lat="49.87712" lon="2.27111">
        <ele>68</ele>
        <time>2022-07-30T19:52:07Z</time>
      </trkpt>
      <trkpt lat="49.87711" lon="2.27113">
        <ele>68</ele>
        <time>2022-07-30T19:52:09Z</time>
      </trkpt>
      <trkpt lat="49.87711" lon="2.27114">
        <ele>68</ele>
        <time>2022-07-30T19:52:10Z</time>
      </trkpt>
      <trkpt lat="49.8771" lon="2.27115">
        <ele>68</ele>
        <time>2022-07-30T19:52:11Z</time>
      </trkpt>
      <trkpt lat="49.87709" lon="2.27116">
        <ele>68</ele>
        <time>2022-07-30T19:52:12Z</time>
      </trkpt>
      <trkpt lat="49.87709" lon="2.27117">
        <ele>68</ele>
        <time>2022-07-30T19:52:13Z</time>
      </trkpt>
      <trkpt lat="49.87707" lon="2.27118">
        <ele>68</ele>
        <time>2022-07-30T19:52:15Z</time>
      </trkpt>
      <trkpt lat="49.87706" lon="2.2712">
        <ele>68</ele>
        <time>2022-07-30T19:52:16Z</time>
      </trkpt>
      <trkpt lat="49.87705" lon="2.27121">
        <ele>68.1</ele>
        <time>2022-07-30T19:52:17Z</time>
      </trkpt>
      <trkpt lat="49.87704" lon="2.27122">
        <ele>68.1</ele>
        <time>2022-07-30T19:52:18Z</time>
      </trkpt>
      <trkpt lat="49.87703" lon="2.27124">
        <ele>68.1</ele>
        <time>2022-07-30T19:52:19Z</time>
      </trkpt>
      <trkpt lat="49.87702" lon="2.27125">
        <ele>68.1</ele>
        <time>2022-07-30T19:52:21Z</time>
      </trkpt>
      <trkpt lat="49.87701" lon="2.27126">
        <ele>68.1</ele>
        <time>2022-07-30T19:52:22Z</time>
      </trkpt>
      <trkpt lat="49.877" lon="2.27127">
        <ele>68.1</ele>
        <time>2022-07-30T19:52:23Z</time>
      </trkpt>
      <trkpt lat="49.877" lon="2.27128">
        <ele>68.1</ele>
        <time>2022-07-30T19:52:24Z</time>
      </trkpt>
      <trkpt lat="49.87698" lon="2.27129">
        <ele>68.1</ele>
        <time>2022-07-30T19:52:25Z</time>
      </trkpt>
      <trkpt lat="49.87698" lon="2.2713">
        <ele>68.1</ele>
        <time>2022-07-30T19:52:26Z</time>
      </trkpt>
      <trkpt lat="49.87697" lon="2.27131">
        <ele>68.2</ele>
        <time>2022-07-30T19:52:27Z</time>
      </trkpt>
      <trkpt lat="49.87696" lon="2.27132">
        <ele>68.2</ele>
        <time>2022-07-30T19:52:29Z</time>
      </trkpt>
      <trkpt lat="49.87695" lon="2.27133">
        <ele>68.2</ele>
        <time>2022-07-30T19:52:30Z</time>
      </trkpt>
      <trkpt lat="49.87694" lon="2.27134">
        <ele>68.2</ele>
        <time>2022-07-30T19:52:31Z</time>
      </trkpt>
      <trkpt lat="49.87693" lon="2.27135">
        <ele>68.2</ele>
        <time>2022-07-30T19:52:32Z</time>
      </trkpt>
      <trkpt lat="49.87692" lon="2.27136">
        <ele>68.2</ele>
        <time>2022-07-30T19:52:33Z</time>
      </trkpt>
      <trkpt lat="49.87691" lon="2.27137">
        <ele>68.2</ele>
        <time>2022-07-30T19:52:34Z</time>
      </trkpt>
      <trkpt lat="49.8769" lon="2.27138">
        <ele>68.2</ele>
        <time>2022-07-30T19:52:35Z</time>
      </trkpt>
      <trkpt lat="49.87688" lon="2.27139">
        <ele>68.3</ele>
        <time>2022-07-30T19:52:37Z</time>
      </trkpt>
      <trkpt lat="49.87687" lon="2.2714">
        <ele>68.3</ele>
        <time>2022-07-30T19:52:38Z</time>
      </trkpt>
      <trkpt lat="49.87686" lon="2.27141">
        <ele>68.3</ele>
        <time>2022-07-30T19:52:39Z</time>
      </trkpt>
      <trkpt lat="49.87685" lon="2.27142">
        <ele>68.3</ele>
        <time>2022-07-30T19:52:41Z</time>
      </trkpt>
      <trkpt lat="49.87683" lon="2.27143">
        <ele>68.3</ele>
        <time>2022-07-30T19:52:42Z</time>
      </trkpt>
      <trkpt lat="49.87682" lon="2.27143">
        <ele>68.3</ele>
        <time>2022-07-30T19:52:43Z</time>
      </trkpt>
      <trkpt lat="49.87681" lon="2.27143">
        <ele>68.4</ele>
        <time>2022-07-30T19:52:44Z</time>
      </trkpt>
      <trkpt lat="49.8768" lon="2.27144">
        <ele>68.4</ele>
        <time>2022-07-30T19:52:45Z</time>
      </trkpt>
      <trkpt lat="49.87679" lon="2.27144">
        <ele>68.4</ele>
        <time>2022-07-30T19:52:46Z</time>
      </trkpt>
      <trkpt lat="49.87678" lon="2.27145">
        <ele>68.4</ele>
        <time>2022-07-30T19:52:47Z</time>
      </trkpt>
      <trkpt lat="49.87676" lon="2.27147">
        <ele>68.4</ele>
        <time>2022-07-30T19:52:48Z</time>
      </trkpt>
      <trkpt lat="49.87675" lon="2.27148">
        <ele>68.4</ele>
        <time>2022-07-30T19:52:50Z</time>
      </trkpt>
      <trkpt lat="49.87674" lon="2.27148">
        <ele>68.4</ele>
        <time>2022-07-30T19:52:51Z</time>
      </trkpt>
      <trkpt lat="49.87673" lon="2.27149">
        <ele>68.5</ele>
        <time>2022-07-30T19:52:52Z</time>
      </trkpt>
      <trkpt lat="49.87672" lon="2.27151">
        <ele>68.5</ele>
        <time>2022-07-30T19:52:53Z</time>
      </trkpt>
      <trkpt lat="49.87671" lon="2.27151">
        <ele>68.5</ele>
        <time>2022-07-30T19:52:54Z</time>
      </trkpt>
      <trkpt lat="49.8767" lon="2.27152">
        <ele>68.5</ele>
        <time>2022-07-30T19:52:55Z</time>
      </trkpt>
      <trkpt lat="49.87669" lon="2.27153">
        <ele>68.5</ele>
        <time>2022-07-30T19:52:57Z</time>
      </trkpt>
      <trkpt lat="49.87668" lon="2.27154">
        <ele>68.6</ele>
        <time>2022-07-30T19:52:58Z</time>
      </trkpt>
      <trkpt lat="49.87666" lon="2.27155">
        <ele>68.6</ele>
        <time>2022-07-30T19:53:00Z</time>
      </trkpt>
      <trkpt lat="49.87665" lon="2.27155">
        <ele>68.6</ele>
        <time>2022-07-30T19:53:01Z</time>
      </trkpt>
      <trkpt lat="49.87664" lon="2.27156">
        <ele>68.6</ele>
        <time>2022-07-30T19:53:03Z</time>
      </trkpt>
      <trkpt lat="49.87663" lon="2.27156">
        <ele>68.6</ele>
        <time>2022-07-30T19:53:04Z</time>
      </trkpt>
      <trkpt lat="49.87662" lon="2.27157">
        <ele>68.7</ele>
        <time>2022-07-30T19:53:05Z</time>
      </trkpt>
      <trkpt lat="49.87661" lon="2.27157">
        <ele>68.7</ele>
        <time>2022-07-30T19:53:06Z</time>
      </trkpt>
      <trkpt lat="49.8766" lon="2.27158">
        <ele>68.7</ele>
        <time>2022-07-30T19:53:07Z</time>
      </trkpt>
      <trkpt lat="49.87659" lon="2.27158">
        <ele>68.7</ele>
        <time>2022-07-30T19:53:08Z</time>
      </trkpt>
      <trkpt lat="49.87658" lon="2.27159">
        <ele>68.7</ele>
        <time>2022-07-30T19:53:09Z</time>
      </trkpt>
      <trkpt lat="49.87657" lon="2.27159">
        <ele>68.8</ele>
        <time>2022-07-30T19:53:10Z</time>
      </trkpt>
      <trkpt lat="49.87656" lon="2.2716">
        <ele>68.8</ele>
        <time>2022-07-30T19:53:11Z</time>
      </trkpt>
      <trkpt lat="49.87655" lon="2.2716">
        <ele>68.8</ele>
        <time>2022-07-30T19:53:12Z</time>
      </trkpt>
      <trkpt lat="49.87654" lon="2.27161">
        <ele>68.8</ele>
        <time>2022-07-30T19:53:14Z</time>
      </trkpt>
      <trkpt lat="49.87653" lon="2.27161">
        <ele>68.9</ele>
        <time>2022-07-30T19:53:15Z</time>
      </trkpt>
      <trkpt lat="49.87651" lon="2.27161">
        <ele>68.9</ele>
        <time>2022-07-30T19:53:16Z</time>
      </trkpt>
      <trkpt lat="49.8765" lon="2.27161">
        <ele>68.9</ele>
        <time>2022-07-30T19:53:17Z</time>
      </trkpt>
      <trkpt lat="49.87649" lon="2.27161">
        <ele>68.9</ele>
        <time>2022-07-30T19:53:18Z</time>
      </trkpt>
      <trkpt lat="49.87648" lon="2.27161">
        <ele>69</ele>
        <time>2022-07-30T19:53:19Z</time>
      </trkpt>
      <trkpt lat="49.87647" lon="2.27161">
        <ele>69</ele>
        <time>2022-07-30T19:53:20Z</time>
      </trkpt>
      <trkpt lat="49.87644" lon="2.27161">
        <ele>69</ele>
        <time>2022-07-30T19:53:22Z</time>
      </trkpt>
      <trkpt lat="49.87644" lon="2.27161">
        <ele>69</ele>
        <time>2022-07-30T19:53:23Z</time>
      </trkpt>
      <trkpt lat="49.87643" lon="2.27161">
        <ele>69.1</ele>
        <time>2022-07-30T19:53:24Z</time>
      </trkpt>
      <trkpt lat="49.87642" lon="2.27161">
        <ele>69.1</ele>
        <time>2022-07-30T19:53:25Z</time>
      </trkpt>
      <trkpt lat="49.8764" lon="2.27161">
        <ele>69.1</ele>
        <time>2022-07-30T19:53:26Z</time>
      </trkpt>
      <trkpt lat="49.87639" lon="2.27161">
        <ele>69.2</ele>
        <time>2022-07-30T19:53:28Z</time>
      </trkpt>
      <trkpt lat="49.87638" lon="2.27161">
        <ele>69.2</ele>
        <time>2022-07-30T19:53:29Z</time>
      </trkpt>
      <trkpt lat="49.87637" lon="2.27161">
        <ele>69.2</ele>
        <time>2022-07-30T19:53:30Z</time>
      </trkpt>
      <trkpt lat="49.87636" lon="2.27161">
        <ele>69.2</ele>
        <time>2022-07-30T19:53:31Z</time>
      </trkpt>
      <trkpt lat="49.87635" lon="2.27161">
        <ele>69.3</ele>
        <time>2022-07-30T19:53:32Z</time>
      </trkpt>
      <trkpt lat="49.87634" lon="2.27161">
        <ele>69.3</ele>
        <time>2022-07-30T19:53:34Z</time>
      </trkpt>
      <trkpt lat="49.87633" lon="2.27162">
        <ele>69.3</ele>
        <time>2022-07-30T19:53:35Z</time>
      </trkpt>
      <trkpt lat="49.87632" lon="2.27162">
        <ele>69.4</ele>
        <time>2022-07-30T19:53:36Z</time>
      </trkpt>
      <trkpt lat="49.87632" lon="2.27162">
        <ele>69.4</ele>
        <time>2022-07-30T19:53:37Z</time>
      </trkpt>
      <trkpt lat="49.87631" lon="2.27163">
        <ele>69.4</ele>
        <time>2022-07-30T19:53:38Z</time>
      </trkpt>
      <trkpt lat="49.8763" lon="2.27164">
        <ele>69.4</ele>
        <time>2022-07-30T19:53:39Z</time>
      </trkpt>
      <trkpt lat="49.87629" lon="2.27165">
        <ele>69.5</ele>
        <time>2022-07-30T19:53:40Z</time>
      </trkpt>
      <trkpt lat="49.87628" lon="2.27165">
        <ele>69.5</ele>
        <time>2022-07-30T19:53:41Z</time>
      </trkpt>
      <trkpt lat="49.87627" lon="2.27166">
        <ele>69.6</ele>
        <time>2022-07-30T19:53:43Z</time>
      </trkpt>
      <trkpt lat="49.87626" lon="2.27166">
        <ele>69.6</ele>
        <time>2022-07-30T19:53:44Z</time>
      </trkpt>
      <trkpt lat="49.87625" lon="2.27166">
        <ele>69.6</ele>
        <time>2022-07-30T19:53:45Z</time>
      </trkpt>
      <trkpt lat="49.87625" lon="2.27166">
        <ele>69.7</ele>
        <time>2022-07-30T19:53:46Z</time>
      </trkpt>
      <trkpt lat="49.87624" lon="2.27167">
        <ele>69.7</ele>
        <time>2022-07-30T19:53:47Z</time>
      </trkpt>
      <trkpt lat="49.87622" lon="2.27167">
        <ele>69.8</ele>
        <time>2022-07-30T19:53:48Z</time>
      </trkpt>
      <trkpt lat="49.87621" lon="2.27167">
        <ele>69.8</ele>
        <time>2022-07-30T19:53:49Z</time>
      </trkpt>
      <trkpt lat="49.8762" lon="2.27167">
        <ele>69.9</ele>
        <time>2022-07-30T19:53:51Z</time>
      </trkpt>
      <trkpt lat="49.87619" lon="2.27168">
        <ele>69.9</ele>
        <time>2022-07-30T19:53:52Z</time>
      </trkpt>
      <trkpt lat="49.87618" lon="2.27168">
        <ele>69.9</ele>
        <time>2022-07-30T19:53:53Z</time>
      </trkpt>
      <trkpt lat="49.87617" lon="2.27168">
        <ele>70</ele>
        <time>2022-07-30T19:53:54Z</time>
      </trkpt>
      <trkpt lat="49.87616" lon="2.27169">
        <ele>70</ele>
        <time>2022-07-30T19:53:56Z</time>
      </trkpt>
      <trkpt lat="49.87616" lon="2.27169">
        <ele>70</ele>
        <time>2022-07-30T19:53:57Z</time>
      </trkpt>
      <trkpt lat="49.87615" lon="2.2717">
        <ele>70.1</ele>
        <time>2022-07-30T19:53:58Z</time>
      </trkpt>
      <trkpt lat="49.87614" lon="2.27171">
        <ele>70.1</ele>
        <time>2022-07-30T19:53:59Z</time>
      </trkpt>
      <trkpt lat="49.87614" lon="2.27171">
        <ele>70.1</ele>
        <time>2022-07-30T19:54:00Z</time>
      </trkpt>
      <trkpt lat="49.87613" lon="2.27172">
        <ele>70.1</ele>
        <time>2022-07-30T19:54:01Z</time>
      </trkpt>
      <trkpt lat="49.87612" lon="2.27172">
        <ele>70.2</ele>
        <time>2022-07-30T19:54:02Z</time>
      </trkpt>
      <trkpt lat="49.87611" lon="2.27173">
        <ele>70.2</ele>
        <time>2022-07-30T19:54:04Z</time>
      </trkpt>
      <trkpt lat="49.8761" lon="2.27174">
        <ele>70.3</ele>
        <time>2022-07-30T19:54:05Z</time>
      </trkpt>
      <trkpt lat="49.87609" lon="2.27175">
        <ele>70.3</ele>
        <time>2022-07-30T19:54:06Z</time>
      </trkpt>
      <trkpt lat="49.87608" lon="2.27176">
        <ele>70.4</ele>
        <time>2022-07-30T19:54:07Z</time>
      </trkpt>
      <trkpt lat="49.87607" lon="2.27177">
        <ele>70.4</ele>
        <time>2022-07-30T19:54:10Z</time>
      </trkpt>
      <trkpt lat="49.87606" lon="2.27178">
        <ele>70.4</ele>
        <time>2022-07-30T19:54:11Z</time>
      </trkpt>
      <trkpt lat="49.87605" lon="2.27178">
        <ele>70.5</ele>
        <time>2022-07-30T19:54:12Z</time>
      </trkpt>
      <trkpt lat="49.87604" lon="2.27179">
        <ele>70.5</ele>
        <time>2022-07-30T19:54:13Z</time>
      </trkpt>
      <trkpt lat="49.87604" lon="2.2718">
        <ele>70.5</ele>
        <time>2022-07-30T19:54:15Z</time>
      </trkpt>
      <trkpt lat="49.87603" lon="2.2718">
        <ele>70.6</ele>
        <time>2022-07-30T19:54:16Z</time>
      </trkpt>
      <trkpt lat="49.87601" lon="2.27181">
        <ele>70.6</ele>
        <time>2022-07-30T19:54:17Z</time>
      </trkpt>
      <trkpt lat="49.876" lon="2.27181">
        <ele>70.7</ele>
        <time>2022-07-30T19:54:18Z</time>
      </trkpt>
      <trkpt lat="49.87599" lon="2.27182">
        <ele>70.7</ele>
        <time>2022-07-30T19:54:20Z</time>
      </trkpt>
      <trkpt lat="49.87598" lon="2.27183">
        <ele>70.7</ele>
        <time>2022-07-30T19:54:21Z</time>
      </trkpt>
      <trkpt lat="49.87597" lon="2.27183">
        <ele>70.8</ele>
        <time>2022-07-30T19:54:22Z</time>
      </trkpt>
      <trkpt lat="49.87597" lon="2.27184">
        <ele>70.8</ele>
        <time>2022-07-30T19:54:23Z</time>
      </trkpt>
      <trkpt lat="49.87595" lon="2.27184">
        <ele>70.9</ele>
        <time>2022-07-30T19:54:25Z</time>
      </trkpt>
      <trkpt lat="49.87594" lon="2.27185">
        <ele>70.9</ele>
        <time>2022-07-30T19:54:26Z</time>
      </trkpt>
      <trkpt lat="49.87593" lon="2.27186">
        <ele>70.9</ele>
        <time>2022-07-30T19:54:27Z</time>
      </trkpt>
      <trkpt lat="49.87592" lon="2.27186">
        <ele>71</ele>
        <time>2022-07-30T19:54:28Z</time>
      </trkpt>
      <trkpt lat="49.87591" lon="2.27186">
        <ele>71</ele>
        <time>2022-07-30T19:54:29Z</time>
      </trkpt>
      <trkpt lat="49.87591" lon="2.27186">
        <ele>71</ele>
        <time>2022-07-30T19:54:31Z</time>
      </trkpt>
      <trkpt lat="49.8759" lon="2.27187">
        <ele>71.1</ele>
        <time>2022-07-30T19:54:32Z</time>
      </trkpt>
      <trkpt lat="49.87589" lon="2.27187">
        <ele>71.1</ele>
        <time>2022-07-30T19:54:33Z</time>
      </trkpt>
      <trkpt lat="49.87587" lon="2.27187">
        <ele>71.1</ele>
        <time>2022-07-30T19:54:34Z</time>
      </trkpt>
      <trkpt lat="49.87586" lon="2.27187">
        <ele>71.2</ele>
        <time>2022-07-30T19:54:36Z</time>
      </trkpt>
      <trkpt lat="49.87585" lon="2.27186">
        <ele>71.2</ele>
        <time>2022-07-30T19:54:37Z</time>
      </trkpt>
      <trkpt lat="49.87585" lon="2.27185">
        <ele>71.2</ele>
        <time>2022-07-30T19:54:38Z</time>
      </trkpt>
      <trkpt lat="49.87584" lon="2.27185">
        <ele>71.3</ele>
        <time>2022-07-30T19:54:39Z</time>
      </trkpt>
      <trkpt lat="49.87583" lon="2.27184">
        <ele>71.3</ele>
        <time>2022-07-30T19:54:40Z</time>
      </trkpt>
      <trkpt lat="49.87582" lon="2.27183">
        <ele>71.3</ele>
        <time>2022-07-30T19:54:41Z</time>
      </trkpt>
      <trkpt lat="49.87581" lon="2.27183">
        <ele>71.4</ele>
        <time>2022-07-30T19:54:42Z</time>
      </trkpt>
      <trkpt lat="49.8758" lon="2.27183">
        <ele>71.4</ele>
        <time>2022-07-30T19:54:44Z</time>
      </trkpt>
      <trkpt lat="49.87579" lon="2.27183">
        <ele>71.4</ele>
        <time>2022-07-30T19:54:45Z</time>
      </trkpt>
      <trkpt lat="49.87578" lon="2.27183">
        <ele>71.4</ele>
        <time>2022-07-30T19:54:46Z</time>
      </trkpt>
      <trkpt lat="49.87577" lon="2.27183">
        <ele>71.5</ele>
        <time>2022-07-30T19:54:47Z</time>
      </trkpt>
      <trkpt lat="49.87576" lon="2.27183">
        <ele>71.5</ele>
        <time>2022-07-30T19:54:48Z</time>
      </trkpt>
      <trkpt lat="49.87575" lon="2.27183">
        <ele>71.5</ele>
        <time>2022-07-30T19:54:49Z</time>
      </trkpt>
      <trkpt lat="49.87574" lon="2.27182">
        <ele>71.5</ele>
        <time>2022-07-30T19:54:50Z</time>
      </trkpt>
      <trkpt lat="49.87573" lon="2.27182">
        <ele>71.5</ele>
        <time>2022-07-30T19:54:52Z</time>
      </trkpt>
      <trkpt lat="49.87573" lon="2.27182">
        <ele>71.6</ele>
        <time>2022-07-30T19:54:53Z</time>
      </trkpt>
      <trkpt lat="49.87572" lon="2.27181">
        <ele>71.6</ele>
        <time>2022-07-30T19:54:54Z</time>
      </trkpt>
      <trkpt lat="49.87571" lon="2.27181">
        <ele>71.6</ele>
        <time>2022-07-30T19:54:55Z</time>
      </trkpt>
      <trkpt lat="49.87571" lon="2.2718">
        <ele>71.6</ele>
        <time>2022-07-30T19:54:56Z</time>
      </trkpt>
      <trkpt lat="49.8757" lon="2.27179">
        <ele>71.6</ele>
        <time>2022-07-30T19:54:57Z</time>
      </trkpt>
      <trkpt lat="49.87569" lon="2.27179">
        <ele>71.7</ele>
        <time>2022-07-30T19:54:58Z</time>
      </trkpt>
      <trkpt lat="49.87568" lon="2.27178">
        <ele>71.7</ele>
        <time>2022-07-30T19:54:59Z</time>
      </trkpt>
      <trkpt lat="49.87567" lon="2.27176">
        <ele>71.7</ele>
        <time>2022-07-30T19:55:00Z</time>
      </trkpt>
      <trkpt lat="49.87566" lon="2.27175">
        <ele>71.7</ele>
        <time>2022-07-30T19:55:01Z</time>
      </trkpt>
      <trkpt lat="49.87564" lon="2.27173">
        <ele>71.8</ele>
        <time>2022-07-30T19:55:03Z</time>
      </trkpt>
      <trkpt lat="49.87564" lon="2.27172">
        <ele>71.8</ele>
        <time>2022-07-30T19:55:04Z</time>
      </trkpt>
      <trkpt lat="49.87563" lon="2.27171">
        <ele>71.8</ele>
        <time>2022-07-30T19:55:05Z</time>
      </trkpt>
      <trkpt lat="49.87562" lon="2.27169">
        <ele>71.9</ele>
        <time>2022-07-30T19:55:06Z</time>
      </trkpt>
      <trkpt lat="49.87562" lon="2.27168">
        <ele>71.9</ele>
        <time>2022-07-30T19:55:07Z</time>
      </trkpt>
      <trkpt lat="49.87561" lon="2.27166">
        <ele>71.9</ele>
        <time>2022-07-30T19:55:08Z</time>
      </trkpt>
      <trkpt lat="49.87562" lon="2.27166">
        <ele>71.9</ele>
        <time>2022-07-30T19:55:09Z</time>
      </trkpt>
      <trkpt lat="49.87562" lon="2.27165">
        <ele>71.9</ele>
        <time>2022-07-30T19:55:11Z</time>
      </trkpt>
      <trkpt lat="49.87562" lon="2.27165">
        <ele>71.9</ele>
        <time>2022-07-30T19:55:12Z</time>
      </trkpt>
      <trkpt lat="49.87562" lon="2.27165">
        <ele>71.9</ele>
        <time>2022-07-30T19:55:13Z</time>
      </trkpt>
      <trkpt lat="49.87562" lon="2.27166">
        <ele>71.9</ele>
        <time>2022-07-30T19:55:14Z</time>
      </trkpt>
      <trkpt lat="49.87562" lon="2.27166">
        <ele>71.9</ele>
        <time>2022-07-30T19:55:15Z</time>
      </trkpt>
      <trkpt lat="49.87561" lon="2.27165">
        <ele>71.9</ele>
        <time>2022-07-30T19:55:16Z</time>
      </trkpt>
      <trkpt lat="49.87559" lon="2.27164">
        <ele>72</ele>
        <time>2022-07-30T19:55:17Z</time>
      </trkpt>
      <trkpt lat="49.87558" lon="2.27163">
        <ele>72</ele>
        <time>2022-07-30T19:55:19Z</time>
      </trkpt>
      <trkpt lat="49.87557" lon="2.27163">
        <ele>72</ele>
        <time>2022-07-30T19:55:20Z</time>
      </trkpt>
      <trkpt lat="49.87556" lon="2.27164">
        <ele>72.1</ele>
        <time>2022-07-30T19:55:21Z</time>
      </trkpt>
      <trkpt lat="49.87555" lon="2.27165">
        <ele>72.1</ele>
        <time>2022-07-30T19:55:22Z</time>
      </trkpt>
      <trkpt lat="49.87554" lon="2.27167">
        <ele>72.1</ele>
        <time>2022-07-30T19:55:23Z</time>
      </trkpt>
      <trkpt lat="49.87553" lon="2.27169">
        <ele>72.1</ele>
        <time>2022-07-30T19:55:24Z</time>
      </trkpt>
      <trkpt lat="49.87553" lon="2.27171">
        <ele>72.1</ele>
        <time>2022-07-30T19:55:26Z</time>
      </trkpt>
      <trkpt lat="49.87553" lon="2.27174">
        <ele>72.1</ele>
        <time>2022-07-30T19:55:27Z</time>
      </trkpt>
      <trkpt lat="49.87552" lon="2.27179">
        <ele>72.2</ele>
        <time>2022-07-30T19:55:28Z</time>
      </trkpt>
      <trkpt lat="49.87552" lon="2.2718">
        <ele>72.2</ele>
        <time>2022-07-30T19:55:29Z</time>
      </trkpt>
      <trkpt lat="49.87552" lon="2.27182">
        <ele>72.2</ele>
        <time>2022-07-30T19:55:30Z</time>
      </trkpt>
      <trkpt lat="49.87551" lon="2.27185">
        <ele>72.2</ele>
        <time>2022-07-30T19:55:32Z</time>
      </trkpt>
      <trkpt lat="49.8755" lon="2.27187">
        <ele>72.2</ele>
        <time>2022-07-30T19:55:33Z</time>
      </trkpt>
      <trkpt lat="49.87549" lon="2.27187">
        <ele>72.2</ele>
        <time>2022-07-30T19:55:34Z</time>
      </trkpt>
      <trkpt lat="49.87549" lon="2.27187">
        <ele>72.2</ele>
        <time>2022-07-30T19:55:35Z</time>
      </trkpt>
      <trkpt lat="49.87546" lon="2.27186">
        <ele>72.2</ele>
        <time>2022-07-30T19:55:36Z</time>
      </trkpt>
      <trkpt lat="49.87546" lon="2.27186">
        <ele>72.3</ele>
        <time>2022-07-30T19:55:38Z</time>
      </trkpt>
      <trkpt lat="49.87545" lon="2.27186">
        <ele>72.3</ele>
        <time>2022-07-30T19:55:39Z</time>
      </trkpt>
      <trkpt lat="49.87543" lon="2.27185">
        <ele>72.3</ele>
        <time>2022-07-30T19:55:40Z</time>
      </trkpt>
      <trkpt lat="49.87542" lon="2.27185">
        <ele>72.3</ele>
        <time>2022-07-30T19:55:41Z</time>
      </trkpt>
      <trkpt lat="49.87541" lon="2.27184">
        <ele>72.3</ele>
        <time>2022-07-30T19:55:42Z</time>
      </trkpt>
      <trkpt lat="49.8754" lon="2.27184">
        <ele>72.3</ele>
        <time>2022-07-30T19:55:43Z</time>
      </trkpt>
      <trkpt lat="49.87538" lon="2.27184">
        <ele>72.3</ele>
        <time>2022-07-30T19:55:45Z</time>
      </trkpt>
      <trkpt lat="49.87537" lon="2.27183">
        <ele>72.3</ele>
        <time>2022-07-30T19:55:46Z</time>
      </trkpt>
      <trkpt lat="49.87535" lon="2.27183">
        <ele>72.3</ele>
        <time>2022-07-30T19:55:47Z</time>
      </trkpt>
      <trkpt lat="49.87534" lon="2.27182">
        <ele>72.3</ele>
        <time>2022-07-30T19:55:48Z</time>
      </trkpt>
      <trkpt lat="49.87533" lon="2.27182">
        <ele>72.4</ele>
        <time>2022-07-30T19:55:49Z</time>
      </trkpt>
      <trkpt lat="49.87532" lon="2.27181">
        <ele>72.4</ele>
        <time>2022-07-30T19:55:50Z</time>
      </trkpt>
      <trkpt lat="49.87531" lon="2.2718">
        <ele>72.4</ele>
        <time>2022-07-30T19:55:51Z</time>
      </trkpt>
      <trkpt lat="49.8753" lon="2.2718">
        <ele>72.4</ele>
        <time>2022-07-30T19:55:52Z</time>
      </trkpt>
      <trkpt lat="49.87529" lon="2.27179">
        <ele>72.4</ele>
        <time>2022-07-30T19:55:53Z</time>
      </trkpt>
      <trkpt lat="49.87527" lon="2.27177">
        <ele>72.4</ele>
        <time>2022-07-30T19:55:54Z</time>
      </trkpt>
      <trkpt lat="49.87526" lon="2.27177">
        <ele>72.4</ele>
        <time>2022-07-30T19:55:55Z</time>
      </trkpt>
      <trkpt lat="49.87525" lon="2.27176">
        <ele>72.4</ele>
        <time>2022-07-30T19:55:56Z</time>
      </trkpt>
      <trkpt lat="49.87524" lon="2.27175">
        <ele>72.4</ele>
        <time>2022-07-30T19:55:58Z</time>
      </trkpt>
      <trkpt lat="49.87523" lon="2.27174">
        <ele>72.4</ele>
        <time>2022-07-30T19:55:59Z</time>
      </trkpt>
      <trkpt lat="49.87521" lon="2.27172">
        <ele>72.4</ele>
        <time>2022-07-30T19:56:00Z</time>
      </trkpt>
      <trkpt lat="49.8752" lon="2.27172">
        <ele>72.4</ele>
        <time>2022-07-30T19:56:01Z</time>
      </trkpt>
      <trkpt lat="49.87519" lon="2.27171">
        <ele>72.4</ele>
        <time>2022-07-30T19:56:02Z</time>
      </trkpt>
      <trkpt lat="49.87517" lon="2.2717">
        <ele>72.5</ele>
        <time>2022-07-30T19:56:04Z</time>
      </trkpt>
      <trkpt lat="49.87516" lon="2.2717">
        <ele>72.5</ele>
        <time>2022-07-30T19:56:05Z</time>
      </trkpt>
      <trkpt lat="49.87516" lon="2.27169">
        <ele>72.5</ele>
        <time>2022-07-30T19:56:06Z</time>
      </trkpt>
      <trkpt lat="49.87514" lon="2.27169">
        <ele>72.5</ele>
        <time>2022-07-30T19:56:07Z</time>
      </trkpt>
      <trkpt lat="49.87513" lon="2.27168">
        <ele>72.5</ele>
        <time>2022-07-30T19:56:08Z</time>
      </trkpt>
      <trkpt lat="49.87512" lon="2.27167">
        <ele>72.5</ele>
        <time>2022-07-30T19:56:10Z</time>
      </trkpt>
      <trkpt lat="49.8751" lon="2.27166">
        <ele>72.5</ele>
        <time>2022-07-30T19:56:11Z</time>
      </trkpt>
      <trkpt lat="49.87509" lon="2.27166">
        <ele>72.5</ele>
        <time>2022-07-30T19:56:12Z</time>
      </trkpt>
      <trkpt lat="49.87508" lon="2.27165">
        <ele>72.5</ele>
        <time>2022-07-30T19:56:13Z</time>
      </trkpt>
      <trkpt lat="49.87507" lon="2.27164">
        <ele>72.5</ele>
        <time>2022-07-30T19:56:14Z</time>
      </trkpt>
      <trkpt lat="49.87506" lon="2.27163">
        <ele>72.5</ele>
        <time>2022-07-30T19:56:16Z</time>
      </trkpt>
      <trkpt lat="49.87505" lon="2.27163">
        <ele>72.5</ele>
        <time>2022-07-30T19:56:17Z</time>
      </trkpt>
      <trkpt lat="49.87505" lon="2.27163">
        <ele>72.5</ele>
        <time>2022-07-30T19:56:18Z</time>
      </trkpt>
      <trkpt lat="49.87504" lon="2.27163">
        <ele>72.5</ele>
        <time>2022-07-30T19:56:19Z</time>
      </trkpt>
      <trkpt lat="49.87504" lon="2.27163">
        <ele>72.6</ele>
        <time>2022-07-30T19:56:20Z</time>
      </trkpt>
      <trkpt lat="49.87503" lon="2.27163">
        <ele>72.6</ele>
        <time>2022-07-30T19:56:21Z</time>
      </trkpt>
      <trkpt lat="49.87502" lon="2.27163">
        <ele>72.6</ele>
        <time>2022-07-30T19:56:23Z</time>
      </trkpt>
      <trkpt lat="49.87501" lon="2.27164">
        <ele>72.6</ele>
        <time>2022-07-30T19:56:24Z</time>
      </trkpt>
      <trkpt lat="49.87501" lon="2.27164">
        <ele>72.6</ele>
        <time>2022-07-30T19:56:25Z</time>
      </trkpt>
      <trkpt lat="49.87502" lon="2.27164">
        <ele>72.6</ele>
        <time>2022-07-30T19:56:26Z</time>
      </trkpt>
      <trkpt lat="49.87502" lon="2.27164">
        <ele>72.6</ele>
        <time>2022-07-30T19:56:27Z</time>
      </trkpt>
      <trkpt lat="49.87502" lon="2.27164">
        <ele>72.6</ele>
        <time>2022-07-30T19:56:28Z</time>
      </trkpt>
      <trkpt lat="49.87502" lon="2.27164">
        <ele>72.6</ele>
        <time>2022-07-30T19:56:29Z</time>
      </trkpt>
      <trkpt lat="49.87502" lon="2.27164">
        <ele>72.6</ele>
        <time>2022-07-30T19:56:30Z</time>
      </trkpt>
      <trkpt lat="49.87502" lon="2.27165">
        <ele>72.6</ele>
        <time>2022-07-30T19:56:31Z</time>
      </trkpt>
      <trkpt lat="49.87502" lon="2.27165">
        <ele>72.6</ele>
        <time>2022-07-30T19:56:33Z</time>
      </trkpt>
      <trkpt lat="49.87502" lon="2.27165">
        <ele>72.6</ele>
        <time>2022-07-30T19:56:34Z</time>
      </trkpt>
      <trkpt lat="49.87502" lon="2.27165">
        <ele>72.6</ele>
        <time>2022-07-30T19:56:35Z</time>
      </trkpt>
      <trkpt lat="49.87502" lon="2.27165">
        <ele>72.6</ele>
        <time>2022-07-30T19:56:36Z</time>
      </trkpt>
      <trkpt lat="49.87502" lon="2.27165">
        <ele>72.6</ele>
        <time>2022-07-30T19:56:37Z</time>
      </trkpt>
      <trkpt lat="49.87502" lon="2.27165">
        <ele>72.6</ele>
        <time>2022-07-30T19:56:38Z</time>
      </trkpt>
      <trkpt lat="49.87502" lon="2.27165">
        <ele>72.6</ele>
        <time>2022-07-30T19:56:39Z</time>
      </trkpt>
      <trkpt lat="49.87502" lon="2.27165">
        <ele>72.6</ele>
        <time>2022-07-30T19:56:40Z</time>
      </trkpt>
      <trkpt lat="49.87502" lon="2.27165">
        <ele>72.6</ele>
        <time>2022-07-30T19:56:41Z</time>
      </trkpt>
      <trkpt lat="49.87502" lon="2.27165">
        <ele>72.6</ele>
        <time>2022-07-30T19:56:42Z</time>
      </trkpt>
      <trkpt lat="49.87502" lon="2.27165">
        <ele>72.6</ele>
        <time>2022-07-30T19:56:43Z</time>
      </trkpt>
      <trkpt lat="49.87502" lon="2.27166">
        <ele>72.6</ele>
        <time>2022-07-30T19:56:44Z</time>
      </trkpt>
      <trkpt lat="49.87502" lon="2.27166">
        <ele>72.6</ele>
        <time>2022-07-30T19:56:45Z</time>
      </trkpt>
      <trkpt lat="49.87502" lon="2.27166">
        <ele>72.6</ele>
        <time>2022-07-30T19:56:46Z</time>
      </trkpt>
      <trkpt lat="49.87502" lon="2.27166">
        <ele>72.6</ele>
        <time>2022-07-30T19:56:47Z</time>
      </trkpt>
      <trkpt lat="49.87502" lon="2.27166">
        <ele>72.6</ele>
        <time>2022-07-30T19:56:48Z</time>
      </trkpt>
      <trkpt lat="49.87502" lon="2.27166">
        <ele>72.6</ele>
        <time>2022-07-30T19:56:49Z</time>
      </trkpt>
      <trkpt lat="49.87503" lon="2.27166">
        <ele>72.6</ele>
        <time>2022-07-30T19:56:50Z</time>
      </trkpt>
      <trkpt lat="49.87503" lon="2.27166">
        <ele>72.6</ele>
        <time>2022-07-30T19:56:51Z</time>
      </trkpt>
      <trkpt lat="49.87503" lon="2.27166">
        <ele>72.6</ele>
        <time>2022-07-30T19:56:52Z</time>
      </trkpt>
      <trkpt lat="49.87503" lon="2.27166">
        <ele>72.6</ele>
        <time>2022-07-30T19:56:53Z</time>
      </trkpt>
      <trkpt lat="49.87503" lon="2.27166">
        <ele>72.6</ele>
        <time>2022-07-30T19:56:54Z</time>
      </trkpt>
      <trkpt lat="49.87503" lon="2.27167">
        <ele>72.6</ele>
        <time>2022-07-30T19:56:55Z</time>
      </trkpt>
      <trkpt lat="49.87503" lon="2.27167">
        <ele>72.6</ele>
        <time>2022-07-30T19:56:56Z</time>
      </trkpt>
      <trkpt lat="49.87503" lon="2.27167">
        <ele>72.6</ele>
        <time>2022-07-30T19:56:57Z</time>
      </trkpt>
      <trkpt lat="49.87503" lon="2.27167">
        <ele>72.6</ele>
        <time>2022-07-30T19:56:58Z</time>
      </trkpt>
      <trkpt lat="49.87503" lon="2.27167">
        <ele>72.6</ele>
        <time>2022-07-30T19:56:59Z</time>
      </trkpt>
      <trkpt lat="49.87503" lon="2.27167">
        <ele>72.6</ele>
        <time>2022-07-30T19:57:00Z</time>
      </trkpt>
      <trkpt lat="49.87503" lon="2.27167">
        <ele>72.6</ele>
        <time>2022-07-30T19:57:01Z</time>
      </trkpt>
      <trkpt lat="49.87503" lon="2.27167">
        <ele>72.6</ele>
        <time>2022-07-30T19:57:02Z</time>
      </trkpt>
      <trkpt lat="49.87503" lon="2.27167">
        <ele>72.6</ele>
        <time>2022-07-30T19:57:03Z</time>
      </trkpt>
      <trkpt lat="49.87503" lon="2.27167">
        <ele>72.6</ele>
        <time>2022-07-30T19:57:04Z</time>
      </trkpt>
      <trkpt lat="49.87503" lon="2.27167">
        <ele>72.6</ele>
        <time>2022-07-30T19:57:05Z</time>
      </trkpt>
      <trkpt lat="49.87503" lon="2.27167">
        <ele>72.6</ele>
        <time>2022-07-30T19:57:06Z</time>
      </trkpt>
      <trkpt lat="49.87503" lon="2.27168">
        <ele>72.6</ele>
        <time>2022-07-30T19:57:07Z</time>
      </trkpt>
      <trkpt lat="49.87503" lon="2.27168">
        <ele>72.6</ele>
        <time>2022-07-30T19:57:08Z</time>
      </trkpt>
      <trkpt lat="49.87503" lon="2.27168">
        <ele>72.6</ele>
        <time>2022-07-30T19:57:09Z</time>
      </trkpt>
      <trkpt lat="49.87503" lon="2.27168">
        <ele>72.6</ele>
        <time>2022-07-30T19:57:10Z</time>
      </trkpt>
      <trkpt lat="49.87503" lon="2.27168">
        <ele>72.6</ele>
        <time>2022-07-30T19:57:11Z</time>
      </trkpt>
      <trkpt lat="49.87503" lon="2.27168">
        <ele>72.6</ele>
        <time>2022-07-30T19:57:12Z</time>
      </trkpt>
      <trkpt lat="49.87504" lon="2.27168">
        <ele>72.6</ele>
        <time>2022-07-30T19:57:13Z</time>
      </trkpt>
      <trkpt lat="49.87504" lon="2.27168">
        <ele>72.6</ele>
        <time>2022-07-30T19:57:14Z</time>
      </trkpt>
      <trkpt lat="49.87504" lon="2.27168">
        <ele>72.6</ele>
        <time>2022-07-30T19:57:15Z</time>
      </trkpt>
      <trkpt lat="49.87504" lon="2.27168">
        <ele>72.6</ele>
        <time>2022-07-30T19:57:16Z</time>
      </trkpt>
      <trkpt lat="49.87504" lon="2.27168">
        <ele>72.6</ele>
        <time>2022-07-30T19:57:17Z</time>
      </trkpt>
      <trkpt lat="49.87504" lon="2.27169">
        <ele>72.6</ele>
        <time>2022-07-30T19:57:18Z</time>
      </trkpt>
      <trkpt lat="49.87504" lon="2.27169">
        <ele>72.6</ele>
        <time>2022-07-30T19:57:19Z</time>
      </trkpt>
      <trkpt lat="49.87504" lon="2.27169">
        <ele>72.6</ele>
        <time>2022-07-30T19:57:20Z</time>
      </trkpt>
      <trkpt lat="49.87504" lon="2.27169">
        <ele>72.6</ele>
        <time>2022-07-30T19:57:21Z</time>
      </trkpt>
      <trkpt lat="49.87504" lon="2.27169">
        <ele>72.6</ele>
        <time>2022-07-30T19:57:22Z</time>
      </trkpt>
      <trkpt lat="49.87504" lon="2.27169">
        <ele>72.6</ele>
        <time>2022-07-30T19:57:23Z</time>
      </trkpt>
      <trkpt lat="49.87504" lon="2.27169">
        <ele>72.6</ele>
        <time>2022-07-30T19:57:24Z</time>
      </trkpt>
      <trkpt lat="49.87504" lon="2.27169">
        <ele>72.6</ele>
        <time>2022-07-30T19:57:25Z</time>
      </trkpt>
      <trkpt lat="49.87504" lon="2.27169">
        <ele>72.6</ele>
        <time>2022-07-30T19:57:26Z</time>
      </trkpt>
      <trkpt lat="49.87504" lon="2.27169">
        <ele>72.6</ele>
        <time>2022-07-30T19:57:27Z</time>
      </trkpt>
      <trkpt lat="49.87504" lon="2.27169">
        <ele>72.6</ele>
        <time>2022-07-30T19:57:28Z</time>
      </trkpt>
      <trkpt lat="49.87504" lon="2.27169">
        <ele>72.6</ele>
        <time>2022-07-30T19:57:29Z</time>
      </trkpt>
      <trkpt lat="49.87504" lon="2.2717">
        <ele>72.6</ele>
        <time>2022-07-30T19:57:30Z</time>
      </trkpt>
      <trkpt lat="49.87504" lon="2.2717">
        <ele>72.6</ele>
        <time>2022-07-30T19:57:31Z</time>
      </trkpt>
      <trkpt lat="49.87504" lon="2.2717">
        <ele>72.6</ele>
        <time>2022-07-30T19:57:32Z</time>
      </trkpt>
      <trkpt lat="49.87504" lon="2.2717">
        <ele>72.6</ele>
        <time>2022-07-30T19:57:33Z</time>
      </trkpt>
      <trkpt lat="49.87504" lon="2.2717">
        <ele>72.6</ele>
        <time>2022-07-30T19:57:34Z</time>
      </trkpt>
      <trkpt lat="49.87504" lon="2.2717">
        <ele>72.6</ele>
        <time>2022-07-30T19:57:35Z</time>
      </trkpt>
      <trkpt lat="49.87505" lon="2.2717">
        <ele>72.6</ele>
        <time>2022-07-30T19:57:36Z</time>
      </trkpt>
      <trkpt lat="49.87505" lon="2.2717">
        <ele>72.6</ele>
        <time>2022-07-30T19:57:37Z</time>
      </trkpt>
      <trkpt lat="49.87505" lon="2.2717">
        <ele>72.6</ele>
        <time>2022-07-30T19:57:38Z</time>
      </trkpt>
      <trkpt lat="49.87505" lon="2.2717">
        <ele>72.6</ele>
        <time>2022-07-30T19:57:39Z</time>
      </trkpt>
      <trkpt lat="49.87505" lon="2.2717">
        <ele>72.6</ele>
        <time>2022-07-30T19:57:40Z</time>
      </trkpt>
      <trkpt lat="49.87505" lon="2.2717">
        <ele>72.6</ele>
        <time>2022-07-30T19:57:41Z</time>
      </trkpt>
      <trkpt lat="49.87505" lon="2.27171">
        <ele>72.6</ele>
        <time>2022-07-30T19:57:42Z</time>
      </trkpt>
      <trkpt lat="49.87505" lon="2.27171">
        <ele>72.6</ele>
        <time>2022-07-30T19:57:43Z</time>
      </trkpt>
      <trkpt lat="49.87505" lon="2.27171">
        <ele>72.6</ele>
        <time>2022-07-30T19:57:44Z</time>
      </trkpt>
      <trkpt lat="49.87505" lon="2.27171">
        <ele>72.6</ele>
        <time>2022-07-30T19:57:45Z</time>
      </trkpt>
      <trkpt lat="49.87505" lon="2.27171">
        <ele>72.6</ele>
        <time>2022-07-30T19:57:46Z</time>
      </trkpt>
      <trkpt lat="49.87505" lon="2.27171">
        <ele>72.6</ele>
        <time>2022-07-30T19:57:47Z</time>
      </trkpt>
      <trkpt lat="49.87505" lon="2.27171">
        <ele>72.6</ele>
        <time>2022-07-30T19:57:48Z</time>
      </trkpt>
      <trkpt lat="49.87505" lon="2.27171">
        <ele>72.6</ele>
        <time>2022-07-30T19:57:49Z</time>
      </trkpt>
      <trkpt lat="49.87505" lon="2.27171">
        <ele>72.6</ele>
        <time>2022-07-30T19:57:50Z</time>
      </trkpt>
      <trkpt lat="49.87505" lon="2.27171">
        <ele>72.6</ele>
        <time>2022-07-30T19:57:51Z</time>
      </trkpt>
      <trkpt lat="49.87505" lon="2.27171">
        <ele>72.6</ele>
        <time>2022-07-30T19:57:52Z</time>
      </trkpt>
      <trkpt lat="49.87505" lon="2.27172">
        <ele>72.6</ele>
        <time>2022-07-30T19:57:53Z</time>
      </trkpt>
      <trkpt lat="49.87505" lon="2.27172">
        <ele>72.6</ele>
        <time>2022-07-30T19:57:54Z</time>
      </trkpt>
      <trkpt lat="49.87505" lon="2.27172">
        <ele>72.6</ele>
        <time>2022-07-30T19:57:55Z</time>
      </trkpt>
      <trkpt lat="49.87505" lon="2.27172">
        <ele>72.6</ele>
        <time>2022-07-30T19:57:56Z</time>
      </trkpt>
      <trkpt lat="49.87505" lon="2.27172">
        <ele>72.6</ele>
        <time>2022-07-30T19:57:57Z</time>
      </trkpt>
      <trkpt lat="49.87505" lon="2.27172">
        <ele>72.6</ele>
        <time>2022-07-30T19:57:58Z</time>
      </trkpt>
      <trkpt lat="49.87506" lon="2.27172">
        <ele>72.6</ele>
        <time>2022-07-30T19:57:59Z</time>
      </trkpt>
      <trkpt lat="49.87506" lon="2.27172">
        <ele>72.6</ele>
        <time>2022-07-30T19:58:00Z</time>
      </trkpt>
      <trkpt lat="49.87506" lon="2.27172">
        <ele>72.6</ele>
        <time>2022-07-30T19:58:01Z</time>
      </trkpt>
      <trkpt lat="49.87506" lon="2.27172">
        <ele>72.6</ele>
        <time>2022-07-30T19:58:02Z</time>
      </trkpt>
      <trkpt lat="49.87506" lon="2.27172">
        <ele>72.6</ele>
        <time>2022-07-30T19:58:03Z</time>
      </trkpt>
      <trkpt lat="49.87506" lon="2.27172">
        <ele>72.6</ele>
        <time>2022-07-30T19:58:04Z</time>
      </trkpt>
      <trkpt lat="49.87506" lon="2.27173">
        <ele>72.6</ele>
        <time>2022-07-30T19:58:05Z</time>
      </trkpt>
      <trkpt lat="49.87506" lon="2.27173">
        <ele>72.6</ele>
        <time>2022-07-30T19:58:06Z</time>
      </trkpt>
      <trkpt lat="49.87506" lon="2.27173">
        <ele>72.6</ele>
        <time>2022-07-30T19:58:07Z</time>
      </trkpt>
      <trkpt lat="49.87506" lon="2.27173">
        <ele>72.6</ele>
        <time>2022-07-30T19:58:08Z</time>
      </trkpt>
      <trkpt lat="49.87506" lon="2.27173">
        <ele>72.6</ele>
        <time>2022-07-30T19:58:09Z</time>
      </trkpt>
      <trkpt lat="49.87506" lon="2.27173">
        <ele>72.6</ele>
        <time>2022-07-30T19:58:10Z</time>
      </trkpt>
      <trkpt lat="49.87506" lon="2.27173">
        <ele>72.6</ele>
        <time>2022-07-30T19:58:11Z</time>
      </trkpt>
      <trkpt lat="49.87506" lon="2.27173">
        <ele>72.6</ele>
        <time>2022-07-30T19:58:12Z</time>
      </trkpt>
      <trkpt lat="49.87506" lon="2.27173">
        <ele>72.6</ele>
        <time>2022-07-30T19:58:13Z</time>
      </trkpt>
      <trkpt lat="49.87506" lon="2.27173">
        <ele>72.6</ele>
        <time>2022-07-30T19:58:14Z</time>
      </trkpt>
      <trkpt lat="49.87506" lon="2.27173">
        <ele>72.6</ele>
        <time>2022-07-30T19:58:15Z</time>
      </trkpt>
      <trkpt lat="49.87506" lon="2.27174">
        <ele>72.6</ele>
        <time>2022-07-30T19:58:16Z</time>
      </trkpt>
      <trkpt lat="49.87506" lon="2.27174">
        <ele>72.6</ele>
        <time>2022-07-30T19:58:17Z</time>
      </trkpt>
      <trkpt lat="49.87506" lon="2.27174">
        <ele>72.6</ele>
        <time>2022-07-30T19:58:18Z</time>
      </trkpt>
      <trkpt lat="49.87506" lon="2.27174">
        <ele>72.6</ele>
        <time>2022-07-30T19:58:19Z</time>
      </trkpt>
      <trkpt lat="49.87506" lon="2.27174">
        <ele>72.6</ele>
        <time>2022-07-30T19:58:20Z</time>
      </trkpt>
      <trkpt lat="49.87506" lon="2.27174">
        <ele>72.6</ele>
        <time>2022-07-30T19:58:21Z</time>
      </trkpt>
      <trkpt lat="49.87507" lon="2.27174">
        <ele>72.6</ele>
        <time>2022-07-30T19:58:22Z</time>
      </trkpt>
      <trkpt lat="49.87507" lon="2.27174">
        <ele>72.6</ele>
        <time>2022-07-30T19:58:23Z</time>
      </trkpt>
      <trkpt lat="49.87507" lon="2.27174">
        <ele>72.6</ele>
        <time>2022-07-30T19:58:24Z</time>
      </trkpt>
      <trkpt lat="49.87507" lon="2.27174">
        <ele>72.6</ele>
        <time>2022-07-30T19:58:25Z</time>
      </trkpt>
      <trkpt lat="49.87507" lon="2.27174">
        <ele>72.6</ele>
        <time>2022-07-30T19:58:26Z</time>
      </trkpt>
      <trkpt lat="49.87507" lon="2.27174">
        <ele>72.6</ele>
        <time>2022-07-30T19:58:27Z</time>
      </trkpt>
      <trkpt lat="49.87507" lon="2.27175">
        <ele>72.6</ele>
        <time>2022-07-30T19:58:28Z</time>
      </trkpt>
      <trkpt lat="49.87507" lon="2.27175">
        <ele>72.6</ele>
        <time>2022-07-30T19:58:29Z</time>
      </trkpt>
      <trkpt lat="49.87507" lon="2.27175">
        <ele>72.6</ele>
        <time>2022-07-30T19:58:30Z</time>
      </trkpt>
      <trkpt lat="49.87507" lon="2.27175">
        <ele>72.6</ele>
        <time>2022-07-30T19:58:31Z</time>
      </trkpt>
      <trkpt lat="49.87507" lon="2.27175">
        <ele>72.6</ele>
        <time>2022-07-30T19:58:32Z</time>
      </trkpt>
      <trkpt lat="49.87507" lon="2.27175">
        <ele>72.6</ele>
        <time>2022-07-30T19:58:33Z</time>
      </trkpt>
      <trkpt lat="49.87507" lon="2.27175">
        <ele>72.6</ele>
        <time>2022-07-30T19:58:34Z</time>
      </trkpt>
      <trkpt lat="49.87508" lon="2.27176">
        <ele>72.6</ele>
        <time>2022-07-30T19:58:35Z</time>
      </trkpt>
      <trkpt lat="49.87509" lon="2.27179">
        <ele>72.5</ele>
        <time>2022-07-30T19:58:36Z</time>
      </trkpt>
      <trkpt lat="49.87509" lon="2.2718">
        <ele>72.5</ele>
        <time>2022-07-30T19:58:37Z</time>
      </trkpt>
      <trkpt lat="49.87509" lon="2.27181">
        <ele>72.5</ele>
        <time>2022-07-30T19:58:38Z</time>
      </trkpt>
      <trkpt lat="49.87509" lon="2.27182">
        <ele>72.5</ele>
        <time>2022-07-30T19:58:39Z</time>
      </trkpt>
      <trkpt lat="49.87509" lon="2.27182">
        <ele>72.5</ele>
        <time>2022-07-30T19:58:40Z</time>
      </trkpt>
      <trkpt lat="49.87508" lon="2.27183">
        <ele>72.5</ele>
        <time>2022-07-30T19:58:41Z</time>
      </trkpt>
      <trkpt lat="49.87508" lon="2.27184">
        <ele>72.5</ele>
        <time>2022-07-30T19:58:42Z</time>
      </trkpt>
      <trkpt lat="49.87508" lon="2.27184">
        <ele>72.5</ele>
        <time>2022-07-30T19:58:44Z</time>
      </trkpt>
      <trkpt lat="49.87508" lon="2.27185">
        <ele>72.5</ele>
        <time>2022-07-30T19:58:45Z</time>
      </trkpt>
      <trkpt lat="49.87508" lon="2.27186">
        <ele>72.5</ele>
        <time>2022-07-30T19:58:46Z</time>
      </trkpt>
      <trkpt lat="49.87508" lon="2.27186">
        <ele>72.5</ele>
        <time>2022-07-30T19:58:47Z</time>
      </trkpt>
      <trkpt lat="49.87508" lon="2.27187">
        <ele>72.4</ele>
        <time>2022-07-30T19:58:49Z</time>
      </trkpt>
      <trkpt lat="49.87507" lon="2.27188">
        <ele>72.4</ele>
        <time>2022-07-30T19:58:50Z</time>
      </trkpt>
      <trkpt lat="49.87507" lon="2.27188">
        <ele>72.4</ele>
        <time>2022-07-30T19:58:51Z</time>
      </trkpt>
      <trkpt lat="49.87507" lon="2.27189">
        <ele>72.4</ele>
        <time>2022-07-30T19:58:52Z</time>
      </trkpt>
      <trkpt lat="49.87507" lon="2.27191">
        <ele>72.4</ele>
        <time>2022-07-30T19:58:53Z</time>
      </trkpt>
      <trkpt lat="49.87507" lon="2.27192">
        <ele>72.4</ele>
        <time>2022-07-30T19:58:54Z</time>
      </trkpt>
      <trkpt lat="49.87508" lon="2.27193">
        <ele>72.4</ele>
        <time>2022-07-30T19:58:55Z</time>
      </trkpt>
      <trkpt lat="49.87508" lon="2.27195">
        <ele>72.4</ele>
        <time>2022-07-30T19:58:57Z</time>
      </trkpt>
      <trkpt lat="49.87509" lon="2.27195">
        <ele>72.4</ele>
        <time>2022-07-30T19:58:58Z</time>
      </trkpt>
      <trkpt lat="49.87509" lon="2.27196">
        <ele>72.3</ele>
        <time>2022-07-30T19:58:59Z</time>
      </trkpt>
      <trkpt lat="49.87509" lon="2.27196">
        <ele>72.3</ele>
        <time>2022-07-30T19:59:00Z</time>
      </trkpt>
      <trkpt lat="49.87509" lon="2.27196">
        <ele>72.3</ele>
        <time>2022-07-30T19:59:01Z</time>
      </trkpt>
      <trkpt lat="49.87509" lon="2.27196">
        <ele>72.3</ele>
        <time>2022-07-30T19:59:02Z</time>
      </trkpt>
      <trkpt lat="49.87509" lon="2.27196">
        <ele>72.3</ele>
        <time>2022-07-30T19:59:04Z</time>
      </trkpt>
      <trkpt lat="49.87509" lon="2.27197">
        <ele>72.3</ele>
        <time>2022-07-30T19:59:05Z</time>
      </trkpt>
      <trkpt lat="49.87509" lon="2.27197">
        <ele>72.3</ele>
        <time>2022-07-30T19:59:06Z</time>
      </trkpt>
      <trkpt lat="49.87509" lon="2.27198">
        <ele>72.3</ele>
        <time>2022-07-30T19:59:07Z</time>
      </trkpt>
      <trkpt lat="49.87509" lon="2.27199">
        <ele>72.3</ele>
        <time>2022-07-30T19:59:08Z</time>
      </trkpt>
      <trkpt lat="49.87509" lon="2.272">
        <ele>72.3</ele>
        <time>2022-07-30T19:59:09Z</time>
      </trkpt>
      <trkpt lat="49.8751" lon="2.27201">
        <ele>72.3</ele>
        <time>2022-07-30T19:59:11Z</time>
      </trkpt>
      <trkpt lat="49.8751" lon="2.27202">
        <ele>72.3</ele>
        <time>2022-07-30T19:59:12Z</time>
      </trkpt>
      <trkpt lat="49.8751" lon="2.27204">
        <ele>72.3</ele>
        <time>2022-07-30T19:59:13Z</time>
      </trkpt>
      <trkpt lat="49.87511" lon="2.27205">
        <ele>72.3</ele>
        <time>2022-07-30T19:59:15Z</time>
      </trkpt>
      <trkpt lat="49.87511" lon="2.27206">
        <ele>72.3</ele>
        <time>2022-07-30T19:59:16Z</time>
      </trkpt>
      <trkpt lat="49.87511" lon="2.27207">
        <ele>72.2</ele>
        <time>2022-07-30T19:59:17Z</time>
      </trkpt>
      <trkpt lat="49.87512" lon="2.27208">
        <ele>72.2</ele>
        <time>2022-07-30T19:59:18Z</time>
      </trkpt>
      <trkpt lat="49.87512" lon="2.27209">
        <ele>72.2</ele>
        <time>2022-07-30T19:59:20Z</time>
      </trkpt>
      <trkpt lat="49.87512" lon="2.27211">
        <ele>72.2</ele>
        <time>2022-07-30T19:59:21Z</time>
      </trkpt>
      <trkpt lat="49.87512" lon="2.27213">
        <ele>72.2</ele>
        <time>2022-07-30T19:59:22Z</time>
      </trkpt>
      <trkpt lat="49.87513" lon="2.27214">
        <ele>72.2</ele>
        <time>2022-07-30T19:59:23Z</time>
      </trkpt>
      <trkpt lat="49.87513" lon="2.27215">
        <ele>72.2</ele>
        <time>2022-07-30T19:59:25Z</time>
      </trkpt>
      <trkpt lat="49.87513" lon="2.27217">
        <ele>72.2</ele>
        <time>2022-07-30T19:59:26Z</time>
      </trkpt>
      <trkpt lat="49.87513" lon="2.27218">
        <ele>72.1</ele>
        <time>2022-07-30T19:59:27Z</time>
      </trkpt>
      <trkpt lat="49.87513" lon="2.27219">
        <ele>72.1</ele>
        <time>2022-07-30T19:59:28Z</time>
      </trkpt>
      <trkpt lat="49.87513" lon="2.2722">
        <ele>72.1</ele>
        <time>2022-07-30T19:59:29Z</time>
      </trkpt>
      <trkpt lat="49.87513" lon="2.27222">
        <ele>72.1</ele>
        <time>2022-07-30T19:59:30Z</time>
      </trkpt>
      <trkpt lat="49.87513" lon="2.27224">
        <ele>72.1</ele>
        <time>2022-07-30T19:59:31Z</time>
      </trkpt>
      <trkpt lat="49.87514" lon="2.27226">
        <ele>72.1</ele>
        <time>2022-07-30T19:59:32Z</time>
      </trkpt>
      <trkpt lat="49.87514" lon="2.27231">
        <ele>72</ele>
        <time>2022-07-30T19:59:33Z</time>
      </trkpt>
      <trkpt lat="49.87514" lon="2.27233">
        <ele>72</ele>
        <time>2022-07-30T19:59:34Z</time>
      </trkpt>
      <trkpt lat="49.87515" lon="2.27238">
        <ele>72</ele>
        <time>2022-07-30T19:59:36Z</time>
      </trkpt>
      <trkpt lat="49.87515" lon="2.27239">
        <ele>71.9</ele>
        <time>2022-07-30T19:59:37Z</time>
      </trkpt>
      <trkpt lat="49.87515" lon="2.27242">
        <ele>71.9</ele>
        <time>2022-07-30T19:59:38Z</time>
      </trkpt>
      <trkpt lat="49.87516" lon="2.27244">
        <ele>71.9</ele>
        <time>2022-07-30T19:59:39Z</time>
      </trkpt>
      <trkpt lat="49.87516" lon="2.27247">
        <ele>71.9</ele>
        <time>2022-07-30T19:59:40Z</time>
      </trkpt>
      <trkpt lat="49.87517" lon="2.27249">
        <ele>71.9</ele>
        <time>2022-07-30T19:59:41Z</time>
      </trkpt>
      <trkpt lat="49.87518" lon="2.27252">
        <ele>71.8</ele>
        <time>2022-07-30T19:59:42Z</time>
      </trkpt>
      <trkpt lat="49.87518" lon="2.27255">
        <ele>71.8</ele>
        <time>2022-07-30T19:59:44Z</time>
      </trkpt>
      <trkpt lat="49.87519" lon="2.2726">
        <ele>71.7</ele>
        <time>2022-07-30T19:59:45Z</time>
      </trkpt>
      <trkpt lat="49.8752" lon="2.27262">
        <ele>71.7</ele>
        <time>2022-07-30T19:59:46Z</time>
      </trkpt>
      <trkpt lat="49.8752" lon="2.27264">
        <ele>71.7</ele>
        <time>2022-07-30T19:59:47Z</time>
      </trkpt>
      <trkpt lat="49.87521" lon="2.27265">
        <ele>71.7</ele>
        <time>2022-07-30T19:59:48Z</time>
      </trkpt>
      <trkpt lat="49.87521" lon="2.27267">
        <ele>71.6</ele>
        <time>2022-07-30T19:59:49Z</time>
      </trkpt>
      <trkpt lat="49.87521" lon="2.2727">
        <ele>71.6</ele>
        <time>2022-07-30T19:59:50Z</time>
      </trkpt>
      <trkpt lat="49.87522" lon="2.27271">
        <ele>71.6</ele>
        <time>2022-07-30T19:59:51Z</time>
      </trkpt>
      <trkpt lat="49.87522" lon="2.27273">
        <ele>71.5</ele>
        <time>2022-07-30T19:59:52Z</time>
      </trkpt>
      <trkpt lat="49.87522" lon="2.27275">
        <ele>71.5</ele>
        <time>2022-07-30T19:59:54Z</time>
      </trkpt>
      <trkpt lat="49.87522" lon="2.27277">
        <ele>71.5</ele>
        <time>2022-07-30T19:59:55Z</time>
      </trkpt>
      <trkpt lat="49.87522" lon="2.27279">
        <ele>71.4</ele>
        <time>2022-07-30T19:59:56Z</time>
      </trkpt>
      <trkpt lat="49.87521" lon="2.27281">
        <ele>71.4</ele>
        <time>2022-07-30T19:59:57Z</time>
      </trkpt>
      <trkpt lat="49.87521" lon="2.27282">
        <ele>71.4</ele>
        <time>2022-07-30T19:59:58Z</time>
      </trkpt>
      <trkpt lat="49.87521" lon="2.27284">
        <ele>71.4</ele>
        <time>2022-07-30T19:59:59Z</time>
      </trkpt>
      <trkpt lat="49.87521" lon="2.27285">
        <ele>71.3</ele>
        <time>2022-07-30T20:00:00Z</time>
      </trkpt>
      <trkpt lat="49.8752" lon="2.27287">
        <ele>71.3</ele>
        <time>2022-07-30T20:00:01Z</time>
      </trkpt>
      <trkpt lat="49.8752" lon="2.27289">
        <ele>71.3</ele>
        <time>2022-07-30T20:00:02Z</time>
      </trkpt>
      <trkpt lat="49.8752" lon="2.27292">
        <ele>71.2</ele>
        <time>2022-07-30T20:00:04Z</time>
      </trkpt>
      <trkpt lat="49.87519" lon="2.27293">
        <ele>71.2</ele>
        <time>2022-07-30T20:00:05Z</time>
      </trkpt>
      <trkpt lat="49.87519" lon="2.27295">
        <ele>71.2</ele>
        <time>2022-07-30T20:00:06Z</time>
      </trkpt>
      <trkpt lat="49.87518" lon="2.27298">
        <ele>71.1</ele>
        <time>2022-07-30T20:00:08Z</time>
      </trkpt>
      <trkpt lat="49.87518" lon="2.27299">
        <ele>71.1</ele>
        <time>2022-07-30T20:00:09Z</time>
      </trkpt>
      <trkpt lat="49.87517" lon="2.27302">
        <ele>71</ele>
        <time>2022-07-30T20:00:11Z</time>
      </trkpt>
      <trkpt lat="49.87517" lon="2.27303">
        <ele>71</ele>
        <time>2022-07-30T20:00:12Z</time>
      </trkpt>
      <trkpt lat="49.87517" lon="2.27304">
        <ele>70.9</ele>
        <time>2022-07-30T20:00:13Z</time>
      </trkpt>
      <trkpt lat="49.87516" lon="2.27305">
        <ele>70.9</ele>
        <time>2022-07-30T20:00:14Z</time>
      </trkpt>
      <trkpt lat="49.87516" lon="2.27306">
        <ele>70.9</ele>
        <time>2022-07-30T20:00:15Z</time>
      </trkpt>
      <trkpt lat="49.87516" lon="2.27306">
        <ele>70.9</ele>
        <time>2022-07-30T20:00:16Z</time>
      </trkpt>
      <trkpt lat="49.87516" lon="2.27306">
        <ele>70.9</ele>
        <time>2022-07-30T20:00:17Z</time>
      </trkpt>
      <trkpt lat="49.87515" lon="2.27306">
        <ele>70.9</ele>
        <time>2022-07-30T20:00:18Z</time>
      </trkpt>
      <trkpt lat="49.87515" lon="2.27305">
        <ele>70.9</ele>
        <time>2022-07-30T20:00:19Z</time>
      </trkpt>
      <trkpt lat="49.87515" lon="2.27305">
        <ele>70.9</ele>
        <time>2022-07-30T20:00:20Z</time>
      </trkpt>
      <trkpt lat="49.87515" lon="2.27305">
        <ele>70.9</ele>
        <time>2022-07-30T20:00:21Z</time>
      </trkpt>
      <trkpt lat="49.87515" lon="2.27305">
        <ele>70.8</ele>
        <time>2022-07-30T20:00:22Z</time>
      </trkpt>
      <trkpt lat="49.87515" lon="2.27304">
        <ele>70.8</ele>
        <time>2022-07-30T20:00:23Z</time>
      </trkpt>
      <trkpt lat="49.87515" lon="2.27304">
        <ele>70.8</ele>
        <time>2022-07-30T20:00:24Z</time>
      </trkpt>
      <trkpt lat="49.87515" lon="2.27304">
        <ele>70.8</ele>
        <time>2022-07-30T20:00:25Z</time>
      </trkpt>
      <trkpt lat="49.87515" lon="2.27303">
        <ele>70.8</ele>
        <time>2022-07-30T20:00:26Z</time>
      </trkpt>
      <trkpt lat="49.87515" lon="2.27303">
        <ele>70.8</ele>
        <time>2022-07-30T20:00:27Z</time>
      </trkpt>
      <trkpt lat="49.87515" lon="2.27303">
        <ele>70.8</ele>
        <time>2022-07-30T20:00:28Z</time>
      </trkpt>
      <trkpt lat="49.87515" lon="2.27302">
        <ele>70.8</ele>
        <time>2022-07-30T20:00:29Z</time>
      </trkpt>
      <trkpt lat="49.87515" lon="2.27302">
        <ele>70.8</ele>
        <time>2022-07-30T20:00:30Z</time>
      </trkpt>
      <trkpt lat="49.87515" lon="2.27301">
        <ele>70.8</ele>
        <time>2022-07-30T20:00:31Z</time>
      </trkpt>
      <trkpt lat="49.87515" lon="2.273">
        <ele>70.7</ele>
        <time>2022-07-30T20:00:32Z</time>
      </trkpt>
      <trkpt lat="49.87515" lon="2.273">
        <ele>70.7</ele>
        <time>2022-07-30T20:00:33Z</time>
      </trkpt>
      <trkpt lat="49.87515" lon="2.273">
        <ele>70.7</ele>
        <time>2022-07-30T20:00:34Z</time>
      </trkpt>
      <trkpt lat="49.87515" lon="2.273">
        <ele>70.7</ele>
        <time>2022-07-30T20:00:35Z</time>
      </trkpt>
      <trkpt lat="49.87515" lon="2.27299">
        <ele>70.7</ele>
        <time>2022-07-30T20:00:36Z</time>
      </trkpt>
      <trkpt lat="49.87515" lon="2.27299">
        <ele>70.7</ele>
        <time>2022-07-30T20:00:37Z</time>
      </trkpt>
      <trkpt lat="49.87515" lon="2.27299">
        <ele>70.7</ele>
        <time>2022-07-30T20:00:38Z</time>
      </trkpt>
      <trkpt lat="49.87515" lon="2.27298">
        <ele>70.7</ele>
        <time>2022-07-30T20:00:39Z</time>
      </trkpt>
      <trkpt lat="49.87516" lon="2.27298">
        <ele>70.7</ele>
        <time>2022-07-30T20:00:40Z</time>
      </trkpt>
      <trkpt lat="49.87515" lon="2.273">
        <ele>70.6</ele>
        <time>2022-07-30T20:00:41Z</time>
      </trkpt>
      <trkpt lat="49.87515" lon="2.27301">
        <ele>70.6</ele>
        <time>2022-07-30T20:00:42Z</time>
      </trkpt>
      <trkpt lat="49.87515" lon="2.27301">
        <ele>70.6</ele>
        <time>2022-07-30T20:00:43Z</time>
      </trkpt>
      <trkpt lat="49.87515" lon="2.27301">
        <ele>70.6</ele>
        <time>2022-07-30T20:00:44Z</time>
      </trkpt>
      <trkpt lat="49.87515" lon="2.27302">
        <ele>70.6</ele>
        <time>2022-07-30T20:00:46Z</time>
      </trkpt>
      <trkpt lat="49.87515" lon="2.27303">
        <ele>70.5</ele>
        <time>2022-07-30T20:00:47Z</time>
      </trkpt>
      <trkpt lat="49.87516" lon="2.27304">
        <ele>70.5</ele>
        <time>2022-07-30T20:00:48Z</time>
      </trkpt>
      <trkpt lat="49.87516" lon="2.27305">
        <ele>70.5</ele>
        <time>2022-07-30T20:00:50Z</time>
      </trkpt>
      <trkpt lat="49.87516" lon="2.27306">
        <ele>70.5</ele>
        <time>2022-07-30T20:00:51Z</time>
      </trkpt>
      <trkpt lat="49.87517" lon="2.27307">
        <ele>70.4</ele>
        <time>2022-07-30T20:00:52Z</time>
      </trkpt>
      <trkpt lat="49.87517" lon="2.27308">
        <ele>70.4</ele>
        <time>2022-07-30T20:00:54Z</time>
      </trkpt>
      <trkpt lat="49.87517" lon="2.27309">
        <ele>70.4</ele>
        <time>2022-07-30T20:00:55Z</time>
      </trkpt>
      <trkpt lat="49.87517" lon="2.2731">
        <ele>70.4</ele>
        <time>2022-07-30T20:00:56Z</time>
      </trkpt>
      <trkpt lat="49.87517" lon="2.27311">
        <ele>70.3</ele>
        <time>2022-07-30T20:00:57Z</time>
      </trkpt>
      <trkpt lat="49.87517" lon="2.27311">
        <ele>70.3</ele>
        <time>2022-07-30T20:00:58Z</time>
      </trkpt>
      <trkpt lat="49.87517" lon="2.27312">
        <ele>70.3</ele>
        <time>2022-07-30T20:00:59Z</time>
      </trkpt>
      <trkpt lat="49.87517" lon="2.27313">
        <ele>70.3</ele>
        <time>2022-07-30T20:01:00Z</time>
      </trkpt>
      <trkpt lat="49.87517" lon="2.27314">
        <ele>70.2</ele>
        <time>2022-07-30T20:01:01Z</time>
      </trkpt>
      <trkpt lat="49.87517" lon="2.27316">
        <ele>70.2</ele>
        <time>2022-07-30T20:01:03Z</time>
      </trkpt>
      <trkpt lat="49.87517" lon="2.27317">
        <ele>70.2</ele>
        <time>2022-07-30T20:01:04Z</time>
      </trkpt>
      <trkpt lat="49.87517" lon="2.27319">
        <ele>70.1</ele>
        <time>2022-07-30T20:01:06Z</time>
      </trkpt>
      <trkpt lat="49.87517" lon="2.27321">
        <ele>70.1</ele>
        <time>2022-07-30T20:01:07Z</time>
      </trkpt>
      <trkpt lat="49.87518" lon="2.27322">
        <ele>70</ele>
        <time>2022-07-30T20:01:08Z</time>
      </trkpt>
      <trkpt lat="49.87518" lon="2.27323">
        <ele>70</ele>
        <time>2022-07-30T20:01:09Z</time>
      </trkpt>
      <trkpt lat="49.87519" lon="2.27325">
        <ele>70</ele>
        <time>2022-07-30T20:01:11Z</time>
      </trkpt>
      <trkpt lat="49.87519" lon="2.27325">
        <ele>69.9</ele>
        <time>2022-07-30T20:01:12Z</time>
      </trkpt>
      <trkpt lat="49.87519" lon="2.27326">
        <ele>69.9</ele>
        <time>2022-07-30T20:01:13Z</time>
      </trkpt>
      <trkpt lat="49.87519" lon="2.27326">
        <ele>69.9</ele>
        <time>2022-07-30T20:01:14Z</time>
      </trkpt>
      <trkpt lat="49.87519" lon="2.27326">
        <ele>69.9</ele>
        <time>2022-07-30T20:01:15Z</time>
      </trkpt>
      <trkpt lat="49.87519" lon="2.27327">
        <ele>69.9</ele>
        <time>2022-07-30T20:01:16Z</time>
      </trkpt>
      <trkpt lat="49.8752" lon="2.27328">
        <ele>69.9</ele>
        <time>2022-07-30T20:01:18Z</time>
      </trkpt>
      <trkpt lat="49.8752" lon="2.27329">
        <ele>69.8</ele>
        <time>2022-07-30T20:01:19Z</time>
      </trkpt>
      <trkpt lat="49.87521" lon="2.2733">
        <ele>69.8</ele>
        <time>2022-07-30T20:01:20Z</time>
      </trkpt>
      <trkpt lat="49.87522" lon="2.27331">
        <ele>69.8</ele>
        <time>2022-07-30T20:01:21Z</time>
      </trkpt>
      <trkpt lat="49.87523" lon="2.27333">
        <ele>69.7</ele>
        <time>2022-07-30T20:01:23Z</time>
      </trkpt>
      <trkpt lat="49.87523" lon="2.27334">
        <ele>69.7</ele>
        <time>2022-07-30T20:01:24Z</time>
      </trkpt>
      <trkpt lat="49.87524" lon="2.27335">
        <ele>69.6</ele>
        <time>2022-07-30T20:01:25Z</time>
      </trkpt>
      <trkpt lat="49.87524" lon="2.27336">
        <ele>69.6</ele>
        <time>2022-07-30T20:01:26Z</time>
      </trkpt>
      <trkpt lat="49.87525" lon="2.27338">
        <ele>69.5</ele>
        <time>2022-07-30T20:01:28Z</time>
      </trkpt>
      <trkpt lat="49.87526" lon="2.2734">
        <ele>69.5</ele>
        <time>2022-07-30T20:01:29Z</time>
      </trkpt>
      <trkpt lat="49.87527" lon="2.27341">
        <ele>69.4</ele>
        <time>2022-07-30T20:01:30Z</time>
      </trkpt>
      <trkpt lat="49.87527" lon="2.27342">
        <ele>69.4</ele>
        <time>2022-07-30T20:01:31Z</time>
      </trkpt>
      <trkpt lat="49.87528" lon="2.27344">
        <ele>69.4</ele>
        <time>2022-07-30T20:01:32Z</time>
      </trkpt>
      <trkpt lat="49.87528" lon="2.27345">
        <ele>69.3</ele>
        <time>2022-07-30T20:01:33Z</time>
      </trkpt>
      <trkpt lat="49.87529" lon="2.27347">
        <ele>69.3</ele>
        <time>2022-07-30T20:01:34Z</time>
      </trkpt>
      <trkpt lat="49.8753" lon="2.27347">
        <ele>69.3</ele>
        <time>2022-07-30T20:01:35Z</time>
      </trkpt>
      <trkpt lat="49.8753" lon="2.27348">
        <ele>69.3</ele>
        <time>2022-07-30T20:01:36Z</time>
      </trkpt>
      <trkpt lat="49.8753" lon="2.27349">
        <ele>69.2</ele>
        <time>2022-07-30T20:01:37Z</time>
      </trkpt>
      <trkpt lat="49.8753" lon="2.27349">
        <ele>69.2</ele>
        <time>2022-07-30T20:01:38Z</time>
      </trkpt>
      <trkpt lat="49.8753" lon="2.2735">
        <ele>69.2</ele>
        <time>2022-07-30T20:01:39Z</time>
      </trkpt>
      <trkpt lat="49.8753" lon="2.27351">
        <ele>69.2</ele>
        <time>2022-07-30T20:01:40Z</time>
      </trkpt>
      <trkpt lat="49.87531" lon="2.27353">
        <ele>69.2</ele>
        <time>2022-07-30T20:01:42Z</time>
      </trkpt>
      <trkpt lat="49.87531" lon="2.27353">
        <ele>69.1</ele>
        <time>2022-07-30T20:01:43Z</time>
      </trkpt>
      <trkpt lat="49.87531" lon="2.27354">
        <ele>69.1</ele>
        <time>2022-07-30T20:01:44Z</time>
      </trkpt>
      <trkpt lat="49.87532" lon="2.27354">
        <ele>69.1</ele>
        <time>2022-07-30T20:01:45Z</time>
      </trkpt>
      <trkpt lat="49.87532" lon="2.27355">
        <ele>69.1</ele>
        <time>2022-07-30T20:01:46Z</time>
      </trkpt>
      <trkpt lat="49.87532" lon="2.27356">
        <ele>69.1</ele>
        <time>2022-07-30T20:01:48Z</time>
      </trkpt>
      <trkpt lat="49.87533" lon="2.27357">
        <ele>69.1</ele>
        <time>2022-07-30T20:01:49Z</time>
      </trkpt>
      <trkpt lat="49.87533" lon="2.27358">
        <ele>69</ele>
        <time>2022-07-30T20:01:50Z</time>
      </trkpt>
      <trkpt lat="49.87534" lon="2.27359">
        <ele>69</ele>
        <time>2022-07-30T20:01:51Z</time>
      </trkpt>
      <trkpt lat="49.87534" lon="2.27361">
        <ele>69</ele>
        <time>2022-07-30T20:01:52Z</time>
      </trkpt>
      <trkpt lat="49.87535" lon="2.27362">
        <ele>69</ele>
        <time>2022-07-30T20:01:53Z</time>
      </trkpt>
      <trkpt lat="49.87535" lon="2.27361">
        <ele>69</ele>
        <time>2022-07-30T20:01:54Z</time>
      </trkpt>
      <trkpt lat="49.87535" lon="2.27362">
        <ele>69</ele>
        <time>2022-07-30T20:01:55Z</time>
      </trkpt>
      <trkpt lat="49.87536" lon="2.27364">
        <ele>69</ele>
        <time>2022-07-30T20:01:56Z</time>
      </trkpt>
      <trkpt lat="49.87537" lon="2.27366">
        <ele>69</ele>
        <time>2022-07-30T20:01:57Z</time>
      </trkpt>
      <trkpt lat="49.87538" lon="2.27368">
        <ele>69</ele>
        <time>2022-07-30T20:01:58Z</time>
      </trkpt>
      <trkpt lat="49.87538" lon="2.2737">
        <ele>68.9</ele>
        <time>2022-07-30T20:01:59Z</time>
      </trkpt>
      <trkpt lat="49.87539" lon="2.27371">
        <ele>68.9</ele>
        <time>2022-07-30T20:02:00Z</time>
      </trkpt>
      <trkpt lat="49.87539" lon="2.2737">
        <ele>68.9</ele>
        <time>2022-07-30T20:02:02Z</time>
      </trkpt>
      <trkpt lat="49.8754" lon="2.2737">
        <ele>68.9</ele>
        <time>2022-07-30T20:02:03Z</time>
      </trkpt>
      <trkpt lat="49.8754" lon="2.27371">
        <ele>68.9</ele>
        <time>2022-07-30T20:02:04Z</time>
      </trkpt>
      <trkpt lat="49.87541" lon="2.27372">
        <ele>68.9</ele>
        <time>2022-07-30T20:02:05Z</time>
      </trkpt>
      <trkpt lat="49.87541" lon="2.27373">
        <ele>68.9</ele>
        <time>2022-07-30T20:02:06Z</time>
      </trkpt>
      <trkpt lat="49.87542" lon="2.27375">
        <ele>68.8</ele>
        <time>2022-07-30T20:02:08Z</time>
      </trkpt>
      <trkpt lat="49.87543" lon="2.27376">
        <ele>68.8</ele>
        <time>2022-07-30T20:02:09Z</time>
      </trkpt>
      <trkpt lat="49.87543" lon="2.27378">
        <ele>68.8</ele>
        <time>2022-07-30T20:02:10Z</time>
      </trkpt>
      <trkpt lat="49.87544" lon="2.27379">
        <ele>68.8</ele>
        <time>2022-07-30T20:02:11Z</time>
      </trkpt>
      <trkpt lat="49.87544" lon="2.2738">
        <ele>68.8</ele>
        <time>2022-07-30T20:02:12Z</time>
      </trkpt>
      <trkpt lat="49.87546" lon="2.27382">
        <ele>68.7</ele>
        <time>2022-07-30T20:02:13Z</time>
      </trkpt>
      <trkpt lat="49.87546" lon="2.27383">
        <ele>68.7</ele>
        <time>2022-07-30T20:02:14Z</time>
      </trkpt>
      <trkpt lat="49.87547" lon="2.27384">
        <ele>68.7</ele>
        <time>2022-07-30T20:02:15Z</time>
      </trkpt>
      <trkpt lat="49.87547" lon="2.27385">
        <ele>68.7</ele>
        <time>2022-07-30T20:02:17Z</time>
      </trkpt>
      <trkpt lat="49.87548" lon="2.27387">
        <ele>68.7</ele>
        <time>2022-07-30T20:02:18Z</time>
      </trkpt>
      <trkpt lat="49.87548" lon="2.27388">
        <ele>68.7</ele>
        <time>2022-07-30T20:02:19Z</time>
      </trkpt>
      <trkpt lat="49.87549" lon="2.2739">
        <ele>68.6</ele>
        <time>2022-07-30T20:02:20Z</time>
      </trkpt>
      <trkpt lat="49.8755" lon="2.27391">
        <ele>68.6</ele>
        <time>2022-07-30T20:02:22Z</time>
      </trkpt>
      <trkpt lat="49.87551" lon="2.27391">
        <ele>68.6</ele>
        <time>2022-07-30T20:02:23Z</time>
      </trkpt>
      <trkpt lat="49.87552" lon="2.27391">
        <ele>68.6</ele>
        <time>2022-07-30T20:02:24Z</time>
      </trkpt>
      <trkpt lat="49.87553" lon="2.27392">
        <ele>68.6</ele>
        <time>2022-07-30T20:02:25Z</time>
      </trkpt>
      <trkpt lat="49.87554" lon="2.27393">
        <ele>68.6</ele>
        <time>2022-07-30T20:02:26Z</time>
      </trkpt>
      <trkpt lat="49.87554" lon="2.27394">
        <ele>68.5</ele>
        <time>2022-07-30T20:02:28Z</time>
      </trkpt>
      <trkpt lat="49.87555" lon="2.27395">
        <ele>68.5</ele>
        <time>2022-07-30T20:02:29Z</time>
      </trkpt>
      <trkpt lat="49.87555" lon="2.27398">
        <ele>68.5</ele>
        <time>2022-07-30T20:02:30Z</time>
      </trkpt>
      <trkpt lat="49.87556" lon="2.27399">
        <ele>68.5</ele>
        <time>2022-07-30T20:02:31Z</time>
      </trkpt>
      <trkpt lat="49.87556" lon="2.274">
        <ele>68.5</ele>
        <time>2022-07-30T20:02:32Z</time>
      </trkpt>
      <trkpt lat="49.87556" lon="2.27401">
        <ele>68.5</ele>
        <time>2022-07-30T20:02:33Z</time>
      </trkpt>
      <trkpt lat="49.87556" lon="2.27403">
        <ele>68.4</ele>
        <time>2022-07-30T20:02:34Z</time>
      </trkpt>
      <trkpt lat="49.87556" lon="2.27404">
        <ele>68.4</ele>
        <time>2022-07-30T20:02:36Z</time>
      </trkpt>
      <trkpt lat="49.87557" lon="2.27406">
        <ele>68.4</ele>
        <time>2022-07-30T20:02:37Z</time>
      </trkpt>
      <trkpt lat="49.87557" lon="2.27407">
        <ele>68.4</ele>
        <time>2022-07-30T20:02:38Z</time>
      </trkpt>
      <trkpt lat="49.87558" lon="2.2741">
        <ele>68.4</ele>
        <time>2022-07-30T20:02:39Z</time>
      </trkpt>
      <trkpt lat="49.87558" lon="2.27411">
        <ele>68.4</ele>
        <time>2022-07-30T20:02:41Z</time>
      </trkpt>
      <trkpt lat="49.87559" lon="2.27412">
        <ele>68.3</ele>
        <time>2022-07-30T20:02:42Z</time>
      </trkpt>
      <trkpt lat="49.87559" lon="2.27414">
        <ele>68.3</ele>
        <time>2022-07-30T20:02:43Z</time>
      </trkpt>
      <trkpt lat="49.8756" lon="2.27415">
        <ele>68.3</ele>
        <time>2022-07-30T20:02:44Z</time>
      </trkpt>
      <trkpt lat="49.87561" lon="2.27417">
        <ele>68.3</ele>
        <time>2022-07-30T20:02:46Z</time>
      </trkpt>
      <trkpt lat="49.87561" lon="2.27418">
        <ele>68.3</ele>
        <time>2022-07-30T20:02:47Z</time>
      </trkpt>
      <trkpt lat="49.87562" lon="2.27421">
        <ele>68.2</ele>
        <time>2022-07-30T20:02:48Z</time>
      </trkpt>
      <trkpt lat="49.87563" lon="2.27422">
        <ele>68.2</ele>
        <time>2022-07-30T20:02:49Z</time>
      </trkpt>
      <trkpt lat="49.87563" lon="2.27424">
        <ele>68.2</ele>
        <time>2022-07-30T20:02:50Z</time>
      </trkpt>
      <trkpt lat="49.87564" lon="2.27425">
        <ele>68.2</ele>
        <time>2022-07-30T20:02:51Z</time>
      </trkpt>
      <trkpt lat="49.87564" lon="2.27427">
        <ele>68.2</ele>
        <time>2022-07-30T20:02:53Z</time>
      </trkpt>
      <trkpt lat="49.87565" lon="2.27429">
        <ele>68.2</ele>
        <time>2022-07-30T20:02:54Z</time>
      </trkpt>
      <trkpt lat="49.87566" lon="2.27431">
        <ele>68.1</ele>
        <time>2022-07-30T20:02:55Z</time>
      </trkpt>
      <trkpt lat="49.87567" lon="2.27432">
        <ele>68.1</ele>
        <time>2022-07-30T20:02:56Z</time>
      </trkpt>
      <trkpt lat="49.87569" lon="2.27434">
        <ele>68.1</ele>
        <time>2022-07-30T20:02:57Z</time>
      </trkpt>
      <trkpt lat="49.8757" lon="2.27436">
        <ele>68.1</ele>
        <time>2022-07-30T20:02:58Z</time>
      </trkpt>
      <trkpt lat="49.87571" lon="2.27437">
        <ele>68</ele>
        <time>2022-07-30T20:03:00Z</time>
      </trkpt>
      <trkpt lat="49.87572" lon="2.27439">
        <ele>68</ele>
        <time>2022-07-30T20:03:01Z</time>
      </trkpt>
      <trkpt lat="49.87574" lon="2.27441">
        <ele>68</ele>
        <time>2022-07-30T20:03:02Z</time>
      </trkpt>
      <trkpt lat="49.87575" lon="2.27442">
        <ele>67.9</ele>
        <time>2022-07-30T20:03:03Z</time>
      </trkpt>
      <trkpt lat="49.87576" lon="2.27444">
        <ele>67.9</ele>
        <time>2022-07-30T20:03:04Z</time>
      </trkpt>
      <trkpt lat="49.87576" lon="2.27445">
        <ele>67.9</ele>
        <time>2022-07-30T20:03:05Z</time>
      </trkpt>
      <trkpt lat="49.87577" lon="2.27447">
        <ele>67.9</ele>
        <time>2022-07-30T20:03:06Z</time>
      </trkpt>
      <trkpt lat="49.87578" lon="2.27448">
        <ele>67.9</ele>
        <time>2022-07-30T20:03:07Z</time>
      </trkpt>
      <trkpt lat="49.87578" lon="2.27449">
        <ele>67.8</ele>
        <time>2022-07-30T20:03:08Z</time>
      </trkpt>
      <trkpt lat="49.87579" lon="2.27449">
        <ele>67.8</ele>
        <time>2022-07-30T20:03:09Z</time>
      </trkpt>
      <trkpt lat="49.8758" lon="2.2745">
        <ele>67.8</ele>
        <time>2022-07-30T20:03:10Z</time>
      </trkpt>
      <trkpt lat="49.87581" lon="2.2745">
        <ele>67.8</ele>
        <time>2022-07-30T20:03:11Z</time>
      </trkpt>
      <trkpt lat="49.87581" lon="2.27452">
        <ele>67.8</ele>
        <time>2022-07-30T20:03:12Z</time>
      </trkpt>
      <trkpt lat="49.87582" lon="2.27453">
        <ele>67.7</ele>
        <time>2022-07-30T20:03:13Z</time>
      </trkpt>
      <trkpt lat="49.87584" lon="2.27455">
        <ele>67.7</ele>
        <time>2022-07-30T20:03:15Z</time>
      </trkpt>
      <trkpt lat="49.87584" lon="2.27456">
        <ele>67.7</ele>
        <time>2022-07-30T20:03:16Z</time>
      </trkpt>
      <trkpt lat="49.87585" lon="2.27456">
        <ele>67.7</ele>
        <time>2022-07-30T20:03:17Z</time>
      </trkpt>
      <trkpt lat="49.87586" lon="2.27457">
        <ele>67.6</ele>
        <time>2022-07-30T20:03:18Z</time>
      </trkpt>
      <trkpt lat="49.87587" lon="2.27459">
        <ele>67.6</ele>
        <time>2022-07-30T20:03:20Z</time>
      </trkpt>
      <trkpt lat="49.87588" lon="2.2746">
        <ele>67.6</ele>
        <time>2022-07-30T20:03:21Z</time>
      </trkpt>
      <trkpt lat="49.87589" lon="2.27461">
        <ele>67.6</ele>
        <time>2022-07-30T20:03:22Z</time>
      </trkpt>
      <trkpt lat="49.87591" lon="2.27462">
        <ele>67.6</ele>
        <time>2022-07-30T20:03:23Z</time>
      </trkpt>
      <trkpt lat="49.87591" lon="2.27463">
        <ele>67.6</ele>
        <time>2022-07-30T20:03:24Z</time>
      </trkpt>
      <trkpt lat="49.87592" lon="2.27463">
        <ele>67.6</ele>
        <time>2022-07-30T20:03:25Z</time>
      </trkpt>
      <trkpt lat="49.87592" lon="2.27464">
        <ele>67.5</ele>
        <time>2022-07-30T20:03:26Z</time>
      </trkpt>
      <trkpt lat="49.87594" lon="2.27466">
        <ele>67.5</ele>
        <time>2022-07-30T20:03:28Z</time>
      </trkpt>
      <trkpt lat="49.87594" lon="2.27466">
        <ele>67.5</ele>
        <time>2022-07-30T20:03:29Z</time>
      </trkpt>
      <trkpt lat="49.87595" lon="2.27467">
        <ele>67.5</ele>
        <time>2022-07-30T20:03:30Z</time>
      </trkpt>
      <trkpt lat="49.87596" lon="2.27468">
        <ele>67.5</ele>
        <time>2022-07-30T20:03:31Z</time>
      </trkpt>
      <trkpt lat="49.87597" lon="2.27469">
        <ele>67.5</ele>
        <time>2022-07-30T20:03:32Z</time>
      </trkpt>
      <trkpt lat="49.87598" lon="2.27471">
        <ele>67.4</ele>
        <time>2022-07-30T20:03:33Z</time>
      </trkpt>
      <trkpt lat="49.87599" lon="2.27473">
        <ele>67.4</ele>
        <time>2022-07-30T20:03:35Z</time>
      </trkpt>
      <trkpt lat="49.876" lon="2.27475">
        <ele>67.4</ele>
        <time>2022-07-30T20:03:36Z</time>
      </trkpt>
      <trkpt lat="49.87601" lon="2.27476">
        <ele>67.4</ele>
        <time>2022-07-30T20:03:37Z</time>
      </trkpt>
      <trkpt lat="49.87601" lon="2.27476">
        <ele>67.4</ele>
        <time>2022-07-30T20:03:39Z</time>
      </trkpt>
      <trkpt lat="49.87601" lon="2.27476">
        <ele>67.4</ele>
        <time>2022-07-30T20:03:40Z</time>
      </trkpt>
      <trkpt lat="49.87602" lon="2.27477">
        <ele>67.4</ele>
        <time>2022-07-30T20:03:41Z</time>
      </trkpt>
      <trkpt lat="49.87602" lon="2.27478">
        <ele>67.3</ele>
        <time>2022-07-30T20:03:42Z</time>
      </trkpt>
      <trkpt lat="49.87603" lon="2.27479">
        <ele>67.3</ele>
        <time>2022-07-30T20:03:43Z</time>
      </trkpt>
      <trkpt lat="49.87604" lon="2.27481">
        <ele>67.3</ele>
        <time>2022-07-30T20:03:44Z</time>
      </trkpt>
      <trkpt lat="49.87604" lon="2.27482">
        <ele>67.3</ele>
        <time>2022-07-30T20:03:45Z</time>
      </trkpt>
      <trkpt lat="49.87605" lon="2.27483">
        <ele>67.3</ele>
        <time>2022-07-30T20:03:46Z</time>
      </trkpt>
      <trkpt lat="49.87606" lon="2.27485">
        <ele>67.3</ele>
        <time>2022-07-30T20:03:47Z</time>
      </trkpt>
      <trkpt lat="49.87608" lon="2.27488">
        <ele>67.2</ele>
        <time>2022-07-30T20:03:49Z</time>
      </trkpt>
      <trkpt lat="49.87609" lon="2.2749">
        <ele>67.2</ele>
        <time>2022-07-30T20:03:50Z</time>
      </trkpt>
      <trkpt lat="49.87609" lon="2.27492">
        <ele>67.2</ele>
        <time>2022-07-30T20:03:51Z</time>
      </trkpt>
      <trkpt lat="49.8761" lon="2.27493">
        <ele>67.2</ele>
        <time>2022-07-30T20:03:52Z</time>
      </trkpt>
      <trkpt lat="49.87611" lon="2.27495">
        <ele>67.1</ele>
        <time>2022-07-30T20:03:53Z</time>
      </trkpt>
      <trkpt lat="49.87612" lon="2.27496">
        <ele>67.1</ele>
        <time>2022-07-30T20:03:54Z</time>
      </trkpt>
      <trkpt lat="49.87613" lon="2.27498">
        <ele>67.1</ele>
        <time>2022-07-30T20:03:55Z</time>
      </trkpt>
      <trkpt lat="49.87614" lon="2.27501">
        <ele>67.1</ele>
        <time>2022-07-30T20:03:57Z</time>
      </trkpt>
      <trkpt lat="49.87615" lon="2.27503">
        <ele>67.1</ele>
        <time>2022-07-30T20:03:58Z</time>
      </trkpt>
      <trkpt lat="49.87616" lon="2.27507">
        <ele>67</ele>
        <time>2022-07-30T20:04:00Z</time>
      </trkpt>
      <trkpt lat="49.87616" lon="2.27508">
        <ele>67</ele>
        <time>2022-07-30T20:04:01Z</time>
      </trkpt>
      <trkpt lat="49.87616" lon="2.27507">
        <ele>67</ele>
        <time>2022-07-30T20:04:02Z</time>
      </trkpt>
      <trkpt lat="49.87616" lon="2.27508">
        <ele>67</ele>
        <time>2022-07-30T20:04:04Z</time>
      </trkpt>
      <trkpt lat="49.87617" lon="2.2751">
        <ele>67</ele>
        <time>2022-07-30T20:04:05Z</time>
      </trkpt>
      <trkpt lat="49.87618" lon="2.27512">
        <ele>67</ele>
        <time>2022-07-30T20:04:06Z</time>
      </trkpt>
      <trkpt lat="49.87619" lon="2.27514">
        <ele>67</ele>
        <time>2022-07-30T20:04:08Z</time>
      </trkpt>
      <trkpt lat="49.8762" lon="2.27515">
        <ele>66.9</ele>
        <time>2022-07-30T20:04:09Z</time>
      </trkpt>
      <trkpt lat="49.8762" lon="2.27516">
        <ele>66.9</ele>
        <time>2022-07-30T20:04:10Z</time>
      </trkpt>
      <trkpt lat="49.87621" lon="2.27517">
        <ele>66.9</ele>
        <time>2022-07-30T20:04:11Z</time>
      </trkpt>
      <trkpt lat="49.8762" lon="2.27517">
        <ele>66.9</ele>
        <time>2022-07-30T20:04:12Z</time>
      </trkpt>
      <trkpt lat="49.8762" lon="2.27517">
        <ele>66.9</ele>
        <time>2022-07-30T20:04:13Z</time>
      </trkpt>
      <trkpt lat="49.87621" lon="2.27518">
        <ele>66.9</ele>
        <time>2022-07-30T20:04:14Z</time>
      </trkpt>
      <trkpt lat="49.87622" lon="2.27519">
        <ele>66.9</ele>
        <time>2022-07-30T20:04:16Z</time>
      </trkpt>
      <trkpt lat="49.87622" lon="2.2752">
        <ele>66.9</ele>
        <time>2022-07-30T20:04:17Z</time>
      </trkpt>
      <trkpt lat="49.87623" lon="2.27521">
        <ele>66.9</ele>
        <time>2022-07-30T20:04:18Z</time>
      </trkpt>
      <trkpt lat="49.87623" lon="2.27523">
        <ele>66.9</ele>
        <time>2022-07-30T20:04:19Z</time>
      </trkpt>
      <trkpt lat="49.87624" lon="2.27524">
        <ele>66.9</ele>
        <time>2022-07-30T20:04:20Z</time>
      </trkpt>
      <trkpt lat="49.87624" lon="2.27526">
        <ele>66.9</ele>
        <time>2022-07-30T20:04:21Z</time>
      </trkpt>
      <trkpt lat="49.87625" lon="2.27527">
        <ele>66.9</ele>
        <time>2022-07-30T20:04:23Z</time>
      </trkpt>
      <trkpt lat="49.87625" lon="2.27528">
        <ele>66.8</ele>
        <time>2022-07-30T20:04:24Z</time>
      </trkpt>
      <trkpt lat="49.87626" lon="2.27529">
        <ele>66.8</ele>
        <time>2022-07-30T20:04:25Z</time>
      </trkpt>
      <trkpt lat="49.87626" lon="2.27531">
        <ele>66.8</ele>
        <time>2022-07-30T20:04:27Z</time>
      </trkpt>
      <trkpt lat="49.87627" lon="2.27534">
        <ele>66.8</ele>
        <time>2022-07-30T20:04:28Z</time>
      </trkpt>
      <trkpt lat="49.87628" lon="2.27535">
        <ele>66.8</ele>
        <time>2022-07-30T20:04:30Z</time>
      </trkpt>
      <trkpt lat="49.87628" lon="2.27535">
        <ele>66.8</ele>
        <time>2022-07-30T20:04:31Z</time>
      </trkpt>
      <trkpt lat="49.87629" lon="2.27537">
        <ele>66.8</ele>
        <time>2022-07-30T20:04:32Z</time>
      </trkpt>
      <trkpt lat="49.8763" lon="2.27538">
        <ele>66.8</ele>
        <time>2022-07-30T20:04:33Z</time>
      </trkpt>
      <trkpt lat="49.87631" lon="2.27539">
        <ele>66.8</ele>
        <time>2022-07-30T20:04:34Z</time>
      </trkpt>
      <trkpt lat="49.87632" lon="2.2754">
        <ele>66.8</ele>
        <time>2022-07-30T20:04:35Z</time>
      </trkpt>
      <trkpt lat="49.87632" lon="2.27541">
        <ele>66.7</ele>
        <time>2022-07-30T20:04:36Z</time>
      </trkpt>
      <trkpt lat="49.87633" lon="2.27542">
        <ele>66.7</ele>
        <time>2022-07-30T20:04:38Z</time>
      </trkpt>
      <trkpt lat="49.87634" lon="2.27544">
        <ele>66.7</ele>
        <time>2022-07-30T20:04:39Z</time>
      </trkpt>
      <trkpt lat="49.87634" lon="2.27544">
        <ele>66.7</ele>
        <time>2022-07-30T20:04:40Z</time>
      </trkpt>
      <trkpt lat="49.87635" lon="2.27545">
        <ele>66.7</ele>
        <time>2022-07-30T20:04:41Z</time>
      </trkpt>
      <trkpt lat="49.87635" lon="2.27546">
        <ele>66.7</ele>
        <time>2022-07-30T20:04:42Z</time>
      </trkpt>
      <trkpt lat="49.87637" lon="2.27548">
        <ele>66.7</ele>
        <time>2022-07-30T20:04:44Z</time>
      </trkpt>
      <trkpt lat="49.87637" lon="2.2755">
        <ele>66.7</ele>
        <time>2022-07-30T20:04:45Z</time>
      </trkpt>
      <trkpt lat="49.87638" lon="2.27551">
        <ele>66.7</ele>
        <time>2022-07-30T20:04:46Z</time>
      </trkpt>
      <trkpt lat="49.8764" lon="2.27554">
        <ele>66.7</ele>
        <time>2022-07-30T20:04:48Z</time>
      </trkpt>
      <trkpt lat="49.87641" lon="2.27556">
        <ele>66.6</ele>
        <time>2022-07-30T20:04:49Z</time>
      </trkpt>
      <trkpt lat="49.87642" lon="2.27557">
        <ele>66.6</ele>
        <time>2022-07-30T20:04:50Z</time>
      </trkpt>
      <trkpt lat="49.87642" lon="2.27558">
        <ele>66.6</ele>
        <time>2022-07-30T20:04:51Z</time>
      </trkpt>
      <trkpt lat="49.87643" lon="2.2756">
        <ele>66.6</ele>
        <time>2022-07-30T20:04:52Z</time>
      </trkpt>
      <trkpt lat="49.87644" lon="2.27562">
        <ele>66.6</ele>
        <time>2022-07-30T20:04:53Z</time>
      </trkpt>
      <trkpt lat="49.87645" lon="2.27565">
        <ele>66.6</ele>
        <time>2022-07-30T20:04:54Z</time>
      </trkpt>
      <trkpt lat="49.87646" lon="2.27566">
        <ele>66.6</ele>
        <time>2022-07-30T20:04:55Z</time>
      </trkpt>
      <trkpt lat="49.87646" lon="2.27567">
        <ele>66.5</ele>
        <time>2022-07-30T20:04:56Z</time>
      </trkpt>
      <trkpt lat="49.87647" lon="2.27568">
        <ele>66.5</ele>
        <time>2022-07-30T20:04:57Z</time>
      </trkpt>
      <trkpt lat="49.87648" lon="2.2757">
        <ele>66.5</ele>
        <time>2022-07-30T20:04:59Z</time>
      </trkpt>
      <trkpt lat="49.87649" lon="2.27571">
        <ele>66.5</ele>
        <time>2022-07-30T20:05:00Z</time>
      </trkpt>
      <trkpt lat="49.8765" lon="2.27572">
        <ele>66.5</ele>
        <time>2022-07-30T20:05:01Z</time>
      </trkpt>
      <trkpt lat="49.87652" lon="2.27573">
        <ele>66.5</ele>
        <time>2022-07-30T20:05:03Z</time>
      </trkpt>
      <trkpt lat="49.87653" lon="2.27573">
        <ele>66.5</ele>
        <time>2022-07-30T20:05:04Z</time>
      </trkpt>
      <trkpt lat="49.87654" lon="2.27573">
        <ele>66.4</ele>
        <time>2022-07-30T20:05:05Z</time>
      </trkpt>
      <trkpt lat="49.87655" lon="2.27574">
        <ele>66.4</ele>
        <time>2022-07-30T20:05:06Z</time>
      </trkpt>
      <trkpt lat="49.87656" lon="2.27573">
        <ele>66.4</ele>
        <time>2022-07-30T20:05:07Z</time>
      </trkpt>
      <trkpt lat="49.87656" lon="2.27574">
        <ele>66.4</ele>
        <time>2022-07-30T20:05:08Z</time>
      </trkpt>
      <trkpt lat="49.87657" lon="2.27577">
        <ele>66.4</ele>
        <time>2022-07-30T20:05:10Z</time>
      </trkpt>
      <trkpt lat="49.87658" lon="2.27578">
        <ele>66.4</ele>
        <time>2022-07-30T20:05:12Z</time>
      </trkpt>
      <trkpt lat="49.87658" lon="2.2758">
        <ele>66.4</ele>
        <time>2022-07-30T20:05:13Z</time>
      </trkpt>
      <trkpt lat="49.87659" lon="2.27581">
        <ele>66.4</ele>
        <time>2022-07-30T20:05:14Z</time>
      </trkpt>
      <trkpt lat="49.87659" lon="2.27583">
        <ele>66.4</ele>
        <time>2022-07-30T20:05:15Z</time>
      </trkpt>
      <trkpt lat="49.8766" lon="2.27584">
        <ele>66.3</ele>
        <time>2022-07-30T20:05:16Z</time>
      </trkpt>
      <trkpt lat="49.8766" lon="2.27585">
        <ele>66.3</ele>
        <time>2022-07-30T20:05:17Z</time>
      </trkpt>
      <trkpt lat="49.8766" lon="2.27585">
        <ele>66.3</ele>
        <time>2022-07-30T20:05:19Z</time>
      </trkpt>
      <trkpt lat="49.8766" lon="2.27586">
        <ele>66.3</ele>
        <time>2022-07-30T20:05:20Z</time>
      </trkpt>
      <trkpt lat="49.87661" lon="2.27587">
        <ele>66.3</ele>
        <time>2022-07-30T20:05:21Z</time>
      </trkpt>
      <trkpt lat="49.87661" lon="2.27588">
        <ele>66.3</ele>
        <time>2022-07-30T20:05:22Z</time>
      </trkpt>
      <trkpt lat="49.87661" lon="2.27588">
        <ele>66.3</ele>
        <time>2022-07-30T20:05:23Z</time>
      </trkpt>
      <trkpt lat="49.87662" lon="2.27589">
        <ele>66.3</ele>
        <time>2022-07-30T20:05:24Z</time>
      </trkpt>
      <trkpt lat="49.87662" lon="2.2759">
        <ele>66.3</ele>
        <time>2022-07-30T20:05:25Z</time>
      </trkpt>
      <trkpt lat="49.87662" lon="2.27591">
        <ele>66.3</ele>
        <time>2022-07-30T20:05:26Z</time>
      </trkpt>
      <trkpt lat="49.87663" lon="2.27592">
        <ele>66.3</ele>
        <time>2022-07-30T20:05:28Z</time>
      </trkpt>
      <trkpt lat="49.87664" lon="2.27594">
        <ele>66.3</ele>
        <time>2022-07-30T20:05:29Z</time>
      </trkpt>
      <trkpt lat="49.87665" lon="2.27597">
        <ele>66.2</ele>
        <time>2022-07-30T20:05:30Z</time>
      </trkpt>
      <trkpt lat="49.87666" lon="2.27598">
        <ele>66.2</ele>
        <time>2022-07-30T20:05:31Z</time>
      </trkpt>
      <trkpt lat="49.87666" lon="2.27599">
        <ele>66.2</ele>
        <time>2022-07-30T20:05:32Z</time>
      </trkpt>
      <trkpt lat="49.87667" lon="2.276">
        <ele>66.2</ele>
        <time>2022-07-30T20:05:33Z</time>
      </trkpt>
      <trkpt lat="49.87668" lon="2.27602">
        <ele>66.2</ele>
        <time>2022-07-30T20:05:35Z</time>
      </trkpt>
      <trkpt lat="49.87669" lon="2.27603">
        <ele>66.2</ele>
        <time>2022-07-30T20:05:36Z</time>
      </trkpt>
      <trkpt lat="49.8767" lon="2.27605">
        <ele>66.2</ele>
        <time>2022-07-30T20:05:37Z</time>
      </trkpt>
      <trkpt lat="49.87671" lon="2.27606">
        <ele>66.2</ele>
        <time>2022-07-30T20:05:38Z</time>
      </trkpt>
      <trkpt lat="49.87671" lon="2.27607">
        <ele>66.2</ele>
        <time>2022-07-30T20:05:40Z</time>
      </trkpt>
      <trkpt lat="49.87672" lon="2.27608">
        <ele>66.1</ele>
        <time>2022-07-30T20:05:41Z</time>
      </trkpt>
      <trkpt lat="49.87673" lon="2.2761">
        <ele>66.1</ele>
        <time>2022-07-30T20:05:42Z</time>
      </trkpt>
      <trkpt lat="49.87675" lon="2.27614">
        <ele>66.1</ele>
        <time>2022-07-30T20:05:44Z</time>
      </trkpt>
      <trkpt lat="49.87676" lon="2.27616">
        <ele>66.1</ele>
        <time>2022-07-30T20:05:46Z</time>
      </trkpt>
      <trkpt lat="49.87677" lon="2.27617">
        <ele>66.1</ele>
        <time>2022-07-30T20:05:48Z</time>
      </trkpt>
      <trkpt lat="49.87678" lon="2.27619">
        <ele>66.1</ele>
        <time>2022-07-30T20:05:49Z</time>
      </trkpt>
      <trkpt lat="49.87679" lon="2.2762">
        <ele>66</ele>
        <time>2022-07-30T20:05:50Z</time>
      </trkpt>
      <trkpt lat="49.8768" lon="2.27622">
        <ele>66</ele>
        <time>2022-07-30T20:05:51Z</time>
      </trkpt>
      <trkpt lat="49.87682" lon="2.27625">
        <ele>66</ele>
        <time>2022-07-30T20:05:53Z</time>
      </trkpt>
      <trkpt lat="49.87682" lon="2.27626">
        <ele>66</ele>
        <time>2022-07-30T20:05:54Z</time>
      </trkpt>
      <trkpt lat="49.87683" lon="2.27627">
        <ele>66</ele>
        <time>2022-07-30T20:05:55Z</time>
      </trkpt>
      <trkpt lat="49.87685" lon="2.27629">
        <ele>66</ele>
        <time>2022-07-30T20:05:56Z</time>
      </trkpt>
      <trkpt lat="49.87686" lon="2.27631">
        <ele>66</ele>
        <time>2022-07-30T20:05:57Z</time>
      </trkpt>
      <trkpt lat="49.87687" lon="2.27632">
        <ele>65.9</ele>
        <time>2022-07-30T20:05:59Z</time>
      </trkpt>
      <trkpt lat="49.87688" lon="2.27634">
        <ele>65.9</ele>
        <time>2022-07-30T20:06:00Z</time>
      </trkpt>
      <trkpt lat="49.8769" lon="2.27635">
        <ele>65.9</ele>
        <time>2022-07-30T20:06:01Z</time>
      </trkpt>
      <trkpt lat="49.87691" lon="2.27636">
        <ele>65.9</ele>
        <time>2022-07-30T20:06:02Z</time>
      </trkpt>
      <trkpt lat="49.87691" lon="2.27637">
        <ele>65.9</ele>
        <time>2022-07-30T20:06:03Z</time>
      </trkpt>
      <trkpt lat="49.87691" lon="2.27636">
        <ele>65.9</ele>
        <time>2022-07-30T20:06:04Z</time>
      </trkpt>
      <trkpt lat="49.87692" lon="2.27637">
        <ele>65.9</ele>
        <time>2022-07-30T20:06:06Z</time>
      </trkpt>
      <trkpt lat="49.87692" lon="2.27638">
        <ele>65.8</ele>
        <time>2022-07-30T20:06:07Z</time>
      </trkpt>
      <trkpt lat="49.87693" lon="2.27638">
        <ele>65.8</ele>
        <time>2022-07-30T20:06:08Z</time>
      </trkpt>
      <trkpt lat="49.87694" lon="2.27639">
        <ele>65.8</ele>
        <time>2022-07-30T20:06:09Z</time>
      </trkpt>
      <trkpt lat="49.87695" lon="2.2764">
        <ele>65.8</ele>
        <time>2022-07-30T20:06:10Z</time>
      </trkpt>
      <trkpt lat="49.87695" lon="2.27641">
        <ele>65.8</ele>
        <time>2022-07-30T20:06:12Z</time>
      </trkpt>
      <trkpt lat="49.87696" lon="2.27641">
        <ele>65.8</ele>
        <time>2022-07-30T20:06:13Z</time>
      </trkpt>
      <trkpt lat="49.87696" lon="2.2764">
        <ele>65.8</ele>
        <time>2022-07-30T20:06:14Z</time>
      </trkpt>
      <trkpt lat="49.87697" lon="2.2764">
        <ele>65.8</ele>
        <time>2022-07-30T20:06:15Z</time>
      </trkpt>
      <trkpt lat="49.87697" lon="2.2764">
        <ele>65.8</ele>
        <time>2022-07-30T20:06:16Z</time>
      </trkpt>
      <trkpt lat="49.87697" lon="2.27641">
        <ele>65.8</ele>
        <time>2022-07-30T20:06:18Z</time>
      </trkpt>
      <trkpt lat="49.87698" lon="2.27641">
        <ele>65.8</ele>
        <time>2022-07-30T20:06:19Z</time>
      </trkpt>
      <trkpt lat="49.87699" lon="2.27642">
        <ele>65.7</ele>
        <time>2022-07-30T20:06:20Z</time>
      </trkpt>
      <trkpt lat="49.87699" lon="2.27643">
        <ele>65.7</ele>
        <time>2022-07-30T20:06:21Z</time>
      </trkpt>
      <trkpt lat="49.877" lon="2.27643">
        <ele>65.7</ele>
        <time>2022-07-30T20:06:22Z</time>
      </trkpt>
      <trkpt lat="49.87702" lon="2.27645">
        <ele>65.7</ele>
        <time>2022-07-30T20:06:23Z</time>
      </trkpt>
      <trkpt lat="49.87703" lon="2.27645">
        <ele>65.7</ele>
        <time>2022-07-30T20:06:25Z</time>
      </trkpt>
      <trkpt lat="49.87704" lon="2.27646">
        <ele>65.6</ele>
        <time>2022-07-30T20:06:26Z</time>
      </trkpt>
      <trkpt lat="49.87705" lon="2.27646">
        <ele>65.6</ele>
        <time>2022-07-30T20:06:27Z</time>
      </trkpt>
      <trkpt lat="49.87706" lon="2.27647">
        <ele>65.6</ele>
        <time>2022-07-30T20:06:28Z</time>
      </trkpt>
      <trkpt lat="49.87707" lon="2.27648">
        <ele>65.6</ele>
        <time>2022-07-30T20:06:29Z</time>
      </trkpt>
      <trkpt lat="49.87709" lon="2.27649">
        <ele>65.5</ele>
        <time>2022-07-30T20:06:31Z</time>
      </trkpt>
      <trkpt lat="49.8771" lon="2.2765">
        <ele>65.5</ele>
        <time>2022-07-30T20:06:32Z</time>
      </trkpt>
      <trkpt lat="49.87711" lon="2.27651">
        <ele>65.5</ele>
        <time>2022-07-30T20:06:33Z</time>
      </trkpt>
      <trkpt lat="49.87713" lon="2.27652">
        <ele>65.5</ele>
        <time>2022-07-30T20:06:34Z</time>
      </trkpt>
      <trkpt lat="49.87714" lon="2.27653">
        <ele>65.4</ele>
        <time>2022-07-30T20:06:36Z</time>
      </trkpt>
      <trkpt lat="49.87716" lon="2.27654">
        <ele>65.4</ele>
        <time>2022-07-30T20:06:37Z</time>
      </trkpt>
      <trkpt lat="49.87717" lon="2.27655">
        <ele>65.3</ele>
        <time>2022-07-30T20:06:38Z</time>
      </trkpt>
      <trkpt lat="49.87719" lon="2.27657">
        <ele>65.3</ele>
        <time>2022-07-30T20:06:39Z</time>
      </trkpt>
      <trkpt lat="49.8772" lon="2.27657">
        <ele>65.3</ele>
        <time>2022-07-30T20:06:40Z</time>
      </trkpt>
      <trkpt lat="49.87721" lon="2.27658">
        <ele>65.3</ele>
        <time>2022-07-30T20:06:41Z</time>
      </trkpt>
      <trkpt lat="49.87722" lon="2.27658">
        <ele>65.2</ele>
        <time>2022-07-30T20:06:42Z</time>
      </trkpt>
      <trkpt lat="49.87723" lon="2.27658">
        <ele>65.2</ele>
        <time>2022-07-30T20:06:43Z</time>
      </trkpt>
      <trkpt lat="49.87724" lon="2.27658">
        <ele>65.2</ele>
        <time>2022-07-30T20:06:44Z</time>
      </trkpt>
      <trkpt lat="49.87725" lon="2.27659">
        <ele>65.1</ele>
        <time>2022-07-30T20:06:45Z</time>
      </trkpt>
      <trkpt lat="49.87726" lon="2.2766">
        <ele>65.1</ele>
        <time>2022-07-30T20:06:46Z</time>
      </trkpt>
      <trkpt lat="49.87728" lon="2.2766">
        <ele>65.1</ele>
        <time>2022-07-30T20:06:47Z</time>
      </trkpt>
      <trkpt lat="49.8773" lon="2.27662">
        <ele>65</ele>
        <time>2022-07-30T20:06:48Z</time>
      </trkpt>
      <trkpt lat="49.8773" lon="2.27662">
        <ele>65</ele>
        <time>2022-07-30T20:06:49Z</time>
      </trkpt>
      <trkpt lat="49.87731" lon="2.27662">
        <ele>65</ele>
        <time>2022-07-30T20:06:50Z</time>
      </trkpt>
      <trkpt lat="49.87732" lon="2.27663">
        <ele>64.9</ele>
        <time>2022-07-30T20:06:51Z</time>
      </trkpt>
      <trkpt lat="49.87734" lon="2.27664">
        <ele>64.9</ele>
        <time>2022-07-30T20:06:52Z</time>
      </trkpt>
      <trkpt lat="49.87735" lon="2.27664">
        <ele>64.9</ele>
        <time>2022-07-30T20:06:54Z</time>
      </trkpt>
      <trkpt lat="49.87736" lon="2.27665">
        <ele>64.9</ele>
        <time>2022-07-30T20:06:55Z</time>
      </trkpt>
      <trkpt lat="49.87737" lon="2.27665">
        <ele>64.8</ele>
        <time>2022-07-30T20:06:56Z</time>
      </trkpt>
      <trkpt lat="49.87739" lon="2.27666">
        <ele>64.8</ele>
        <time>2022-07-30T20:06:57Z</time>
      </trkpt>
      <trkpt lat="49.8774" lon="2.27667">
        <ele>64.7</ele>
        <time>2022-07-30T20:06:59Z</time>
      </trkpt>
      <trkpt lat="49.87741" lon="2.27667">
        <ele>64.7</ele>
        <time>2022-07-30T20:07:00Z</time>
      </trkpt>
      <trkpt lat="49.87742" lon="2.27668">
        <ele>64.7</ele>
        <time>2022-07-30T20:07:01Z</time>
      </trkpt>
      <trkpt lat="49.87742" lon="2.27667">
        <ele>64.7</ele>
        <time>2022-07-30T20:07:02Z</time>
      </trkpt>
      <trkpt lat="49.87742" lon="2.27666">
        <ele>64.7</ele>
        <time>2022-07-30T20:07:03Z</time>
      </trkpt>
      <trkpt lat="49.87743" lon="2.27667">
        <ele>64.7</ele>
        <time>2022-07-30T20:07:05Z</time>
      </trkpt>
      <trkpt lat="49.87744" lon="2.27668">
        <ele>64.6</ele>
        <time>2022-07-30T20:07:06Z</time>
      </trkpt>
      <trkpt lat="49.87744" lon="2.27668">
        <ele>64.6</ele>
        <time>2022-07-30T20:07:07Z</time>
      </trkpt>
      <trkpt lat="49.87745" lon="2.27669">
        <ele>64.6</ele>
        <time>2022-07-30T20:07:08Z</time>
      </trkpt>
      <trkpt lat="49.87747" lon="2.2767">
        <ele>64.5</ele>
        <time>2022-07-30T20:07:09Z</time>
      </trkpt>
      <trkpt lat="49.87747" lon="2.2767">
        <ele>64.5</ele>
        <time>2022-07-30T20:07:10Z</time>
      </trkpt>
      <trkpt lat="49.87748" lon="2.27671">
        <ele>64.5</ele>
        <time>2022-07-30T20:07:11Z</time>
      </trkpt>
      <trkpt lat="49.87749" lon="2.27671">
        <ele>64.5</ele>
        <time>2022-07-30T20:07:13Z</time>
      </trkpt>
      <trkpt lat="49.8775" lon="2.27672">
        <ele>64.5</ele>
        <time>2022-07-30T20:07:14Z</time>
      </trkpt>
      <trkpt lat="49.8775" lon="2.27673">
        <ele>64.4</ele>
        <time>2022-07-30T20:07:15Z</time>
      </trkpt>
      <trkpt lat="49.87751" lon="2.27673">
        <ele>64.4</ele>
        <time>2022-07-30T20:07:16Z</time>
      </trkpt>
      <trkpt lat="49.87752" lon="2.27674">
        <ele>64.4</ele>
        <time>2022-07-30T20:07:17Z</time>
      </trkpt>
      <trkpt lat="49.87752" lon="2.27674">
        <ele>64.4</ele>
        <time>2022-07-30T20:07:18Z</time>
      </trkpt>
      <trkpt lat="49.87754" lon="2.27676">
        <ele>64.3</ele>
        <time>2022-07-30T20:07:19Z</time>
      </trkpt>
      <trkpt lat="49.87755" lon="2.27676">
        <ele>64.3</ele>
        <time>2022-07-30T20:07:20Z</time>
      </trkpt>
      <trkpt lat="49.87757" lon="2.27677">
        <ele>64.3</ele>
        <time>2022-07-30T20:07:21Z</time>
      </trkpt>
      <trkpt lat="49.87758" lon="2.27678">
        <ele>64.2</ele>
        <time>2022-07-30T20:07:22Z</time>
      </trkpt>
      <trkpt lat="49.87759" lon="2.27678">
        <ele>64.2</ele>
        <time>2022-07-30T20:07:24Z</time>
      </trkpt>
      <trkpt lat="49.8776" lon="2.27679">
        <ele>64.2</ele>
        <time>2022-07-30T20:07:25Z</time>
      </trkpt>
      <trkpt lat="49.8776" lon="2.27679">
        <ele>64.2</ele>
        <time>2022-07-30T20:07:26Z</time>
      </trkpt>
      <trkpt lat="49.87761" lon="2.2768">
        <ele>64.2</ele>
        <time>2022-07-30T20:07:27Z</time>
      </trkpt>
      <trkpt lat="49.87762" lon="2.27681">
        <ele>64.1</ele>
        <time>2022-07-30T20:07:28Z</time>
      </trkpt>
      <trkpt lat="49.87765" lon="2.27683">
        <ele>64.1</ele>
        <time>2022-07-30T20:07:30Z</time>
      </trkpt>
      <trkpt lat="49.87766" lon="2.27684">
        <ele>64</ele>
        <time>2022-07-30T20:07:31Z</time>
      </trkpt>
      <trkpt lat="49.87767" lon="2.27685">
        <ele>64</ele>
        <time>2022-07-30T20:07:32Z</time>
      </trkpt>
      <trkpt lat="49.87769" lon="2.27688">
        <ele>63.9</ele>
        <time>2022-07-30T20:07:33Z</time>
      </trkpt>
      <trkpt lat="49.87769" lon="2.27689">
        <ele>63.9</ele>
        <time>2022-07-30T20:07:35Z</time>
      </trkpt>
      <trkpt lat="49.8777" lon="2.27689">
        <ele>63.9</ele>
        <time>2022-07-30T20:07:36Z</time>
      </trkpt>
      <trkpt lat="49.8777" lon="2.2769">
        <ele>63.9</ele>
        <time>2022-07-30T20:07:37Z</time>
      </trkpt>
      <trkpt lat="49.8777" lon="2.2769">
        <ele>63.9</ele>
        <time>2022-07-30T20:07:38Z</time>
      </trkpt>
      <trkpt lat="49.87771" lon="2.27691">
        <ele>63.9</ele>
        <time>2022-07-30T20:07:39Z</time>
      </trkpt>
      <trkpt lat="49.87772" lon="2.27692">
        <ele>63.8</ele>
        <time>2022-07-30T20:07:40Z</time>
      </trkpt>
      <trkpt lat="49.87774" lon="2.27693">
        <ele>63.8</ele>
        <time>2022-07-30T20:07:42Z</time>
      </trkpt>
      <trkpt lat="49.87775" lon="2.27694">
        <ele>63.8</ele>
        <time>2022-07-30T20:07:43Z</time>
      </trkpt>
      <trkpt lat="49.87777" lon="2.27696">
        <ele>63.7</ele>
        <time>2022-07-30T20:07:44Z</time>
      </trkpt>
      <trkpt lat="49.87778" lon="2.27697">
        <ele>63.7</ele>
        <time>2022-07-30T20:07:46Z</time>
      </trkpt>
      <trkpt lat="49.87779" lon="2.27698">
        <ele>63.7</ele>
        <time>2022-07-30T20:07:47Z</time>
      </trkpt>
      <trkpt lat="49.8778" lon="2.27699">
        <ele>63.6</ele>
        <time>2022-07-30T20:07:48Z</time>
      </trkpt>
      <trkpt lat="49.87781" lon="2.27699">
        <ele>63.6</ele>
        <time>2022-07-30T20:07:49Z</time>
      </trkpt>
      <trkpt lat="49.87783" lon="2.27702">
        <ele>63.5</ele>
        <time>2022-07-30T20:07:50Z</time>
      </trkpt>
      <trkpt lat="49.87784" lon="2.27703">
        <ele>63.5</ele>
        <time>2022-07-30T20:07:52Z</time>
      </trkpt>
      <trkpt lat="49.87785" lon="2.27704">
        <ele>63.4</ele>
        <time>2022-07-30T20:07:53Z</time>
      </trkpt>
      <trkpt lat="49.87787" lon="2.27705">
        <ele>63.4</ele>
        <time>2022-07-30T20:07:54Z</time>
      </trkpt>
      <trkpt lat="49.87788" lon="2.27707">
        <ele>63.3</ele>
        <time>2022-07-30T20:07:55Z</time>
      </trkpt>
      <trkpt lat="49.8779" lon="2.27708">
        <ele>63.3</ele>
        <time>2022-07-30T20:07:56Z</time>
      </trkpt>
      <trkpt lat="49.87791" lon="2.27708">
        <ele>63.3</ele>
        <time>2022-07-30T20:07:57Z</time>
      </trkpt>
      <trkpt lat="49.87792" lon="2.27708">
        <ele>63.2</ele>
        <time>2022-07-30T20:07:58Z</time>
      </trkpt>
      <trkpt lat="49.87793" lon="2.27709">
        <ele>63.2</ele>
        <time>2022-07-30T20:07:59Z</time>
      </trkpt>
      <trkpt lat="49.87794" lon="2.27709">
        <ele>63.2</ele>
        <time>2022-07-30T20:08:01Z</time>
      </trkpt>
      <trkpt lat="49.87795" lon="2.27709">
        <ele>63.1</ele>
        <time>2022-07-30T20:08:02Z</time>
      </trkpt>
      <trkpt lat="49.87796" lon="2.27709">
        <ele>63.1</ele>
        <time>2022-07-30T20:08:03Z</time>
      </trkpt>
      <trkpt lat="49.87797" lon="2.27709">
        <ele>63.1</ele>
        <time>2022-07-30T20:08:04Z</time>
      </trkpt>
      <trkpt lat="49.87797" lon="2.27708">
        <ele>63.1</ele>
        <time>2022-07-30T20:08:05Z</time>
      </trkpt>
      <trkpt lat="49.87798" lon="2.27709">
        <ele>63</ele>
        <time>2022-07-30T20:08:06Z</time>
      </trkpt>
      <trkpt lat="49.87799" lon="2.27711">
        <ele>63</ele>
        <time>2022-07-30T20:08:08Z</time>
      </trkpt>
      <trkpt lat="49.87801" lon="2.27712">
        <ele>62.9</ele>
        <time>2022-07-30T20:08:09Z</time>
      </trkpt>
      <trkpt lat="49.87802" lon="2.27713">
        <ele>62.9</ele>
        <time>2022-07-30T20:08:10Z</time>
      </trkpt>
      <trkpt lat="49.87804" lon="2.27715">
        <ele>62.8</ele>
        <time>2022-07-30T20:08:11Z</time>
      </trkpt>
      <trkpt lat="49.87805" lon="2.27715">
        <ele>62.8</ele>
        <time>2022-07-30T20:08:12Z</time>
      </trkpt>
      <trkpt lat="49.87806" lon="2.27716">
        <ele>62.7</ele>
        <time>2022-07-30T20:08:13Z</time>
      </trkpt>
      <trkpt lat="49.87808" lon="2.27716">
        <ele>62.7</ele>
        <time>2022-07-30T20:08:15Z</time>
      </trkpt>
      <trkpt lat="49.87809" lon="2.27716">
        <ele>62.6</ele>
        <time>2022-07-30T20:08:16Z</time>
      </trkpt>
      <trkpt lat="49.8781" lon="2.27716">
        <ele>62.6</ele>
        <time>2022-07-30T20:08:17Z</time>
      </trkpt>
      <trkpt lat="49.87811" lon="2.27715">
        <ele>62.6</ele>
        <time>2022-07-30T20:08:18Z</time>
      </trkpt>
      <trkpt lat="49.87811" lon="2.27715">
        <ele>62.6</ele>
        <time>2022-07-30T20:08:19Z</time>
      </trkpt>
      <trkpt lat="49.87812" lon="2.27715">
        <ele>62.6</ele>
        <time>2022-07-30T20:08:20Z</time>
      </trkpt>
      <trkpt lat="49.87812" lon="2.27715">
        <ele>62.6</ele>
        <time>2022-07-30T20:08:22Z</time>
      </trkpt>
      <trkpt lat="49.87812" lon="2.27714">
        <ele>62.6</ele>
        <time>2022-07-30T20:08:23Z</time>
      </trkpt>
      <trkpt lat="49.87812" lon="2.27713">
        <ele>62.6</ele>
        <time>2022-07-30T20:08:24Z</time>
      </trkpt>
      <trkpt lat="49.87812" lon="2.27713">
        <ele>62.6</ele>
        <time>2022-07-30T20:08:25Z</time>
      </trkpt>
      <trkpt lat="49.87813" lon="2.27713">
        <ele>62.6</ele>
        <time>2022-07-30T20:08:26Z</time>
      </trkpt>
      <trkpt lat="49.87813" lon="2.27712">
        <ele>62.6</ele>
        <time>2022-07-30T20:08:27Z</time>
      </trkpt>
      <trkpt lat="49.87814" lon="2.27712">
        <ele>62.6</ele>
        <time>2022-07-30T20:08:29Z</time>
      </trkpt>
      <trkpt lat="49.87814" lon="2.27712">
        <ele>62.6</ele>
        <time>2022-07-30T20:08:30Z</time>
      </trkpt>
      <trkpt lat="49.87814" lon="2.27711">
        <ele>62.6</ele>
        <time>2022-07-30T20:08:32Z</time>
      </trkpt>
      <trkpt lat="49.87815" lon="2.2771">
        <ele>62.6</ele>
        <time>2022-07-30T20:08:33Z</time>
      </trkpt>
      <trkpt lat="49.87815" lon="2.2771">
        <ele>62.6</ele>
        <time>2022-07-30T20:08:34Z</time>
      </trkpt>
      <trkpt lat="49.87816" lon="2.2771">
        <ele>62.6</ele>
        <time>2022-07-30T20:08:35Z</time>
      </trkpt>
      <trkpt lat="49.87817" lon="2.27711">
        <ele>62.6</ele>
        <time>2022-07-30T20:08:36Z</time>
      </trkpt>
      <trkpt lat="49.87818" lon="2.27712">
        <ele>62.6</ele>
        <time>2022-07-30T20:08:38Z</time>
      </trkpt>
      <trkpt lat="49.87819" lon="2.27712">
        <ele>62.6</ele>
        <time>2022-07-30T20:08:39Z</time>
      </trkpt>
      <trkpt lat="49.8782" lon="2.27712">
        <ele>62.6</ele>
        <time>2022-07-30T20:08:40Z</time>
      </trkpt>
      <trkpt lat="49.8782" lon="2.27712">
        <ele>62.6</ele>
        <time>2022-07-30T20:08:41Z</time>
      </trkpt>
      <trkpt lat="49.87821" lon="2.27712">
        <ele>62.6</ele>
        <time>2022-07-30T20:08:42Z</time>
      </trkpt>
      <trkpt lat="49.87821" lon="2.27712">
        <ele>62.6</ele>
        <time>2022-07-30T20:08:44Z</time>
      </trkpt>
      <trkpt lat="49.87822" lon="2.27713">
        <ele>62.6</ele>
        <time>2022-07-30T20:08:45Z</time>
      </trkpt>
      <trkpt lat="49.87823" lon="2.27713">
        <ele>62.6</ele>
        <time>2022-07-30T20:08:46Z</time>
      </trkpt>
      <trkpt lat="49.87824" lon="2.27714">
        <ele>62.6</ele>
        <time>2022-07-30T20:08:47Z</time>
      </trkpt>
      <trkpt lat="49.87824" lon="2.27715">
        <ele>62.6</ele>
        <time>2022-07-30T20:08:48Z</time>
      </trkpt>
      <trkpt lat="49.87825" lon="2.27716">
        <ele>62.5</ele>
        <time>2022-07-30T20:08:50Z</time>
      </trkpt>
      <trkpt lat="49.87826" lon="2.27717">
        <ele>62.5</ele>
        <time>2022-07-30T20:08:51Z</time>
      </trkpt>
      <trkpt lat="49.87827" lon="2.27717">
        <ele>62.5</ele>
        <time>2022-07-30T20:08:52Z</time>
      </trkpt>
      <trkpt lat="49.87828" lon="2.27718">
        <ele>62.5</ele>
        <time>2022-07-30T20:08:53Z</time>
      </trkpt>
      <trkpt lat="49.8783" lon="2.27719">
        <ele>62.5</ele>
        <time>2022-07-30T20:08:54Z</time>
      </trkpt>
      <trkpt lat="49.87832" lon="2.2772">
        <ele>62.5</ele>
        <time>2022-07-30T20:08:56Z</time>
      </trkpt>
      <trkpt lat="49.87833" lon="2.2772">
        <ele>62.5</ele>
        <time>2022-07-30T20:08:57Z</time>
      </trkpt>
      <trkpt lat="49.87834" lon="2.27721">
        <ele>62.5</ele>
        <time>2022-07-30T20:08:58Z</time>
      </trkpt>
      <trkpt lat="49.87837" lon="2.27721">
        <ele>62.5</ele>
        <time>2022-07-30T20:08:59Z</time>
      </trkpt>
      <trkpt lat="49.87838" lon="2.27721">
        <ele>62.5</ele>
        <time>2022-07-30T20:09:00Z</time>
      </trkpt>
      <trkpt lat="49.8784" lon="2.27722">
        <ele>62.5</ele>
        <time>2022-07-30T20:09:01Z</time>
      </trkpt>
      <trkpt lat="49.87841" lon="2.27723">
        <ele>62.5</ele>
        <time>2022-07-30T20:09:03Z</time>
      </trkpt>
      <trkpt lat="49.87842" lon="2.27723">
        <ele>62.5</ele>
        <time>2022-07-30T20:09:04Z</time>
      </trkpt>
      <trkpt lat="49.87843" lon="2.27724">
        <ele>62.5</ele>
        <time>2022-07-30T20:09:05Z</time>
      </trkpt>
      <trkpt lat="49.87844" lon="2.27725">
        <ele>62.5</ele>
        <time>2022-07-30T20:09:06Z</time>
      </trkpt>
      <trkpt lat="49.87845" lon="2.27726">
        <ele>62.5</ele>
        <time>2022-07-30T20:09:07Z</time>
      </trkpt>
      <trkpt lat="49.87846" lon="2.27729">
        <ele>62.5</ele>
        <time>2022-07-30T20:09:09Z</time>
      </trkpt>
      <trkpt lat="49.87847" lon="2.2773">
        <ele>62.5</ele>
        <time>2022-07-30T20:09:10Z</time>
      </trkpt>
      <trkpt lat="49.87849" lon="2.27731">
        <ele>62.5</ele>
        <time>2022-07-30T20:09:11Z</time>
      </trkpt>
      <trkpt lat="49.8785" lon="2.27732">
        <ele>62.5</ele>
        <time>2022-07-30T20:09:13Z</time>
      </trkpt>
      <trkpt lat="49.87851" lon="2.27732">
        <ele>62.5</ele>
        <time>2022-07-30T20:09:14Z</time>
      </trkpt>
      <trkpt lat="49.87852" lon="2.27734">
        <ele>62.5</ele>
        <time>2022-07-30T20:09:15Z</time>
      </trkpt>
      <trkpt lat="49.87852" lon="2.27736">
        <ele>62.5</ele>
        <time>2022-07-30T20:09:16Z</time>
      </trkpt>
      <trkpt lat="49.87852" lon="2.27738">
        <ele>62.5</ele>
        <time>2022-07-30T20:09:17Z</time>
      </trkpt>
      <trkpt lat="49.87853" lon="2.27742">
        <ele>62.5</ele>
        <time>2022-07-30T20:09:18Z</time>
      </trkpt>
      <trkpt lat="49.87854" lon="2.27743">
        <ele>62.5</ele>
        <time>2022-07-30T20:09:19Z</time>
      </trkpt>
      <trkpt lat="49.87855" lon="2.27746">
        <ele>62.5</ele>
        <time>2022-07-30T20:09:21Z</time>
      </trkpt>
      <trkpt lat="49.87855" lon="2.27747">
        <ele>62.5</ele>
        <time>2022-07-30T20:09:22Z</time>
      </trkpt>
      <trkpt lat="49.87856" lon="2.27748">
        <ele>62.5</ele>
        <time>2022-07-30T20:09:23Z</time>
      </trkpt>
      <trkpt lat="49.87855" lon="2.27748">
        <ele>62.5</ele>
        <time>2022-07-30T20:09:24Z</time>
      </trkpt>
      <trkpt lat="49.87855" lon="2.27749">
        <ele>62.5</ele>
        <time>2022-07-30T20:09:25Z</time>
      </trkpt>
      <trkpt lat="49.87856" lon="2.2775">
        <ele>62.5</ele>
        <time>2022-07-30T20:09:26Z</time>
      </trkpt>
      <trkpt lat="49.87856" lon="2.27751">
        <ele>62.5</ele>
        <time>2022-07-30T20:09:27Z</time>
      </trkpt>
      <trkpt lat="49.87857" lon="2.27752">
        <ele>62.5</ele>
        <time>2022-07-30T20:09:28Z</time>
      </trkpt>
      <trkpt lat="49.87859" lon="2.27753">
        <ele>62.5</ele>
        <time>2022-07-30T20:09:30Z</time>
      </trkpt>
      <trkpt lat="49.8786" lon="2.27753">
        <ele>62.4</ele>
        <time>2022-07-30T20:09:31Z</time>
      </trkpt>
      <trkpt lat="49.87861" lon="2.27754">
        <ele>62.4</ele>
        <time>2022-07-30T20:09:32Z</time>
      </trkpt>
      <trkpt lat="49.87862" lon="2.27755">
        <ele>62.4</ele>
        <time>2022-07-30T20:09:33Z</time>
      </trkpt>
      <trkpt lat="49.87863" lon="2.27757">
        <ele>62.4</ele>
        <time>2022-07-30T20:09:34Z</time>
      </trkpt>
      <trkpt lat="49.87864" lon="2.27757">
        <ele>62.4</ele>
        <time>2022-07-30T20:09:36Z</time>
      </trkpt>
      <trkpt lat="49.87864" lon="2.27758">
        <ele>62.4</ele>
        <time>2022-07-30T20:09:37Z</time>
      </trkpt>
      <trkpt lat="49.87865" lon="2.27759">
        <ele>62.4</ele>
        <time>2022-07-30T20:09:38Z</time>
      </trkpt>
      <trkpt lat="49.87867" lon="2.27761">
        <ele>62.4</ele>
        <time>2022-07-30T20:09:39Z</time>
      </trkpt>
      <trkpt lat="49.87868" lon="2.27762">
        <ele>62.4</ele>
        <time>2022-07-30T20:09:41Z</time>
      </trkpt>
      <trkpt lat="49.87869" lon="2.27763">
        <ele>62.4</ele>
        <time>2022-07-30T20:09:42Z</time>
      </trkpt>
      <trkpt lat="49.8787" lon="2.27763">
        <ele>62.4</ele>
        <time>2022-07-30T20:09:43Z</time>
      </trkpt>
      <trkpt lat="49.87871" lon="2.27762">
        <ele>62.4</ele>
        <time>2022-07-30T20:09:45Z</time>
      </trkpt>
      <trkpt lat="49.87871" lon="2.27762">
        <ele>62.4</ele>
        <time>2022-07-30T20:09:47Z</time>
      </trkpt>
      <trkpt lat="49.87872" lon="2.27763">
        <ele>62.4</ele>
        <time>2022-07-30T20:09:48Z</time>
      </trkpt>
      <trkpt lat="49.87873" lon="2.27763">
        <ele>62.4</ele>
        <time>2022-07-30T20:09:49Z</time>
      </trkpt>
      <trkpt lat="49.87872" lon="2.27767">
        <ele>62.4</ele>
        <time>2022-07-30T20:09:50Z</time>
      </trkpt>
      <trkpt lat="49.87872" lon="2.27768">
        <ele>62.4</ele>
        <time>2022-07-30T20:09:51Z</time>
      </trkpt>
      <trkpt lat="49.87873" lon="2.27768">
        <ele>62.4</ele>
        <time>2022-07-30T20:09:53Z</time>
      </trkpt>
      <trkpt lat="49.87874" lon="2.27769">
        <ele>62.4</ele>
        <time>2022-07-30T20:09:54Z</time>
      </trkpt>
      <trkpt lat="49.87873" lon="2.27771">
        <ele>62.4</ele>
        <time>2022-07-30T20:09:55Z</time>
      </trkpt>
      <trkpt lat="49.87873" lon="2.27772">
        <ele>62.4</ele>
        <time>2022-07-30T20:09:56Z</time>
      </trkpt>
      <trkpt lat="49.87873" lon="2.27774">
        <ele>62.4</ele>
        <time>2022-07-30T20:09:58Z</time>
      </trkpt>
      <trkpt lat="49.87874" lon="2.27775">
        <ele>62.4</ele>
        <time>2022-07-30T20:09:59Z</time>
      </trkpt>
      <trkpt lat="49.87874" lon="2.27777">
        <ele>62.3</ele>
        <time>2022-07-30T20:10:01Z</time>
      </trkpt>
      <trkpt lat="49.87874" lon="2.27778">
        <ele>62.3</ele>
        <time>2022-07-30T20:10:02Z</time>
      </trkpt>
      <trkpt lat="49.87874" lon="2.27779">
        <ele>62.3</ele>
        <time>2022-07-30T20:10:03Z</time>
      </trkpt>
      <trkpt lat="49.87876" lon="2.27781">
        <ele>62.3</ele>
        <time>2022-07-30T20:10:04Z</time>
      </trkpt>
      <trkpt lat="49.87877" lon="2.27781">
        <ele>62.3</ele>
        <time>2022-07-30T20:10:05Z</time>
      </trkpt>
      <trkpt lat="49.87878" lon="2.27781">
        <ele>62.3</ele>
        <time>2022-07-30T20:10:06Z</time>
      </trkpt>
      <trkpt lat="49.87879" lon="2.27781">
        <ele>62.3</ele>
        <time>2022-07-30T20:10:08Z</time>
      </trkpt>
      <trkpt lat="49.8788" lon="2.27782">
        <ele>62.3</ele>
        <time>2022-07-30T20:10:09Z</time>
      </trkpt>
      <trkpt lat="49.87881" lon="2.27782">
        <ele>62.3</ele>
        <time>2022-07-30T20:10:10Z</time>
      </trkpt>
      <trkpt lat="49.87882" lon="2.27782">
        <ele>62.3</ele>
        <time>2022-07-30T20:10:11Z</time>
      </trkpt>
      <trkpt lat="49.87884" lon="2.27782">
        <ele>62.3</ele>
        <time>2022-07-30T20:10:12Z</time>
      </trkpt>
      <trkpt lat="49.87886" lon="2.27782">
        <ele>62.3</ele>
        <time>2022-07-30T20:10:13Z</time>
      </trkpt>
      <trkpt lat="49.87887" lon="2.27783">
        <ele>62.3</ele>
        <time>2022-07-30T20:10:15Z</time>
      </trkpt>
      <trkpt lat="49.87889" lon="2.27784">
        <ele>62.3</ele>
        <time>2022-07-30T20:10:16Z</time>
      </trkpt>
      <trkpt lat="49.87889" lon="2.27785">
        <ele>62.2</ele>
        <time>2022-07-30T20:10:17Z</time>
      </trkpt>
      <trkpt lat="49.8789" lon="2.27786">
        <ele>62.2</ele>
        <time>2022-07-30T20:10:18Z</time>
      </trkpt>
      <trkpt lat="49.87892" lon="2.27787">
        <ele>62.2</ele>
        <time>2022-07-30T20:10:19Z</time>
      </trkpt>
      <trkpt lat="49.87893" lon="2.27789">
        <ele>62.2</ele>
        <time>2022-07-30T20:10:20Z</time>
      </trkpt>
      <trkpt lat="49.87894" lon="2.2779">
        <ele>62.2</ele>
        <time>2022-07-30T20:10:21Z</time>
      </trkpt>
      <trkpt lat="49.87894" lon="2.2779">
        <ele>62.2</ele>
        <time>2022-07-30T20:10:22Z</time>
      </trkpt>
      <trkpt lat="49.87896" lon="2.27793">
        <ele>62.2</ele>
        <time>2022-07-30T20:10:24Z</time>
      </trkpt>
      <trkpt lat="49.87896" lon="2.27794">
        <ele>62.2</ele>
        <time>2022-07-30T20:10:25Z</time>
      </trkpt>
      <trkpt lat="49.87897" lon="2.27795">
        <ele>62.2</ele>
        <time>2022-07-30T20:10:26Z</time>
      </trkpt>
      <trkpt lat="49.87898" lon="2.27797">
        <ele>62.2</ele>
        <time>2022-07-30T20:10:27Z</time>
      </trkpt>
      <trkpt lat="49.87899" lon="2.27798">
        <ele>62.2</ele>
        <time>2022-07-30T20:10:28Z</time>
      </trkpt>
      <trkpt lat="49.879" lon="2.278">
        <ele>62.2</ele>
        <time>2022-07-30T20:10:30Z</time>
      </trkpt>
      <trkpt lat="49.87901" lon="2.27802">
        <ele>62.2</ele>
        <time>2022-07-30T20:10:31Z</time>
      </trkpt>
      <trkpt lat="49.87902" lon="2.27803">
        <ele>62.2</ele>
        <time>2022-07-30T20:10:32Z</time>
      </trkpt>
      <trkpt lat="49.87903" lon="2.27805">
        <ele>62.1</ele>
        <time>2022-07-30T20:10:33Z</time>
      </trkpt>
      <trkpt lat="49.87904" lon="2.27806">
        <ele>62.1</ele>
        <time>2022-07-30T20:10:34Z</time>
      </trkpt>
      <trkpt lat="49.87906" lon="2.27808">
        <ele>62.1</ele>
        <time>2022-07-30T20:10:35Z</time>
      </trkpt>
      <trkpt lat="49.87908" lon="2.2781">
        <ele>62.1</ele>
        <time>2022-07-30T20:10:36Z</time>
      </trkpt>
      <trkpt lat="49.87909" lon="2.27811">
        <ele>62.1</ele>
        <time>2022-07-30T20:10:38Z</time>
      </trkpt>
      <trkpt lat="49.8791" lon="2.27812">
        <ele>62.1</ele>
        <time>2022-07-30T20:10:39Z</time>
      </trkpt>
      <trkpt lat="49.87911" lon="2.27813">
        <ele>62.1</ele>
        <time>2022-07-30T20:10:40Z</time>
      </trkpt>
      <trkpt lat="49.87911" lon="2.27814">
        <ele>62.1</ele>
        <time>2022-07-30T20:10:41Z</time>
      </trkpt>
      <trkpt lat="49.87912" lon="2.27815">
        <ele>62.1</ele>
        <time>2022-07-30T20:10:42Z</time>
      </trkpt>
      <trkpt lat="49.87913" lon="2.27816">
        <ele>62.1</ele>
        <time>2022-07-30T20:10:43Z</time>
      </trkpt>
      <trkpt lat="49.87914" lon="2.27816">
        <ele>62.1</ele>
        <time>2022-07-30T20:10:44Z</time>
      </trkpt>
      <trkpt lat="49.87915" lon="2.27817">
        <ele>62.1</ele>
        <time>2022-07-30T20:10:45Z</time>
      </trkpt>
      <trkpt lat="49.87915" lon="2.27816">
        <ele>62.1</ele>
        <time>2022-07-30T20:10:46Z</time>
      </trkpt>
      <trkpt lat="49.87915" lon="2.27817">
        <ele>62.1</ele>
        <time>2022-07-30T20:10:47Z</time>
      </trkpt>
      <trkpt lat="49.87916" lon="2.27818">
        <ele>62.1</ele>
        <time>2022-07-30T20:10:49Z</time>
      </trkpt>
      <trkpt lat="49.87917" lon="2.27819">
        <ele>62.1</ele>
        <time>2022-07-30T20:10:50Z</time>
      </trkpt>
      <trkpt lat="49.87917" lon="2.27819">
        <ele>62.1</ele>
        <time>2022-07-30T20:10:51Z</time>
      </trkpt>
      <trkpt lat="49.87918" lon="2.2782">
        <ele>62.1</ele>
        <time>2022-07-30T20:10:52Z</time>
      </trkpt>
      <trkpt lat="49.87919" lon="2.27821">
        <ele>62.1</ele>
        <time>2022-07-30T20:10:53Z</time>
      </trkpt>
      <trkpt lat="49.87919" lon="2.27822">
        <ele>62.1</ele>
        <time>2022-07-30T20:10:54Z</time>
      </trkpt>
      <trkpt lat="49.8792" lon="2.27823">
        <ele>62.1</ele>
        <time>2022-07-30T20:10:55Z</time>
      </trkpt>
      <trkpt lat="49.87921" lon="2.27824">
        <ele>62.1</ele>
        <time>2022-07-30T20:10:56Z</time>
      </trkpt>
      <trkpt lat="49.87922" lon="2.27825">
        <ele>62.1</ele>
        <time>2022-07-30T20:10:58Z</time>
      </trkpt>
      <trkpt lat="49.87924" lon="2.27827">
        <ele>62</ele>
        <time>2022-07-30T20:10:59Z</time>
      </trkpt>
      <trkpt lat="49.87925" lon="2.27827">
        <ele>62</ele>
        <time>2022-07-30T20:11:01Z</time>
      </trkpt>
      <trkpt lat="49.87925" lon="2.27827">
        <ele>62</ele>
        <time>2022-07-30T20:11:02Z</time>
      </trkpt>
      <trkpt lat="49.87926" lon="2.27827">
        <ele>62</ele>
        <time>2022-07-30T20:11:03Z</time>
      </trkpt>
      <trkpt lat="49.87925" lon="2.27826">
        <ele>62</ele>
        <time>2022-07-30T20:11:05Z</time>
      </trkpt>
      <trkpt lat="49.87925" lon="2.27826">
        <ele>62</ele>
        <time>2022-07-30T20:11:06Z</time>
      </trkpt>
      <trkpt lat="49.87925" lon="2.27826">
        <ele>62</ele>
        <time>2022-07-30T20:11:07Z</time>
      </trkpt>
      <trkpt lat="49.87925" lon="2.27826">
        <ele>62</ele>
        <time>2022-07-30T20:11:08Z</time>
      </trkpt>
      <trkpt lat="49.87926" lon="2.27827">
        <ele>62</ele>
        <time>2022-07-30T20:11:10Z</time>
      </trkpt>
      <trkpt lat="49.87926" lon="2.27827">
        <ele>62</ele>
        <time>2022-07-30T20:11:11Z</time>
      </trkpt>
      <trkpt lat="49.87927" lon="2.27828">
        <ele>62</ele>
        <time>2022-07-30T20:11:12Z</time>
      </trkpt>
      <trkpt lat="49.87927" lon="2.27828">
        <ele>62</ele>
        <time>2022-07-30T20:11:13Z</time>
      </trkpt>
      <trkpt lat="49.87928" lon="2.27829">
        <ele>62</ele>
        <time>2022-07-30T20:11:15Z</time>
      </trkpt>
      <trkpt lat="49.87929" lon="2.27831">
        <ele>62</ele>
        <time>2022-07-30T20:11:16Z</time>
      </trkpt>
      <trkpt lat="49.8793" lon="2.27831">
        <ele>62</ele>
        <time>2022-07-30T20:11:17Z</time>
      </trkpt>
      <trkpt lat="49.8793" lon="2.27832">
        <ele>62</ele>
        <time>2022-07-30T20:11:18Z</time>
      </trkpt>
      <trkpt lat="49.87931" lon="2.27833">
        <ele>62</ele>
        <time>2022-07-30T20:11:20Z</time>
      </trkpt>
      <trkpt lat="49.87932" lon="2.27833">
        <ele>62</ele>
        <time>2022-07-30T20:11:21Z</time>
      </trkpt>
      <trkpt lat="49.87932" lon="2.27833">
        <ele>61.9</ele>
        <time>2022-07-30T20:11:22Z</time>
      </trkpt>
      <trkpt lat="49.87933" lon="2.27834">
        <ele>61.9</ele>
        <time>2022-07-30T20:11:23Z</time>
      </trkpt>
      <trkpt lat="49.87935" lon="2.27835">
        <ele>61.9</ele>
        <time>2022-07-30T20:11:24Z</time>
      </trkpt>
      <trkpt lat="49.87936" lon="2.27836">
        <ele>61.9</ele>
        <time>2022-07-30T20:11:25Z</time>
      </trkpt>
      <trkpt lat="49.87937" lon="2.27837">
        <ele>61.9</ele>
        <time>2022-07-30T20:11:26Z</time>
      </trkpt>
      <trkpt lat="49.87938" lon="2.27838">
        <ele>61.9</ele>
        <time>2022-07-30T20:11:27Z</time>
      </trkpt>
      <trkpt lat="49.87939" lon="2.27839">
        <ele>61.9</ele>
        <time>2022-07-30T20:11:30Z</time>
      </trkpt>
      <trkpt lat="49.87939" lon="2.2784">
        <ele>61.9</ele>
        <time>2022-07-30T20:11:31Z</time>
      </trkpt>
      <trkpt lat="49.8794" lon="2.27841">
        <ele>61.9</ele>
        <time>2022-07-30T20:11:32Z</time>
      </trkpt>
      <trkpt lat="49.87941" lon="2.27842">
        <ele>61.9</ele>
        <time>2022-07-30T20:11:33Z</time>
      </trkpt>
      <trkpt lat="49.87942" lon="2.27843">
        <ele>61.9</ele>
        <time>2022-07-30T20:11:35Z</time>
      </trkpt>
      <trkpt lat="49.87942" lon="2.27844">
        <ele>61.8</ele>
        <time>2022-07-30T20:11:36Z</time>
      </trkpt>
      <trkpt lat="49.87943" lon="2.27845">
        <ele>61.8</ele>
        <time>2022-07-30T20:11:37Z</time>
      </trkpt>
      <trkpt lat="49.87944" lon="2.27846">
        <ele>61.8</ele>
        <time>2022-07-30T20:11:38Z</time>
      </trkpt>
      <trkpt lat="49.87945" lon="2.27848">
        <ele>61.8</ele>
        <time>2022-07-30T20:11:39Z</time>
      </trkpt>
      <trkpt lat="49.87946" lon="2.27849">
        <ele>61.8</ele>
        <time>2022-07-30T20:11:40Z</time>
      </trkpt>
      <trkpt lat="49.87947" lon="2.2785">
        <ele>61.8</ele>
        <time>2022-07-30T20:11:41Z</time>
      </trkpt>
      <trkpt lat="49.87948" lon="2.27851">
        <ele>61.8</ele>
        <time>2022-07-30T20:11:42Z</time>
      </trkpt>
      <trkpt lat="49.87949" lon="2.27851">
        <ele>61.8</ele>
        <time>2022-07-30T20:11:43Z</time>
      </trkpt>
      <trkpt lat="49.87949" lon="2.27851">
        <ele>61.8</ele>
        <time>2022-07-30T20:11:44Z</time>
      </trkpt>
      <trkpt lat="49.8795" lon="2.2785">
        <ele>61.8</ele>
        <time>2022-07-30T20:11:45Z</time>
      </trkpt>
      <trkpt lat="49.8795" lon="2.2785">
        <ele>61.8</ele>
        <time>2022-07-30T20:11:46Z</time>
      </trkpt>
      <trkpt lat="49.8795" lon="2.2785">
        <ele>61.8</ele>
        <time>2022-07-30T20:11:47Z</time>
      </trkpt>
      <trkpt lat="49.8795" lon="2.2785">
        <ele>61.8</ele>
        <time>2022-07-30T20:11:48Z</time>
      </trkpt>
      <trkpt lat="49.8795" lon="2.2785">
        <ele>61.8</ele>
        <time>2022-07-30T20:11:49Z</time>
      </trkpt>
      <trkpt lat="49.87949" lon="2.2785">
        <ele>61.8</ele>
        <time>2022-07-30T20:11:50Z</time>
      </trkpt>
      <trkpt lat="49.87949" lon="2.2785">
        <ele>61.8</ele>
        <time>2022-07-30T20:11:51Z</time>
      </trkpt>
      <trkpt lat="49.87949" lon="2.2785">
        <ele>61.8</ele>
        <time>2022-07-30T20:11:52Z</time>
      </trkpt>
      <trkpt lat="49.87949" lon="2.2785">
        <ele>61.8</ele>
        <time>2022-07-30T20:11:53Z</time>
      </trkpt>
      <trkpt lat="49.87949" lon="2.2785">
        <ele>61.8</ele>
        <time>2022-07-30T20:11:54Z</time>
      </trkpt>
      <trkpt lat="49.87948" lon="2.2785">
        <ele>61.8</ele>
        <time>2022-07-30T20:11:55Z</time>
      </trkpt>
      <trkpt lat="49.87948" lon="2.2785">
        <ele>61.8</ele>
        <time>2022-07-30T20:11:56Z</time>
      </trkpt>
      <trkpt lat="49.87948" lon="2.2785">
        <ele>61.8</ele>
        <time>2022-07-30T20:11:57Z</time>
      </trkpt>
      <trkpt lat="49.87948" lon="2.2785">
        <ele>61.8</ele>
        <time>2022-07-30T20:11:58Z</time>
      </trkpt>
      <trkpt lat="49.87948" lon="2.2785">
        <ele>61.8</ele>
        <time>2022-07-30T20:11:59Z</time>
      </trkpt>
      <trkpt lat="49.87948" lon="2.2785">
        <ele>61.8</ele>
        <time>2022-07-30T20:12:00Z</time>
      </trkpt>
      <trkpt lat="49.87947" lon="2.2785">
        <ele>61.8</ele>
        <time>2022-07-30T20:12:01Z</time>
      </trkpt>
      <trkpt lat="49.87947" lon="2.2785">
        <ele>61.8</ele>
        <time>2022-07-30T20:12:02Z</time>
      </trkpt>
      <trkpt lat="49.87947" lon="2.2785">
        <ele>61.8</ele>
        <time>2022-07-30T20:12:03Z</time>
      </trkpt>
      <trkpt lat="49.87947" lon="2.2785">
        <ele>61.8</ele>
        <time>2022-07-30T20:12:04Z</time>
      </trkpt>
      <trkpt lat="49.87947" lon="2.2785">
        <ele>61.8</ele>
        <time>2022-07-30T20:12:05Z</time>
      </trkpt>
      <trkpt lat="49.87947" lon="2.2785">
        <ele>61.8</ele>
        <time>2022-07-30T20:12:06Z</time>
      </trkpt>
      <trkpt lat="49.87946" lon="2.27851">
        <ele>61.8</ele>
        <time>2022-07-30T20:12:07Z</time>
      </trkpt>
      <trkpt lat="49.87946" lon="2.27851">
        <ele>61.8</ele>
        <time>2022-07-30T20:12:08Z</time>
      </trkpt>
      <trkpt lat="49.87946" lon="2.27851">
        <ele>61.7</ele>
        <time>2022-07-30T20:12:09Z</time>
      </trkpt>
      <trkpt lat="49.87946" lon="2.27851">
        <ele>61.7</ele>
        <time>2022-07-30T20:12:10Z</time>
      </trkpt>
      <trkpt lat="49.87943" lon="2.27852">
        <ele>61.7</ele>
        <time>2022-07-30T20:12:11Z</time>
      </trkpt>
      <trkpt lat="49.87942" lon="2.27852">
        <ele>61.7</ele>
        <time>2022-07-30T20:12:12Z</time>
      </trkpt>
      <trkpt lat="49.8794" lon="2.27851">
        <ele>61.7</ele>
        <time>2022-07-30T20:12:13Z</time>
      </trkpt>
      <trkpt lat="49.8794" lon="2.2785">
        <ele>61.7</ele>
        <time>2022-07-30T20:12:14Z</time>
      </trkpt>
      <trkpt lat="49.87939" lon="2.27848">
        <ele>61.7</ele>
        <time>2022-07-30T20:12:15Z</time>
      </trkpt>
      <trkpt lat="49.87942" lon="2.27849">
        <ele>61.7</ele>
        <time>2022-07-30T20:12:16Z</time>
      </trkpt>
      <trkpt lat="49.87946" lon="2.27849">
        <ele>61.6</ele>
        <time>2022-07-30T20:12:17Z</time>
      </trkpt>
      <trkpt lat="49.87949" lon="2.27849">
        <ele>61.6</ele>
        <time>2022-07-30T20:12:18Z</time>
      </trkpt>
      <trkpt lat="49.87949" lon="2.27849">
        <ele>61.6</ele>
        <time>2022-07-30T20:12:19Z</time>
      </trkpt>
      <trkpt lat="49.8795" lon="2.27849">
        <ele>61.6</ele>
        <time>2022-07-30T20:12:20Z</time>
      </trkpt>
      <trkpt lat="49.8795" lon="2.27849">
        <ele>61.6</ele>
        <time>2022-07-30T20:12:21Z</time>
      </trkpt>
      <trkpt lat="49.8795" lon="2.27849">
        <ele>61.6</ele>
        <time>2022-07-30T20:12:22Z</time>
      </trkpt>
      <trkpt lat="49.8795" lon="2.27849">
        <ele>61.6</ele>
        <time>2022-07-30T20:12:23Z</time>
      </trkpt>
      <trkpt lat="49.8795" lon="2.27849">
        <ele>61.6</ele>
        <time>2022-07-30T20:12:24Z</time>
      </trkpt>
      <trkpt lat="49.87949" lon="2.27849">
        <ele>61.6</ele>
        <time>2022-07-30T20:12:25Z</time>
      </trkpt>
      <trkpt lat="49.87948" lon="2.27849">
        <ele>61.6</ele>
        <time>2022-07-30T20:12:26Z</time>
      </trkpt>
      <trkpt lat="49.87946" lon="2.27849">
        <ele>61.6</ele>
        <time>2022-07-30T20:12:27Z</time>
      </trkpt>
      <trkpt lat="49.87946" lon="2.27849">
        <ele>61.6</ele>
        <time>2022-07-30T20:12:28Z</time>
      </trkpt>
      <trkpt lat="49.87946" lon="2.27848">
        <ele>61.6</ele>
        <time>2022-07-30T20:12:29Z</time>
      </trkpt>
      <trkpt lat="49.87947" lon="2.27852">
        <ele>61.6</ele>
        <time>2022-07-30T20:12:30Z</time>
      </trkpt>
      <trkpt lat="49.87947" lon="2.27853">
        <ele>61.6</ele>
        <time>2022-07-30T20:12:31Z</time>
      </trkpt>
      <trkpt lat="49.87948" lon="2.27855">
        <ele>61.5</ele>
        <time>2022-07-30T20:12:32Z</time>
      </trkpt>
      <trkpt lat="49.87949" lon="2.27856">
        <ele>61.5</ele>
        <time>2022-07-30T20:12:34Z</time>
      </trkpt>
      <trkpt lat="49.8795" lon="2.27857">
        <ele>61.5</ele>
        <time>2022-07-30T20:12:35Z</time>
      </trkpt>
      <trkpt lat="49.87951" lon="2.27858">
        <ele>61.5</ele>
        <time>2022-07-30T20:12:36Z</time>
      </trkpt>
      <trkpt lat="49.87952" lon="2.27859">
        <ele>61.5</ele>
        <time>2022-07-30T20:12:37Z</time>
      </trkpt>
      <trkpt lat="49.87952" lon="2.2786">
        <ele>61.5</ele>
        <time>2022-07-30T20:12:39Z</time>
      </trkpt>
      <trkpt lat="49.87954" lon="2.27863">
        <ele>61.5</ele>
        <time>2022-07-30T20:12:40Z</time>
      </trkpt>
      <trkpt lat="49.87954" lon="2.27863">
        <ele>61.5</ele>
        <time>2022-07-30T20:12:41Z</time>
      </trkpt>
      <trkpt lat="49.87955" lon="2.27864">
        <ele>61.5</ele>
        <time>2022-07-30T20:12:42Z</time>
      </trkpt>
      <trkpt lat="49.87955" lon="2.27865">
        <ele>61.5</ele>
        <time>2022-07-30T20:12:43Z</time>
      </trkpt>
      <trkpt lat="49.87956" lon="2.27867">
        <ele>61.4</ele>
        <time>2022-07-30T20:12:44Z</time>
      </trkpt>
      <trkpt lat="49.87956" lon="2.27868">
        <ele>61.4</ele>
        <time>2022-07-30T20:12:45Z</time>
      </trkpt>
      <trkpt lat="49.87957" lon="2.27869">
        <ele>61.4</ele>
        <time>2022-07-30T20:12:47Z</time>
      </trkpt>
      <trkpt lat="49.87957" lon="2.2787">
        <ele>61.4</ele>
        <time>2022-07-30T20:12:48Z</time>
      </trkpt>
      <trkpt lat="49.87958" lon="2.27871">
        <ele>61.4</ele>
        <time>2022-07-30T20:12:49Z</time>
      </trkpt>
      <trkpt lat="49.8796" lon="2.27872">
        <ele>61.4</ele>
        <time>2022-07-30T20:12:50Z</time>
      </trkpt>
      <trkpt lat="49.87961" lon="2.27871">
        <ele>61.4</ele>
        <time>2022-07-30T20:12:51Z</time>
      </trkpt>
      <trkpt lat="49.87961" lon="2.27872">
        <ele>61.3</ele>
        <time>2022-07-30T20:12:52Z</time>
      </trkpt>
      <trkpt lat="49.87962" lon="2.27874">
        <ele>61.3</ele>
        <time>2022-07-30T20:12:54Z</time>
      </trkpt>
      <trkpt lat="49.87964" lon="2.27874">
        <ele>61.3</ele>
        <time>2022-07-30T20:12:55Z</time>
      </trkpt>
      <trkpt lat="49.87964" lon="2.27874">
        <ele>61.3</ele>
        <time>2022-07-30T20:12:56Z</time>
      </trkpt>
      <trkpt lat="49.87965" lon="2.27875">
        <ele>61.3</ele>
        <time>2022-07-30T20:12:57Z</time>
      </trkpt>
      <trkpt lat="49.87965" lon="2.27876">
        <ele>61.3</ele>
        <time>2022-07-30T20:12:58Z</time>
      </trkpt>
      <trkpt lat="49.87968" lon="2.27875">
        <ele>61.2</ele>
        <time>2022-07-30T20:13:00Z</time>
      </trkpt>
      <trkpt lat="49.87968" lon="2.27875">
        <ele>61.2</ele>
        <time>2022-07-30T20:13:01Z</time>
      </trkpt>
      <trkpt lat="49.87969" lon="2.27876">
        <ele>61.2</ele>
        <time>2022-07-30T20:13:02Z</time>
      </trkpt>
      <trkpt lat="49.87969" lon="2.27877">
        <ele>61.2</ele>
        <time>2022-07-30T20:13:03Z</time>
      </trkpt>
      <trkpt lat="49.8797" lon="2.27878">
        <ele>61.2</ele>
        <time>2022-07-30T20:13:04Z</time>
      </trkpt>
      <trkpt lat="49.87969" lon="2.27882">
        <ele>61.2</ele>
        <time>2022-07-30T20:13:05Z</time>
      </trkpt>
      <trkpt lat="49.8797" lon="2.27884">
        <ele>61.1</ele>
        <time>2022-07-30T20:13:06Z</time>
      </trkpt>
      <trkpt lat="49.8797" lon="2.27885">
        <ele>61.1</ele>
        <time>2022-07-30T20:13:08Z</time>
      </trkpt>
      <trkpt lat="49.87971" lon="2.27887">
        <ele>61.1</ele>
        <time>2022-07-30T20:13:09Z</time>
      </trkpt>
      <trkpt lat="49.87971" lon="2.27887">
        <ele>61.1</ele>
        <time>2022-07-30T20:13:10Z</time>
      </trkpt>
      <trkpt lat="49.87972" lon="2.27888">
        <ele>61.1</ele>
        <time>2022-07-30T20:13:11Z</time>
      </trkpt>
      <trkpt lat="49.87973" lon="2.27889">
        <ele>61.1</ele>
        <time>2022-07-30T20:13:12Z</time>
      </trkpt>
      <trkpt lat="49.87974" lon="2.2789">
        <ele>61.1</ele>
        <time>2022-07-30T20:13:14Z</time>
      </trkpt>
      <trkpt lat="49.87975" lon="2.2789">
        <ele>61</ele>
        <time>2022-07-30T20:13:15Z</time>
      </trkpt>
      <trkpt lat="49.87976" lon="2.2789">
        <ele>61</ele>
        <time>2022-07-30T20:13:16Z</time>
      </trkpt>
      <trkpt lat="49.87977" lon="2.27891">
        <ele>61</ele>
        <time>2022-07-30T20:13:17Z</time>
      </trkpt>
      <trkpt lat="49.87979" lon="2.27892">
        <ele>61</ele>
        <time>2022-07-30T20:13:19Z</time>
      </trkpt>
      <trkpt lat="49.8798" lon="2.27893">
        <ele>61</ele>
        <time>2022-07-30T20:13:20Z</time>
      </trkpt>
      <trkpt lat="49.8798" lon="2.27893">
        <ele>60.9</ele>
        <time>2022-07-30T20:13:21Z</time>
      </trkpt>
      <trkpt lat="49.87981" lon="2.27894">
        <ele>60.9</ele>
        <time>2022-07-30T20:13:22Z</time>
      </trkpt>
      <trkpt lat="49.87982" lon="2.27895">
        <ele>60.9</ele>
        <time>2022-07-30T20:13:23Z</time>
      </trkpt>
      <trkpt lat="49.87983" lon="2.27895">
        <ele>60.9</ele>
        <time>2022-07-30T20:13:24Z</time>
      </trkpt>
      <trkpt lat="49.87985" lon="2.27896">
        <ele>60.9</ele>
        <time>2022-07-30T20:13:25Z</time>
      </trkpt>
      <trkpt lat="49.87985" lon="2.27896">
        <ele>60.9</ele>
        <time>2022-07-30T20:13:27Z</time>
      </trkpt>
      <trkpt lat="49.87986" lon="2.27897">
        <ele>60.9</ele>
        <time>2022-07-30T20:13:28Z</time>
      </trkpt>
      <trkpt lat="49.87987" lon="2.27897">
        <ele>60.8</ele>
        <time>2022-07-30T20:13:29Z</time>
      </trkpt>
      <trkpt lat="49.87989" lon="2.27897">
        <ele>60.8</ele>
        <time>2022-07-30T20:13:30Z</time>
      </trkpt>
      <trkpt lat="49.8799" lon="2.27898">
        <ele>60.8</ele>
        <time>2022-07-30T20:13:31Z</time>
      </trkpt>
      <trkpt lat="49.87991" lon="2.27899">
        <ele>60.8</ele>
        <time>2022-07-30T20:13:32Z</time>
      </trkpt>
      <trkpt lat="49.87992" lon="2.27899">
        <ele>60.8</ele>
        <time>2022-07-30T20:13:33Z</time>
      </trkpt>
      <trkpt lat="49.87993" lon="2.279">
        <ele>60.8</ele>
        <time>2022-07-30T20:13:34Z</time>
      </trkpt>
      <trkpt lat="49.87996" lon="2.27902">
        <ele>60.7</ele>
        <time>2022-07-30T20:13:35Z</time>
      </trkpt>
      <trkpt lat="49.87997" lon="2.27903">
        <ele>60.7</ele>
        <time>2022-07-30T20:13:37Z</time>
      </trkpt>
      <trkpt lat="49.87998" lon="2.27904">
        <ele>60.7</ele>
        <time>2022-07-30T20:13:38Z</time>
      </trkpt>
      <trkpt lat="49.87998" lon="2.27905">
        <ele>60.7</ele>
        <time>2022-07-30T20:13:39Z</time>
      </trkpt>
      <trkpt lat="49.87999" lon="2.27906">
        <ele>60.7</ele>
        <time>2022-07-30T20:13:40Z</time>
      </trkpt>
      <trkpt lat="49.88" lon="2.27908">
        <ele>60.7</ele>
        <time>2022-07-30T20:13:41Z</time>
      </trkpt>
      <trkpt lat="49.88001" lon="2.27909">
        <ele>60.7</ele>
        <time>2022-07-30T20:13:42Z</time>
      </trkpt>
      <trkpt lat="49.88002" lon="2.2791">
        <ele>60.6</ele>
        <time>2022-07-30T20:13:44Z</time>
      </trkpt>
      <trkpt lat="49.88003" lon="2.27911">
        <ele>60.6</ele>
        <time>2022-07-30T20:13:45Z</time>
      </trkpt>
      <trkpt lat="49.88004" lon="2.27912">
        <ele>60.6</ele>
        <time>2022-07-30T20:13:47Z</time>
      </trkpt>
      <trkpt lat="49.88005" lon="2.27912">
        <ele>60.6</ele>
        <time>2022-07-30T20:13:48Z</time>
      </trkpt>
      <trkpt lat="49.88006" lon="2.27913">
        <ele>60.6</ele>
        <time>2022-07-30T20:13:49Z</time>
      </trkpt>
      <trkpt lat="49.88007" lon="2.27914">
        <ele>60.6</ele>
        <time>2022-07-30T20:13:50Z</time>
      </trkpt>
      <trkpt lat="49.88008" lon="2.27915">
        <ele>60.6</ele>
        <time>2022-07-30T20:13:52Z</time>
      </trkpt>
      <trkpt lat="49.88009" lon="2.27916">
        <ele>60.6</ele>
        <time>2022-07-30T20:13:53Z</time>
      </trkpt>
      <trkpt lat="49.8801" lon="2.27917">
        <ele>60.6</ele>
        <time>2022-07-30T20:13:54Z</time>
      </trkpt>
      <trkpt lat="49.88011" lon="2.27918">
        <ele>60.5</ele>
        <time>2022-07-30T20:13:55Z</time>
      </trkpt>
      <trkpt lat="49.88012" lon="2.27918">
        <ele>60.5</ele>
        <time>2022-07-30T20:13:57Z</time>
      </trkpt>
      <trkpt lat="49.88013" lon="2.27919">
        <ele>60.5</ele>
        <time>2022-07-30T20:13:58Z</time>
      </trkpt>
      <trkpt lat="49.88014" lon="2.2792">
        <ele>60.5</ele>
        <time>2022-07-30T20:13:59Z</time>
      </trkpt>
      <trkpt lat="49.88015" lon="2.27921">
        <ele>60.5</ele>
        <time>2022-07-30T20:14:01Z</time>
      </trkpt>
      <trkpt lat="49.88016" lon="2.27921">
        <ele>60.5</ele>
        <time>2022-07-30T20:14:02Z</time>
      </trkpt>
      <trkpt lat="49.88017" lon="2.27922">
        <ele>60.5</ele>
        <time>2022-07-30T20:14:03Z</time>
      </trkpt>
      <trkpt lat="49.88017" lon="2.27922">
        <ele>60.5</ele>
        <time>2022-07-30T20:14:04Z</time>
      </trkpt>
      <trkpt lat="49.88018" lon="2.27923">
        <ele>60.5</ele>
        <time>2022-07-30T20:14:05Z</time>
      </trkpt>
      <trkpt lat="49.88019" lon="2.27924">
        <ele>60.5</ele>
        <time>2022-07-30T20:14:06Z</time>
      </trkpt>
      <trkpt lat="49.8802" lon="2.27925">
        <ele>60.5</ele>
        <time>2022-07-30T20:14:07Z</time>
      </trkpt>
      <trkpt lat="49.88021" lon="2.27925">
        <ele>60.4</ele>
        <time>2022-07-30T20:14:08Z</time>
      </trkpt>
      <trkpt lat="49.88022" lon="2.27926">
        <ele>60.4</ele>
        <time>2022-07-30T20:14:10Z</time>
      </trkpt>
      <trkpt lat="49.88023" lon="2.27927">
        <ele>60.4</ele>
        <time>2022-07-30T20:14:11Z</time>
      </trkpt>
      <trkpt lat="49.88024" lon="2.27928">
        <ele>60.4</ele>
        <time>2022-07-30T20:14:12Z</time>
      </trkpt>
      <trkpt lat="49.88024" lon="2.27929">
        <ele>60.4</ele>
        <time>2022-07-30T20:14:13Z</time>
      </trkpt>
      <trkpt lat="49.88025" lon="2.2793">
        <ele>60.4</ele>
        <time>2022-07-30T20:14:14Z</time>
      </trkpt>
      <trkpt lat="49.88026" lon="2.2793">
        <ele>60.4</ele>
        <time>2022-07-30T20:14:15Z</time>
      </trkpt>
      <trkpt lat="49.88026" lon="2.27931">
        <ele>60.4</ele>
        <time>2022-07-30T20:14:16Z</time>
      </trkpt>
      <trkpt lat="49.88027" lon="2.27932">
        <ele>60.4</ele>
        <time>2022-07-30T20:14:18Z</time>
      </trkpt>
      <trkpt lat="49.88027" lon="2.27932">
        <ele>60.4</ele>
        <time>2022-07-30T20:14:19Z</time>
      </trkpt>
      <trkpt lat="49.88028" lon="2.27932">
        <ele>60.4</ele>
        <time>2022-07-30T20:14:20Z</time>
      </trkpt>
      <trkpt lat="49.88028" lon="2.27933">
        <ele>60.4</ele>
        <time>2022-07-30T20:14:21Z</time>
      </trkpt>
      <trkpt lat="49.88029" lon="2.27933">
        <ele>60.4</ele>
        <time>2022-07-30T20:14:22Z</time>
      </trkpt>
      <trkpt lat="49.88029" lon="2.27934">
        <ele>60.4</ele>
        <time>2022-07-30T20:14:23Z</time>
      </trkpt>
      <trkpt lat="49.8803" lon="2.27935">
        <ele>60.4</ele>
        <time>2022-07-30T20:14:24Z</time>
      </trkpt>
      <trkpt lat="49.88031" lon="2.27936">
        <ele>60.4</ele>
        <time>2022-07-30T20:14:25Z</time>
      </trkpt>
      <trkpt lat="49.88032" lon="2.27936">
        <ele>60.4</ele>
        <time>2022-07-30T20:14:26Z</time>
      </trkpt>
      <trkpt lat="49.88033" lon="2.27937">
        <ele>60.3</ele>
        <time>2022-07-30T20:14:28Z</time>
      </trkpt>
      <trkpt lat="49.88033" lon="2.27938">
        <ele>60.3</ele>
        <time>2022-07-30T20:14:29Z</time>
      </trkpt>
      <trkpt lat="49.88035" lon="2.2794">
        <ele>60.3</ele>
        <time>2022-07-30T20:14:31Z</time>
      </trkpt>
      <trkpt lat="49.88036" lon="2.27939">
        <ele>60.3</ele>
        <time>2022-07-30T20:14:32Z</time>
      </trkpt>
      <trkpt lat="49.88037" lon="2.2794">
        <ele>60.3</ele>
        <time>2022-07-30T20:14:33Z</time>
      </trkpt>
      <trkpt lat="49.88037" lon="2.27941">
        <ele>60.3</ele>
        <time>2022-07-30T20:14:34Z</time>
      </trkpt>
      <trkpt lat="49.88039" lon="2.27942">
        <ele>60.3</ele>
        <time>2022-07-30T20:14:35Z</time>
      </trkpt>
      <trkpt lat="49.88039" lon="2.27941">
        <ele>60.3</ele>
        <time>2022-07-30T20:14:36Z</time>
      </trkpt>
      <trkpt lat="49.88039" lon="2.27942">
        <ele>60.3</ele>
        <time>2022-07-30T20:14:37Z</time>
      </trkpt>
      <trkpt lat="49.8804" lon="2.27943">
        <ele>60.3</ele>
        <time>2022-07-30T20:14:38Z</time>
      </trkpt>
      <trkpt lat="49.8804" lon="2.27944">
        <ele>60.3</ele>
        <time>2022-07-30T20:14:39Z</time>
      </trkpt>
      <trkpt lat="49.88043" lon="2.27946">
        <ele>60.3</ele>
        <time>2022-07-30T20:14:41Z</time>
      </trkpt>
      <trkpt lat="49.88044" lon="2.27947">
        <ele>60.3</ele>
        <time>2022-07-30T20:14:42Z</time>
      </trkpt>
      <trkpt lat="49.88045" lon="2.27948">
        <ele>60.3</ele>
        <time>2022-07-30T20:14:43Z</time>
      </trkpt>
      <trkpt lat="49.88046" lon="2.27949">
        <ele>60.3</ele>
        <time>2022-07-30T20:14:44Z</time>
      </trkpt>
      <trkpt lat="49.88048" lon="2.27951">
        <ele>60.3</ele>
        <time>2022-07-30T20:14:45Z</time>
      </trkpt>
      <trkpt lat="49.88048" lon="2.27951">
        <ele>60.3</ele>
        <time>2022-07-30T20:14:46Z</time>
      </trkpt>
      <trkpt lat="49.88049" lon="2.27951">
        <ele>60.3</ele>
        <time>2022-07-30T20:14:47Z</time>
      </trkpt>
      <trkpt lat="49.8805" lon="2.27953">
        <ele>60.3</ele>
        <time>2022-07-30T20:14:48Z</time>
      </trkpt>
      <trkpt lat="49.88052" lon="2.27954">
        <ele>60.3</ele>
        <time>2022-07-30T20:14:50Z</time>
      </trkpt>
      <trkpt lat="49.88053" lon="2.27955">
        <ele>60.3</ele>
        <time>2022-07-30T20:14:51Z</time>
      </trkpt>
      <trkpt lat="49.88054" lon="2.27956">
        <ele>60.3</ele>
        <time>2022-07-30T20:14:52Z</time>
      </trkpt>
      <trkpt lat="49.88055" lon="2.27957">
        <ele>60.3</ele>
        <time>2022-07-30T20:14:53Z</time>
      </trkpt>
      <trkpt lat="49.88057" lon="2.27959">
        <ele>60.3</ele>
        <time>2022-07-30T20:14:54Z</time>
      </trkpt>
      <trkpt lat="49.88058" lon="2.27959">
        <ele>60.3</ele>
        <time>2022-07-30T20:14:55Z</time>
      </trkpt>
      <trkpt lat="49.88059" lon="2.2796">
        <ele>60.3</ele>
        <time>2022-07-30T20:14:57Z</time>
      </trkpt>
      <trkpt lat="49.8806" lon="2.27961">
        <ele>60.3</ele>
        <time>2022-07-30T20:14:58Z</time>
      </trkpt>
      <trkpt lat="49.88061" lon="2.27963">
        <ele>60.3</ele>
        <time>2022-07-30T20:14:59Z</time>
      </trkpt>
      <trkpt lat="49.88062" lon="2.27964">
        <ele>60.3</ele>
        <time>2022-07-30T20:15:00Z</time>
      </trkpt>
      <trkpt lat="49.88063" lon="2.27965">
        <ele>60.3</ele>
        <time>2022-07-30T20:15:01Z</time>
      </trkpt>
      <trkpt lat="49.88063" lon="2.27966">
        <ele>60.3</ele>
        <time>2022-07-30T20:15:02Z</time>
      </trkpt>
      <trkpt lat="49.88064" lon="2.27967">
        <ele>60.3</ele>
        <time>2022-07-30T20:15:04Z</time>
      </trkpt>
      <trkpt lat="49.88065" lon="2.27968">
        <ele>60.3</ele>
        <time>2022-07-30T20:15:05Z</time>
      </trkpt>
      <trkpt lat="49.88066" lon="2.27969">
        <ele>60.3</ele>
        <time>2022-07-30T20:15:06Z</time>
      </trkpt>
      <trkpt lat="49.88067" lon="2.2797">
        <ele>60.3</ele>
        <time>2022-07-30T20:15:07Z</time>
      </trkpt>
      <trkpt lat="49.88068" lon="2.27971">
        <ele>60.3</ele>
        <time>2022-07-30T20:15:08Z</time>
      </trkpt>
      <trkpt lat="49.88068" lon="2.27972">
        <ele>60.3</ele>
        <time>2022-07-30T20:15:10Z</time>
      </trkpt>
      <trkpt lat="49.88069" lon="2.27973">
        <ele>60.3</ele>
        <time>2022-07-30T20:15:11Z</time>
      </trkpt>
      <trkpt lat="49.8807" lon="2.27974">
        <ele>60.3</ele>
        <time>2022-07-30T20:15:12Z</time>
      </trkpt>
      <trkpt lat="49.88071" lon="2.27975">
        <ele>60.3</ele>
        <time>2022-07-30T20:15:13Z</time>
      </trkpt>
      <trkpt lat="49.88072" lon="2.27976">
        <ele>60.3</ele>
        <time>2022-07-30T20:15:14Z</time>
      </trkpt>
      <trkpt lat="49.88073" lon="2.27977">
        <ele>60.4</ele>
        <time>2022-07-30T20:15:16Z</time>
      </trkpt>
      <trkpt lat="49.88074" lon="2.27978">
        <ele>60.4</ele>
        <time>2022-07-30T20:15:17Z</time>
      </trkpt>
      <trkpt lat="49.88075" lon="2.27979">
        <ele>60.4</ele>
        <time>2022-07-30T20:15:18Z</time>
      </trkpt>
      <trkpt lat="49.88075" lon="2.27979">
        <ele>60.4</ele>
        <time>2022-07-30T20:15:19Z</time>
      </trkpt>
      <trkpt lat="49.88076" lon="2.2798">
        <ele>60.4</ele>
        <time>2022-07-30T20:15:20Z</time>
      </trkpt>
      <trkpt lat="49.88077" lon="2.27981">
        <ele>60.4</ele>
        <time>2022-07-30T20:15:21Z</time>
      </trkpt>
      <trkpt lat="49.88078" lon="2.27981">
        <ele>60.4</ele>
        <time>2022-07-30T20:15:23Z</time>
      </trkpt>
      <trkpt lat="49.88079" lon="2.2798">
        <ele>60.4</ele>
        <time>2022-07-30T20:15:24Z</time>
      </trkpt>
      <trkpt lat="49.8808" lon="2.27979">
        <ele>60.4</ele>
        <time>2022-07-30T20:15:25Z</time>
      </trkpt>
      <trkpt lat="49.88081" lon="2.27979">
        <ele>60.4</ele>
        <time>2022-07-30T20:15:26Z</time>
      </trkpt>
      <trkpt lat="49.88082" lon="2.27977">
        <ele>60.4</ele>
        <time>2022-07-30T20:15:27Z</time>
      </trkpt>
      <trkpt lat="49.88082" lon="2.27976">
        <ele>60.4</ele>
        <time>2022-07-30T20:15:28Z</time>
      </trkpt>
      <trkpt lat="49.88083" lon="2.27976">
        <ele>60.4</ele>
        <time>2022-07-30T20:15:29Z</time>
      </trkpt>
      <trkpt lat="49.88084" lon="2.27974">
        <ele>60.4</ele>
        <time>2022-07-30T20:15:30Z</time>
      </trkpt>
      <trkpt lat="49.88084" lon="2.27973">
        <ele>60.4</ele>
        <time>2022-07-30T20:15:31Z</time>
      </trkpt>
      <trkpt lat="49.88085" lon="2.27972">
        <ele>60.4</ele>
        <time>2022-07-30T20:15:32Z</time>
      </trkpt>
      <trkpt lat="49.88085" lon="2.2797">
        <ele>60.4</ele>
        <time>2022-07-30T20:15:33Z</time>
      </trkpt>
      <trkpt lat="49.88086" lon="2.27969">
        <ele>60.5</ele>
        <time>2022-07-30T20:15:35Z</time>
      </trkpt>
      <trkpt lat="49.88086" lon="2.27967">
        <ele>60.5</ele>
        <time>2022-07-30T20:15:36Z</time>
      </trkpt>
      <trkpt lat="49.88087" lon="2.27966">
        <ele>60.5</ele>
        <time>2022-07-30T20:15:37Z</time>
      </trkpt>
      <trkpt lat="49.88087" lon="2.27965">
        <ele>60.5</ele>
        <time>2022-07-30T20:15:38Z</time>
      </trkpt>
      <trkpt lat="49.88087" lon="2.27965">
        <ele>60.5</ele>
        <time>2022-07-30T20:15:39Z</time>
      </trkpt>
      <trkpt lat="49.88087" lon="2.27964">
        <ele>60.5</ele>
        <time>2022-07-30T20:15:40Z</time>
      </trkpt>
      <trkpt lat="49.88088" lon="2.27964">
        <ele>60.5</ele>
        <time>2022-07-30T20:15:41Z</time>
      </trkpt>
      <trkpt lat="49.88088" lon="2.27962">
        <ele>60.5</ele>
        <time>2022-07-30T20:15:42Z</time>
      </trkpt>
      <trkpt lat="49.88088" lon="2.27962">
        <ele>60.5</ele>
        <time>2022-07-30T20:15:43Z</time>
      </trkpt>
      <trkpt lat="49.88088" lon="2.27961">
        <ele>60.5</ele>
        <time>2022-07-30T20:15:44Z</time>
      </trkpt>
      <trkpt lat="49.88088" lon="2.27961">
        <ele>60.5</ele>
        <time>2022-07-30T20:15:45Z</time>
      </trkpt>
      <trkpt lat="49.88088" lon="2.2796">
        <ele>60.5</ele>
        <time>2022-07-30T20:15:46Z</time>
      </trkpt>
      <trkpt lat="49.88088" lon="2.2796">
        <ele>60.5</ele>
        <time>2022-07-30T20:15:47Z</time>
      </trkpt>
      <trkpt lat="49.88088" lon="2.2796">
        <ele>60.5</ele>
        <time>2022-07-30T20:15:48Z</time>
      </trkpt>
      <trkpt lat="49.88088" lon="2.2796">
        <ele>60.5</ele>
        <time>2022-07-30T20:15:49Z</time>
      </trkpt>
      <trkpt lat="49.88088" lon="2.2796">
        <ele>60.5</ele>
        <time>2022-07-30T20:15:50Z</time>
      </trkpt>
      <trkpt lat="49.88088" lon="2.27959">
        <ele>60.5</ele>
        <time>2022-07-30T20:15:51Z</time>
      </trkpt>
      <trkpt lat="49.88087" lon="2.27959">
        <ele>60.5</ele>
        <time>2022-07-30T20:15:52Z</time>
      </trkpt>
      <trkpt lat="49.88087" lon="2.27959">
        <ele>60.5</ele>
        <time>2022-07-30T20:15:53Z</time>
      </trkpt>
      <trkpt lat="49.88087" lon="2.27959">
        <ele>60.5</ele>
        <time>2022-07-30T20:15:54Z</time>
      </trkpt>
      <trkpt lat="49.88087" lon="2.27959">
        <ele>60.5</ele>
        <time>2022-07-30T20:15:55Z</time>
      </trkpt>
      <trkpt lat="49.88087" lon="2.27959">
        <ele>60.5</ele>
        <time>2022-07-30T20:15:56Z</time>
      </trkpt>
      <trkpt lat="49.88087" lon="2.27959">
        <ele>60.5</ele>
        <time>2022-07-30T20:15:57Z</time>
      </trkpt>
      <trkpt lat="49.88087" lon="2.27959">
        <ele>60.5</ele>
        <time>2022-07-30T20:15:58Z</time>
      </trkpt>
      <trkpt lat="49.88087" lon="2.27959">
        <ele>60.5</ele>
        <time>2022-07-30T20:15:59Z</time>
      </trkpt>
      <trkpt lat="49.88087" lon="2.27959">
        <ele>60.5</ele>
        <time>2022-07-30T20:16:00Z</time>
      </trkpt>
      <trkpt lat="49.88087" lon="2.27959">
        <ele>60.5</ele>
        <time>2022-07-30T20:16:01Z</time>
      </trkpt>
      <trkpt lat="49.88087" lon="2.27959">
        <ele>60.5</ele>
        <time>2022-07-30T20:16:02Z</time>
      </trkpt>
      <trkpt lat="49.88087" lon="2.27959">
        <ele>60.5</ele>
        <time>2022-07-30T20:16:03Z</time>
      </trkpt>
      <trkpt lat="49.88087" lon="2.27959">
        <ele>60.5</ele>
        <time>2022-07-30T20:16:04Z</time>
      </trkpt>
      <trkpt lat="49.88087" lon="2.27959">
        <ele>60.5</ele>
        <time>2022-07-30T20:16:05Z</time>
      </trkpt>
      <trkpt lat="49.88087" lon="2.27959">
        <ele>60.5</ele>
        <time>2022-07-30T20:16:06Z</time>
      </trkpt>
      <trkpt lat="49.88087" lon="2.27959">
        <ele>60.5</ele>
        <time>2022-07-30T20:16:07Z</time>
      </trkpt>
      <trkpt lat="49.88087" lon="2.27959">
        <ele>60.5</ele>
        <time>2022-07-30T20:16:08Z</time>
      </trkpt>
      <trkpt lat="49.88087" lon="2.27959">
        <ele>60.5</ele>
        <time>2022-07-30T20:16:09Z</time>
      </trkpt>
      <trkpt lat="49.88087" lon="2.27959">
        <ele>60.5</ele>
        <time>2022-07-30T20:16:10Z</time>
      </trkpt>
      <trkpt lat="49.88087" lon="2.27959">
        <ele>60.5</ele>
        <time>2022-07-30T20:16:11Z</time>
      </trkpt>
      <trkpt lat="49.88087" lon="2.27959">
        <ele>60.5</ele>
        <time>2022-07-30T20:16:12Z</time>
      </trkpt>
      <trkpt lat="49.88087" lon="2.27959">
        <ele>60.5</ele>
        <time>2022-07-30T20:16:13Z</time>
      </trkpt>
      <trkpt lat="49.88087" lon="2.27959">
        <ele>60.5</ele>
        <time>2022-07-30T20:16:14Z</time>
      </trkpt>
      <trkpt lat="49.88087" lon="2.27959">
        <ele>60.5</ele>
        <time>2022-07-30T20:16:15Z</time>
      </trkpt>
      <trkpt lat="49.88087" lon="2.27959">
        <ele>60.5</ele>
        <time>2022-07-30T20:16:16Z</time>
      </trkpt>
      <trkpt lat="49.88087" lon="2.27959">
        <ele>60.5</ele>
        <time>2022-07-30T20:16:17Z</time>
      </trkpt>
      <trkpt lat="49.88087" lon="2.27959">
        <ele>60.5</ele>
        <time>2022-07-30T20:16:18Z</time>
      </trkpt>
      <trkpt lat="49.88087" lon="2.27959">
        <ele>60.5</ele>
        <time>2022-07-30T20:16:19Z</time>
      </trkpt>
      <trkpt lat="49.88087" lon="2.27959">
        <ele>60.5</ele>
        <time>2022-07-30T20:16:20Z</time>
      </trkpt>
      <trkpt lat="49.88087" lon="2.27959">
        <ele>60.5</ele>
        <time>2022-07-30T20:16:21Z</time>
      </trkpt>
      <trkpt lat="49.88087" lon="2.27959">
        <ele>60.5</ele>
        <time>2022-07-30T20:16:22Z</time>
      </trkpt>
      <trkpt lat="49.88087" lon="2.27959">
        <ele>60.5</ele>
        <time>2022-07-30T20:16:23Z</time>
      </trkpt>
      <trkpt lat="49.88087" lon="2.27959">
        <ele>60.5</ele>
        <time>2022-07-30T20:16:24Z</time>
      </trkpt>
      <trkpt lat="49.88087" lon="2.27959">
        <ele>60.5</ele>
        <time>2022-07-30T20:16:25Z</time>
      </trkpt>
      <trkpt lat="49.88087" lon="2.27959">
        <ele>60.5</ele>
        <time>2022-07-30T20:16:26Z</time>
      </trkpt>
      <trkpt lat="49.88087" lon="2.27959">
        <ele>60.5</ele>
        <time>2022-07-30T20:16:27Z</time>
      </trkpt>
      <trkpt lat="49.88087" lon="2.27959">
        <ele>60.5</ele>
        <time>2022-07-30T20:16:28Z</time>
      </trkpt>
      <trkpt lat="49.88087" lon="2.27959">
        <ele>60.5</ele>
        <time>2022-07-30T20:16:29Z</time>
      </trkpt>
      <trkpt lat="49.88087" lon="2.27959">
        <ele>60.5</ele>
        <time>2022-07-30T20:16:30Z</time>
      </trkpt>
      <trkpt lat="49.88087" lon="2.27959">
        <ele>60.5</ele>
        <time>2022-07-30T20:16:31Z</time>
      </trkpt>
      <trkpt lat="49.88087" lon="2.27963">
        <ele>60.6</ele>
        <time>2022-07-30T20:16:32Z</time>
      </trkpt>
      <trkpt lat="49.88087" lon="2.27965">
        <ele>60.6</ele>
        <time>2022-07-30T20:16:33Z</time>
      </trkpt>
      <trkpt lat="49.88087" lon="2.27966">
        <ele>60.6</ele>
        <time>2022-07-30T20:16:34Z</time>
      </trkpt>
      <trkpt lat="49.88087" lon="2.27966">
        <ele>60.6</ele>
        <time>2022-07-30T20:16:35Z</time>
      </trkpt>
      <trkpt lat="49.88087" lon="2.27965">
        <ele>60.6</ele>
        <time>2022-07-30T20:16:36Z</time>
      </trkpt>
      <trkpt lat="49.88087" lon="2.27966">
        <ele>60.6</ele>
        <time>2022-07-30T20:16:37Z</time>
      </trkpt>
      <trkpt lat="49.88087" lon="2.27966">
        <ele>60.6</ele>
        <time>2022-07-30T20:16:38Z</time>
      </trkpt>
      <trkpt lat="49.88087" lon="2.27966">
        <ele>60.6</ele>
        <time>2022-07-30T20:16:39Z</time>
      </trkpt>
      <trkpt lat="49.88087" lon="2.27966">
        <ele>60.6</ele>
        <time>2022-07-30T20:16:40Z</time>
      </trkpt>
      <trkpt lat="49.88087" lon="2.27966">
        <ele>60.6</ele>
        <time>2022-07-30T20:16:41Z</time>
      </trkpt>
      <trkpt lat="49.88087" lon="2.27966">
        <ele>60.6</ele>
        <time>2022-07-30T20:16:42Z</time>
      </trkpt>
      <trkpt lat="49.88087" lon="2.27966">
        <ele>60.6</ele>
        <time>2022-07-30T20:16:43Z</time>
      </trkpt>
      <trkpt lat="49.88087" lon="2.27966">
        <ele>60.6</ele>
        <time>2022-07-30T20:16:44Z</time>
      </trkpt>
      <trkpt lat="49.88087" lon="2.27966">
        <ele>60.6</ele>
        <time>2022-07-30T20:16:45Z</time>
      </trkpt>
      <trkpt lat="49.88087" lon="2.27966">
        <ele>60.6</ele>
        <time>2022-07-30T20:16:46Z</time>
      </trkpt>
      <trkpt lat="49.88087" lon="2.27965">
        <ele>60.6</ele>
        <time>2022-07-30T20:16:47Z</time>
      </trkpt>
      <trkpt lat="49.88088" lon="2.27965">
        <ele>60.6</ele>
        <time>2022-07-30T20:16:48Z</time>
      </trkpt>
      <trkpt lat="49.88087" lon="2.27965">
        <ele>60.6</ele>
        <time>2022-07-30T20:16:49Z</time>
      </trkpt>
      <trkpt lat="49.88087" lon="2.27965">
        <ele>60.6</ele>
        <time>2022-07-30T20:16:50Z</time>
      </trkpt>
      <trkpt lat="49.88087" lon="2.27965">
        <ele>60.6</ele>
        <time>2022-07-30T20:16:51Z</time>
      </trkpt>
      <trkpt lat="49.88086" lon="2.27965">
        <ele>60.6</ele>
        <time>2022-07-30T20:16:52Z</time>
      </trkpt>
      <trkpt lat="49.88086" lon="2.27965">
        <ele>60.6</ele>
        <time>2022-07-30T20:16:53Z</time>
      </trkpt>
      <trkpt lat="49.88086" lon="2.27965">
        <ele>60.6</ele>
        <time>2022-07-30T20:16:54Z</time>
      </trkpt>
      <trkpt lat="49.88086" lon="2.27965">
        <ele>60.6</ele>
        <time>2022-07-30T20:16:55Z</time>
      </trkpt>
      <trkpt lat="49.88086" lon="2.27965">
        <ele>60.6</ele>
        <time>2022-07-30T20:16:56Z</time>
      </trkpt>
      <trkpt lat="49.88086" lon="2.27966">
        <ele>60.6</ele>
        <time>2022-07-30T20:16:57Z</time>
      </trkpt>
      <trkpt lat="49.88086" lon="2.27966">
        <ele>60.6</ele>
        <time>2022-07-30T20:16:58Z</time>
      </trkpt>
      <trkpt lat="49.88086" lon="2.27966">
        <ele>60.6</ele>
        <time>2022-07-30T20:16:59Z</time>
      </trkpt>
      <trkpt lat="49.88086" lon="2.27966">
        <ele>60.6</ele>
        <time>2022-07-30T20:17:00Z</time>
      </trkpt>
      <trkpt lat="49.88086" lon="2.27966">
        <ele>60.6</ele>
        <time>2022-07-30T20:17:01Z</time>
      </trkpt>
      <trkpt lat="49.88086" lon="2.27966">
        <ele>60.6</ele>
        <time>2022-07-30T20:17:02Z</time>
      </trkpt>
      <trkpt lat="49.88086" lon="2.27966">
        <ele>60.6</ele>
        <time>2022-07-30T20:17:03Z</time>
      </trkpt>
      <trkpt lat="49.88086" lon="2.27966">
        <ele>60.6</ele>
        <time>2022-07-30T20:17:04Z</time>
      </trkpt>
      <trkpt lat="49.88086" lon="2.27966">
        <ele>60.6</ele>
        <time>2022-07-30T20:17:05Z</time>
      </trkpt>
      <trkpt lat="49.88086" lon="2.27966">
        <ele>60.6</ele>
        <time>2022-07-30T20:17:06Z</time>
      </trkpt>
      <trkpt lat="49.88087" lon="2.27966">
        <ele>60.6</ele>
        <time>2022-07-30T20:17:07Z</time>
      </trkpt>
      <trkpt lat="49.88087" lon="2.27966">
        <ele>60.6</ele>
        <time>2022-07-30T20:17:08Z</time>
      </trkpt>
      <trkpt lat="49.88087" lon="2.27966">
        <ele>60.6</ele>
        <time>2022-07-30T20:17:09Z</time>
      </trkpt>
      <trkpt lat="49.88087" lon="2.27966">
        <ele>60.6</ele>
        <time>2022-07-30T20:17:10Z</time>
      </trkpt>
      <trkpt lat="49.88087" lon="2.27966">
        <ele>60.6</ele>
        <time>2022-07-30T20:17:11Z</time>
      </trkpt>
      <trkpt lat="49.88087" lon="2.27966">
        <ele>60.6</ele>
        <time>2022-07-30T20:17:12Z</time>
      </trkpt>
      <trkpt lat="49.88087" lon="2.27966">
        <ele>60.6</ele>
        <time>2022-07-30T20:17:13Z</time>
      </trkpt>
      <trkpt lat="49.88087" lon="2.27966">
        <ele>60.6</ele>
        <time>2022-07-30T20:17:14Z</time>
      </trkpt>
      <trkpt lat="49.88087" lon="2.27966">
        <ele>60.6</ele>
        <time>2022-07-30T20:17:15Z</time>
      </trkpt>
      <trkpt lat="49.88087" lon="2.27966">
        <ele>60.6</ele>
        <time>2022-07-30T20:17:16Z</time>
      </trkpt>
      <trkpt lat="49.88087" lon="2.27966">
        <ele>60.6</ele>
        <time>2022-07-30T20:17:17Z</time>
      </trkpt>
      <trkpt lat="49.88087" lon="2.27966">
        <ele>60.6</ele>
        <time>2022-07-30T20:17:18Z</time>
      </trkpt>
      <trkpt lat="49.88087" lon="2.27966">
        <ele>60.6</ele>
        <time>2022-07-30T20:17:19Z</time>
      </trkpt>
      <trkpt lat="49.88087" lon="2.27966">
        <ele>60.6</ele>
        <time>2022-07-30T20:17:20Z</time>
      </trkpt>
      <trkpt lat="49.88087" lon="2.27966">
        <ele>60.6</ele>
        <time>2022-07-30T20:17:21Z</time>
      </trkpt>
      <trkpt lat="49.88087" lon="2.27966">
        <ele>60.6</ele>
        <time>2022-07-30T20:17:22Z</time>
      </trkpt>
      <trkpt lat="49.88087" lon="2.27966">
        <ele>60.6</ele>
        <time>2022-07-30T20:17:23Z</time>
      </trkpt>
      <trkpt lat="49.88087" lon="2.27966">
        <ele>60.6</ele>
        <time>2022-07-30T20:17:24Z</time>
      </trkpt>
      <trkpt lat="49.88087" lon="2.27966">
        <ele>60.6</ele>
        <time>2022-07-30T20:17:25Z</time>
      </trkpt>
      <trkpt lat="49.88087" lon="2.27966">
        <ele>60.6</ele>
        <time>2022-07-30T20:17:26Z</time>
      </trkpt>
      <trkpt lat="49.88087" lon="2.27966">
        <ele>60.6</ele>
        <time>2022-07-30T20:17:27Z</time>
      </trkpt>
      <trkpt lat="49.88087" lon="2.27966">
        <ele>60.6</ele>
        <time>2022-07-30T20:17:28Z</time>
      </trkpt>
      <trkpt lat="49.88087" lon="2.27966">
        <ele>60.6</ele>
        <time>2022-07-30T20:17:29Z</time>
      </trkpt>
      <trkpt lat="49.88087" lon="2.27966">
        <ele>60.6</ele>
        <time>2022-07-30T20:17:30Z</time>
      </trkpt>
      <trkpt lat="49.88087" lon="2.27966">
        <ele>60.6</ele>
        <time>2022-07-30T20:17:31Z</time>
      </trkpt>
      <trkpt lat="49.88087" lon="2.27966">
        <ele>60.6</ele>
        <time>2022-07-30T20:17:32Z</time>
      </trkpt>
      <trkpt lat="49.88087" lon="2.27966">
        <ele>60.6</ele>
        <time>2022-07-30T20:17:33Z</time>
      </trkpt>
      <trkpt lat="49.88087" lon="2.27966">
        <ele>60.6</ele>
        <time>2022-07-30T20:17:34Z</time>
      </trkpt>
      <trkpt lat="49.88087" lon="2.27966">
        <ele>60.6</ele>
        <time>2022-07-30T20:17:35Z</time>
      </trkpt>
      <trkpt lat="49.88087" lon="2.27966">
        <ele>60.6</ele>
        <time>2022-07-30T20:17:36Z</time>
      </trkpt>
      <trkpt lat="49.88087" lon="2.27966">
        <ele>60.6</ele>
        <time>2022-07-30T20:17:37Z</time>
      </trkpt>
      <trkpt lat="49.88087" lon="2.27966">
        <ele>60.6</ele>
        <time>2022-07-30T20:17:38Z</time>
      </trkpt>
      <trkpt lat="49.88087" lon="2.27966">
        <ele>60.6</ele>
        <time>2022-07-30T20:17:39Z</time>
      </trkpt>
      <trkpt lat="49.88087" lon="2.27966">
        <ele>60.6</ele>
        <time>2022-07-30T20:17:40Z</time>
      </trkpt>
      <trkpt lat="49.88087" lon="2.27966">
        <ele>60.6</ele>
        <time>2022-07-30T20:17:41Z</time>
      </trkpt>
      <trkpt lat="49.88087" lon="2.27966">
        <ele>60.6</ele>
        <time>2022-07-30T20:17:42Z</time>
      </trkpt>
      <trkpt lat="49.88087" lon="2.27966">
        <ele>60.6</ele>
        <time>2022-07-30T20:17:43Z</time>
      </trkpt>
      <trkpt lat="49.88087" lon="2.27966">
        <ele>60.6</ele>
        <time>2022-07-30T20:17:44Z</time>
      </trkpt>
      <trkpt lat="49.88087" lon="2.27966">
        <ele>60.6</ele>
        <time>2022-07-30T20:17:45Z</time>
      </trkpt>
      <trkpt lat="49.88087" lon="2.27966">
        <ele>60.6</ele>
        <time>2022-07-30T20:17:46Z</time>
      </trkpt>
      <trkpt lat="49.88087" lon="2.27966">
        <ele>60.6</ele>
        <time>2022-07-30T20:17:47Z</time>
      </trkpt>
      <trkpt lat="49.88087" lon="2.27966">
        <ele>60.6</ele>
        <time>2022-07-30T20:17:48Z</time>
      </trkpt>
      <trkpt lat="49.88087" lon="2.27966">
        <ele>60.6</ele>
        <time>2022-07-30T20:17:49Z</time>
      </trkpt>
      <trkpt lat="49.88087" lon="2.27966">
        <ele>60.6</ele>
        <time>2022-07-30T20:17:50Z</time>
      </trkpt>
      <trkpt lat="49.88087" lon="2.27966">
        <ele>60.6</ele>
        <time>2022-07-30T20:17:51Z</time>
      </trkpt>
      <trkpt lat="49.88087" lon="2.27966">
        <ele>60.6</ele>
        <time>2022-07-30T20:17:52Z</time>
      </trkpt>
      <trkpt lat="49.88087" lon="2.27966">
        <ele>60.6</ele>
        <time>2022-07-30T20:17:53Z</time>
      </trkpt>
      <trkpt lat="49.88087" lon="2.27966">
        <ele>60.6</ele>
        <time>2022-07-30T20:17:54Z</time>
      </trkpt>
      <trkpt lat="49.88087" lon="2.27966">
        <ele>60.6</ele>
        <time>2022-07-30T20:17:55Z</time>
      </trkpt>
      <trkpt lat="49.88087" lon="2.27966">
        <ele>60.6</ele>
        <time>2022-07-30T20:17:56Z</time>
      </trkpt>
      <trkpt lat="49.88087" lon="2.27966">
        <ele>60.6</ele>
        <time>2022-07-30T20:17:57Z</time>
      </trkpt>
      <trkpt lat="49.88087" lon="2.27966">
        <ele>60.6</ele>
        <time>2022-07-30T20:17:58Z</time>
      </trkpt>
      <trkpt lat="49.88087" lon="2.27966">
        <ele>60.6</ele>
        <time>2022-07-30T20:17:59Z</time>
      </trkpt>
      <trkpt lat="49.88087" lon="2.27966">
        <ele>60.6</ele>
        <time>2022-07-30T20:18:00Z</time>
      </trkpt>
      <trkpt lat="49.88087" lon="2.27966">
        <ele>60.6</ele>
        <time>2022-07-30T20:18:01Z</time>
      </trkpt>
      <trkpt lat="49.88087" lon="2.27966">
        <ele>60.6</ele>
        <time>2022-07-30T20:18:02Z</time>
      </trkpt>
      <trkpt lat="49.88087" lon="2.27966">
        <ele>60.6</ele>
        <time>2022-07-30T20:18:03Z</time>
      </trkpt>
      <trkpt lat="49.88087" lon="2.27966">
        <ele>60.6</ele>
        <time>2022-07-30T20:18:04Z</time>
      </trkpt>
      <trkpt lat="49.88087" lon="2.27966">
        <ele>60.6</ele>
        <time>2022-07-30T20:18:05Z</time>
      </trkpt>
      <trkpt lat="49.88087" lon="2.27966">
        <ele>60.6</ele>
        <time>2022-07-30T20:18:06Z</time>
      </trkpt>
      <trkpt lat="49.88087" lon="2.27966">
        <ele>60.6</ele>
        <time>2022-07-30T20:18:07Z</time>
      </trkpt>
      <trkpt lat="49.88087" lon="2.27966">
        <ele>60.6</ele>
        <time>2022-07-30T20:18:08Z</time>
      </trkpt>
      <trkpt lat="49.88087" lon="2.27966">
        <ele>60.6</ele>
        <time>2022-07-30T20:18:09Z</time>
      </trkpt>
      <trkpt lat="49.88087" lon="2.27966">
        <ele>60.6</ele>
        <time>2022-07-30T20:18:10Z</time>
      </trkpt>
      <trkpt lat="49.88087" lon="2.27966">
        <ele>60.6</ele>
        <time>2022-07-30T20:18:11Z</time>
      </trkpt>
      <trkpt lat="49.88087" lon="2.27966">
        <ele>60.6</ele>
        <time>2022-07-30T20:18:12Z</time>
      </trkpt>
      <trkpt lat="49.88087" lon="2.27966">
        <ele>60.6</ele>
        <time>2022-07-30T20:18:13Z</time>
      </trkpt>
      <trkpt lat="49.88087" lon="2.27966">
        <ele>60.6</ele>
        <time>2022-07-30T20:18:14Z</time>
      </trkpt>
      <trkpt lat="49.88087" lon="2.27966">
        <ele>60.6</ele>
        <time>2022-07-30T20:18:15Z</time>
      </trkpt>
      <trkpt lat="49.88087" lon="2.27966">
        <ele>60.6</ele>
        <time>2022-07-30T20:18:16Z</time>
      </trkpt>
      <trkpt lat="49.88087" lon="2.27966">
        <ele>60.6</ele>
        <time>2022-07-30T20:18:17Z</time>
      </trkpt>
      <trkpt lat="49.88087" lon="2.27966">
        <ele>60.6</ele>
        <time>2022-07-30T20:18:18Z</time>
      </trkpt>
      <trkpt lat="49.88087" lon="2.27966">
        <ele>60.6</ele>
        <time>2022-07-30T20:18:19Z</time>
      </trkpt>
      <trkpt lat="49.88087" lon="2.27966">
        <ele>60.6</ele>
        <time>2022-07-30T20:18:20Z</time>
      </trkpt>
      <trkpt lat="49.88087" lon="2.27966">
        <ele>60.6</ele>
        <time>2022-07-30T20:18:21Z</time>
      </trkpt>
      <trkpt lat="49.88087" lon="2.27966">
        <ele>60.6</ele>
        <time>2022-07-30T20:18:22Z</time>
      </trkpt>
      <trkpt lat="49.88087" lon="2.27966">
        <ele>60.6</ele>
        <time>2022-07-30T20:18:23Z</time>
      </trkpt>
      <trkpt lat="49.88087" lon="2.27966">
        <ele>60.6</ele>
        <time>2022-07-30T20:18:24Z</time>
      </trkpt>
      <trkpt lat="49.88087" lon="2.27966">
        <ele>60.6</ele>
        <time>2022-07-30T20:18:25Z</time>
      </trkpt>
      <trkpt lat="49.88087" lon="2.27966">
        <ele>60.6</ele>
        <time>2022-07-30T20:18:26Z</time>
      </trkpt>
      <trkpt lat="49.88087" lon="2.27966">
        <ele>60.6</ele>
        <time>2022-07-30T20:18:27Z</time>
      </trkpt>
      <trkpt lat="49.88087" lon="2.27966">
        <ele>60.6</ele>
        <time>2022-07-30T20:18:28Z</time>
      </trkpt>
      <trkpt lat="49.88087" lon="2.27966">
        <ele>60.6</ele>
        <time>2022-07-30T20:18:29Z</time>
      </trkpt>
      <trkpt lat="49.88087" lon="2.27966">
        <ele>60.6</ele>
        <time>2022-07-30T20:18:30Z</time>
      </trkpt>
      <trkpt lat="49.88087" lon="2.27966">
        <ele>60.6</ele>
        <time>2022-07-30T20:18:31Z</time>
      </trkpt>
      <trkpt lat="49.88087" lon="2.27966">
        <ele>60.6</ele>
        <time>2022-07-30T20:18:32Z</time>
      </trkpt>
      <trkpt lat="49.88087" lon="2.27966">
        <ele>60.6</ele>
        <time>2022-07-30T20:18:33Z</time>
      </trkpt>
      <trkpt lat="49.88087" lon="2.27966">
        <ele>60.6</ele>
        <time>2022-07-30T20:18:34Z</time>
      </trkpt>
      <trkpt lat="49.88087" lon="2.27966">
        <ele>60.6</ele>
        <time>2022-07-30T20:18:35Z</time>
      </trkpt>
      <trkpt lat="49.88087" lon="2.27966">
        <ele>60.6</ele>
        <time>2022-07-30T20:18:36Z</time>
      </trkpt>
      <trkpt lat="49.88087" lon="2.27966">
        <ele>60.6</ele>
        <time>2022-07-30T20:18:37Z</time>
      </trkpt>
      <trkpt lat="49.88087" lon="2.27966">
        <ele>60.6</ele>
        <time>2022-07-30T20:18:38Z</time>
      </trkpt>
      <trkpt lat="49.88087" lon="2.27966">
        <ele>60.6</ele>
        <time>2022-07-30T20:18:39Z</time>
      </trkpt>
      <trkpt lat="49.88087" lon="2.27966">
        <ele>60.6</ele>
        <time>2022-07-30T20:18:40Z</time>
      </trkpt>
      <trkpt lat="49.88087" lon="2.27966">
        <ele>60.6</ele>
        <time>2022-07-30T20:18:41Z</time>
      </trkpt>
      <trkpt lat="49.88087" lon="2.27966">
        <ele>60.6</ele>
        <time>2022-07-30T20:18:42Z</time>
      </trkpt>
      <trkpt lat="49.88087" lon="2.27966">
        <ele>60.6</ele>
        <time>2022-07-30T20:18:43Z</time>
      </trkpt>
      <trkpt lat="49.88087" lon="2.27966">
        <ele>60.6</ele>
        <time>2022-07-30T20:18:44Z</time>
      </trkpt>
      <trkpt lat="49.88087" lon="2.27966">
        <ele>60.6</ele>
        <time>2022-07-30T20:18:45Z</time>
      </trkpt>
      <trkpt lat="49.88087" lon="2.27966">
        <ele>60.6</ele>
        <time>2022-07-30T20:18:46Z</time>
      </trkpt>
      <trkpt lat="49.88087" lon="2.27966">
        <ele>60.6</ele>
        <time>2022-07-30T20:18:47Z</time>
      </trkpt>
      <trkpt lat="49.88087" lon="2.27966">
        <ele>60.6</ele>
        <time>2022-07-30T20:18:48Z</time>
      </trkpt>
      <trkpt lat="49.88087" lon="2.27966">
        <ele>60.6</ele>
        <time>2022-07-30T20:18:49Z</time>
      </trkpt>
      <trkpt lat="49.88087" lon="2.27966">
        <ele>60.6</ele>
        <time>2022-07-30T20:18:50Z</time>
      </trkpt>
      <trkpt lat="49.88087" lon="2.27966">
        <ele>60.6</ele>
        <time>2022-07-30T20:18:51Z</time>
      </trkpt>
      <trkpt lat="49.88087" lon="2.27966">
        <ele>60.6</ele>
        <time>2022-07-30T20:18:52Z</time>
      </trkpt>
      <trkpt lat="49.88087" lon="2.27966">
        <ele>60.6</ele>
        <time>2022-07-30T20:18:53Z</time>
      </trkpt>
      <trkpt lat="49.88087" lon="2.27966">
        <ele>60.6</ele>
        <time>2022-07-30T20:18:54Z</time>
      </trkpt>
      <trkpt lat="49.88087" lon="2.27966">
        <ele>60.6</ele>
        <time>2022-07-30T20:18:55Z</time>
      </trkpt>
      <trkpt lat="49.88087" lon="2.27966">
        <ele>60.6</ele>
        <time>2022-07-30T20:18:56Z</time>
      </trkpt>
      <trkpt lat="49.88087" lon="2.27966">
        <ele>60.6</ele>
        <time>2022-07-30T20:18:57Z</time>
      </trkpt>
      <trkpt lat="49.88087" lon="2.27966">
        <ele>60.6</ele>
        <time>2022-07-30T20:18:58Z</time>
      </trkpt>
      <trkpt lat="49.88087" lon="2.27966">
        <ele>60.6</ele>
        <time>2022-07-30T20:18:59Z</time>
      </trkpt>
      <trkpt lat="49.88087" lon="2.27966">
        <ele>60.6</ele>
        <time>2022-07-30T20:19:00Z</time>
      </trkpt>
      <trkpt lat="49.88087" lon="2.27966">
        <ele>60.6</ele>
        <time>2022-07-30T20:19:01Z</time>
      </trkpt>
      <trkpt lat="49.88087" lon="2.27966">
        <ele>60.6</ele>
        <time>2022-07-30T20:19:02Z</time>
      </trkpt>
      <trkpt lat="49.88087" lon="2.27966">
        <ele>60.6</ele>
        <time>2022-07-30T20:19:03Z</time>
      </trkpt>
      <trkpt lat="49.88087" lon="2.27966">
        <ele>60.6</ele>
        <time>2022-07-30T20:19:04Z</time>
      </trkpt>
      <trkpt lat="49.88087" lon="2.27966">
        <ele>60.6</ele>
        <time>2022-07-30T20:19:05Z</time>
      </trkpt>
      <trkpt lat="49.88087" lon="2.27966">
        <ele>60.6</ele>
        <time>2022-07-30T20:19:06Z</time>
      </trkpt>
      <trkpt lat="49.88087" lon="2.27966">
        <ele>60.6</ele>
        <time>2022-07-30T20:19:07Z</time>
      </trkpt>
      <trkpt lat="49.88087" lon="2.27966">
        <ele>60.6</ele>
        <time>2022-07-30T20:19:08Z</time>
      </trkpt>
      <trkpt lat="49.88087" lon="2.27966">
        <ele>60.6</ele>
        <time>2022-07-30T20:19:09Z</time>
      </trkpt>
      <trkpt lat="49.88087" lon="2.27966">
        <ele>60.6</ele>
        <time>2022-07-30T20:19:10Z</time>
      </trkpt>
      <trkpt lat="49.88087" lon="2.27966">
        <ele>60.6</ele>
        <time>2022-07-30T20:19:11Z</time>
      </trkpt>
      <trkpt lat="49.88087" lon="2.27966">
        <ele>60.6</ele>
        <time>2022-07-30T20:19:12Z</time>
      </trkpt>
      <trkpt lat="49.88087" lon="2.27966">
        <ele>60.6</ele>
        <time>2022-07-30T20:19:13Z</time>
      </trkpt>
      <trkpt lat="49.88087" lon="2.27966">
        <ele>60.6</ele>
        <time>2022-07-30T20:19:14Z</time>
      </trkpt>
      <trkpt lat="49.88087" lon="2.27966">
        <ele>60.6</ele>
        <time>2022-07-30T20:19:15Z</time>
      </trkpt>
      <trkpt lat="49.88087" lon="2.27966">
        <ele>60.6</ele>
        <time>2022-07-30T20:19:16Z</time>
      </trkpt>
      <trkpt lat="49.88087" lon="2.27966">
        <ele>60.6</ele>
        <time>2022-07-30T20:19:17Z</time>
      </trkpt>
      <trkpt lat="49.88087" lon="2.27966">
        <ele>60.6</ele>
        <time>2022-07-30T20:19:18Z</time>
      </trkpt>
      <trkpt lat="49.88087" lon="2.27966">
        <ele>60.6</ele>
        <time>2022-07-30T20:19:19Z</time>
      </trkpt>
      <trkpt lat="49.88087" lon="2.27966">
        <ele>60.6</ele>
        <time>2022-07-30T20:19:20Z</time>
      </trkpt>
      <trkpt lat="49.88087" lon="2.27966">
        <ele>60.6</ele>
        <time>2022-07-30T20:19:21Z</time>
      </trkpt>
      <trkpt lat="49.88087" lon="2.27966">
        <ele>60.6</ele>
        <time>2022-07-30T20:19:22Z</time>
      </trkpt>
      <trkpt lat="49.88087" lon="2.27966">
        <ele>60.6</ele>
        <time>2022-07-30T20:19:23Z</time>
      </trkpt>
      <trkpt lat="49.88087" lon="2.27966">
        <ele>60.6</ele>
        <time>2022-07-30T20:19:24Z</time>
      </trkpt>
      <trkpt lat="49.88087" lon="2.27966">
        <ele>60.6</ele>
        <time>2022-07-30T20:19:25Z</time>
      </trkpt>
      <trkpt lat="49.88087" lon="2.27966">
        <ele>60.6</ele>
        <time>2022-07-30T20:19:26Z</time>
      </trkpt>
      <trkpt lat="49.88087" lon="2.27966">
        <ele>60.6</ele>
        <time>2022-07-30T20:19:27Z</time>
      </trkpt>
      <trkpt lat="49.88087" lon="2.27966">
        <ele>60.6</ele>
        <time>2022-07-30T20:19:28Z</time>
      </trkpt>
      <trkpt lat="49.88087" lon="2.27966">
        <ele>60.6</ele>
        <time>2022-07-30T20:19:29Z</time>
      </trkpt>
      <trkpt lat="49.88087" lon="2.27966">
        <ele>60.6</ele>
        <time>2022-07-30T20:19:30Z</time>
      </trkpt>
      <trkpt lat="49.88087" lon="2.27966">
        <ele>60.6</ele>
        <time>2022-07-30T20:19:31Z</time>
      </trkpt>
      <trkpt lat="49.88087" lon="2.27966">
        <ele>60.6</ele>
        <time>2022-07-30T20:19:32Z</time>
      </trkpt>
      <trkpt lat="49.88087" lon="2.27966">
        <ele>60.6</ele>
        <time>2022-07-30T20:19:33Z</time>
      </trkpt>
      <trkpt lat="49.88087" lon="2.27966">
        <ele>60.6</ele>
        <time>2022-07-30T20:19:34Z</time>
      </trkpt>
      <trkpt lat="49.88087" lon="2.27966">
        <ele>60.6</ele>
        <time>2022-07-30T20:19:35Z</time>
      </trkpt>
      <trkpt lat="49.88087" lon="2.27966">
        <ele>60.6</ele>
        <time>2022-07-30T20:19:36Z</time>
      </trkpt>
      <trkpt lat="49.88087" lon="2.27966">
        <ele>60.6</ele>
        <time>2022-07-30T20:19:37Z</time>
      </trkpt>
      <trkpt lat="49.88087" lon="2.27966">
        <ele>60.6</ele>
        <time>2022-07-30T20:19:38Z</time>
      </trkpt>
      <trkpt lat="49.88087" lon="2.27966">
        <ele>60.6</ele>
        <time>2022-07-30T20:19:39Z</time>
      </trkpt>
      <trkpt lat="49.88087" lon="2.27966">
        <ele>60.6</ele>
        <time>2022-07-30T20:19:40Z</time>
      </trkpt>
      <trkpt lat="49.88087" lon="2.27966">
        <ele>60.6</ele>
        <time>2022-07-30T20:19:41Z</time>
      </trkpt>
      <trkpt lat="49.88087" lon="2.27966">
        <ele>60.6</ele>
        <time>2022-07-30T20:19:42Z</time>
      </trkpt>
      <trkpt lat="49.88087" lon="2.27966">
        <ele>60.6</ele>
        <time>2022-07-30T20:19:43Z</time>
      </trkpt>
      <trkpt lat="49.88087" lon="2.27966">
        <ele>60.6</ele>
        <time>2022-07-30T20:19:44Z</time>
      </trkpt>
      <trkpt lat="49.88087" lon="2.27966">
        <ele>60.6</ele>
        <time>2022-07-30T20:19:45Z</time>
      </trkpt>
      <trkpt lat="49.88087" lon="2.27966">
        <ele>60.6</ele>
        <time>2022-07-30T20:19:46Z</time>
      </trkpt>
      <trkpt lat="49.88087" lon="2.27966">
        <ele>60.6</ele>
        <time>2022-07-30T20:19:47Z</time>
      </trkpt>
      <trkpt lat="49.88087" lon="2.27966">
        <ele>60.6</ele>
        <time>2022-07-30T20:19:48Z</time>
      </trkpt>
      <trkpt lat="49.88087" lon="2.27966">
        <ele>60.6</ele>
        <time>2022-07-30T20:19:49Z</time>
      </trkpt>
      <trkpt lat="49.88087" lon="2.27966">
        <ele>60.6</ele>
        <time>2022-07-30T20:19:50Z</time>
      </trkpt>
      <trkpt lat="49.88087" lon="2.27966">
        <ele>60.6</ele>
        <time>2022-07-30T20:19:51Z</time>
      </trkpt>
      <trkpt lat="49.88087" lon="2.27966">
        <ele>60.6</ele>
        <time>2022-07-30T20:19:52Z</time>
      </trkpt>
      <trkpt lat="49.88087" lon="2.27966">
        <ele>60.6</ele>
        <time>2022-07-30T20:19:53Z</time>
      </trkpt>
      <trkpt lat="49.88087" lon="2.27966">
        <ele>60.6</ele>
        <time>2022-07-30T20:19:54Z</time>
      </trkpt>
      <trkpt lat="49.88087" lon="2.27966">
        <ele>60.6</ele>
        <time>2022-07-30T20:19:55Z</time>
      </trkpt>
      <trkpt lat="49.88087" lon="2.27966">
        <ele>60.6</ele>
        <time>2022-07-30T20:19:56Z</time>
      </trkpt>
      <trkpt lat="49.88087" lon="2.27966">
        <ele>60.6</ele>
        <time>2022-07-30T20:19:57Z</time>
      </trkpt>
      <trkpt lat="49.88087" lon="2.27966">
        <ele>60.6</ele>
        <time>2022-07-30T20:19:58Z</time>
      </trkpt>
      <trkpt lat="49.88087" lon="2.27966">
        <ele>60.6</ele>
        <time>2022-07-30T20:19:59Z</time>
      </trkpt>
      <trkpt lat="49.88087" lon="2.27966">
        <ele>60.6</ele>
        <time>2022-07-30T20:20:00Z</time>
      </trkpt>
      <trkpt lat="49.88087" lon="2.27966">
        <ele>60.6</ele>
        <time>2022-07-30T20:20:01Z</time>
      </trkpt>
      <trkpt lat="49.88087" lon="2.27966">
        <ele>60.6</ele>
        <time>2022-07-30T20:20:02Z</time>
      </trkpt>
      <trkpt lat="49.88087" lon="2.27966">
        <ele>60.6</ele>
        <time>2022-07-30T20:20:03Z</time>
      </trkpt>
      <trkpt lat="49.88087" lon="2.27966">
        <ele>60.6</ele>
        <time>2022-07-30T20:20:04Z</time>
      </trkpt>
      <trkpt lat="49.88087" lon="2.27966">
        <ele>60.6</ele>
        <time>2022-07-30T20:20:05Z</time>
      </trkpt>
      <trkpt lat="49.88087" lon="2.27966">
        <ele>60.6</ele>
        <time>2022-07-30T20:20:06Z</time>
      </trkpt>
      <trkpt lat="49.88087" lon="2.27966">
        <ele>60.6</ele>
        <time>2022-07-30T20:20:07Z</time>
      </trkpt>
      <trkpt lat="49.88087" lon="2.27966">
        <ele>60.6</ele>
        <time>2022-07-30T20:20:08Z</time>
      </trkpt>
      <trkpt lat="49.88087" lon="2.27966">
        <ele>60.6</ele>
        <time>2022-07-30T20:20:09Z</time>
      </trkpt>
      <trkpt lat="49.88087" lon="2.27966">
        <ele>60.6</ele>
        <time>2022-07-30T20:20:10Z</time>
      </trkpt>
      <trkpt lat="49.88087" lon="2.27966">
        <ele>60.6</ele>
        <time>2022-07-30T20:20:11Z</time>
      </trkpt>
      <trkpt lat="49.88087" lon="2.27966">
        <ele>60.6</ele>
        <time>2022-07-30T20:20:12Z</time>
      </trkpt>
      <trkpt lat="49.88087" lon="2.27966">
        <ele>60.6</ele>
        <time>2022-07-30T20:20:13Z</time>
      </trkpt>
      <trkpt lat="49.88087" lon="2.27966">
        <ele>60.6</ele>
        <time>2022-07-30T20:20:14Z</time>
      </trkpt>
      <trkpt lat="49.88087" lon="2.27966">
        <ele>60.6</ele>
        <time>2022-07-30T20:20:15Z</time>
      </trkpt>
      <trkpt lat="49.88087" lon="2.27966">
        <ele>60.6</ele>
        <time>2022-07-30T20:20:16Z</time>
      </trkpt>
      <trkpt lat="49.88087" lon="2.27966">
        <ele>60.6</ele>
        <time>2022-07-30T20:20:17Z</time>
      </trkpt>
      <trkpt lat="49.88087" lon="2.27966">
        <ele>60.6</ele>
        <time>2022-07-30T20:20:18Z</time>
      </trkpt>
      <trkpt lat="49.88087" lon="2.27966">
        <ele>60.6</ele>
        <time>2022-07-30T20:20:19Z</time>
      </trkpt>
      <trkpt lat="49.88087" lon="2.27966">
        <ele>60.6</ele>
        <time>2022-07-30T20:20:20Z</time>
      </trkpt>
      <trkpt lat="49.88087" lon="2.27966">
        <ele>60.6</ele>
        <time>2022-07-30T20:20:21Z</time>
      </trkpt>
      <trkpt lat="49.88087" lon="2.27966">
        <ele>60.6</ele>
        <time>2022-07-30T20:20:22Z</time>
      </trkpt>
      <trkpt lat="49.88087" lon="2.27966">
        <ele>60.6</ele>
        <time>2022-07-30T20:20:23Z</time>
      </trkpt>
      <trkpt lat="49.88087" lon="2.27966">
        <ele>60.6</ele>
        <time>2022-07-30T20:20:24Z</time>
      </trkpt>
      <trkpt lat="49.88087" lon="2.27966">
        <ele>60.6</ele>
        <time>2022-07-30T20:20:25Z</time>
      </trkpt>
      <trkpt lat="49.88087" lon="2.27966">
        <ele>60.6</ele>
        <time>2022-07-30T20:20:26Z</time>
      </trkpt>
      <trkpt lat="49.88087" lon="2.27966">
        <ele>60.6</ele>
        <time>2022-07-30T20:20:27Z</time>
      </trkpt>
      <trkpt lat="49.88087" lon="2.27966">
        <ele>60.6</ele>
        <time>2022-07-30T20:20:28Z</time>
      </trkpt>
      <trkpt lat="49.88087" lon="2.27966">
        <ele>60.6</ele>
        <time>2022-07-30T20:20:29Z</time>
      </trkpt>
      <trkpt lat="49.88087" lon="2.27966">
        <ele>60.6</ele>
        <time>2022-07-30T20:20:30Z</time>
      </trkpt>
      <trkpt lat="49.88087" lon="2.27966">
        <ele>60.6</ele>
        <time>2022-07-30T20:20:31Z</time>
      </trkpt>
      <trkpt lat="49.88087" lon="2.27966">
        <ele>60.6</ele>
        <time>2022-07-30T20:20:32Z</time>
      </trkpt>
      <trkpt lat="49.88087" lon="2.27966">
        <ele>60.6</ele>
        <time>2022-07-30T20:20:33Z</time>
      </trkpt>
      <trkpt lat="49.88087" lon="2.27966">
        <ele>60.6</ele>
        <time>2022-07-30T20:20:34Z</time>
      </trkpt>
      <trkpt lat="49.88087" lon="2.27966">
        <ele>60.6</ele>
        <time>2022-07-30T20:20:35Z</time>
      </trkpt>
      <trkpt lat="49.88087" lon="2.27966">
        <ele>60.6</ele>
        <time>2022-07-30T20:20:36Z</time>
      </trkpt>
      <trkpt lat="49.88087" lon="2.27966">
        <ele>60.6</ele>
        <time>2022-07-30T20:20:37Z</time>
      </trkpt>
      <trkpt lat="49.88087" lon="2.27966">
        <ele>60.6</ele>
        <time>2022-07-30T20:20:38Z</time>
      </trkpt>
      <trkpt lat="49.88087" lon="2.27966">
        <ele>60.6</ele>
        <time>2022-07-30T20:20:39Z</time>
      </trkpt>
      <trkpt lat="49.88087" lon="2.27966">
        <ele>60.6</ele>
        <time>2022-07-30T20:20:40Z</time>
      </trkpt>
      <trkpt lat="49.88087" lon="2.27966">
        <ele>60.6</ele>
        <time>2022-07-30T20:20:41Z</time>
      </trkpt>
      <trkpt lat="49.88087" lon="2.27966">
        <ele>60.6</ele>
        <time>2022-07-30T20:20:42Z</time>
      </trkpt>
      <trkpt lat="49.88087" lon="2.27966">
        <ele>60.6</ele>
        <time>2022-07-30T20:20:43Z</time>
      </trkpt>
      <trkpt lat="49.88087" lon="2.27966">
        <ele>60.6</ele>
        <time>2022-07-30T20:20:44Z</time>
      </trkpt>
      <trkpt lat="49.88087" lon="2.27966">
        <ele>60.6</ele>
        <time>2022-07-30T20:20:45Z</time>
      </trkpt>
      <trkpt lat="49.88087" lon="2.27966">
        <ele>60.6</ele>
        <time>2022-07-30T20:20:46Z</time>
      </trkpt>
      <trkpt lat="49.88087" lon="2.27966">
        <ele>60.6</ele>
        <time>2022-07-30T20:20:47Z</time>
      </trkpt>
      <trkpt lat="49.88087" lon="2.27966">
        <ele>60.6</ele>
        <time>2022-07-30T20:20:48Z</time>
      </trkpt>
      <trkpt lat="49.88087" lon="2.27966">
        <ele>60.6</ele>
        <time>2022-07-30T20:20:49Z</time>
      </trkpt>
      <trkpt lat="49.88087" lon="2.27966">
        <ele>60.6</ele>
        <time>2022-07-30T20:20:50Z</time>
      </trkpt>
      <trkpt lat="49.88087" lon="2.27966">
        <ele>60.6</ele>
        <time>2022-07-30T20:20:51Z</time>
      </trkpt>
      <trkpt lat="49.88087" lon="2.27966">
        <ele>60.6</ele>
        <time>2022-07-30T20:20:52Z</time>
      </trkpt>
      <trkpt lat="49.88087" lon="2.27966">
        <ele>60.7</ele>
        <time>2022-07-30T20:20:53Z</time>
      </trkpt>
      <trkpt lat="49.88087" lon="2.27966">
        <ele>60.7</ele>
        <time>2022-07-30T20:20:54Z</time>
      </trkpt>
      <trkpt lat="49.88087" lon="2.27966">
        <ele>60.7</ele>
        <time>2022-07-30T20:20:55Z</time>
      </trkpt>
      <trkpt lat="49.88087" lon="2.27966">
        <ele>60.7</ele>
        <time>2022-07-30T20:20:56Z</time>
      </trkpt>
      <trkpt lat="49.88087" lon="2.27966">
        <ele>60.7</ele>
        <time>2022-07-30T20:20:57Z</time>
      </trkpt>
      <trkpt lat="49.88087" lon="2.27965">
        <ele>60.7</ele>
        <time>2022-07-30T20:20:58Z</time>
      </trkpt>
      <trkpt lat="49.88086" lon="2.27965">
        <ele>60.7</ele>
        <time>2022-07-30T20:20:59Z</time>
      </trkpt>
      <trkpt lat="49.88086" lon="2.27966">
        <ele>60.7</ele>
        <time>2022-07-30T20:21:00Z</time>
      </trkpt>
      <trkpt lat="49.88086" lon="2.27966">
        <ele>60.7</ele>
        <time>2022-07-30T20:21:02Z</time>
      </trkpt>
      <trkpt lat="49.88085" lon="2.27967">
        <ele>60.7</ele>
        <time>2022-07-30T20:21:03Z</time>
      </trkpt>
      <trkpt lat="49.88085" lon="2.27966">
        <ele>60.7</ele>
        <time>2022-07-30T20:21:04Z</time>
      </trkpt>
      <trkpt lat="49.88085" lon="2.27966">
        <ele>60.7</ele>
        <time>2022-07-30T20:21:05Z</time>
      </trkpt>
      <trkpt lat="49.88084" lon="2.27966">
        <ele>60.7</ele>
        <time>2022-07-30T20:21:06Z</time>
      </trkpt>
      <trkpt lat="49.88084" lon="2.27967">
        <ele>60.7</ele>
        <time>2022-07-30T20:21:07Z</time>
      </trkpt>
      <trkpt lat="49.88083" lon="2.27967">
        <ele>60.7</ele>
        <time>2022-07-30T20:21:08Z</time>
      </trkpt>
      <trkpt lat="49.88083" lon="2.27968">
        <ele>60.7</ele>
        <time>2022-07-30T20:21:10Z</time>
      </trkpt>
      <trkpt lat="49.88082" lon="2.27968">
        <ele>60.7</ele>
        <time>2022-07-30T20:21:11Z</time>
      </trkpt>
      <trkpt lat="49.88081" lon="2.27969">
        <ele>60.7</ele>
        <time>2022-07-30T20:21:12Z</time>
      </trkpt>
      <trkpt lat="49.88081" lon="2.2797">
        <ele>60.7</ele>
        <time>2022-07-30T20:21:13Z</time>
      </trkpt>
      <trkpt lat="49.88081" lon="2.27972">
        <ele>60.8</ele>
        <time>2022-07-30T20:21:15Z</time>
      </trkpt>
      <trkpt lat="49.88081" lon="2.27973">
        <ele>60.8</ele>
        <time>2022-07-30T20:21:16Z</time>
      </trkpt>
      <trkpt lat="49.88082" lon="2.27974">
        <ele>60.8</ele>
        <time>2022-07-30T20:21:17Z</time>
      </trkpt>
      <trkpt lat="49.88082" lon="2.27975">
        <ele>60.8</ele>
        <time>2022-07-30T20:21:18Z</time>
      </trkpt>
      <trkpt lat="49.88083" lon="2.27976">
        <ele>60.8</ele>
        <time>2022-07-30T20:21:19Z</time>
      </trkpt>
      <trkpt lat="49.88083" lon="2.27977">
        <ele>60.8</ele>
        <time>2022-07-30T20:21:20Z</time>
      </trkpt>
      <trkpt lat="49.88084" lon="2.27978">
        <ele>60.8</ele>
        <time>2022-07-30T20:21:21Z</time>
      </trkpt>
      <trkpt lat="49.88084" lon="2.27978">
        <ele>60.8</ele>
        <time>2022-07-30T20:21:23Z</time>
      </trkpt>
      <trkpt lat="49.88085" lon="2.2798">
        <ele>60.8</ele>
        <time>2022-07-30T20:21:25Z</time>
      </trkpt>
      <trkpt lat="49.88086" lon="2.2798">
        <ele>60.9</ele>
        <time>2022-07-30T20:21:26Z</time>
      </trkpt>
      <trkpt lat="49.88086" lon="2.2798">
        <ele>60.9</ele>
        <time>2022-07-30T20:21:27Z</time>
      </trkpt>
      <trkpt lat="49.88086" lon="2.2798">
        <ele>60.9</ele>
        <time>2022-07-30T20:21:28Z</time>
      </trkpt>
      <trkpt lat="49.88087" lon="2.27981">
        <ele>60.9</ele>
        <time>2022-07-30T20:21:30Z</time>
      </trkpt>
      <trkpt lat="49.88088" lon="2.27982">
        <ele>60.9</ele>
        <time>2022-07-30T20:21:31Z</time>
      </trkpt>
      <trkpt lat="49.88089" lon="2.27983">
        <ele>60.9</ele>
        <time>2022-07-30T20:21:32Z</time>
      </trkpt>
      <trkpt lat="49.88089" lon="2.27983">
        <ele>60.9</ele>
        <time>2022-07-30T20:21:33Z</time>
      </trkpt>
      <trkpt lat="49.8809" lon="2.27984">
        <ele>60.9</ele>
        <time>2022-07-30T20:21:34Z</time>
      </trkpt>
      <trkpt lat="49.88091" lon="2.27986">
        <ele>60.9</ele>
        <time>2022-07-30T20:21:35Z</time>
      </trkpt>
      <trkpt lat="49.88092" lon="2.27987">
        <ele>60.9</ele>
        <time>2022-07-30T20:21:37Z</time>
      </trkpt>
      <trkpt lat="49.88092" lon="2.27988">
        <ele>61</ele>
        <time>2022-07-30T20:21:38Z</time>
      </trkpt>
      <trkpt lat="49.88093" lon="2.27988">
        <ele>61</ele>
        <time>2022-07-30T20:21:39Z</time>
      </trkpt>
      <trkpt lat="49.88093" lon="2.27989">
        <ele>61</ele>
        <time>2022-07-30T20:21:40Z</time>
      </trkpt>
      <trkpt lat="49.88094" lon="2.27991">
        <ele>61</ele>
        <time>2022-07-30T20:21:41Z</time>
      </trkpt>
      <trkpt lat="49.88094" lon="2.27992">
        <ele>61</ele>
        <time>2022-07-30T20:21:42Z</time>
      </trkpt>
      <trkpt lat="49.88095" lon="2.27994">
        <ele>61</ele>
        <time>2022-07-30T20:21:44Z</time>
      </trkpt>
      <trkpt lat="49.88096" lon="2.27996">
        <ele>61</ele>
        <time>2022-07-30T20:21:45Z</time>
      </trkpt>
      <trkpt lat="49.88097" lon="2.27998">
        <ele>61</ele>
        <time>2022-07-30T20:21:46Z</time>
      </trkpt>
      <trkpt lat="49.88098" lon="2.27999">
        <ele>61.1</ele>
        <time>2022-07-30T20:21:47Z</time>
      </trkpt>
      <trkpt lat="49.88099" lon="2.28">
        <ele>61.1</ele>
        <time>2022-07-30T20:21:48Z</time>
      </trkpt>
      <trkpt lat="49.881" lon="2.28002">
        <ele>61.1</ele>
        <time>2022-07-30T20:21:49Z</time>
      </trkpt>
      <trkpt lat="49.88101" lon="2.28003">
        <ele>61.1</ele>
        <time>2022-07-30T20:21:51Z</time>
      </trkpt>
      <trkpt lat="49.88102" lon="2.28004">
        <ele>61.1</ele>
        <time>2022-07-30T20:21:52Z</time>
      </trkpt>
      <trkpt lat="49.88103" lon="2.28005">
        <ele>61.1</ele>
        <time>2022-07-30T20:21:53Z</time>
      </trkpt>
      <trkpt lat="49.88104" lon="2.28006">
        <ele>61.1</ele>
        <time>2022-07-30T20:21:54Z</time>
      </trkpt>
      <trkpt lat="49.88105" lon="2.28007">
        <ele>61.1</ele>
        <time>2022-07-30T20:21:55Z</time>
      </trkpt>
      <trkpt lat="49.88106" lon="2.28009">
        <ele>61.2</ele>
        <time>2022-07-30T20:21:56Z</time>
      </trkpt>
      <trkpt lat="49.88107" lon="2.28011">
        <ele>61.2</ele>
        <time>2022-07-30T20:21:57Z</time>
      </trkpt>
      <trkpt lat="49.88107" lon="2.28012">
        <ele>61.2</ele>
        <time>2022-07-30T20:21:59Z</time>
      </trkpt>
      <trkpt lat="49.88108" lon="2.28014">
        <ele>61.2</ele>
        <time>2022-07-30T20:22:00Z</time>
      </trkpt>
      <trkpt lat="49.88109" lon="2.28016">
        <ele>61.2</ele>
        <time>2022-07-30T20:22:01Z</time>
      </trkpt>
      <trkpt lat="49.8811" lon="2.28017">
        <ele>61.2</ele>
        <time>2022-07-30T20:22:02Z</time>
      </trkpt>
      <trkpt lat="49.88111" lon="2.28019">
        <ele>61.2</ele>
        <time>2022-07-30T20:22:03Z</time>
      </trkpt>
      <trkpt lat="49.88112" lon="2.28021">
        <ele>61.2</ele>
        <time>2022-07-30T20:22:04Z</time>
      </trkpt>
      <trkpt lat="49.88113" lon="2.28022">
        <ele>61.2</ele>
        <time>2022-07-30T20:22:06Z</time>
      </trkpt>
      <trkpt lat="49.88114" lon="2.28023">
        <ele>61.2</ele>
        <time>2022-07-30T20:22:07Z</time>
      </trkpt>
      <trkpt lat="49.88114" lon="2.28024">
        <ele>61.3</ele>
        <time>2022-07-30T20:22:08Z</time>
      </trkpt>
      <trkpt lat="49.88115" lon="2.28025">
        <ele>61.3</ele>
        <time>2022-07-30T20:22:09Z</time>
      </trkpt>
      <trkpt lat="49.88115" lon="2.28026">
        <ele>61.3</ele>
        <time>2022-07-30T20:22:10Z</time>
      </trkpt>
      <trkpt lat="49.88115" lon="2.28026">
        <ele>61.3</ele>
        <time>2022-07-30T20:22:11Z</time>
      </trkpt>
      <trkpt lat="49.88116" lon="2.28027">
        <ele>61.3</ele>
        <time>2022-07-30T20:22:12Z</time>
      </trkpt>
      <trkpt lat="49.88117" lon="2.28029">
        <ele>61.3</ele>
        <time>2022-07-30T20:22:14Z</time>
      </trkpt>
      <trkpt lat="49.88118" lon="2.2803">
        <ele>61.3</ele>
        <time>2022-07-30T20:22:15Z</time>
      </trkpt>
      <trkpt lat="49.88119" lon="2.2803">
        <ele>61.3</ele>
        <time>2022-07-30T20:22:16Z</time>
      </trkpt>
      <trkpt lat="49.8812" lon="2.28031">
        <ele>61.3</ele>
        <time>2022-07-30T20:22:17Z</time>
      </trkpt>
      <trkpt lat="49.88121" lon="2.28031">
        <ele>61.3</ele>
        <time>2022-07-30T20:22:19Z</time>
      </trkpt>
      <trkpt lat="49.88121" lon="2.28031">
        <ele>61.3</ele>
        <time>2022-07-30T20:22:20Z</time>
      </trkpt>
      <trkpt lat="49.88122" lon="2.2803">
        <ele>61.3</ele>
        <time>2022-07-30T20:22:21Z</time>
      </trkpt>
      <trkpt lat="49.88122" lon="2.2803">
        <ele>61.3</ele>
        <time>2022-07-30T20:22:22Z</time>
      </trkpt>
      <trkpt lat="49.88123" lon="2.28031">
        <ele>61.3</ele>
        <time>2022-07-30T20:22:23Z</time>
      </trkpt>
      <trkpt lat="49.88123" lon="2.28031">
        <ele>61.3</ele>
        <time>2022-07-30T20:22:24Z</time>
      </trkpt>
      <trkpt lat="49.88123" lon="2.28032">
        <ele>61.3</ele>
        <time>2022-07-30T20:22:26Z</time>
      </trkpt>
      <trkpt lat="49.88123" lon="2.28032">
        <ele>61.3</ele>
        <time>2022-07-30T20:22:27Z</time>
      </trkpt>
      <trkpt lat="49.88123" lon="2.28032">
        <ele>61.3</ele>
        <time>2022-07-30T20:22:28Z</time>
      </trkpt>
      <trkpt lat="49.88123" lon="2.28032">
        <ele>61.3</ele>
        <time>2022-07-30T20:22:29Z</time>
      </trkpt>
      <trkpt lat="49.88123" lon="2.28032">
        <ele>61.3</ele>
        <time>2022-07-30T20:22:30Z</time>
      </trkpt>
      <trkpt lat="49.88123" lon="2.28032">
        <ele>61.3</ele>
        <time>2022-07-30T20:22:31Z</time>
      </trkpt>
      <trkpt lat="49.88122" lon="2.28032">
        <ele>61.3</ele>
        <time>2022-07-30T20:22:32Z</time>
      </trkpt>
      <trkpt lat="49.88122" lon="2.28032">
        <ele>61.3</ele>
        <time>2022-07-30T20:22:33Z</time>
      </trkpt>
      <trkpt lat="49.88122" lon="2.28032">
        <ele>61.3</ele>
        <time>2022-07-30T20:22:34Z</time>
      </trkpt>
      <trkpt lat="49.88122" lon="2.28032">
        <ele>61.3</ele>
        <time>2022-07-30T20:22:35Z</time>
      </trkpt>
      <trkpt lat="49.88122" lon="2.28032">
        <ele>61.3</ele>
        <time>2022-07-30T20:22:36Z</time>
      </trkpt>
      <trkpt lat="49.88122" lon="2.28032">
        <ele>61.3</ele>
        <time>2022-07-30T20:22:37Z</time>
      </trkpt>
      <trkpt lat="49.88122" lon="2.28032">
        <ele>61.3</ele>
        <time>2022-07-30T20:22:38Z</time>
      </trkpt>
      <trkpt lat="49.88122" lon="2.28032">
        <ele>61.3</ele>
        <time>2022-07-30T20:22:39Z</time>
      </trkpt>
      <trkpt lat="49.88122" lon="2.28032">
        <ele>61.3</ele>
        <time>2022-07-30T20:22:40Z</time>
      </trkpt>
      <trkpt lat="49.88122" lon="2.28032">
        <ele>61.3</ele>
        <time>2022-07-30T20:22:41Z</time>
      </trkpt>
      <trkpt lat="49.88122" lon="2.28032">
        <ele>61.3</ele>
        <time>2022-07-30T20:22:42Z</time>
      </trkpt>
      <trkpt lat="49.88122" lon="2.28032">
        <ele>61.3</ele>
        <time>2022-07-30T20:22:43Z</time>
      </trkpt>
      <trkpt lat="49.88122" lon="2.28031">
        <ele>61.3</ele>
        <time>2022-07-30T20:22:44Z</time>
      </trkpt>
      <trkpt lat="49.88122" lon="2.28031">
        <ele>61.3</ele>
        <time>2022-07-30T20:22:45Z</time>
      </trkpt>
      <trkpt lat="49.88122" lon="2.28031">
        <ele>61.3</ele>
        <time>2022-07-30T20:22:46Z</time>
      </trkpt>
      <trkpt lat="49.88122" lon="2.28031">
        <ele>61.3</ele>
        <time>2022-07-30T20:22:47Z</time>
      </trkpt>
      <trkpt lat="49.88121" lon="2.28031">
        <ele>61.3</ele>
        <time>2022-07-30T20:22:48Z</time>
      </trkpt>
      <trkpt lat="49.88121" lon="2.28031">
        <ele>61.3</ele>
        <time>2022-07-30T20:22:49Z</time>
      </trkpt>
      <trkpt lat="49.88121" lon="2.28031">
        <ele>61.3</ele>
        <time>2022-07-30T20:22:50Z</time>
      </trkpt>
      <trkpt lat="49.88121" lon="2.28031">
        <ele>61.3</ele>
        <time>2022-07-30T20:22:51Z</time>
      </trkpt>
      <trkpt lat="49.88121" lon="2.28031">
        <ele>61.3</ele>
        <time>2022-07-30T20:22:52Z</time>
      </trkpt>
      <trkpt lat="49.88121" lon="2.28031">
        <ele>61.3</ele>
        <time>2022-07-30T20:22:53Z</time>
      </trkpt>
      <trkpt lat="49.88121" lon="2.28031">
        <ele>61.3</ele>
        <time>2022-07-30T20:22:54Z</time>
      </trkpt>
      <trkpt lat="49.88121" lon="2.28031">
        <ele>61.3</ele>
        <time>2022-07-30T20:22:55Z</time>
      </trkpt>
      <trkpt lat="49.88121" lon="2.28031">
        <ele>61.3</ele>
        <time>2022-07-30T20:22:56Z</time>
      </trkpt>
      <trkpt lat="49.88121" lon="2.28031">
        <ele>61.3</ele>
        <time>2022-07-30T20:22:57Z</time>
      </trkpt>
      <trkpt lat="49.88121" lon="2.28031">
        <ele>61.3</ele>
        <time>2022-07-30T20:22:58Z</time>
      </trkpt>
      <trkpt lat="49.88121" lon="2.28031">
        <ele>61.3</ele>
        <time>2022-07-30T20:22:59Z</time>
      </trkpt>
      <trkpt lat="49.88121" lon="2.28031">
        <ele>61.3</ele>
        <time>2022-07-30T20:23:00Z</time>
      </trkpt>
      <trkpt lat="49.88121" lon="2.28031">
        <ele>61.3</ele>
        <time>2022-07-30T20:23:01Z</time>
      </trkpt>
      <trkpt lat="49.88121" lon="2.28031">
        <ele>61.3</ele>
        <time>2022-07-30T20:23:02Z</time>
      </trkpt>
      <trkpt lat="49.88121" lon="2.28031">
        <ele>61.3</ele>
        <time>2022-07-30T20:23:03Z</time>
      </trkpt>
      <trkpt lat="49.88123" lon="2.28032">
        <ele>61.3</ele>
        <time>2022-07-30T20:23:04Z</time>
      </trkpt>
      <trkpt lat="49.88123" lon="2.28033">
        <ele>61.3</ele>
        <time>2022-07-30T20:23:05Z</time>
      </trkpt>
      <trkpt lat="49.88124" lon="2.28033">
        <ele>61.3</ele>
        <time>2022-07-30T20:23:06Z</time>
      </trkpt>
      <trkpt lat="49.88124" lon="2.28033">
        <ele>61.3</ele>
        <time>2022-07-30T20:23:07Z</time>
      </trkpt>
      <trkpt lat="49.88124" lon="2.28033">
        <ele>61.3</ele>
        <time>2022-07-30T20:23:08Z</time>
      </trkpt>
      <trkpt lat="49.88124" lon="2.28033">
        <ele>61.3</ele>
        <time>2022-07-30T20:23:09Z</time>
      </trkpt>
      <trkpt lat="49.88124" lon="2.28034">
        <ele>61.4</ele>
        <time>2022-07-30T20:23:10Z</time>
      </trkpt>
      <trkpt lat="49.88125" lon="2.28034">
        <ele>61.4</ele>
        <time>2022-07-30T20:23:12Z</time>
      </trkpt>
      <trkpt lat="49.88125" lon="2.28033">
        <ele>61.4</ele>
        <time>2022-07-30T20:23:13Z</time>
      </trkpt>
      <trkpt lat="49.88126" lon="2.28033">
        <ele>61.4</ele>
        <time>2022-07-30T20:23:14Z</time>
      </trkpt>
      <trkpt lat="49.88127" lon="2.28033">
        <ele>61.4</ele>
        <time>2022-07-30T20:23:15Z</time>
      </trkpt>
      <trkpt lat="49.88127" lon="2.28032">
        <ele>61.4</ele>
        <time>2022-07-30T20:23:17Z</time>
      </trkpt>
      <trkpt lat="49.88128" lon="2.28031">
        <ele>61.4</ele>
        <time>2022-07-30T20:23:18Z</time>
      </trkpt>
      <trkpt lat="49.88129" lon="2.28031">
        <ele>61.4</ele>
        <time>2022-07-30T20:23:19Z</time>
      </trkpt>
      <trkpt lat="49.8813" lon="2.2803">
        <ele>61.4</ele>
        <time>2022-07-30T20:23:20Z</time>
      </trkpt>
      <trkpt lat="49.8813" lon="2.28029">
        <ele>61.4</ele>
        <time>2022-07-30T20:23:21Z</time>
      </trkpt>
      <trkpt lat="49.88131" lon="2.28028">
        <ele>61.4</ele>
        <time>2022-07-30T20:23:23Z</time>
      </trkpt>
      <trkpt lat="49.88132" lon="2.28027">
        <ele>61.4</ele>
        <time>2022-07-30T20:23:24Z</time>
      </trkpt>
      <trkpt lat="49.88133" lon="2.28025">
        <ele>61.4</ele>
        <time>2022-07-30T20:23:25Z</time>
      </trkpt>
      <trkpt lat="49.88134" lon="2.28024">
        <ele>61.4</ele>
        <time>2022-07-30T20:23:26Z</time>
      </trkpt>
      <trkpt lat="49.88135" lon="2.28023">
        <ele>61.4</ele>
        <time>2022-07-30T20:23:27Z</time>
      </trkpt>
      <trkpt lat="49.88135" lon="2.28021">
        <ele>61.4</ele>
        <time>2022-07-30T20:23:28Z</time>
      </trkpt>
      <trkpt lat="49.88771" lon="2.26944">
        <ele>54.3</ele>
        <time>2022-07-30T21:04:50Z</time>
      </trkpt>
      <trkpt lat="49.88771" lon="2.26944">
        <ele>54.3</ele>
        <time>2022-07-30T21:04:51Z</time>
      </trkpt>
      <trkpt lat="49.88771" lon="2.26944">
        <ele>54.3</ele>
        <time>2022-07-30T21:04:52Z</time>
      </trkpt>
      <trkpt lat="49.88771" lon="2.26944">
        <ele>54.3</ele>
        <time>2022-07-30T21:04:53Z</time>
      </trkpt>
    </trkseg>
  </trk>
</gpx>